GFSSGP_prec_precacc12_015.txt.gz
Total_Precipitation_Accumulation
0.00 0.00 0.04 0.29 0.71 0.27 0.29 0.10 0.07 0.07 0.03 0.00 0.00 0.01 0.06 0.11 0.18 0.14 0.10 0.07 0.01 0.01 0.01 0.08 0.17 0.18 0.15 0.06 0.05 0.02 0.00 0.00 0.00 0.01 0.01 0.00 0.00 0.00 0.00 0.00 0.00 0.00 0.00 0.00 0.00 0.00 0.00 0.00 0.00
0.00 0.07 0.54 1.79 0.73 0.24 0.16 0.06 0.07 0.02 0.02 0.01 0.01 0.03 0.00 0.01 0.01 0.02 0.09 0.04 0.00 0.00 0.00 0.00 0.07 0.09 0.09 0.02 0.02 0.02 0.01 0.01 0.01 0.01 0.00 0.00 0.00 0.00 0.00 0.00 0.00 0.00 0.00 0.00 0.00 0.00 0.00 0.00 0.00
0.02 0.32 0.91 0.87 0.17 0.18 0.06 0.03 0.01 0.02 0.06 0.03 0.05 0.08 0.00 0.00 0.00 0.00 0.00 0.00 0.01 0.00 0.00 0.01 0.05 0.07 0.03 0.03 0.02 0.04 0.04 0.01 0.00 0.00 0.00 0.00 0.00 0.00 0.00 0.00 0.00 0.00 0.00 0.00 0.00 0.00 0.00 0.00 0.00
0.24 1.07 0.55 0.45 0.02 0.03 0.01 0.02 0.00 0.00 0.00 0.02 0.01 0.00 0.00 0.00 0.00 0.00 0.00 0.00 0.00 0.00 0.01 0.02 0.07 0.06 0.07 0.06 0.02 0.01 0.01 0.00 0.00 0.00 0.00 0.00 0.00 0.00 0.00 0.00 0.00 0.00 0.00 0.00 0.00 0.00 0.00 0.00 0.00
0.37 0.41 0.30 0.24 0.00 0.01 0.00 0.01 0.03 0.02 0.02 0.01 0.00 0.00 0.00 0.00 0.00 0.00 0.00 0.00 0.00 0.00 0.00 0.02 0.09 0.07 0.07 0.04 0.01 0.00 0.00 0.00 0.00 0.00 0.00 0.00 0.00 0.00 0.00 0.02 0.00 0.00 0.00 0.00 0.00 0.00 0.00 0.00 0.00
1.03 0.13 0.06 0.00 0.00 0.00 0.00 0.00 0.01 0.00 0.02 0.01 0.00 0.00 0.00 0.00 0.00 0.00 0.00 0.00 0.01 0.00 0.00 0.00 0.05 0.09 0.04 0.01 0.01 0.00 0.00 0.00 0.00 0.00 0.00 0.00 0.00 0.00 0.03 0.02 0.03 0.01 0.00 0.01 0.02 0.01 0.00 0.00 0.00
0.13 0.01 0.01 0.00 0.00 0.00 0.00 0.00 0.00 0.00 0.00 0.01 0.00 0.00 0.00 0.00 0.00 0.00 0.00 0.00 0.01 0.00 0.00 0.00 0.01 0.04 0.02 0.01 0.00 0.00 0.00 0.00 0.00 0.00 0.00 0.00 0.01 0.04 0.09 0.11 0.08 0.05 0.03 0.02 0.08 0.04 0.00 0.00 0.00
0.01 0.00 0.05 0.01 0.00 0.00 0.00 0.00 0.00 0.00 0.00 0.00 0.02 0.00 0.00 0.00 0.00 0.00 0.00 0.00 0.01 0.00 0.00 0.01 0.04 0.06 0.03 0.00 0.00 0.00 0.00 0.00 0.00 0.00 0.00 0.00 0.02 0.03 0.04 0.07 0.04 0.01 0.01 0.02 0.04 0.01 0.00 0.01 0.00
0.00 0.00 0.05 0.00 0.00 0.00 0.00 0.00 0.00 0.00 0.00 0.02 0.05 0.01 0.00 0.00 0.00 0.00 0.00 0.00 0.02 0.01 0.00 0.00 0.00 0.04 0.04 0.00 0.00 0.00 0.00 0.00 0.00 0.00 0.00 0.00 0.02 0.02 0.06 0.15 0.08 0.00 0.00 0.00 0.00 0.04 0.01 0.01 0.00
0.00 0.02 0.00 0.00 0.00 0.00 0.00 0.00 0.00 0.00 0.00 0.00 0.00 0.00 0.00 0.00 0.00 0.00 0.00 0.00 0.01 0.00 0.01 0.00 0.00 0.01 0.00 0.00 0.00 0.00 0.00 0.00 0.00 0.00 0.00 0.00 0.09 0.03 0.10 0.16 0.06 0.06 0.04 0.04 0.03 0.06 0.04 0.01 0.00
0.00 0.02 0.00 0.00 0.00 0.01 0.00 0.00 0.00 0.00 0.00 0.00 0.00 0.00 0.00 0.00 0.00 0.00 0.00 0.00 0.00 0.00 0.00 0.00 0.00 0.00 0.00 0.01 0.00 0.00 0.00 0.00 0.00 0.00 0.00 0.01 0.06 0.10 0.20 0.22 0.22 0.14 0.46 0.51 0.11 0.07 0.02 0.01 0.00
0.00 0.00 0.00 0.00 0.00 0.00 0.00 0.00 0.00 0.00 0.00 0.00 0.00 0.00 0.00 0.00 0.00 0.00 0.00 0.00 0.00 0.00 0.00 0.00 0.00 0.00 0.01 0.01 0.00 0.00 0.00 0.00 0.00 0.00 0.00 0.00 0.05 0.05 0.12 0.28 0.14 0.34 0.20 0.41 0.12 0.06 0.00 0.00 0.00
0.00 0.00 0.00 0.00 0.00 0.00 0.01 0.00 0.00 0.00 0.00 0.00 0.00 0.00 0.00 0.00 0.00 0.00 0.00 0.00 0.00 0.00 0.00 0.00 0.00 0.00 0.00 0.00 0.00 0.00 0.00 0.00 0.00 0.00 0.00 0.00 0.00 0.12 0.13 0.15 0.14 0.16 0.10 0.07 0.03 0.01 0.00 0.00 0.00
0.00 0.00 0.00 0.00 0.00 0.00 0.00 0.00 0.00 0.00 0.00 0.00 0.00 0.00 0.00 0.00 0.00 0.00 0.00 0.00 0.00 0.00 0.00 0.00 0.00 0.00 0.01 0.00 0.00 0.01 0.00 0.00 0.00 0.00 0.00 0.00 0.00 0.17 0.06 0.09 0.08 0.06 0.02 0.01 0.00 0.00 0.00 0.00 0.00
0.00 0.00 0.00 0.00 0.00 0.00 0.00 0.01 0.00 0.00 0.00 0.00 0.00 0.00 0.00 0.00 0.00 0.00 0.00 0.00 0.00 0.00 0.00 0.00 0.00 0.00 0.01 0.02 0.00 0.00 0.00 0.00 0.00 0.00 0.00 0.03 0.13 0.14 0.01 0.06 0.08 0.05 0.01 0.01 0.02 0.04 0.02 0.00 0.00
0.00 0.00 0.00 0.00 0.00 0.00 0.00 0.00 0.00 0.00 0.00 0.00 0.00 0.00 0.00 0.00 0.00 0.00 0.00 0.00 0.00 0.00 0.00 0.00 0.00 0.00 0.00 0.01 0.02 0.00 0.00 0.00 0.01 0.03 0.04 0.14 0.08 0.04 0.01 0.10 0.11 0.08 0.04 0.04 0.04 0.04 0.01 0.00 0.00
0.00 0.00 0.00 0.00 0.00 0.00 0.00 0.03 0.02 0.00 0.00 0.00 0.00 0.00 0.00 0.00 0.00 0.00 0.00 0.00 0.00 0.00 0.00 0.00 0.00 0.00 0.00 0.00 0.01 0.01 0.04 0.10 0.11 0.05 0.05 0.04 0.08 0.09 0.07 0.06 0.06 0.08 0.07 0.12 0.07 0.03 0.01 0.00 0.00
0.00 0.00 0.00 0.00 0.00 0.00 0.00 0.09 0.08 0.00 0.00 0.00 0.00 0.00 0.00 0.00 0.00 0.00 0.00 0.00 0.00 0.00 0.00 0.00 0.00 0.01 0.06 0.17 0.18 0.07 0.05 0.03 0.01 0.00 0.06 0.07 0.14 0.05 0.12 0.08 0.08 0.06 0.09 0.06 0.09 0.02 0.00 0.00 0.00
0.00 0.00 0.00 0.00 0.00 0.00 0.00 0.03 0.12 0.00 0.00 0.00 0.00 0.00 0.00 0.00 0.00 0.00 0.00 0.00 0.00 0.00 0.00 0.00 0.00 0.02 0.10 0.09 0.06 0.00 0.00 0.00 0.01 0.03 0.05 0.06 0.05 0.08 0.11 0.05 0.08 0.05 0.03 0.01 0.00 0.00 0.00 0.00 0.00
0.00 0.00 0.00 0.00 0.00 0.00 0.00 0.00 0.00 0.00 0.00 0.00 0.00 0.00 0.00 0.00 0.00 0.00 0.00 0.00 0.00 0.00 0.00 0.00 0.00 0.00 0.06 0.02 0.02 0.02 0.00 0.00 0.01 0.01 0.03 0.01 0.01 0.05 0.05 0.05 0.03 0.01 0.01 0.00 0.00 0.00 0.00 0.00 0.00
0.00 0.00 0.00 0.00 0.00 0.00 0.00 0.00 0.00 0.00 0.00 0.00 0.00 0.00 0.00 0.00 0.00 0.00 0.00 0.00 0.00 0.00 0.00 0.00 0.00 0.00 0.05 0.04 0.05 0.08 0.06 0.02 0.01 0.01 0.02 0.02 0.02 0.03 0.05 0.05 0.02 0.01 0.00 0.00 0.00 0.00 0.00 0.00 0.01
0.00 0.00 0.00 0.00 0.00 0.00 0.00 0.00 0.00 0.02 0.08 0.01 0.00 0.00 0.00 0.00 0.00 0.00 0.00 0.00 0.00 0.00 0.00 0.00 0.00 0.00 0.01 0.04 0.01 0.05 0.01 0.00 0.00 0.00 0.00 0.01 0.01 0.01 0.00 0.00 0.00 0.00 0.00 0.00 0.00 0.00 0.00 0.00 0.00
0.00 0.00 0.00 0.00 0.00 0.00 0.00 0.00 0.00 0.00 0.02 0.01 0.00 0.00 0.00 0.00 0.00 0.00 0.00 0.00 0.00 0.00 0.00 0.00 0.00 0.00 0.00 0.02 0.01 0.03 0.01 0.00 0.00 0.00 0.00 0.01 0.02 0.00 0.00 0.00 0.00 0.00 0.00 0.00 0.00 0.00 0.00 0.00 0.00
0.00 0.00 0.00 0.00 0.00 0.00 0.00 0.01 0.00 0.00 0.00 0.00 0.01 0.00 0.00 0.00 0.00 0.00 0.00 0.00 0.00 0.00 0.00 0.00 0.00 0.00 0.00 0.01 0.00 0.02 0.01 0.00 0.00 0.00 0.00 0.00 0.00 0.00 0.00 0.00 0.00 0.00 0.00 0.00 0.00 0.00 0.00 0.00 0.00
0.00 0.00 0.00 0.00 0.00 0.00 0.00 0.00 0.00 0.00 0.00 0.00 0.01 0.01 0.00 0.00 0.00 0.00 0.00 0.00 0.00 0.00 0.00 0.00 0.00 0.00 0.00 0.00 0.00 0.00 0.01 0.00 0.00 0.00 0.00 0.00 0.00 0.00 0.00 0.00 0.00 0.00 0.00 0.00 0.00 0.00 0.00 0.00 0.00
0.00 0.00 0.00 0.00 0.00 0.00 0.00 0.00 0.00 0.00 0.00 0.00 0.00 0.00 0.00 0.00 0.00 0.00 0.00 0.00 0.00 0.00 0.00 0.00 0.00 0.00 0.00 0.00 0.00 0.00 0.00 0.00 0.00 0.00 0.00 0.00 0.00 0.00 0.00 0.00 0.00 0.00 0.00 0.00 0.00 0.00 0.00 0.00 0.00
0.00 0.00 0.00 0.00 0.00 0.00 0.00 0.00 0.00 0.00 0.00 0.00 0.00 0.00 0.00 0.00 0.00 0.00 0.00 0.00 0.00 0.00 0.00 0.00 0.00 0.00 0.00 0.00 0.00 0.00 0.00 0.00 0.00 0.00 0.00 0.00 0.00 0.00 0.00 0.00 0.00 0.00 0.00 0.00 0.00 0.00 0.00 0.00 0.00
0.00 0.00 0.00 0.00 0.00 0.00 0.00 0.00 0.00 0.00 0.00 0.00 0.00 0.00 0.00 0.00 0.00 0.00 0.00 0.00 0.00 0.00 0.00 0.00 0.00 0.00 0.00 0.00 0.00 0.00 0.00 0.00 0.00 0.00 0.00 0.00 0.00 0.00 0.00 0.00 0.00 0.00 0.00 0.00 0.00 0.00 0.00 0.00 0.00
0.00 0.00 0.00 0.00 0.00 0.00 0.00 0.00 0.00 0.00 0.00 0.00 0.00 0.00 0.00 0.00 0.00 0.00 0.00 0.00 0.00 0.00 0.00 0.00 0.00 0.00 0.00 0.00 0.00 0.00 0.00 0.00 0.00 0.00 0.00 0.00 0.00 0.00 0.00 0.00 0.00 0.00 0.00 0.00 0.00 0.00 0.00 0.00 0.00
0.00 0.00 0.00 0.00 0.00 0.00 0.00 0.00 0.00 0.00 0.00 0.00 0.00 0.00 0.00 0.00 0.00 0.00 0.00 0.00 0.00 0.00 0.00 0.00 0.00 0.00 0.00 0.00 0.00 0.00 0.00 0.00 0.00 0.00 0.00 0.00 0.00 0.00 0.00 0.00 0.00 0.00 0.00 0.00 0.00 0.00 0.00 0.00 0.00

GFSSGP_prec_precacc12_018.txt.gz
Total_Precipitation_Accumulation
0.00 0.00 0.05 0.34 0.77 0.33 0.30 0.16 0.09 0.07 0.02 0.00 0.00 0.01 0.05 0.09 0.17 0.13 0.11 0.06 0.01 0.01 0.04 0.14 0.19 0.13 0.11 0.06 0.04 0.01 0.00 0.00 0.00 0.00 0.00 0.00 0.00 0.00 0.00 0.00 0.00 0.00 0.00 0.00 0.00 0.00 0.00 0.00 0.00
0.00 0.10 0.65 1.80 0.77 0.26 0.17 0.07 0.07 0.02 0.02 0.01 0.01 0.03 0.00 0.01 0.01 0.02 0.09 0.04 0.00 0.00 0.00 0.04 0.07 0.06 0.05 0.02 0.00 0.00 0.00 0.00 0.00 0.00 0.00 0.00 0.00 0.00 0.00 0.00 0.00 0.00 0.00 0.00 0.00 0.00 0.00 0.00 0.00
0.03 0.61 1.73 1.21 0.19 0.18 0.06 0.03 0.01 0.03 0.07 0.03 0.05 0.08 0.00 0.00 0.00 0.00 0.00 0.00 0.01 0.00 0.00 0.00 0.03 0.02 0.00 0.00 0.01 0.01 0.00 0.00 0.00 0.00 0.00 0.00 0.00 0.00 0.00 0.00 0.00 0.00 0.00 0.00 0.00 0.00 0.00 0.00 0.00
0.25 1.27 1.71 1.02 0.07 0.04 0.01 0.04 0.02 0.04 0.01 0.02 0.01 0.00 0.00 0.00 0.00 0.00 0.00 0.00 0.00 0.00 0.00 0.00 0.00 0.00 0.00 0.00 0.01 0.01 0.01 0.00 0.00 0.00 0.00 0.00 0.00 0.00 0.00 0.00 0.00 0.00 0.00 0.00 0.00 0.00 0.00 0.00 0.00
0.39 0.43 0.55 0.61 0.01 0.02 0.00 0.03 0.05 0.02 0.02 0.01 0.00 0.00 0.00 0.00 0.00 0.00 0.00 0.00 0.00 0.00 0.00 0.00 0.01 0.00 0.00 0.00 0.00 0.00 0.00 0.00 0.00 0.00 0.00 0.00 0.00 0.00 0.00 0.00 0.00 0.00 0.00 0.00 0.00 0.00 0.00 0.00 0.00
1.03 0.14 0.13 0.02 0.02 0.00 0.02 0.04 0.02 0.01 0.02 0.01 0.00 0.00 0.00 0.00 0.00 0.00 0.00 0.00 0.01 0.00 0.00 0.00 0.01 0.00 0.00 0.00 0.00 0.00 0.00 0.00 0.00 0.00 0.00 0.00 0.00 0.00 0.00 0.00 0.00 0.00 0.00 0.00 0.00 0.00 0.00 0.00 0.02
0.14 0.01 0.01 0.00 0.01 0.00 0.01 0.00 0.00 0.00 0.00 0.01 0.00 0.00 0.00 0.00 0.00 0.00 0.00 0.00 0.01 0.00 0.00 0.00 0.00 0.00 0.01 0.00 0.00 0.00 0.00 0.00 0.00 0.00 0.00 0.00 0.00 0.00 0.00 0.00 0.00 0.01 0.00 0.00 0.00 0.00 0.00 0.01 0.05
0.03 0.01 0.06 0.01 0.00 0.01 0.00 0.00 0.00 0.00 0.00 0.00 0.02 0.00 0.00 0.00 0.00 0.00 0.00 0.00 0.01 0.00 0.00 0.00 0.00 0.00 0.00 0.00 0.00 0.00 0.00 0.00 0.00 0.00 0.00 0.00 0.00 0.00 0.01 0.04 0.03 0.00 0.00 0.00 0.00 0.00 0.01 0.02 0.03
0.04 0.00 0.07 0.00 0.00 0.00 0.00 0.00 0.00 0.00 0.00 0.02 0.05 0.01 0.00 0.00 0.00 0.00 0.00 0.00 0.01 0.01 0.00 0.00 0.00 0.01 0.01 0.00 0.00 0.00 0.00 0.00 0.00 0.00 0.00 0.01 0.02 0.02 0.04 0.16 0.08 0.00 0.00 0.00 0.00 0.01 0.01 0.02 0.03
0.00 0.02 0.01 0.00 0.00 0.00 0.00 0.00 0.00 0.00 0.00 0.00 0.00 0.00 0.00 0.00 0.00 0.00 0.00 0.00 0.00 0.00 0.00 0.00 0.00 0.00 0.00 0.00 0.00 0.00 0.00 0.00 0.00 0.00 0.00 0.00 0.10 0.05 0.10 0.16 0.06 0.06 0.04 0.04 0.03 0.04 0.04 0.02 0.00
0.00 0.02 0.00 0.00 0.00 0.01 0.00 0.00 0.00 0.00 0.00 0.00 0.00 0.00 0.00 0.00 0.00 0.00 0.00 0.00 0.00 0.00 0.00 0.00 0.00 0.00 0.00 0.00 0.00 0.00 0.00 0.00 0.00 0.00 0.00 0.02 0.06 0.10 0.20 0.22 0.22 0.14 0.46 0.51 0.11 0.07 0.02 0.01 0.00
0.00 0.00 0.00 0.00 0.00 0.00 0.00 0.00 0.00 0.00 0.00 0.00 0.00 0.00 0.00 0.00 0.00 0.00 0.00 0.00 0.00 0.00 0.00 0.00 0.00 0.00 0.01 0.00 0.00 0.00 0.00 0.00 0.00 0.00 0.00 0.00 0.05 0.05 0.12 0.28 0.14 0.34 0.20 0.41 0.12 0.06 0.01 0.00 0.00
0.00 0.00 0.00 0.00 0.00 0.00 0.01 0.00 0.00 0.00 0.00 0.00 0.00 0.00 0.00 0.00 0.00 0.00 0.00 0.00 0.00 0.00 0.00 0.00 0.00 0.00 0.00 0.00 0.00 0.00 0.00 0.00 0.00 0.00 0.00 0.00 0.00 0.05 0.09 0.10 0.07 0.12 0.10 0.07 0.03 0.01 0.00 0.00 0.00
0.00 0.00 0.00 0.00 0.00 0.00 0.00 0.00 0.00 0.00 0.00 0.00 0.00 0.00 0.00 0.00 0.00 0.00 0.00 0.00 0.00 0.00 0.00 0.00 0.00 0.00 0.00 0.00 0.00 0.01 0.00 0.00 0.00 0.00 0.00 0.00 0.00 0.05 0.04 0.06 0.04 0.02 0.02 0.02 0.03 0.00 0.00 0.00 0.00
0.00 0.00 0.00 0.00 0.00 0.00 0.00 0.01 0.00 0.00 0.00 0.00 0.00 0.00 0.00 0.00 0.00 0.00 0.00 0.00 0.00 0.00 0.00 0.00 0.00 0.00 0.00 0.02 0.00 0.00 0.00 0.00 0.00 0.00 0.00 0.00 0.02 0.01 0.01 0.04 0.04 0.03 0.04 0.05 0.07 0.03 0.02 0.00 0.00
0.00 0.00 0.00 0.00 0.00 0.00 0.00 0.00 0.00 0.00 0.00 0.00 0.00 0.00 0.00 0.00 0.00 0.00 0.00 0.00 0.00 0.00 0.00 0.00 0.00 0.00 0.00 0.00 0.01 0.00 0.00 0.00 0.00 0.00 0.00 0.00 0.01 0.00 0.00 0.05 0.09 0.05 0.04 0.02 0.03 0.04 0.01 0.00 0.00
0.00 0.00 0.00 0.00 0.00 0.00 0.00 0.03 0.02 0.00 0.00 0.00 0.00 0.00 0.00 0.00 0.00 0.00 0.00 0.00 0.00 0.00 0.00 0.00 0.00 0.00 0.00 0.00 0.00 0.00 0.01 0.02 0.01 0.00 0.00 0.01 0.02 0.04 0.02 0.03 0.04 0.04 0.03 0.05 0.04 0.02 0.01 0.00 0.00
0.00 0.00 0.00 0.00 0.00 0.00 0.00 0.09 0.08 0.00 0.00 0.00 0.00 0.00 0.00 0.00 0.00 0.00 0.00 0.00 0.00 0.00 0.00 0.00 0.00 0.00 0.00 0.07 0.10 0.03 0.02 0.00 0.00 0.00 0.00 0.03 0.04 0.02 0.04 0.02 0.04 0.01 0.02 0.03 0.08 0.02 0.00 0.00 0.00
0.00 0.00 0.00 0.00 0.00 0.00 0.00 0.03 0.12 0.00 0.00 0.00 0.00 0.00 0.00 0.00 0.00 0.00 0.00 0.00 0.00 0.00 0.00 0.00 0.00 0.00 0.04 0.06 0.06 0.00 0.00 0.00 0.00 0.00 0.00 0.02 0.02 0.06 0.08 0.03 0.05 0.03 0.02 0.01 0.00 0.00 0.00 0.00 0.00
0.00 0.00 0.00 0.00 0.00 0.00 0.00 0.00 0.00 0.00 0.00 0.00 0.00 0.00 0.00 0.00 0.00 0.00 0.00 0.00 0.00 0.00 0.00 0.00 0.00 0.00 0.02 0.01 0.00 0.00 0.00 0.00 0.00 0.00 0.00 0.00 0.00 0.03 0.03 0.04 0.02 0.01 0.01 0.00 0.00 0.00 0.00 0.00 0.00
0.00 0.00 0.00 0.00 0.00 0.00 0.00 0.00 0.00 0.00 0.00 0.00 0.00 0.00 0.00 0.00 0.00 0.00 0.00 0.00 0.00 0.00 0.00 0.00 0.00 0.00 0.02 0.02 0.02 0.07 0.05 0.01 0.00 0.00 0.01 0.01 0.01 0.02 0.03 0.05 0.02 0.01 0.00 0.00 0.00 0.00 0.00 0.00 0.00
0.00 0.00 0.00 0.00 0.00 0.00 0.00 0.00 0.00 0.02 0.08 0.01 0.00 0.00 0.00 0.00 0.00 0.00 0.00 0.00 0.00 0.00 0.00 0.00 0.00 0.00 0.01 0.03 0.01 0.05 0.01 0.00 0.00 0.00 0.00 0.00 0.00 0.00 0.00 0.00 0.00 0.00 0.00 0.00 0.00 0.00 0.00 0.00 0.00
0.00 0.00 0.00 0.00 0.00 0.00 0.00 0.00 0.00 0.00 0.02 0.01 0.00 0.00 0.00 0.00 0.00 0.00 0.00 0.00 0.00 0.00 0.00 0.00 0.00 0.00 0.00 0.02 0.01 0.03 0.00 0.00 0.00 0.00 0.00 0.01 0.01 0.00 0.00 0.00 0.00 0.00 0.00 0.00 0.00 0.00 0.00 0.00 0.00
0.00 0.00 0.00 0.00 0.00 0.00 0.00 0.01 0.00 0.00 0.00 0.00 0.01 0.00 0.00 0.00 0.00 0.00 0.00 0.00 0.00 0.00 0.00 0.00 0.00 0.00 0.00 0.01 0.00 0.02 0.01 0.00 0.00 0.00 0.00 0.00 0.00 0.00 0.00 0.00 0.00 0.00 0.00 0.00 0.00 0.00 0.00 0.00 0.00
0.00 0.00 0.00 0.00 0.00 0.00 0.00 0.00 0.00 0.00 0.00 0.00 0.01 0.01 0.00 0.00 0.00 0.00 0.00 0.00 0.00 0.00 0.00 0.00 0.00 0.00 0.00 0.00 0.00 0.00 0.01 0.00 0.00 0.00 0.00 0.00 0.00 0.00 0.00 0.00 0.00 0.00 0.00 0.00 0.00 0.00 0.00 0.00 0.00
0.00 0.00 0.00 0.00 0.00 0.00 0.00 0.00 0.00 0.00 0.00 0.00 0.00 0.00 0.00 0.00 0.00 0.00 0.00 0.00 0.00 0.00 0.00 0.00 0.00 0.00 0.00 0.00 0.00 0.00 0.00 0.00 0.00 0.00 0.00 0.00 0.00 0.00 0.00 0.00 0.00 0.00 0.00 0.00 0.00 0.00 0.00 0.00 0.00
0.00 0.00 0.00 0.00 0.00 0.00 0.00 0.00 0.00 0.00 0.00 0.00 0.00 0.00 0.00 0.00 0.00 0.00 0.00 0.00 0.00 0.00 0.00 0.00 0.00 0.00 0.00 0.00 0.00 0.00 0.00 0.00 0.00 0.00 0.00 0.00 0.00 0.00 0.00 0.00 0.00 0.00 0.00 0.00 0.00 0.00 0.00 0.00 0.00
0.00 0.00 0.00 0.00 0.00 0.00 0.00 0.00 0.00 0.00 0.00 0.00 0.00 0.00 0.00 0.00 0.00 0.00 0.00 0.00 0.00 0.00 0.00 0.00 0.00 0.00 0.00 0.00 0.00 0.00 0.00 0.00 0.00 0.00 0.00 0.00 0.00 0.00 0.00 0.00 0.00 0.00 0.00 0.00 0.00 0.00 0.00 0.00 0.00
0.00 0.00 0.00 0.00 0.00 0.00 0.00 0.00 0.00 0.00 0.00 0.00 0.00 0.00 0.00 0.00 0.00 0.00 0.00 0.00 0.00 0.00 0.00 0.00 0.00 0.00 0.00 0.00 0.00 0.00 0.00 0.00 0.00 0.00 0.00 0.00 0.00 0.00 0.00 0.00 0.00 0.00 0.00 0.00 0.00 0.00 0.00 0.00 0.00
0.00 0.00 0.00 0.00 0.00 0.00 0.00 0.00 0.00 0.00 0.00 0.00 0.00 0.00 0.00 0.00 0.00 0.00 0.00 0.00 0.00 0.00 0.00 0.00 0.00 0.00 0.00 0.00 0.00 0.00 0.00 0.00 0.00 0.00 0.00 0.00 0.00 0.00 0.00 0.00 0.00 0.00 0.00 0.00 0.00 0.00 0.00 0.00 0.00

GFSSGP_prec_precacc12_021.txt.gz
Total_Precipitation_Accumulation
0.00 0.00 0.04 0.33 0.56 0.31 0.30 0.18 0.08 0.06 0.01 0.00 0.00 0.00 0.02 0.06 0.07 0.04 0.06 0.03 0.01 0.00 0.06 0.19 0.25 0.07 0.02 0.03 0.00 0.00 0.00 0.00 0.00 0.00 0.00 0.00 0.00 0.00 0.00 0.00 0.00 0.00 0.00 0.00 0.00 0.00 0.00 0.01 0.01
0.00 0.10 0.63 1.79 0.76 0.24 0.18 0.08 0.07 0.01 0.02 0.01 0.01 0.01 0.00 0.00 0.00 0.01 0.07 0.03 0.00 0.00 0.01 0.10 0.13 0.03 0.02 0.01 0.00 0.00 0.00 0.00 0.00 0.00 0.00 0.00 0.00 0.00 0.00 0.00 0.00 0.00 0.00 0.00 0.00 0.00 0.00 0.03 0.09
0.03 0.61 1.61 1.23 0.20 0.20 0.06 0.02 0.03 0.03 0.07 0.03 0.04 0.06 0.00 0.01 0.00 0.00 0.00 0.00 0.00 0.00 0.01 0.03 0.03 0.01 0.00 0.00 0.00 0.00 0.00 0.00 0.00 0.00 0.00 0.00 0.00 0.00 0.00 0.00 0.00 0.00 0.00 0.00 0.00 0.00 0.00 0.08 0.05
0.25 1.27 1.74 1.04 0.10 0.04 0.01 0.05 0.03 0.05 0.07 0.03 0.01 0.00 0.00 0.00 0.00 0.00 0.00 0.00 0.00 0.00 0.01 0.03 0.01 0.00 0.00 0.00 0.01 0.01 0.01 0.00 0.00 0.00 0.00 0.00 0.00 0.00 0.00 0.00 0.00 0.00 0.00 0.00 0.00 0.00 0.00 0.05 0.08
0.39 0.44 0.58 0.61 0.01 0.03 0.01 0.04 0.06 0.03 0.03 0.01 0.00 0.00 0.00 0.00 0.00 0.00 0.00 0.00 0.00 0.00 0.00 0.00 0.01 0.00 0.00 0.00 0.00 0.00 0.00 0.00 0.00 0.00 0.00 0.00 0.00 0.00 0.00 0.00 0.00 0.00 0.00 0.00 0.00 0.00 0.00 0.00 0.03
1.03 0.15 0.14 0.02 0.02 0.01 0.03 0.06 0.04 0.01 0.02 0.01 0.00 0.00 0.01 0.00 0.00 0.00 0.00 0.00 0.00 0.00 0.00 0.00 0.00 0.00 0.00 0.00 0.00 0.00 0.00 0.00 0.00 0.00 0.00 0.00 0.01 0.00 0.00 0.00 0.00 0.00 0.00 0.00 0.00 0.00 0.00 0.01 0.03
0.14 0.01 0.01 0.00 0.02 0.00 0.02 0.01 0.00 0.00 0.00 0.01 0.00 0.00 0.00 0.00 0.00 0.00 0.00 0.00 0.00 0.00 0.00 0.00 0.00 0.00 0.00 0.00 0.00 0.00 0.00 0.00 0.00 0.00 0.00 0.00 0.02 0.01 0.00 0.00 0.00 0.00 0.00 0.00 0.00 0.01 0.01 0.02 0.06
0.03 0.01 0.06 0.01 0.02 0.01 0.02 0.01 0.00 0.00 0.00 0.00 0.02 0.00 0.00 0.00 0.00 0.00 0.00 0.00 0.00 0.00 0.00 0.00 0.00 0.00 0.00 0.00 0.00 0.00 0.00 0.00 0.00 0.00 0.00 0.00 0.00 0.00 0.00 0.02 0.01 0.00 0.00 0.00 0.01 0.04 0.02 0.04 0.06
0.11 0.01 0.07 0.00 0.00 0.00 0.00 0.00 0.00 0.00 0.00 0.02 0.05 0.01 0.00 0.00 0.00 0.00 0.00 0.00 0.01 0.00 0.00 0.00 0.00 0.00 0.00 0.00 0.00 0.00 0.00 0.00 0.00 0.00 0.00 0.01 0.01 0.02 0.03 0.14 0.07 0.00 0.00 0.00 0.00 0.02 0.03 0.04 0.05
0.02 0.01 0.01 0.00 0.00 0.00 0.00 0.00 0.00 0.00 0.00 0.00 0.00 0.00 0.00 0.00 0.00 0.00 0.00 0.00 0.00 0.00 0.00 0.00 0.00 0.00 0.00 0.00 0.00 0.00 0.00 0.00 0.00 0.00 0.00 0.00 0.09 0.07 0.10 0.15 0.06 0.06 0.04 0.04 0.03 0.04 0.06 0.02 0.00
0.00 0.01 0.00 0.00 0.00 0.01 0.00 0.00 0.00 0.00 0.00 0.00 0.00 0.00 0.00 0.00 0.00 0.00 0.00 0.00 0.00 0.00 0.00 0.00 0.00 0.00 0.00 0.00 0.00 0.00 0.00 0.00 0.00 0.00 0.00 0.02 0.07 0.14 0.20 0.22 0.22 0.14 0.46 0.45 0.10 0.07 0.02 0.01 0.00
0.00 0.00 0.00 0.00 0.00 0.00 0.00 0.00 0.00 0.00 0.00 0.00 0.00 0.00 0.00 0.00 0.00 0.00 0.00 0.00 0.00 0.00 0.00 0.00 0.00 0.00 0.01 0.00 0.00 0.00 0.00 0.00 0.00 0.00 0.00 0.00 0.05 0.05 0.12 0.27 0.14 0.30 0.19 0.41 0.12 0.06 0.01 0.00 0.00
0.00 0.00 0.00 0.00 0.00 0.00 0.01 0.00 0.00 0.00 0.00 0.00 0.00 0.00 0.00 0.00 0.00 0.00 0.00 0.00 0.00 0.00 0.00 0.00 0.00 0.00 0.00 0.00 0.00 0.00 0.00 0.00 0.00 0.00 0.00 0.01 0.01 0.03 0.09 0.10 0.08 0.11 0.10 0.07 0.04 0.03 0.00 0.00 0.00
0.00 0.00 0.00 0.00 0.00 0.00 0.00 0.00 0.00 0.00 0.00 0.00 0.00 0.00 0.00 0.00 0.00 0.00 0.00 0.00 0.00 0.00 0.00 0.00 0.00 0.00 0.00 0.00 0.00 0.01 0.00 0.00 0.00 0.00 0.00 0.00 0.01 0.01 0.04 0.06 0.05 0.03 0.02 0.02 0.09 0.02 0.00 0.00 0.00
0.00 0.00 0.00 0.00 0.00 0.00 0.00 0.01 0.00 0.00 0.00 0.00 0.00 0.00 0.00 0.00 0.00 0.00 0.00 0.00 0.00 0.00 0.00 0.00 0.00 0.00 0.00 0.00 0.00 0.00 0.00 0.00 0.00 0.00 0.00 0.00 0.00 0.00 0.01 0.03 0.04 0.03 0.04 0.07 0.06 0.01 0.01 0.00 0.00
0.00 0.00 0.00 0.00 0.00 0.00 0.00 0.00 0.00 0.00 0.00 0.00 0.00 0.00 0.00 0.00 0.00 0.00 0.00 0.00 0.00 0.00 0.00 0.00 0.00 0.00 0.00 0.00 0.01 0.00 0.00 0.00 0.00 0.00 0.00 0.00 0.00 0.00 0.02 0.05 0.09 0.05 0.04 0.03 0.02 0.03 0.01 0.00 0.00
0.00 0.00 0.00 0.00 0.00 0.00 0.00 0.02 0.02 0.00 0.00 0.00 0.00 0.00 0.00 0.00 0.00 0.00 0.00 0.00 0.00 0.00 0.00 0.00 0.00 0.00 0.00 0.00 0.00 0.00 0.00 0.00 0.00 0.00 0.00 0.00 0.01 0.03 0.03 0.02 0.04 0.04 0.02 0.00 0.01 0.02 0.01 0.00 0.00
0.00 0.00 0.00 0.00 0.00 0.00 0.00 0.08 0.08 0.00 0.00 0.00 0.00 0.00 0.00 0.00 0.00 0.00 0.00 0.00 0.00 0.00 0.00 0.00 0.00 0.00 0.00 0.01 0.02 0.01 0.00 0.00 0.00 0.00 0.00 0.01 0.02 0.02 0.03 0.01 0.02 0.01 0.01 0.02 0.03 0.01 0.00 0.00 0.00
0.00 0.00 0.00 0.00 0.00 0.00 0.00 0.03 0.12 0.00 0.00 0.00 0.00 0.00 0.00 0.00 0.00 0.00 0.00 0.00 0.00 0.00 0.00 0.00 0.00 0.00 0.00 0.00 0.00 0.00 0.00 0.00 0.00 0.00 0.00 0.00 0.01 0.03 0.02 0.02 0.04 0.01 0.01 0.01 0.00 0.00 0.00 0.00 0.00
0.00 0.00 0.00 0.00 0.00 0.00 0.00 0.00 0.00 0.00 0.00 0.00 0.00 0.00 0.00 0.00 0.00 0.00 0.00 0.00 0.00 0.00 0.00 0.00 0.00 0.00 0.00 0.00 0.00 0.00 0.00 0.00 0.00 0.00 0.00 0.00 0.00 0.02 0.01 0.03 0.02 0.00 0.01 0.00 0.00 0.00 0.00 0.00 0.00
0.00 0.00 0.00 0.00 0.00 0.00 0.00 0.00 0.00 0.00 0.00 0.00 0.00 0.00 0.00 0.00 0.00 0.00 0.00 0.00 0.00 0.00 0.00 0.00 0.00 0.00 0.00 0.00 0.00 0.03 0.03 0.00 0.00 0.00 0.00 0.00 0.00 0.00 0.01 0.03 0.02 0.01 0.00 0.00 0.00 0.00 0.00 0.00 0.00
0.00 0.00 0.00 0.00 0.00 0.00 0.00 0.00 0.00 0.02 0.08 0.01 0.00 0.00 0.00 0.00 0.00 0.00 0.00 0.00 0.00 0.00 0.00 0.00 0.00 0.00 0.00 0.00 0.00 0.01 0.00 0.00 0.00 0.00 0.00 0.00 0.00 0.00 0.00 0.00 0.00 0.00 0.00 0.00 0.00 0.00 0.00 0.00 0.00
0.00 0.00 0.00 0.00 0.00 0.00 0.00 0.00 0.00 0.00 0.02 0.01 0.00 0.00 0.00 0.00 0.00 0.00 0.00 0.00 0.00 0.00 0.00 0.00 0.00 0.00 0.00 0.00 0.00 0.01 0.00 0.00 0.00 0.00 0.00 0.01 0.01 0.00 0.00 0.00 0.00 0.00 0.00 0.00 0.00 0.00 0.00 0.00 0.00
0.00 0.00 0.00 0.00 0.00 0.00 0.00 0.00 0.00 0.00 0.00 0.00 0.01 0.00 0.00 0.00 0.00 0.00 0.00 0.00 0.00 0.00 0.00 0.00 0.00 0.00 0.00 0.01 0.00 0.01 0.01 0.00 0.00 0.00 0.00 0.00 0.00 0.00 0.00 0.00 0.00 0.00 0.00 0.00 0.00 0.00 0.00 0.00 0.00
0.00 0.00 0.00 0.00 0.00 0.00 0.00 0.00 0.00 0.00 0.00 0.00 0.01 0.01 0.00 0.00 0.00 0.00 0.00 0.00 0.00 0.00 0.00 0.00 0.00 0.00 0.00 0.00 0.00 0.00 0.00 0.00 0.00 0.00 0.00 0.00 0.00 0.00 0.00 0.00 0.00 0.00 0.00 0.00 0.00 0.00 0.00 0.00 0.00
0.00 0.00 0.00 0.00 0.00 0.00 0.00 0.00 0.00 0.00 0.00 0.00 0.00 0.00 0.00 0.00 0.00 0.00 0.00 0.00 0.00 0.00 0.00 0.00 0.00 0.00 0.00 0.00 0.00 0.00 0.00 0.00 0.00 0.00 0.00 0.00 0.00 0.00 0.00 0.00 0.00 0.00 0.00 0.00 0.00 0.00 0.00 0.00 0.00
0.00 0.00 0.00 0.00 0.00 0.00 0.00 0.00 0.00 0.00 0.00 0.00 0.00 0.00 0.00 0.00 0.00 0.00 0.00 0.00 0.00 0.00 0.00 0.00 0.00 0.00 0.00 0.00 0.00 0.00 0.00 0.00 0.00 0.00 0.00 0.00 0.00 0.00 0.00 0.00 0.00 0.00 0.00 0.00 0.00 0.00 0.00 0.00 0.00
0.00 0.00 0.00 0.00 0.00 0.00 0.00 0.00 0.00 0.00 0.00 0.00 0.00 0.00 0.00 0.00 0.00 0.00 0.00 0.00 0.00 0.00 0.00 0.00 0.00 0.00 0.00 0.00 0.00 0.00 0.00 0.00 0.00 0.00 0.00 0.00 0.00 0.00 0.00 0.00 0.00 0.00 0.00 0.00 0.00 0.00 0.00 0.00 0.00
0.00 0.00 0.00 0.00 0.00 0.00 0.00 0.00 0.00 0.00 0.00 0.00 0.00 0.00 0.00 0.00 0.00 0.00 0.00 0.00 0.00 0.00 0.00 0.00 0.00 0.00 0.00 0.00 0.00 0.00 0.00 0.00 0.00 0.00 0.00 0.00 0.00 0.00 0.00 0.00 0.00 0.00 0.00 0.00 0.00 0.00 0.00 0.00 0.00
0.00 0.00 0.00 0.00 0.00 0.00 0.00 0.00 0.00 0.00 0.00 0.00 0.00 0.00 0.00 0.00 0.00 0.00 0.00 0.00 0.00 0.00 0.00 0.00 0.00 0.00 0.00 0.00 0.00 0.00 0.00 0.00 0.00 0.00 0.00 0.00 0.00 0.00 0.00 0.00 0.00 0.00 0.00 0.00 0.00 0.00 0.00 0.00 0.00

GFSSGP_prec_precacc12_024.txt.gz
Total_Precipitation_Accumulation
0.00 0.01 0.03 0.18 0.24 0.28 0.25 0.19 0.07 0.02 0.01 0.00 0.00 0.00 0.01 0.03 0.01 0.00 0.04 0.01 0.00 0.00 0.07 0.27 0.42 0.21 0.02 0.01 0.00 0.00 0.00 0.00 0.00 0.00 0.00 0.00 0.00 0.00 0.00 0.00 0.00 0.00 0.00 0.03 0.03 0.01 0.00 0.03 0.06
0.00 0.09 0.47 0.60 0.17 0.14 0.14 0.07 0.03 0.00 0.01 0.00 0.00 0.00 0.00 0.00 0.00 0.01 0.02 0.00 0.00 0.00 0.01 0.18 0.34 0.07 0.01 0.00 0.00 0.00 0.00 0.00 0.00 0.00 0.00 0.00 0.00 0.00 0.00 0.00 0.00 0.00 0.00 0.00 0.03 0.05 0.05 0.08 0.11
0.03 0.57 1.37 1.04 0.17 0.12 0.05 0.01 0.04 0.03 0.06 0.01 0.01 0.01 0.00 0.01 0.00 0.00 0.00 0.00 0.00 0.00 0.01 0.11 0.10 0.02 0.00 0.00 0.00 0.00 0.00 0.00 0.00 0.00 0.00 0.00 0.00 0.00 0.00 0.00 0.00 0.00 0.00 0.00 0.01 0.01 0.03 0.11 0.05
0.13 0.82 1.67 1.03 0.10 0.03 0.01 0.04 0.03 0.06 0.09 0.02 0.01 0.00 0.00 0.00 0.00 0.00 0.00 0.00 0.00 0.00 0.02 0.10 0.03 0.00 0.00 0.00 0.00 0.00 0.00 0.00 0.00 0.00 0.00 0.00 0.00 0.00 0.00 0.00 0.00 0.00 0.00 0.00 0.00 0.00 0.00 0.05 0.08
0.27 0.36 0.52 0.61 0.01 0.03 0.01 0.04 0.06 0.02 0.03 0.00 0.00 0.00 0.00 0.00 0.00 0.00 0.00 0.00 0.00 0.00 0.03 0.02 0.01 0.00 0.00 0.00 0.00 0.00 0.00 0.00 0.00 0.00 0.00 0.00 0.00 0.00 0.00 0.00 0.00 0.00 0.00 0.00 0.00 0.00 0.00 0.00 0.03
0.79 0.14 0.14 0.02 0.03 0.01 0.03 0.06 0.05 0.01 0.00 0.00 0.00 0.00 0.00 0.00 0.00 0.00 0.00 0.00 0.00 0.00 0.00 0.00 0.00 0.00 0.00 0.00 0.00 0.00 0.00 0.00 0.00 0.00 0.00 0.00 0.01 0.00 0.00 0.00 0.00 0.00 0.00 0.00 0.00 0.01 0.00 0.01 0.03
0.01 0.01 0.02 0.01 0.02 0.00 0.02 0.02 0.01 0.00 0.00 0.00 0.00 0.00 0.00 0.00 0.00 0.00 0.00 0.00 0.00 0.00 0.00 0.00 0.00 0.00 0.00 0.00 0.00 0.00 0.00 0.00 0.00 0.00 0.00 0.00 0.02 0.01 0.00 0.00 0.00 0.00 0.00 0.01 0.01 0.01 0.01 0.02 0.06
0.03 0.00 0.06 0.05 0.02 0.01 0.02 0.01 0.00 0.00 0.00 0.00 0.00 0.00 0.00 0.00 0.00 0.00 0.00 0.00 0.00 0.00 0.00 0.00 0.00 0.00 0.00 0.00 0.00 0.00 0.00 0.00 0.00 0.00 0.00 0.00 0.00 0.00 0.00 0.01 0.01 0.00 0.00 0.01 0.02 0.05 0.03 0.05 0.06
0.14 0.01 0.07 0.01 0.00 0.00 0.00 0.00 0.00 0.00 0.00 0.00 0.02 0.00 0.00 0.00 0.00 0.00 0.00 0.00 0.01 0.00 0.00 0.00 0.00 0.00 0.00 0.00 0.00 0.00 0.00 0.00 0.00 0.00 0.00 0.01 0.01 0.03 0.03 0.12 0.07 0.00 0.01 0.00 0.00 0.02 0.06 0.08 0.06
0.03 0.00 0.00 0.00 0.00 0.00 0.00 0.00 0.00 0.00 0.00 0.00 0.00 0.00 0.00 0.00 0.00 0.00 0.00 0.00 0.00 0.00 0.00 0.00 0.00 0.00 0.00 0.00 0.00 0.00 0.00 0.00 0.00 0.00 0.00 0.00 0.03 0.06 0.10 0.12 0.05 0.05 0.02 0.00 0.03 0.02 0.04 0.02 0.00
0.00 0.00 0.00 0.00 0.00 0.00 0.00 0.00 0.00 0.00 0.00 0.00 0.00 0.00 0.00 0.00 0.00 0.00 0.00 0.00 0.00 0.00 0.00 0.00 0.00 0.00 0.00 0.00 0.00 0.00 0.00 0.00 0.00 0.00 0.00 0.01 0.06 0.16 0.13 0.06 0.01 0.04 0.10 0.08 0.06 0.01 0.00 0.00 0.00
0.00 0.00 0.00 0.00 0.00 0.00 0.00 0.00 0.00 0.00 0.00 0.00 0.00 0.00 0.00 0.00 0.00 0.00 0.00 0.00 0.00 0.00 0.00 0.00 0.00 0.00 0.00 0.00 0.00 0.00 0.00 0.00 0.00 0.00 0.00 0.00 0.05 0.05 0.06 0.10 0.05 0.08 0.07 0.21 0.07 0.03 0.01 0.00 0.00
0.00 0.00 0.00 0.00 0.00 0.00 0.00 0.00 0.00 0.00 0.00 0.00 0.00 0.00 0.00 0.00 0.00 0.00 0.00 0.00 0.00 0.00 0.00 0.00 0.00 0.00 0.00 0.00 0.00 0.00 0.00 0.00 0.00 0.00 0.00 0.01 0.01 0.03 0.04 0.08 0.07 0.09 0.09 0.07 0.04 0.03 0.00 0.00 0.00
0.00 0.00 0.00 0.00 0.00 0.00 0.00 0.00 0.00 0.00 0.00 0.00 0.00 0.00 0.00 0.00 0.00 0.00 0.00 0.00 0.00 0.00 0.00 0.00 0.00 0.00 0.00 0.00 0.00 0.00 0.00 0.00 0.00 0.00 0.00 0.00 0.03 0.01 0.03 0.06 0.05 0.03 0.04 0.03 0.09 0.02 0.00 0.00 0.00
0.00 0.00 0.00 0.00 0.00 0.00 0.00 0.01 0.00 0.00 0.00 0.00 0.00 0.00 0.00 0.00 0.00 0.00 0.00 0.00 0.00 0.00 0.00 0.00 0.00 0.00 0.00 0.00 0.00 0.00 0.00 0.00 0.00 0.00 0.00 0.00 0.01 0.00 0.02 0.02 0.03 0.03 0.05 0.07 0.05 0.00 0.00 0.00 0.00
0.00 0.00 0.00 0.00 0.00 0.00 0.00 0.00 0.00 0.00 0.00 0.00 0.00 0.00 0.00 0.00 0.00 0.00 0.00 0.00 0.00 0.00 0.00 0.00 0.00 0.00 0.00 0.00 0.00 0.00 0.00 0.00 0.00 0.00 0.00 0.00 0.00 0.00 0.02 0.04 0.05 0.03 0.03 0.02 0.00 0.01 0.00 0.00 0.00
0.00 0.00 0.00 0.00 0.00 0.00 0.00 0.00 0.00 0.00 0.00 0.00 0.00 0.00 0.00 0.00 0.00 0.00 0.00 0.00 0.00 0.00 0.00 0.00 0.00 0.00 0.00 0.00 0.00 0.00 0.00 0.00 0.00 0.00 0.00 0.00 0.00 0.00 0.07 0.02 0.01 0.00 0.02 0.00 0.00 0.00 0.00 0.00 0.00
0.00 0.00 0.00 0.00 0.00 0.00 0.00 0.00 0.00 0.00 0.00 0.00 0.00 0.00 0.00 0.00 0.00 0.00 0.00 0.00 0.00 0.00 0.00 0.00 0.00 0.00 0.00 0.00 0.00 0.00 0.00 0.00 0.00 0.00 0.00 0.00 0.00 0.01 0.00 0.00 0.01 0.00 0.00 0.00 0.00 0.00 0.00 0.00 0.00
0.00 0.00 0.00 0.00 0.00 0.00 0.00 0.00 0.00 0.00 0.00 0.00 0.00 0.00 0.00 0.00 0.00 0.00 0.00 0.00 0.00 0.00 0.00 0.00 0.00 0.00 0.00 0.00 0.00 0.00 0.00 0.00 0.00 0.00 0.00 0.00 0.00 0.01 0.00 0.01 0.00 0.00 0.00 0.00 0.00 0.00 0.00 0.00 0.00
0.00 0.00 0.00 0.00 0.00 0.00 0.00 0.00 0.00 0.00 0.00 0.00 0.00 0.00 0.00 0.00 0.00 0.00 0.00 0.00 0.00 0.00 0.00 0.00 0.00 0.00 0.00 0.00 0.00 0.00 0.00 0.00 0.00 0.00 0.00 0.00 0.00 0.00 0.00 0.00 0.00 0.00 0.00 0.00 0.00 0.00 0.00 0.00 0.00
0.00 0.00 0.00 0.00 0.00 0.00 0.00 0.00 0.00 0.00 0.00 0.00 0.00 0.00 0.00 0.00 0.00 0.00 0.00 0.00 0.00 0.00 0.00 0.00 0.00 0.00 0.00 0.00 0.00 0.00 0.00 0.00 0.00 0.00 0.00 0.00 0.00 0.00 0.00 0.00 0.00 0.00 0.00 0.00 0.00 0.00 0.00 0.00 0.00
0.00 0.00 0.00 0.00 0.00 0.00 0.00 0.00 0.00 0.01 0.08 0.01 0.00 0.00 0.00 0.00 0.00 0.00 0.00 0.00 0.00 0.00 0.00 0.00 0.00 0.00 0.00 0.00 0.00 0.00 0.00 0.00 0.00 0.00 0.00 0.00 0.00 0.00 0.00 0.00 0.00 0.00 0.00 0.00 0.00 0.00 0.00 0.00 0.00
0.00 0.00 0.00 0.00 0.00 0.00 0.00 0.00 0.00 0.00 0.02 0.01 0.00 0.00 0.00 0.00 0.00 0.00 0.00 0.00 0.00 0.00 0.00 0.00 0.00 0.00 0.00 0.00 0.00 0.00 0.00 0.00 0.00 0.00 0.00 0.00 0.00 0.00 0.00 0.00 0.00 0.00 0.00 0.00 0.00 0.00 0.00 0.00 0.00
0.00 0.00 0.00 0.00 0.00 0.00 0.00 0.00 0.00 0.00 0.00 0.00 0.01 0.00 0.00 0.00 0.00 0.00 0.00 0.00 0.00 0.00 0.00 0.00 0.00 0.00 0.00 0.00 0.00 0.00 0.00 0.00 0.00 0.00 0.00 0.00 0.00 0.00 0.00 0.00 0.00 0.00 0.00 0.00 0.00 0.00 0.00 0.00 0.00
0.00 0.00 0.00 0.00 0.00 0.00 0.00 0.00 0.00 0.00 0.00 0.00 0.01 0.01 0.00 0.00 0.00 0.00 0.00 0.00 0.00 0.00 0.00 0.00 0.00 0.00 0.00 0.00 0.00 0.00 0.00 0.00 0.00 0.00 0.00 0.00 0.00 0.00 0.00 0.00 0.00 0.00 0.00 0.00 0.00 0.00 0.00 0.00 0.00
0.00 0.00 0.00 0.00 0.00 0.00 0.00 0.00 0.00 0.00 0.00 0.00 0.00 0.00 0.00 0.00 0.00 0.00 0.00 0.00 0.00 0.00 0.00 0.00 0.00 0.00 0.00 0.00 0.00 0.00 0.00 0.00 0.00 0.00 0.00 0.00 0.00 0.00 0.00 0.00 0.00 0.00 0.00 0.00 0.00 0.00 0.00 0.00 0.00
0.00 0.00 0.00 0.00 0.00 0.00 0.00 0.00 0.00 0.00 0.00 0.00 0.00 0.00 0.00 0.00 0.00 0.00 0.00 0.00 0.00 0.00 0.00 0.00 0.00 0.00 0.00 0.00 0.00 0.00 0.00 0.00 0.00 0.00 0.00 0.00 0.00 0.00 0.00 0.00 0.00 0.00 0.00 0.00 0.00 0.00 0.00 0.00 0.00
0.00 0.00 0.00 0.00 0.00 0.00 0.00 0.00 0.00 0.00 0.00 0.00 0.00 0.00 0.00 0.00 0.00 0.00 0.00 0.00 0.00 0.00 0.00 0.00 0.00 0.00 0.00 0.00 0.00 0.00 0.00 0.00 0.00 0.00 0.00 0.00 0.00 0.00 0.00 0.00 0.00 0.00 0.00 0.00 0.00 0.00 0.00 0.00 0.00
0.00 0.00 0.00 0.00 0.00 0.00 0.00 0.00 0.00 0.00 0.00 0.00 0.00 0.00 0.00 0.00 0.00 0.00 0.00 0.00 0.00 0.00 0.00 0.00 0.00 0.00 0.00 0.00 0.00 0.00 0.00 0.00 0.00 0.00 0.00 0.00 0.00 0.00 0.00 0.00 0.00 0.00 0.00 0.00 0.00 0.00 0.00 0.00 0.00
0.00 0.00 0.00 0.00 0.00 0.00 0.00 0.00 0.00 0.00 0.00 0.00 0.00 0.00 0.00 0.00 0.00 0.00 0.00 0.00 0.00 0.00 0.00 0.00 0.00 0.00 0.00 0.00 0.00 0.00 0.00 0.00 0.00 0.00 0.00 0.00 0.00 0.00 0.00 0.00 0.00 0.00 0.00 0.00 0.00 0.00 0.00 0.00 0.00

GFSSGP_prec_precacc12_030.txt.gz
Total_Precipitation_Accumulation
0.01 0.02 0.11 0.14 0.16 0.08 0.17 0.15 0.01 0.01 0.00 0.00 0.00 0.00 0.01 0.02 0.00 0.06 0.01 0.02 0.00 0.03 0.07 0.29 0.61 0.36 0.07 0.04 0.01 0.01 0.00 0.00 0.00 0.00 0.00 0.00 0.00 0.00 0.00 0.00 0.01 0.00 0.01 0.05 0.05 0.03 0.01 0.04 0.09
0.01 0.02 0.02 0.01 0.10 0.11 0.11 0.10 0.03 0.00 0.00 0.00 0.00 0.00 0.00 0.00 0.00 0.02 0.02 0.02 0.00 0.00 0.01 0.19 0.57 0.14 0.02 0.01 0.00 0.00 0.00 0.00 0.00 0.00 0.00 0.00 0.00 0.00 0.00 0.00 0.01 0.01 0.03 0.05 0.05 0.06 0.05 0.09 0.13
0.01 0.01 0.02 0.04 0.09 0.09 0.05 0.04 0.04 0.02 0.03 0.00 0.00 0.00 0.00 0.01 0.01 0.00 0.00 0.00 0.00 0.00 0.01 0.17 0.21 0.04 0.00 0.00 0.00 0.00 0.00 0.00 0.00 0.00 0.00 0.00 0.00 0.00 0.00 0.00 0.02 0.02 0.01 0.01 0.01 0.01 0.03 0.11 0.07
0.00 0.00 0.04 0.10 0.06 0.01 0.00 0.00 0.01 0.07 0.14 0.02 0.01 0.00 0.00 0.00 0.00 0.00 0.00 0.00 0.00 0.00 0.03 0.13 0.06 0.00 0.00 0.00 0.00 0.00 0.00 0.00 0.00 0.00 0.00 0.00 0.00 0.00 0.00 0.01 0.04 0.04 0.01 0.00 0.00 0.00 0.00 0.05 0.15
0.00 0.01 0.03 0.03 0.01 0.01 0.01 0.01 0.01 0.01 0.02 0.01 0.00 0.00 0.02 0.02 0.00 0.00 0.00 0.00 0.00 0.00 0.03 0.02 0.03 0.00 0.00 0.00 0.00 0.00 0.00 0.00 0.00 0.00 0.00 0.00 0.00 0.00 0.00 0.00 0.03 0.03 0.00 0.00 0.00 0.00 0.00 0.00 0.05
0.00 0.00 0.01 0.00 0.00 0.01 0.01 0.01 0.03 0.00 0.00 0.00 0.00 0.00 0.03 0.01 0.00 0.00 0.00 0.00 0.00 0.00 0.00 0.00 0.01 0.00 0.00 0.00 0.00 0.00 0.00 0.00 0.00 0.00 0.00 0.00 0.01 0.00 0.00 0.00 0.00 0.00 0.00 0.00 0.00 0.01 0.00 0.01 0.02
0.00 0.00 0.00 0.01 0.02 0.00 0.01 0.01 0.00 0.00 0.00 0.00 0.00 0.00 0.01 0.01 0.00 0.00 0.00 0.00 0.00 0.00 0.00 0.00 0.00 0.00 0.00 0.00 0.00 0.00 0.00 0.00 0.00 0.00 0.00 0.00 0.02 0.01 0.00 0.00 0.00 0.00 0.00 0.01 0.01 0.01 0.01 0.01 0.02
0.01 0.00 0.01 0.05 0.02 0.00 0.01 0.01 0.00 0.00 0.00 0.00 0.00 0.00 0.00 0.00 0.00 0.00 0.00 0.00 0.00 0.00 0.00 0.00 0.00 0.00 0.00 0.00 0.00 0.00 0.00 0.00 0.00 0.00 0.00 0.01 0.00 0.00 0.01 0.00 0.01 0.00 0.00 0.01 0.02 0.05 0.03 0.03 0.03
0.10 0.00 0.00 0.00 0.00 0.00 0.00 0.00 0.00 0.00 0.00 0.00 0.00 0.00 0.00 0.00 0.00 0.00 0.00 0.00 0.00 0.00 0.00 0.00 0.00 0.00 0.00 0.00 0.00 0.00 0.00 0.00 0.00 0.00 0.00 0.01 0.03 0.03 0.01 0.00 0.00 0.01 0.03 0.00 0.00 0.02 0.05 0.06 0.03
0.03 0.00 0.00 0.00 0.00 0.00 0.00 0.00 0.00 0.00 0.00 0.00 0.00 0.00 0.00 0.00 0.00 0.00 0.00 0.00 0.00 0.00 0.00 0.00 0.00 0.00 0.00 0.00 0.00 0.00 0.00 0.00 0.00 0.00 0.00 0.00 0.00 0.02 0.01 0.00 0.00 0.02 0.02 0.00 0.00 0.03 0.04 0.02 0.00
0.00 0.00 0.00 0.00 0.00 0.00 0.00 0.00 0.00 0.00 0.00 0.00 0.00 0.00 0.00 0.00 0.00 0.00 0.00 0.00 0.00 0.00 0.00 0.00 0.00 0.00 0.00 0.00 0.00 0.00 0.00 0.00 0.00 0.00 0.00 0.00 0.00 0.06 0.00 0.00 0.00 0.00 0.00 0.00 0.00 0.00 0.00 0.00 0.00
0.00 0.00 0.00 0.00 0.00 0.00 0.00 0.00 0.00 0.00 0.00 0.00 0.00 0.00 0.00 0.00 0.00 0.00 0.00 0.00 0.00 0.00 0.00 0.00 0.00 0.00 0.00 0.00 0.00 0.00 0.00 0.00 0.00 0.00 0.00 0.00 0.00 0.01 0.00 0.00 0.00 0.00 0.00 0.00 0.00 0.01 0.03 0.00 0.00
0.00 0.00 0.00 0.00 0.00 0.00 0.00 0.00 0.00 0.00 0.00 0.00 0.00 0.00 0.00 0.00 0.00 0.00 0.00 0.00 0.00 0.00 0.00 0.00 0.00 0.00 0.00 0.00 0.00 0.00 0.00 0.00 0.00 0.00 0.00 0.01 0.01 0.00 0.00 0.00 0.01 0.00 0.00 0.00 0.03 0.10 0.06 0.04 0.00
0.00 0.00 0.00 0.00 0.00 0.00 0.00 0.00 0.00 0.00 0.00 0.00 0.00 0.00 0.00 0.00 0.00 0.00 0.00 0.00 0.00 0.00 0.00 0.00 0.00 0.00 0.00 0.00 0.00 0.00 0.00 0.00 0.00 0.00 0.00 0.00 0.02 0.00 0.00 0.00 0.01 0.01 0.03 0.02 0.13 0.12 0.06 0.00 0.00
0.00 0.00 0.00 0.00 0.00 0.00 0.00 0.00 0.00 0.00 0.00 0.00 0.00 0.00 0.00 0.00 0.00 0.00 0.00 0.00 0.00 0.00 0.00 0.00 0.00 0.00 0.00 0.00 0.00 0.00 0.00 0.00 0.00 0.00 0.00 0.00 0.00 0.00 0.00 0.08 0.03 0.01 0.05 0.09 0.05 0.06 0.04 0.00 0.00
0.00 0.00 0.00 0.00 0.00 0.00 0.00 0.00 0.00 0.00 0.00 0.00 0.00 0.00 0.00 0.00 0.00 0.00 0.00 0.00 0.00 0.00 0.00 0.00 0.00 0.00 0.00 0.00 0.00 0.00 0.00 0.00 0.00 0.00 0.00 0.00 0.00 0.00 0.03 0.15 0.10 0.01 0.03 0.09 0.04 0.07 0.06 0.00 0.00
0.00 0.00 0.00 0.00 0.00 0.00 0.00 0.00 0.00 0.00 0.00 0.00 0.00 0.00 0.00 0.00 0.00 0.00 0.00 0.00 0.00 0.00 0.00 0.00 0.00 0.00 0.00 0.00 0.00 0.00 0.00 0.00 0.00 0.00 0.00 0.00 0.00 0.00 0.07 0.03 0.03 0.00 0.00 0.04 0.06 0.03 0.01 0.00 0.00
0.00 0.00 0.00 0.00 0.00 0.00 0.00 0.00 0.00 0.00 0.00 0.00 0.00 0.00 0.00 0.00 0.00 0.00 0.00 0.00 0.00 0.00 0.00 0.00 0.00 0.00 0.00 0.00 0.00 0.00 0.00 0.00 0.00 0.00 0.00 0.00 0.00 0.00 0.00 0.01 0.10 0.02 0.00 0.02 0.04 0.03 0.00 0.00 0.00
0.00 0.00 0.00 0.00 0.00 0.00 0.00 0.00 0.00 0.00 0.00 0.00 0.00 0.00 0.00 0.00 0.00 0.00 0.00 0.00 0.00 0.00 0.00 0.00 0.00 0.00 0.00 0.00 0.00 0.00 0.00 0.00 0.00 0.00 0.00 0.00 0.00 0.00 0.01 0.02 0.06 0.01 0.01 0.07 0.04 0.02 0.00 0.00 0.00
0.00 0.00 0.00 0.00 0.00 0.00 0.00 0.00 0.00 0.00 0.00 0.00 0.00 0.00 0.00 0.00 0.00 0.00 0.00 0.00 0.00 0.00 0.00 0.00 0.00 0.00 0.00 0.00 0.00 0.00 0.00 0.00 0.00 0.00 0.00 0.00 0.00 0.00 0.00 0.04 0.06 0.03 0.01 0.03 0.03 0.03 0.00 0.00 0.00
0.00 0.00 0.00 0.00 0.00 0.00 0.00 0.00 0.00 0.00 0.00 0.00 0.00 0.00 0.00 0.00 0.00 0.00 0.00 0.00 0.00 0.00 0.00 0.00 0.00 0.00 0.00 0.00 0.00 0.00 0.00 0.00 0.00 0.00 0.00 0.00 0.00 0.00 0.00 0.08 0.04 0.02 0.01 0.03 0.04 0.01 0.00 0.00 0.00
0.00 0.00 0.00 0.00 0.00 0.00 0.00 0.00 0.00 0.00 0.00 0.00 0.00 0.00 0.00 0.00 0.00 0.00 0.00 0.00 0.00 0.00 0.00 0.00 0.00 0.00 0.00 0.00 0.00 0.00 0.00 0.00 0.00 0.00 0.00 0.00 0.00 0.00 0.00 0.02 0.01 0.00 0.00 0.02 0.04 0.00 0.00 0.00 0.00
0.00 0.00 0.00 0.00 0.00 0.00 0.00 0.00 0.00 0.00 0.00 0.00 0.00 0.00 0.00 0.00 0.00 0.00 0.00 0.00 0.00 0.00 0.00 0.00 0.00 0.00 0.00 0.00 0.00 0.00 0.00 0.00 0.00 0.00 0.00 0.00 0.00 0.00 0.00 0.00 0.00 0.00 0.00 0.00 0.00 0.00 0.00 0.00 0.00
0.00 0.00 0.00 0.00 0.00 0.00 0.00 0.00 0.00 0.00 0.00 0.00 0.00 0.00 0.00 0.00 0.00 0.00 0.00 0.00 0.00 0.00 0.00 0.00 0.00 0.00 0.00 0.00 0.00 0.00 0.00 0.00 0.00 0.00 0.00 0.00 0.00 0.00 0.00 0.00 0.00 0.00 0.00 0.00 0.00 0.00 0.00 0.00 0.00
0.00 0.00 0.00 0.00 0.00 0.00 0.00 0.00 0.00 0.00 0.00 0.00 0.00 0.00 0.00 0.00 0.00 0.00 0.00 0.00 0.00 0.00 0.00 0.00 0.00 0.00 0.00 0.00 0.00 0.00 0.00 0.00 0.00 0.00 0.00 0.00 0.00 0.00 0.00 0.00 0.00 0.00 0.00 0.00 0.00 0.00 0.00 0.00 0.00
0.00 0.00 0.00 0.00 0.00 0.00 0.00 0.00 0.00 0.00 0.00 0.00 0.00 0.00 0.00 0.00 0.00 0.00 0.00 0.00 0.00 0.00 0.00 0.00 0.00 0.00 0.00 0.00 0.00 0.00 0.00 0.00 0.00 0.00 0.00 0.00 0.00 0.00 0.00 0.00 0.00 0.00 0.00 0.00 0.00 0.00 0.00 0.00 0.00
0.00 0.00 0.00 0.00 0.00 0.00 0.00 0.00 0.00 0.00 0.00 0.00 0.00 0.00 0.00 0.00 0.00 0.00 0.00 0.00 0.00 0.00 0.00 0.00 0.00 0.00 0.00 0.00 0.00 0.00 0.00 0.00 0.00 0.00 0.00 0.00 0.00 0.00 0.00 0.00 0.00 0.00 0.00 0.00 0.00 0.00 0.00 0.00 0.00
0.00 0.00 0.00 0.00 0.00 0.00 0.00 0.00 0.00 0.00 0.00 0.00 0.00 0.00 0.00 0.00 0.00 0.00 0.00 0.00 0.00 0.00 0.00 0.00 0.00 0.00 0.00 0.00 0.00 0.00 0.00 0.00 0.00 0.00 0.00 0.00 0.00 0.00 0.00 0.00 0.00 0.00 0.00 0.00 0.00 0.00 0.00 0.00 0.00
0.00 0.00 0.00 0.00 0.00 0.00 0.00 0.00 0.00 0.00 0.00 0.00 0.00 0.00 0.00 0.00 0.00 0.00 0.00 0.00 0.00 0.00 0.00 0.00 0.00 0.00 0.00 0.00 0.00 0.00 0.00 0.00 0.00 0.00 0.00 0.00 0.00 0.00 0.00 0.00 0.00 0.00 0.00 0.00 0.00 0.00 0.00 0.00 0.00
0.00 0.00 0.00 0.00 0.00 0.00 0.00 0.00 0.00 0.00 0.00 0.00 0.00 0.00 0.00 0.00 0.00 0.00 0.00 0.00 0.00 0.00 0.00 0.00 0.00 0.00 0.00 0.00 0.00 0.00 0.00 0.00 0.00 0.00 0.00 0.00 0.00 0.00 0.00 0.00 0.00 0.00 0.00 0.00 0.00 0.00 0.00 0.00 0.00

GFSSGP_prec_precacc12_036.txt.gz
Total_Precipitation_Accumulation
0.00 0.03 0.27 0.30 0.25 0.25 0.52 0.27 0.05 0.03 0.02 0.00 0.01 0.02 0.15 0.11 0.14 0.14 0.07 0.06 0.00 0.07 0.09 0.14 0.30 0.19 0.07 0.06 0.02 0.01 0.00 0.00 0.00 0.00 0.00 0.00 0.01 0.00 0.00 0.01 0.02 0.01 0.01 0.03 0.02 0.02 0.01 0.00 0.04
0.01 0.07 0.26 0.25 0.83 0.57 0.22 0.11 0.03 0.03 0.00 0.00 0.00 0.02 0.00 0.00 0.00 0.04 0.06 0.03 0.00 0.01 0.03 0.07 0.29 0.10 0.04 0.03 0.01 0.00 0.00 0.00 0.00 0.00 0.01 0.01 0.01 0.00 0.00 0.01 0.01 0.01 0.03 0.04 0.02 0.00 0.01 0.00 0.01
0.01 0.04 0.15 0.26 0.42 0.35 0.13 0.08 0.03 0.02 0.02 0.02 0.00 0.03 0.01 0.00 0.01 0.04 0.02 0.00 0.01 0.02 0.01 0.08 0.14 0.06 0.04 0.02 0.00 0.00 0.00 0.00 0.00 0.00 0.00 0.00 0.00 0.00 0.00 0.00 0.02 0.02 0.01 0.01 0.00 0.00 0.00 0.00 0.02
0.01 0.03 0.04 0.31 0.19 0.04 0.05 0.09 0.00 0.04 0.07 0.01 0.01 0.00 0.00 0.01 0.01 0.01 0.00 0.01 0.02 0.01 0.02 0.03 0.06 0.02 0.01 0.00 0.00 0.00 0.00 0.00 0.00 0.00 0.00 0.00 0.00 0.00 0.00 0.01 0.04 0.04 0.01 0.00 0.00 0.00 0.00 0.00 0.06
0.04 0.12 0.47 0.47 0.06 0.02 0.03 0.00 0.01 0.01 0.01 0.01 0.00 0.00 0.02 0.03 0.00 0.00 0.00 0.01 0.01 0.02 0.02 0.01 0.06 0.03 0.00 0.00 0.00 0.00 0.00 0.00 0.00 0.00 0.00 0.00 0.00 0.00 0.00 0.00 0.03 0.03 0.00 0.00 0.00 0.00 0.00 0.00 0.02
0.15 0.80 0.42 0.09 0.01 0.01 0.00 0.00 0.00 0.02 0.00 0.00 0.00 0.00 0.05 0.02 0.00 0.00 0.01 0.01 0.03 0.01 0.00 0.00 0.01 0.01 0.00 0.00 0.00 0.00 0.00 0.00 0.00 0.00 0.00 0.00 0.00 0.00 0.00 0.00 0.00 0.00 0.00 0.00 0.00 0.00 0.00 0.00 0.01
0.11 1.74 0.30 0.02 0.01 0.00 0.00 0.01 0.03 0.00 0.00 0.00 0.00 0.01 0.04 0.02 0.00 0.00 0.00 0.01 0.01 0.00 0.00 0.00 0.00 0.00 0.01 0.00 0.00 0.00 0.00 0.00 0.00 0.00 0.00 0.00 0.00 0.00 0.00 0.00 0.00 0.00 0.00 0.00 0.00 0.00 0.00 0.00 0.01
0.01 0.72 0.45 0.12 0.01 0.00 0.00 0.00 0.00 0.00 0.00 0.00 0.00 0.00 0.02 0.01 0.00 0.00 0.01 0.01 0.00 0.00 0.00 0.00 0.00 0.00 0.00 0.00 0.00 0.00 0.00 0.00 0.00 0.00 0.00 0.02 0.02 0.01 0.01 0.00 0.01 0.00 0.00 0.00 0.00 0.00 0.00 0.00 0.00
0.00 0.18 0.07 0.01 0.01 0.00 0.00 0.00 0.00 0.00 0.00 0.00 0.00 0.00 0.00 0.00 0.00 0.00 0.00 0.01 0.00 0.00 0.00 0.00 0.00 0.00 0.00 0.00 0.00 0.00 0.00 0.00 0.00 0.02 0.06 0.24 0.21 0.12 0.03 0.01 0.00 0.01 0.02 0.00 0.00 0.01 0.00 0.00 0.01
0.00 0.37 0.07 0.00 0.00 0.01 0.00 0.00 0.00 0.00 0.00 0.00 0.00 0.00 0.00 0.00 0.00 0.00 0.00 0.00 0.00 0.00 0.00 0.00 0.00 0.00 0.00 0.00 0.00 0.00 0.00 0.00 0.00 0.05 0.37 0.59 0.15 0.08 0.01 0.00 0.00 0.02 0.01 0.00 0.01 0.03 0.05 0.02 0.00
0.00 0.21 0.06 0.00 0.00 0.00 0.00 0.00 0.00 0.00 0.00 0.00 0.00 0.00 0.00 0.00 0.00 0.00 0.00 0.00 0.00 0.00 0.00 0.00 0.00 0.00 0.00 0.00 0.00 0.00 0.00 0.00 0.00 0.07 0.63 0.74 0.28 0.04 0.11 0.01 0.00 0.00 0.01 0.02 0.36 0.18 0.03 0.01 0.00
0.00 0.03 0.01 0.00 0.00 0.00 0.01 0.01 0.00 0.00 0.00 0.00 0.00 0.00 0.00 0.00 0.00 0.00 0.00 0.00 0.00 0.00 0.00 0.00 0.00 0.00 0.00 0.00 0.00 0.00 0.00 0.00 0.00 0.01 0.09 0.21 0.27 0.18 0.24 0.04 0.01 0.04 0.03 0.12 0.17 0.12 0.04 0.01 0.00
0.00 0.00 0.00 0.00 0.00 0.00 0.01 0.04 0.01 0.00 0.00 0.00 0.00 0.00 0.00 0.00 0.00 0.00 0.00 0.00 0.00 0.00 0.00 0.00 0.00 0.00 0.00 0.00 0.00 0.00 0.00 0.00 0.00 0.00 0.00 0.11 0.11 0.05 0.03 0.03 0.03 0.01 0.03 0.08 0.04 0.09 0.06 0.05 0.00
0.00 0.00 0.00 0.00 0.00 0.00 0.00 0.01 0.01 0.00 0.00 0.00 0.00 0.00 0.00 0.00 0.00 0.00 0.00 0.00 0.00 0.00 0.00 0.00 0.00 0.00 0.00 0.00 0.00 0.00 0.00 0.00 0.00 0.00 0.00 0.00 0.01 0.02 0.01 0.01 0.00 0.00 0.01 0.09 0.09 0.10 0.08 0.02 0.00
0.00 0.00 0.00 0.00 0.00 0.00 0.00 0.00 0.00 0.00 0.00 0.00 0.00 0.00 0.00 0.00 0.00 0.00 0.00 0.00 0.00 0.00 0.00 0.00 0.00 0.00 0.00 0.00 0.00 0.00 0.00 0.00 0.00 0.00 0.00 0.00 0.00 0.01 0.04 0.09 0.04 0.01 0.03 0.07 0.05 0.08 0.05 0.00 0.00
0.00 0.00 0.00 0.00 0.00 0.00 0.00 0.00 0.00 0.00 0.00 0.00 0.00 0.00 0.00 0.00 0.00 0.00 0.00 0.00 0.00 0.00 0.00 0.00 0.00 0.00 0.00 0.00 0.00 0.00 0.00 0.00 0.00 0.00 0.00 0.00 0.00 0.00 0.06 0.17 0.12 0.03 0.03 0.08 0.05 0.08 0.06 0.00 0.00
0.00 0.00 0.00 0.00 0.00 0.00 0.00 0.00 0.00 0.00 0.00 0.00 0.00 0.00 0.00 0.00 0.00 0.00 0.00 0.00 0.00 0.00 0.00 0.00 0.00 0.00 0.00 0.00 0.00 0.00 0.00 0.00 0.00 0.00 0.00 0.00 0.00 0.00 0.04 0.19 0.20 0.03 0.00 0.04 0.06 0.03 0.01 0.00 0.00
0.00 0.00 0.00 0.00 0.00 0.00 0.00 0.00 0.00 0.00 0.00 0.00 0.00 0.00 0.00 0.00 0.00 0.00 0.00 0.00 0.00 0.00 0.00 0.00 0.00 0.00 0.00 0.00 0.00 0.00 0.00 0.00 0.00 0.00 0.00 0.00 0.00 0.00 0.02 0.07 0.13 0.03 0.01 0.03 0.04 0.03 0.00 0.00 0.00
0.00 0.00 0.00 0.00 0.00 0.00 0.00 0.00 0.00 0.00 0.01 0.00 0.00 0.00 0.00 0.00 0.00 0.00 0.00 0.00 0.00 0.00 0.00 0.00 0.00 0.00 0.00 0.00 0.00 0.00 0.00 0.00 0.00 0.00 0.00 0.00 0.00 0.00 0.05 0.13 0.13 0.04 0.03 0.09 0.05 0.02 0.00 0.00 0.00
0.00 0.00 0.00 0.00 0.00 0.00 0.00 0.00 0.00 0.00 0.00 0.00 0.00 0.00 0.00 0.00 0.00 0.00 0.00 0.00 0.00 0.00 0.00 0.00 0.00 0.00 0.00 0.00 0.00 0.00 0.00 0.00 0.00 0.00 0.00 0.00 0.00 0.01 0.03 0.16 0.12 0.05 0.07 0.07 0.07 0.03 0.02 0.00 0.00
0.00 0.00 0.00 0.00 0.00 0.00 0.00 0.00 0.00 0.00 0.00 0.00 0.00 0.00 0.00 0.00 0.00 0.00 0.00 0.00 0.00 0.00 0.00 0.00 0.00 0.00 0.00 0.00 0.00 0.00 0.00 0.00 0.00 0.00 0.00 0.00 0.00 0.00 0.10 0.20 0.07 0.07 0.03 0.19 0.11 0.01 0.00 0.00 0.00
0.00 0.00 0.00 0.00 0.00 0.00 0.00 0.00 0.00 0.00 0.00 0.00 0.00 0.00 0.00 0.00 0.00 0.00 0.00 0.00 0.00 0.00 0.00 0.00 0.00 0.00 0.00 0.00 0.00 0.00 0.00 0.00 0.00 0.00 0.00 0.00 0.00 0.00 0.03 0.07 0.03 0.03 0.03 0.12 0.12 0.00 0.00 0.00 0.00
0.00 0.00 0.00 0.00 0.00 0.00 0.00 0.00 0.00 0.00 0.00 0.00 0.00 0.00 0.00 0.00 0.00 0.00 0.00 0.00 0.00 0.00 0.00 0.00 0.00 0.00 0.00 0.00 0.00 0.00 0.00 0.00 0.00 0.00 0.00 0.00 0.02 0.01 0.00 0.00 0.02 0.02 0.01 0.07 0.11 0.03 0.00 0.00 0.00
0.00 0.00 0.00 0.00 0.00 0.00 0.00 0.00 0.00 0.00 0.00 0.00 0.00 0.00 0.00 0.00 0.00 0.00 0.00 0.00 0.00 0.00 0.00 0.00 0.00 0.00 0.00 0.00 0.00 0.00 0.00 0.00 0.00 0.00 0.00 0.00 0.00 0.00 0.00 0.01 0.03 0.04 0.01 0.02 0.04 0.03 0.00 0.00 0.00
0.00 0.00 0.00 0.00 0.00 0.00 0.00 0.00 0.00 0.00 0.00 0.00 0.00 0.00 0.00 0.00 0.00 0.00 0.00 0.00 0.00 0.00 0.00 0.00 0.00 0.00 0.00 0.00 0.00 0.00 0.00 0.00 0.00 0.00 0.00 0.00 0.00 0.00 0.00 0.01 0.04 0.01 0.01 0.01 0.00 0.01 0.00 0.00 0.00
0.00 0.00 0.00 0.00 0.00 0.00 0.00 0.00 0.00 0.00 0.00 0.00 0.00 0.00 0.00 0.00 0.00 0.00 0.00 0.00 0.00 0.00 0.00 0.00 0.00 0.00 0.00 0.00 0.00 0.00 0.00 0.00 0.00 0.00 0.00 0.00 0.00 0.00 0.00 0.00 0.00 0.00 0.00 0.00 0.00 0.00 0.00 0.00 0.00
0.00 0.00 0.00 0.00 0.00 0.00 0.00 0.00 0.00 0.00 0.00 0.00 0.00 0.00 0.00 0.00 0.00 0.00 0.00 0.00 0.00 0.00 0.00 0.00 0.00 0.00 0.00 0.00 0.00 0.00 0.00 0.00 0.00 0.00 0.00 0.00 0.00 0.00 0.00 0.00 0.00 0.00 0.00 0.00 0.00 0.00 0.00 0.00 0.00
0.00 0.00 0.00 0.00 0.00 0.00 0.00 0.00 0.00 0.00 0.00 0.00 0.00 0.00 0.00 0.00 0.00 0.00 0.00 0.00 0.00 0.00 0.00 0.00 0.00 0.00 0.00 0.00 0.00 0.00 0.00 0.00 0.00 0.00 0.00 0.00 0.00 0.00 0.00 0.00 0.00 0.00 0.00 0.00 0.00 0.00 0.00 0.00 0.00
0.00 0.00 0.00 0.00 0.00 0.00 0.00 0.00 0.00 0.00 0.00 0.00 0.00 0.00 0.00 0.00 0.00 0.00 0.00 0.00 0.00 0.00 0.00 0.00 0.00 0.00 0.00 0.00 0.00 0.00 0.00 0.00 0.00 0.00 0.00 0.00 0.00 0.00 0.00 0.00 0.00 0.00 0.00 0.00 0.00 0.00 0.00 0.00 0.00
0.00 0.00 0.00 0.00 0.00 0.00 0.00 0.00 0.00 0.00 0.00 0.00 0.00 0.00 0.00 0.00 0.00 0.00 0.00 0.00 0.00 0.00 0.00 0.00 0.00 0.00 0.00 0.00 0.00 0.00 0.00 0.00 0.00 0.00 0.00 0.00 0.00 0.00 0.00 0.00 0.00 0.00 0.00 0.00 0.00 0.00 0.00 0.00 0.00

GFSSGP_prec_precacc12_039.txt.gz
Total_Precipitation_Accumulation
0.00 0.03 0.28 0.34 0.29 0.32 0.81 0.31 0.10 0.10 0.12 0.01 0.03 0.03 0.26 0.15 0.14 0.13 0.06 0.06 0.00 0.07 0.09 0.09 0.12 0.11 0.05 0.04 0.01 0.01 0.01 0.00 0.00 0.00 0.00 0.00 0.01 0.00 0.00 0.01 0.02 0.01 0.01 0.01 0.00 0.02 0.00 0.00 0.01
0.01 0.08 0.36 0.36 0.99 0.75 0.74 0.14 0.08 0.06 0.02 0.01 0.01 0.03 0.01 0.01 0.00 0.03 0.06 0.03 0.00 0.01 0.03 0.05 0.14 0.08 0.03 0.03 0.01 0.00 0.00 0.00 0.00 0.01 0.01 0.01 0.01 0.01 0.00 0.01 0.01 0.00 0.00 0.00 0.00 0.00 0.00 0.00 0.00
0.01 0.13 0.32 0.52 0.75 0.49 0.30 0.10 0.06 0.02 0.01 0.02 0.01 0.03 0.01 0.00 0.01 0.04 0.02 0.00 0.01 0.02 0.01 0.05 0.08 0.06 0.04 0.03 0.00 0.00 0.01 0.00 0.00 0.00 0.00 0.00 0.00 0.00 0.00 0.00 0.02 0.01 0.00 0.00 0.00 0.00 0.00 0.00 0.02
0.01 0.13 0.19 0.38 0.35 0.11 0.24 0.23 0.03 0.01 0.01 0.02 0.02 0.01 0.00 0.00 0.01 0.01 0.00 0.01 0.02 0.01 0.02 0.01 0.03 0.02 0.02 0.01 0.00 0.00 0.00 0.00 0.00 0.00 0.00 0.00 0.00 0.00 0.00 0.01 0.04 0.03 0.00 0.00 0.00 0.00 0.00 0.00 0.05
0.08 0.28 0.81 0.63 0.26 0.09 0.10 0.04 0.03 0.02 0.01 0.02 0.01 0.00 0.02 0.02 0.00 0.00 0.00 0.01 0.01 0.02 0.02 0.00 0.05 0.04 0.01 0.00 0.00 0.00 0.00 0.00 0.00 0.00 0.00 0.00 0.00 0.00 0.00 0.00 0.03 0.01 0.00 0.00 0.00 0.00 0.00 0.00 0.00
0.30 1.05 0.52 0.19 0.09 0.11 0.08 0.02 0.01 0.03 0.01 0.01 0.00 0.00 0.04 0.02 0.00 0.00 0.01 0.01 0.03 0.01 0.00 0.00 0.02 0.01 0.01 0.00 0.00 0.00 0.00 0.00 0.00 0.00 0.00 0.00 0.00 0.00 0.03 0.00 0.00 0.00 0.00 0.00 0.00 0.00 0.00 0.00 0.00
0.14 1.90 0.52 0.34 0.14 0.06 0.06 0.07 0.08 0.04 0.00 0.00 0.00 0.01 0.03 0.02 0.00 0.00 0.00 0.01 0.01 0.00 0.00 0.00 0.00 0.00 0.01 0.00 0.00 0.00 0.00 0.00 0.00 0.00 0.00 0.00 0.00 0.00 0.01 0.02 0.00 0.00 0.00 0.00 0.00 0.00 0.00 0.00 0.01
0.06 1.75 1.63 0.40 0.08 0.04 0.01 0.02 0.06 0.02 0.00 0.00 0.00 0.00 0.02 0.01 0.00 0.00 0.01 0.01 0.00 0.00 0.00 0.00 0.00 0.00 0.00 0.00 0.00 0.00 0.00 0.00 0.00 0.00 0.00 0.01 0.02 0.01 0.01 0.01 0.01 0.00 0.00 0.00 0.00 0.00 0.00 0.00 0.00
0.04 1.37 0.55 0.11 0.01 0.02 0.03 0.00 0.00 0.00 0.00 0.02 0.01 0.00 0.00 0.00 0.00 0.00 0.00 0.01 0.00 0.00 0.00 0.00 0.00 0.00 0.00 0.00 0.00 0.00 0.00 0.00 0.00 0.03 0.08 0.26 0.24 0.14 0.05 0.01 0.00 0.01 0.01 0.00 0.00 0.00 0.01 0.00 0.01
0.12 0.51 0.23 0.08 0.01 0.02 0.00 0.00 0.00 0.00 0.00 0.00 0.00 0.00 0.00 0.00 0.00 0.00 0.00 0.00 0.00 0.00 0.00 0.00 0.00 0.00 0.00 0.00 0.00 0.00 0.00 0.00 0.02 0.09 0.38 0.68 0.20 0.12 0.04 0.00 0.01 0.02 0.00 0.00 0.00 0.00 0.06 0.03 0.05
0.02 0.24 0.06 0.00 0.00 0.01 0.00 0.00 0.00 0.00 0.00 0.00 0.00 0.00 0.00 0.00 0.00 0.00 0.00 0.00 0.00 0.00 0.00 0.00 0.00 0.00 0.00 0.00 0.00 0.00 0.00 0.00 0.04 0.11 0.65 1.11 0.43 0.13 0.14 0.01 0.00 0.00 0.01 0.03 0.36 0.19 0.03 0.01 0.01
0.00 0.04 0.01 0.00 0.00 0.01 0.03 0.01 0.00 0.00 0.00 0.00 0.00 0.00 0.00 0.00 0.00 0.00 0.00 0.00 0.00 0.00 0.00 0.00 0.00 0.00 0.00 0.00 0.00 0.00 0.00 0.00 0.00 0.04 0.13 0.30 0.58 0.28 0.30 0.06 0.04 0.10 0.06 0.15 0.19 0.12 0.03 0.01 0.00
0.00 0.00 0.00 0.01 0.00 0.00 0.02 0.04 0.01 0.00 0.00 0.00 0.00 0.00 0.00 0.00 0.00 0.00 0.00 0.00 0.00 0.00 0.00 0.00 0.00 0.00 0.00 0.00 0.00 0.00 0.00 0.00 0.00 0.02 0.04 0.21 0.18 0.10 0.04 0.04 0.07 0.02 0.06 0.12 0.06 0.04 0.04 0.05 0.00
0.00 0.00 0.00 0.01 0.00 0.00 0.00 0.01 0.01 0.00 0.00 0.00 0.00 0.00 0.00 0.00 0.00 0.00 0.00 0.00 0.00 0.00 0.00 0.00 0.00 0.00 0.00 0.00 0.00 0.00 0.00 0.00 0.00 0.00 0.00 0.06 0.10 0.03 0.04 0.04 0.01 0.01 0.03 0.11 0.10 0.10 0.06 0.02 0.00
0.00 0.00 0.00 0.00 0.00 0.00 0.00 0.00 0.00 0.02 0.02 0.00 0.00 0.00 0.00 0.00 0.00 0.00 0.00 0.00 0.00 0.00 0.00 0.00 0.00 0.00 0.00 0.00 0.00 0.00 0.00 0.00 0.00 0.00 0.00 0.00 0.01 0.04 0.10 0.14 0.05 0.01 0.04 0.08 0.05 0.07 0.03 0.00 0.00
0.00 0.00 0.00 0.00 0.00 0.00 0.00 0.00 0.00 0.00 0.01 0.00 0.00 0.00 0.00 0.00 0.00 0.00 0.00 0.00 0.00 0.00 0.00 0.00 0.00 0.00 0.00 0.00 0.00 0.00 0.00 0.00 0.00 0.00 0.00 0.00 0.00 0.02 0.18 0.28 0.16 0.03 0.04 0.06 0.03 0.04 0.02 0.00 0.00
0.00 0.00 0.00 0.00 0.00 0.00 0.00 0.00 0.00 0.00 0.04 0.03 0.00 0.00 0.00 0.00 0.00 0.00 0.00 0.00 0.00 0.00 0.00 0.00 0.00 0.00 0.00 0.00 0.00 0.00 0.00 0.00 0.00 0.00 0.00 0.00 0.00 0.00 0.07 0.22 0.22 0.06 0.01 0.03 0.04 0.02 0.01 0.00 0.00
0.00 0.00 0.00 0.00 0.00 0.00 0.00 0.00 0.00 0.00 0.02 0.12 0.06 0.00 0.00 0.00 0.00 0.00 0.00 0.00 0.00 0.00 0.00 0.00 0.00 0.00 0.00 0.00 0.00 0.00 0.00 0.00 0.00 0.00 0.00 0.00 0.00 0.00 0.03 0.10 0.14 0.05 0.01 0.03 0.04 0.02 0.00 0.00 0.00
0.00 0.00 0.00 0.00 0.00 0.00 0.00 0.00 0.00 0.00 0.03 0.21 0.09 0.05 0.00 0.00 0.00 0.00 0.00 0.00 0.00 0.00 0.00 0.00 0.00 0.00 0.00 0.00 0.00 0.00 0.00 0.00 0.00 0.00 0.00 0.00 0.00 0.00 0.06 0.15 0.19 0.04 0.03 0.08 0.04 0.02 0.00 0.00 0.00
0.00 0.00 0.00 0.00 0.00 0.00 0.00 0.00 0.00 0.00 0.00 0.02 0.20 0.15 0.04 0.00 0.00 0.00 0.00 0.00 0.00 0.00 0.00 0.00 0.00 0.00 0.00 0.00 0.00 0.00 0.00 0.00 0.00 0.00 0.00 0.00 0.00 0.01 0.04 0.19 0.14 0.08 0.08 0.08 0.07 0.03 0.02 0.00 0.00
0.00 0.00 0.00 0.00 0.00 0.00 0.00 0.00 0.00 0.00 0.00 0.00 0.06 0.27 0.05 0.00 0.00 0.00 0.00 0.00 0.00 0.00 0.00 0.00 0.00 0.00 0.00 0.00 0.00 0.00 0.00 0.00 0.00 0.00 0.00 0.00 0.00 0.00 0.10 0.20 0.08 0.08 0.04 0.20 0.11 0.01 0.00 0.00 0.00
0.00 0.00 0.00 0.00 0.00 0.00 0.00 0.00 0.00 0.00 0.00 0.00 0.00 0.00 0.01 0.01 0.00 0.00 0.00 0.00 0.00 0.00 0.00 0.00 0.00 0.00 0.00 0.00 0.00 0.00 0.00 0.00 0.00 0.00 0.00 0.00 0.00 0.00 0.03 0.07 0.03 0.03 0.03 0.13 0.13 0.00 0.00 0.00 0.00
0.00 0.00 0.00 0.00 0.00 0.00 0.00 0.00 0.00 0.00 0.00 0.00 0.00 0.00 0.00 0.00 0.01 0.00 0.00 0.00 0.00 0.00 0.00 0.00 0.00 0.00 0.00 0.00 0.00 0.00 0.00 0.00 0.00 0.00 0.00 0.00 0.02 0.01 0.00 0.00 0.03 0.02 0.02 0.07 0.11 0.03 0.00 0.00 0.00
0.00 0.00 0.00 0.00 0.00 0.00 0.00 0.00 0.00 0.00 0.00 0.00 0.00 0.00 0.00 0.00 0.00 0.00 0.00 0.00 0.00 0.00 0.00 0.00 0.00 0.00 0.00 0.00 0.00 0.00 0.00 0.00 0.00 0.00 0.00 0.00 0.00 0.00 0.00 0.01 0.03 0.04 0.02 0.02 0.04 0.03 0.00 0.00 0.00
0.00 0.00 0.00 0.00 0.00 0.00 0.00 0.00 0.00 0.00 0.00 0.00 0.00 0.00 0.00 0.00 0.00 0.00 0.00 0.00 0.00 0.00 0.00 0.00 0.00 0.00 0.00 0.00 0.00 0.00 0.00 0.00 0.00 0.00 0.00 0.00 0.00 0.00 0.00 0.01 0.04 0.01 0.01 0.01 0.00 0.01 0.00 0.00 0.00
0.00 0.00 0.00 0.00 0.00 0.00 0.00 0.00 0.00 0.00 0.00 0.00 0.00 0.00 0.00 0.00 0.00 0.00 0.00 0.00 0.00 0.00 0.00 0.00 0.00 0.00 0.00 0.00 0.00 0.00 0.00 0.00 0.00 0.00 0.00 0.00 0.00 0.00 0.00 0.00 0.00 0.00 0.00 0.00 0.00 0.00 0.00 0.00 0.00
0.00 0.00 0.00 0.00 0.00 0.00 0.00 0.00 0.00 0.00 0.00 0.00 0.00 0.00 0.00 0.00 0.00 0.00 0.00 0.00 0.00 0.00 0.00 0.00 0.00 0.00 0.00 0.00 0.00 0.00 0.00 0.00 0.00 0.00 0.00 0.00 0.00 0.00 0.00 0.00 0.00 0.00 0.00 0.00 0.00 0.00 0.00 0.00 0.00
0.00 0.00 0.00 0.00 0.00 0.00 0.00 0.00 0.00 0.00 0.00 0.00 0.00 0.00 0.00 0.00 0.00 0.00 0.00 0.00 0.00 0.00 0.00 0.00 0.00 0.00 0.00 0.00 0.00 0.00 0.00 0.00 0.00 0.00 0.00 0.00 0.00 0.00 0.00 0.00 0.00 0.00 0.00 0.00 0.00 0.00 0.00 0.00 0.00
0.00 0.00 0.00 0.00 0.00 0.00 0.00 0.00 0.00 0.00 0.00 0.00 0.00 0.00 0.00 0.00 0.00 0.00 0.00 0.00 0.00 0.00 0.00 0.00 0.00 0.00 0.00 0.00 0.00 0.00 0.00 0.00 0.00 0.00 0.00 0.00 0.00 0.00 0.00 0.00 0.00 0.00 0.00 0.00 0.00 0.00 0.00 0.00 0.00
0.00 0.00 0.00 0.00 0.00 0.00 0.00 0.00 0.00 0.00 0.00 0.00 0.00 0.00 0.00 0.00 0.00 0.00 0.00 0.00 0.00 0.00 0.00 0.00 0.00 0.00 0.00 0.00 0.00 0.00 0.00 0.00 0.00 0.00 0.00 0.00 0.00 0.00 0.00 0.00 0.00 0.00 0.00 0.00 0.00 0.00 0.00 0.00 0.00

GFSSGP_prec_precacc12_042.txt.gz
Total_Precipitation_Accumulation
0.00 0.01 0.19 0.28 0.25 0.29 0.74 0.28 0.13 0.28 0.17 0.02 0.04 0.03 0.25 0.13 0.14 0.07 0.05 0.04 0.00 0.05 0.06 0.01 0.03 0.03 0.01 0.02 0.01 0.01 0.01 0.00 0.00 0.00 0.00 0.01 0.00 0.00 0.00 0.01 0.01 0.00 0.01 0.01 0.00 0.00 0.00 0.00 0.01
0.00 0.07 0.39 0.40 0.96 0.76 0.75 0.17 0.19 0.32 0.07 0.03 0.01 0.03 0.01 0.01 0.00 0.03 0.05 0.01 0.00 0.01 0.02 0.01 0.03 0.05 0.03 0.02 0.01 0.00 0.00 0.01 0.00 0.01 0.01 0.01 0.01 0.01 0.00 0.01 0.00 0.00 0.00 0.00 0.00 0.00 0.00 0.00 0.00
0.00 0.16 0.66 1.12 0.88 0.50 0.54 0.14 0.12 0.05 0.04 0.02 0.01 0.03 0.01 0.00 0.01 0.03 0.02 0.00 0.01 0.02 0.01 0.02 0.02 0.04 0.04 0.03 0.01 0.00 0.01 0.00 0.00 0.00 0.00 0.00 0.00 0.01 0.00 0.00 0.00 0.00 0.00 0.00 0.00 0.00 0.00 0.00 0.00
0.01 0.22 0.52 0.40 0.42 0.21 0.54 0.26 0.06 0.01 0.02 0.04 0.04 0.01 0.00 0.00 0.00 0.01 0.00 0.01 0.02 0.01 0.01 0.00 0.02 0.02 0.02 0.01 0.00 0.00 0.00 0.00 0.00 0.00 0.00 0.00 0.00 0.00 0.00 0.00 0.00 0.00 0.00 0.00 0.00 0.00 0.00 0.00 0.00
0.09 0.34 0.94 0.65 0.41 0.16 0.19 0.18 0.09 0.07 0.08 0.04 0.01 0.00 0.01 0.01 0.00 0.00 0.00 0.01 0.01 0.02 0.02 0.00 0.05 0.04 0.01 0.00 0.00 0.00 0.00 0.00 0.00 0.00 0.00 0.00 0.00 0.00 0.00 0.00 0.00 0.00 0.00 0.00 0.00 0.00 0.00 0.00 0.00
0.31 1.07 0.60 0.27 0.19 0.44 0.17 0.13 0.14 0.11 0.09 0.02 0.00 0.00 0.03 0.01 0.00 0.00 0.01 0.01 0.03 0.01 0.00 0.00 0.01 0.02 0.00 0.00 0.00 0.00 0.00 0.00 0.00 0.00 0.00 0.00 0.00 0.00 0.03 0.00 0.00 0.00 0.00 0.00 0.00 0.00 0.01 0.00 0.00
0.14 1.99 0.60 0.48 0.23 0.18 0.40 0.29 0.19 0.10 0.04 0.01 0.00 0.01 0.03 0.01 0.00 0.00 0.00 0.01 0.01 0.00 0.00 0.00 0.00 0.00 0.00 0.00 0.00 0.00 0.00 0.00 0.00 0.00 0.00 0.00 0.00 0.00 0.01 0.02 0.00 0.00 0.00 0.00 0.00 0.00 0.03 0.03 0.04
0.06 1.75 1.67 0.53 0.38 0.31 0.13 0.12 0.13 0.08 0.01 0.00 0.00 0.00 0.02 0.01 0.00 0.00 0.01 0.01 0.00 0.00 0.00 0.00 0.00 0.00 0.00 0.00 0.00 0.00 0.00 0.00 0.00 0.00 0.00 0.01 0.01 0.00 0.00 0.01 0.01 0.00 0.00 0.00 0.00 0.00 0.01 0.03 0.04
0.06 1.54 0.61 0.12 0.05 0.09 0.17 0.09 0.05 0.04 0.01 0.03 0.02 0.00 0.00 0.00 0.00 0.00 0.00 0.01 0.00 0.00 0.00 0.00 0.00 0.00 0.00 0.00 0.00 0.00 0.00 0.00 0.00 0.04 0.08 0.26 0.22 0.13 0.05 0.01 0.00 0.00 0.00 0.00 0.00 0.00 0.01 0.01 0.05
0.22 0.64 0.24 0.09 0.02 0.04 0.12 0.15 0.02 0.01 0.00 0.02 0.01 0.00 0.00 0.00 0.00 0.00 0.00 0.00 0.00 0.00 0.00 0.00 0.00 0.00 0.00 0.00 0.00 0.00 0.00 0.00 0.03 0.09 0.38 0.68 0.20 0.12 0.04 0.01 0.01 0.00 0.00 0.00 0.00 0.00 0.06 0.03 0.06
0.08 0.26 0.06 0.00 0.00 0.01 0.00 0.07 0.03 0.00 0.00 0.00 0.00 0.00 0.00 0.00 0.00 0.00 0.00 0.00 0.00 0.00 0.00 0.00 0.00 0.00 0.00 0.00 0.00 0.00 0.00 0.00 0.04 0.11 0.65 1.11 0.43 0.13 0.14 0.01 0.00 0.00 0.02 0.03 0.36 0.19 0.03 0.01 0.01
0.01 0.04 0.01 0.00 0.00 0.01 0.04 0.01 0.01 0.00 0.00 0.00 0.00 0.00 0.00 0.00 0.00 0.00 0.00 0.00 0.00 0.00 0.00 0.00 0.00 0.00 0.00 0.00 0.00 0.00 0.00 0.00 0.00 0.04 0.13 0.30 0.58 0.28 0.30 0.08 0.04 0.10 0.06 0.16 0.20 0.11 0.01 0.00 0.00
0.00 0.00 0.00 0.01 0.00 0.00 0.02 0.05 0.01 0.00 0.00 0.00 0.00 0.00 0.00 0.00 0.00 0.00 0.00 0.00 0.00 0.00 0.00 0.00 0.00 0.00 0.00 0.00 0.00 0.00 0.00 0.00 0.00 0.02 0.04 0.21 0.18 0.10 0.05 0.07 0.08 0.03 0.06 0.13 0.04 0.01 0.00 0.00 0.00
0.00 0.00 0.00 0.01 0.00 0.00 0.00 0.01 0.01 0.00 0.00 0.00 0.00 0.00 0.00 0.00 0.00 0.00 0.00 0.00 0.00 0.00 0.00 0.00 0.00 0.00 0.00 0.00 0.00 0.00 0.00 0.00 0.00 0.00 0.00 0.06 0.10 0.03 0.05 0.07 0.03 0.01 0.04 0.10 0.04 0.02 0.01 0.01 0.00
0.00 0.00 0.00 0.01 0.00 0.00 0.00 0.00 0.00 0.02 0.02 0.00 0.00 0.00 0.00 0.00 0.00 0.00 0.00 0.00 0.00 0.00 0.00 0.00 0.00 0.00 0.00 0.00 0.00 0.00 0.00 0.00 0.00 0.00 0.00 0.00 0.02 0.06 0.18 0.08 0.02 0.01 0.02 0.01 0.00 0.02 0.01 0.00 0.00
0.00 0.00 0.00 0.00 0.00 0.00 0.00 0.00 0.00 0.00 0.01 0.00 0.00 0.00 0.00 0.00 0.00 0.00 0.00 0.00 0.00 0.00 0.00 0.00 0.00 0.00 0.00 0.00 0.00 0.00 0.00 0.00 0.00 0.00 0.00 0.00 0.00 0.03 0.18 0.16 0.07 0.03 0.02 0.02 0.02 0.02 0.00 0.00 0.00
0.00 0.00 0.00 0.00 0.00 0.00 0.00 0.00 0.00 0.00 0.04 0.03 0.00 0.00 0.00 0.00 0.00 0.00 0.00 0.00 0.00 0.00 0.00 0.00 0.00 0.00 0.00 0.00 0.00 0.00 0.00 0.00 0.00 0.00 0.00 0.00 0.00 0.01 0.07 0.21 0.19 0.06 0.02 0.00 0.00 0.00 0.00 0.00 0.00
0.00 0.00 0.00 0.00 0.00 0.00 0.00 0.00 0.00 0.00 0.02 0.12 0.07 0.01 0.00 0.00 0.00 0.00 0.00 0.00 0.00 0.00 0.00 0.00 0.00 0.00 0.00 0.00 0.00 0.00 0.00 0.00 0.00 0.00 0.00 0.00 0.00 0.00 0.03 0.10 0.04 0.03 0.02 0.02 0.00 0.00 0.00 0.00 0.00
0.00 0.00 0.00 0.00 0.00 0.00 0.00 0.00 0.00 0.00 0.03 0.21 0.09 0.07 0.03 0.00 0.00 0.00 0.00 0.00 0.00 0.00 0.00 0.00 0.00 0.00 0.00 0.00 0.00 0.00 0.00 0.00 0.00 0.00 0.00 0.00 0.00 0.00 0.05 0.13 0.14 0.03 0.04 0.02 0.00 0.00 0.00 0.00 0.00
0.00 0.00 0.00 0.00 0.00 0.00 0.00 0.00 0.00 0.00 0.00 0.02 0.20 0.16 0.09 0.00 0.00 0.00 0.00 0.00 0.00 0.00 0.00 0.00 0.00 0.00 0.00 0.00 0.00 0.00 0.00 0.00 0.00 0.00 0.00 0.00 0.00 0.01 0.03 0.15 0.08 0.05 0.08 0.05 0.04 0.00 0.01 0.00 0.00
0.00 0.00 0.00 0.00 0.00 0.00 0.00 0.00 0.00 0.00 0.00 0.00 0.06 0.28 0.05 0.01 0.00 0.00 0.00 0.00 0.00 0.00 0.00 0.00 0.00 0.00 0.00 0.00 0.00 0.00 0.00 0.00 0.00 0.00 0.00 0.00 0.00 0.00 0.10 0.13 0.05 0.07 0.03 0.18 0.07 0.00 0.00 0.00 0.00
0.00 0.00 0.00 0.00 0.00 0.00 0.00 0.00 0.00 0.00 0.00 0.00 0.00 0.00 0.01 0.01 0.00 0.00 0.00 0.00 0.00 0.00 0.00 0.00 0.00 0.00 0.00 0.00 0.00 0.00 0.00 0.00 0.00 0.00 0.00 0.00 0.00 0.00 0.03 0.04 0.01 0.03 0.03 0.11 0.09 0.00 0.00 0.00 0.00
0.00 0.00 0.00 0.00 0.00 0.00 0.00 0.00 0.00 0.00 0.00 0.00 0.00 0.00 0.00 0.00 0.01 0.00 0.00 0.00 0.00 0.00 0.00 0.00 0.00 0.00 0.00 0.00 0.00 0.00 0.00 0.00 0.00 0.00 0.00 0.00 0.02 0.01 0.00 0.00 0.03 0.02 0.02 0.07 0.10 0.03 0.00 0.00 0.00
0.00 0.00 0.00 0.00 0.00 0.00 0.00 0.00 0.00 0.00 0.00 0.00 0.00 0.00 0.00 0.00 0.00 0.00 0.00 0.00 0.00 0.00 0.00 0.00 0.00 0.00 0.00 0.00 0.00 0.00 0.00 0.00 0.00 0.00 0.00 0.00 0.00 0.00 0.00 0.01 0.03 0.04 0.02 0.02 0.04 0.03 0.00 0.00 0.00
0.00 0.00 0.00 0.00 0.00 0.00 0.00 0.00 0.00 0.00 0.00 0.00 0.00 0.00 0.00 0.00 0.00 0.00 0.00 0.00 0.00 0.00 0.00 0.00 0.00 0.00 0.00 0.00 0.00 0.00 0.00 0.00 0.00 0.00 0.00 0.00 0.00 0.00 0.00 0.01 0.04 0.01 0.01 0.01 0.00 0.01 0.00 0.00 0.00
0.00 0.00 0.00 0.00 0.00 0.00 0.00 0.00 0.00 0.00 0.00 0.00 0.00 0.00 0.00 0.00 0.00 0.00 0.00 0.00 0.00 0.00 0.00 0.00 0.00 0.00 0.00 0.00 0.00 0.00 0.00 0.00 0.00 0.00 0.00 0.00 0.00 0.00 0.00 0.00 0.00 0.00 0.00 0.00 0.00 0.00 0.00 0.00 0.00
0.00 0.00 0.00 0.00 0.00 0.00 0.00 0.00 0.00 0.00 0.00 0.00 0.00 0.00 0.00 0.00 0.00 0.00 0.00 0.00 0.00 0.00 0.00 0.00 0.00 0.00 0.00 0.00 0.00 0.00 0.00 0.00 0.00 0.00 0.00 0.00 0.00 0.00 0.00 0.00 0.00 0.00 0.00 0.00 0.00 0.00 0.00 0.00 0.00
0.00 0.00 0.00 0.00 0.00 0.00 0.00 0.00 0.00 0.00 0.00 0.00 0.00 0.00 0.00 0.00 0.00 0.00 0.00 0.00 0.00 0.00 0.00 0.00 0.00 0.00 0.00 0.00 0.00 0.00 0.00 0.00 0.00 0.00 0.00 0.00 0.00 0.00 0.00 0.00 0.00 0.00 0.00 0.00 0.00 0.00 0.00 0.00 0.00
0.00 0.00 0.00 0.00 0.00 0.00 0.00 0.00 0.00 0.00 0.00 0.00 0.00 0.00 0.00 0.00 0.00 0.00 0.00 0.00 0.00 0.00 0.00 0.00 0.00 0.00 0.00 0.00 0.00 0.00 0.00 0.00 0.00 0.00 0.00 0.00 0.00 0.00 0.00 0.00 0.00 0.00 0.00 0.00 0.00 0.00 0.00 0.00 0.00
0.00 0.00 0.00 0.00 0.00 0.00 0.00 0.00 0.00 0.00 0.00 0.00 0.00 0.00 0.00 0.00 0.00 0.00 0.00 0.00 0.00 0.00 0.00 0.00 0.00 0.00 0.00 0.00 0.00 0.00 0.00 0.00 0.00 0.00 0.00 0.00 0.00 0.00 0.00 0.00 0.00 0.00 0.00 0.00 0.00 0.00 0.00 0.00 0.00

GFSSGP_prec_precacc12_045.txt.gz
Total_Precipitation_Accumulation
0.00 0.00 0.08 0.17 0.22 0.19 0.65 0.25 0.14 0.29 0.18 0.02 0.03 0.02 0.21 0.09 0.06 0.01 0.00 0.00 0.00 0.00 0.00 0.01 0.01 0.03 0.01 0.02 0.01 0.01 0.01 0.00 0.01 0.01 0.01 0.03 0.04 0.03 0.04 0.02 0.00 0.00 0.01 0.00 0.00 0.00 0.00 0.00 0.01
0.00 0.06 0.33 0.42 0.83 0.63 0.72 0.18 0.20 0.34 0.08 0.03 0.01 0.03 0.01 0.01 0.00 0.01 0.00 0.00 0.00 0.00 0.00 0.00 0.01 0.03 0.02 0.02 0.01 0.00 0.01 0.01 0.01 0.04 0.02 0.02 0.01 0.02 0.03 0.01 0.01 0.00 0.01 0.06 0.07 0.06 0.01 0.01 0.05
0.00 0.20 0.91 1.38 0.84 0.43 0.59 0.24 0.16 0.08 0.09 0.03 0.01 0.02 0.00 0.00 0.01 0.00 0.00 0.00 0.00 0.00 0.00 0.00 0.00 0.02 0.04 0.03 0.01 0.01 0.01 0.00 0.01 0.03 0.01 0.03 0.01 0.01 0.01 0.00 0.00 0.00 0.00 0.04 0.04 0.08 0.04 0.00 0.02
0.01 0.27 0.72 0.33 0.40 0.26 0.65 0.45 0.14 0.02 0.02 0.06 0.05 0.00 0.00 0.00 0.00 0.00 0.00 0.00 0.00 0.00 0.01 0.00 0.00 0.00 0.02 0.01 0.00 0.00 0.00 0.00 0.00 0.01 0.00 0.01 0.00 0.00 0.00 0.00 0.00 0.00 0.00 0.00 0.00 0.02 0.05 0.05 0.04
0.09 0.36 0.82 0.57 0.44 0.18 0.30 0.27 0.19 0.19 0.16 0.06 0.01 0.00 0.01 0.00 0.00 0.00 0.00 0.00 0.00 0.01 0.02 0.00 0.02 0.02 0.01 0.00 0.00 0.00 0.00 0.00 0.00 0.01 0.00 0.00 0.00 0.00 0.00 0.00 0.00 0.00 0.00 0.01 0.01 0.03 0.03 0.04 0.05
0.29 0.99 0.45 0.27 0.20 0.45 0.38 0.55 0.47 0.30 0.22 0.08 0.01 0.00 0.01 0.00 0.00 0.00 0.01 0.00 0.02 0.00 0.00 0.00 0.01 0.01 0.00 0.00 0.00 0.00 0.00 0.00 0.00 0.00 0.00 0.00 0.00 0.00 0.03 0.00 0.00 0.00 0.00 0.01 0.02 0.03 0.09 0.07 0.05
0.13 1.90 0.53 0.49 0.27 0.25 0.44 0.53 0.41 0.25 0.14 0.07 0.03 0.00 0.01 0.01 0.00 0.00 0.00 0.01 0.01 0.00 0.00 0.00 0.01 0.00 0.00 0.00 0.00 0.00 0.00 0.00 0.00 0.00 0.00 0.00 0.00 0.00 0.02 0.02 0.00 0.00 0.00 0.00 0.01 0.02 0.06 0.07 0.09
0.06 1.74 1.67 0.54 0.40 0.35 0.15 0.22 0.31 0.20 0.10 0.06 0.01 0.00 0.01 0.00 0.00 0.00 0.01 0.01 0.00 0.00 0.00 0.00 0.00 0.00 0.00 0.00 0.00 0.00 0.00 0.00 0.00 0.00 0.00 0.01 0.01 0.00 0.03 0.02 0.01 0.00 0.00 0.00 0.01 0.03 0.05 0.06 0.07
0.06 1.53 0.60 0.12 0.05 0.11 0.22 0.20 0.15 0.15 0.06 0.03 0.02 0.00 0.00 0.00 0.00 0.00 0.00 0.01 0.00 0.00 0.00 0.00 0.00 0.00 0.00 0.00 0.00 0.00 0.00 0.00 0.00 0.04 0.08 0.18 0.16 0.09 0.04 0.01 0.00 0.00 0.00 0.00 0.03 0.03 0.05 0.04 0.05
0.22 0.46 0.21 0.09 0.03 0.10 0.18 0.24 0.09 0.04 0.01 0.02 0.01 0.00 0.00 0.00 0.00 0.00 0.00 0.00 0.00 0.00 0.00 0.00 0.00 0.00 0.00 0.00 0.00 0.00 0.00 0.00 0.03 0.09 0.38 0.51 0.19 0.11 0.04 0.01 0.01 0.00 0.00 0.00 0.00 0.00 0.06 0.03 0.06
0.10 0.18 0.04 0.00 0.00 0.06 0.00 0.08 0.05 0.00 0.00 0.00 0.00 0.00 0.00 0.00 0.00 0.00 0.00 0.00 0.00 0.00 0.00 0.00 0.00 0.00 0.00 0.00 0.00 0.00 0.00 0.00 0.04 0.11 0.62 1.00 0.42 0.11 0.04 0.01 0.00 0.00 0.02 0.02 0.26 0.12 0.02 0.01 0.01
0.02 0.04 0.01 0.00 0.00 0.01 0.04 0.01 0.01 0.00 0.00 0.00 0.00 0.00 0.00 0.00 0.00 0.00 0.00 0.00 0.00 0.00 0.00 0.00 0.00 0.00 0.00 0.00 0.00 0.00 0.00 0.00 0.00 0.04 0.13 0.30 0.54 0.27 0.27 0.07 0.04 0.10 0.06 0.16 0.13 0.05 0.01 0.00 0.00
0.00 0.00 0.00 0.01 0.00 0.00 0.02 0.05 0.00 0.00 0.00 0.00 0.00 0.00 0.00 0.00 0.00 0.00 0.00 0.00 0.00 0.00 0.00 0.00 0.00 0.00 0.00 0.00 0.00 0.00 0.00 0.00 0.00 0.02 0.04 0.21 0.16 0.10 0.05 0.07 0.08 0.03 0.05 0.12 0.07 0.03 0.00 0.00 0.00
0.00 0.00 0.00 0.01 0.00 0.00 0.00 0.01 0.01 0.00 0.00 0.00 0.00 0.00 0.00 0.00 0.00 0.00 0.00 0.00 0.00 0.00 0.00 0.00 0.00 0.00 0.00 0.00 0.00 0.00 0.00 0.00 0.00 0.00 0.00 0.06 0.10 0.03 0.05 0.07 0.03 0.01 0.03 0.08 0.07 0.03 0.00 0.01 0.00
0.00 0.00 0.00 0.01 0.00 0.00 0.00 0.00 0.00 0.02 0.02 0.00 0.00 0.00 0.00 0.00 0.00 0.00 0.00 0.00 0.00 0.00 0.00 0.00 0.00 0.00 0.00 0.00 0.00 0.00 0.00 0.00 0.00 0.00 0.00 0.00 0.02 0.06 0.15 0.08 0.02 0.01 0.02 0.01 0.01 0.02 0.01 0.00 0.00
0.00 0.00 0.00 0.00 0.00 0.00 0.00 0.00 0.00 0.00 0.01 0.00 0.00 0.00 0.00 0.00 0.00 0.00 0.00 0.00 0.00 0.00 0.00 0.00 0.00 0.00 0.00 0.00 0.00 0.00 0.00 0.00 0.00 0.00 0.00 0.00 0.00 0.03 0.14 0.14 0.07 0.02 0.02 0.02 0.02 0.02 0.00 0.00 0.00
0.00 0.00 0.00 0.00 0.00 0.00 0.00 0.00 0.00 0.00 0.04 0.03 0.00 0.00 0.00 0.00 0.00 0.00 0.00 0.00 0.00 0.00 0.00 0.00 0.00 0.00 0.00 0.00 0.00 0.00 0.00 0.00 0.00 0.00 0.00 0.00 0.00 0.01 0.06 0.12 0.12 0.06 0.03 0.03 0.01 0.01 0.00 0.00 0.00
0.00 0.00 0.00 0.00 0.00 0.00 0.00 0.00 0.00 0.00 0.02 0.12 0.07 0.01 0.00 0.00 0.00 0.00 0.00 0.00 0.00 0.00 0.00 0.00 0.00 0.00 0.00 0.00 0.00 0.00 0.00 0.00 0.00 0.00 0.00 0.00 0.00 0.00 0.03 0.09 0.03 0.03 0.02 0.03 0.00 0.00 0.00 0.00 0.00
0.00 0.00 0.00 0.00 0.00 0.00 0.00 0.00 0.00 0.00 0.03 0.21 0.09 0.07 0.03 0.00 0.00 0.00 0.00 0.00 0.00 0.00 0.00 0.00 0.00 0.00 0.00 0.00 0.00 0.00 0.00 0.00 0.00 0.00 0.00 0.00 0.00 0.00 0.02 0.12 0.12 0.04 0.05 0.02 0.00 0.00 0.00 0.00 0.00
0.00 0.00 0.00 0.00 0.00 0.00 0.00 0.00 0.00 0.00 0.00 0.02 0.20 0.16 0.09 0.00 0.00 0.00 0.00 0.00 0.00 0.00 0.00 0.00 0.00 0.00 0.00 0.00 0.00 0.00 0.00 0.00 0.00 0.00 0.00 0.00 0.00 0.01 0.03 0.10 0.06 0.06 0.04 0.05 0.02 0.00 0.01 0.00 0.00
0.00 0.00 0.00 0.00 0.00 0.00 0.00 0.00 0.00 0.00 0.00 0.00 0.06 0.28 0.05 0.01 0.00 0.00 0.00 0.00 0.00 0.00 0.00 0.00 0.00 0.00 0.00 0.00 0.00 0.00 0.00 0.00 0.00 0.00 0.00 0.00 0.00 0.00 0.06 0.07 0.05 0.07 0.07 0.13 0.06 0.00 0.00 0.00 0.00
0.00 0.00 0.00 0.00 0.00 0.00 0.00 0.00 0.00 0.00 0.00 0.00 0.00 0.00 0.01 0.01 0.00 0.00 0.00 0.00 0.00 0.00 0.00 0.00 0.00 0.00 0.00 0.00 0.00 0.00 0.00 0.00 0.00 0.00 0.00 0.00 0.00 0.00 0.02 0.01 0.01 0.02 0.05 0.08 0.05 0.00 0.00 0.00 0.00
0.00 0.00 0.00 0.00 0.00 0.00 0.00 0.00 0.00 0.00 0.00 0.00 0.00 0.00 0.00 0.00 0.01 0.00 0.00 0.00 0.00 0.00 0.00 0.00 0.00 0.00 0.00 0.00 0.00 0.00 0.00 0.00 0.00 0.00 0.00 0.00 0.01 0.01 0.00 0.00 0.01 0.01 0.02 0.05 0.03 0.01 0.00 0.00 0.00
0.00 0.00 0.00 0.00 0.00 0.00 0.00 0.00 0.00 0.00 0.00 0.00 0.00 0.00 0.00 0.00 0.00 0.00 0.00 0.00 0.00 0.00 0.00 0.00 0.00 0.00 0.00 0.00 0.00 0.00 0.00 0.00 0.00 0.00 0.00 0.00 0.00 0.00 0.00 0.01 0.01 0.01 0.01 0.02 0.03 0.02 0.00 0.00 0.00
0.00 0.00 0.00 0.00 0.00 0.00 0.00 0.00 0.00 0.00 0.00 0.00 0.00 0.00 0.00 0.00 0.00 0.00 0.00 0.00 0.00 0.00 0.00 0.00 0.00 0.00 0.00 0.00 0.00 0.00 0.00 0.00 0.00 0.00 0.00 0.00 0.00 0.00 0.00 0.00 0.02 0.01 0.01 0.01 0.00 0.01 0.00 0.00 0.00
0.00 0.00 0.00 0.00 0.00 0.00 0.00 0.00 0.00 0.00 0.00 0.00 0.00 0.00 0.00 0.00 0.00 0.00 0.00 0.00 0.00 0.00 0.00 0.00 0.00 0.00 0.00 0.00 0.00 0.00 0.00 0.00 0.00 0.00 0.00 0.00 0.00 0.00 0.00 0.00 0.00 0.00 0.00 0.00 0.00 0.00 0.00 0.00 0.00
0.00 0.00 0.00 0.00 0.00 0.00 0.00 0.00 0.00 0.00 0.00 0.00 0.00 0.00 0.00 0.00 0.00 0.00 0.00 0.00 0.00 0.00 0.00 0.00 0.00 0.00 0.00 0.00 0.00 0.00 0.00 0.00 0.00 0.00 0.00 0.00 0.00 0.00 0.00 0.00 0.00 0.00 0.00 0.00 0.00 0.00 0.00 0.00 0.00
0.00 0.00 0.00 0.00 0.00 0.00 0.00 0.00 0.00 0.00 0.00 0.00 0.00 0.00 0.00 0.00 0.00 0.00 0.00 0.00 0.00 0.00 0.00 0.00 0.00 0.00 0.00 0.00 0.00 0.00 0.00 0.00 0.00 0.00 0.00 0.00 0.00 0.00 0.00 0.00 0.00 0.00 0.00 0.00 0.00 0.00 0.00 0.00 0.00
0.00 0.00 0.00 0.00 0.00 0.00 0.00 0.00 0.00 0.00 0.00 0.00 0.00 0.00 0.00 0.00 0.00 0.00 0.00 0.00 0.00 0.00 0.00 0.00 0.00 0.00 0.00 0.00 0.00 0.00 0.00 0.00 0.00 0.00 0.00 0.00 0.00 0.00 0.00 0.00 0.00 0.00 0.00 0.00 0.00 0.00 0.00 0.00 0.00
0.00 0.00 0.00 0.00 0.00 0.00 0.00 0.00 0.00 0.00 0.00 0.00 0.00 0.00 0.00 0.00 0.00 0.00 0.00 0.00 0.00 0.00 0.00 0.00 0.00 0.00 0.00 0.00 0.00 0.00 0.00 0.00 0.00 0.00 0.00 0.00 0.00 0.00 0.00 0.00 0.00 0.00 0.00 0.00 0.00 0.00 0.00 0.00 0.00

GFSSGP_prec_precacc12_048.txt.gz
Total_Precipitation_Accumulation
0.00 0.00 0.02 0.09 0.18 0.13 0.38 0.15 0.13 0.28 0.18 0.02 0.02 0.01 0.11 0.05 0.00 0.00 0.00 0.00 0.00 0.00 0.02 0.03 0.02 0.02 0.01 0.01 0.00 0.02 0.02 0.01 0.01 0.02 0.06 0.08 0.12 0.18 0.09 0.07 0.01 0.04 0.05 0.01 0.00 0.00 0.00 0.01 0.01
0.00 0.02 0.21 0.52 0.47 0.37 0.68 0.21 0.22 0.35 0.08 0.03 0.01 0.01 0.01 0.01 0.00 0.01 0.00 0.00 0.00 0.00 0.00 0.00 0.02 0.02 0.01 0.00 0.01 0.01 0.01 0.02 0.01 0.07 0.13 0.10 0.16 0.12 0.04 0.01 0.02 0.16 0.27 0.21 0.11 0.07 0.01 0.03 0.07
0.00 0.19 0.91 1.25 0.74 0.31 0.63 0.27 0.19 0.16 0.11 0.04 0.01 0.02 0.00 0.00 0.00 0.00 0.00 0.00 0.00 0.00 0.00 0.00 0.01 0.01 0.00 0.01 0.02 0.02 0.02 0.01 0.02 0.08 0.07 0.10 0.06 0.04 0.02 0.01 0.03 0.09 0.07 0.08 0.08 0.08 0.07 0.04 0.05
0.01 0.27 0.75 0.28 0.33 0.29 0.78 0.55 0.20 0.14 0.14 0.07 0.08 0.01 0.00 0.00 0.00 0.00 0.00 0.00 0.00 0.00 0.00 0.00 0.01 0.00 0.01 0.01 0.02 0.01 0.00 0.01 0.05 0.07 0.06 0.06 0.04 0.01 0.00 0.00 0.02 0.01 0.00 0.00 0.00 0.02 0.05 0.08 0.12
0.06 0.29 0.53 0.24 0.40 0.18 0.33 0.32 0.26 0.42 0.29 0.17 0.03 0.02 0.00 0.00 0.00 0.00 0.00 0.00 0.00 0.00 0.01 0.00 0.02 0.01 0.01 0.01 0.01 0.00 0.00 0.01 0.07 0.07 0.02 0.01 0.01 0.01 0.01 0.01 0.00 0.00 0.00 0.01 0.03 0.05 0.07 0.06 0.09
0.17 0.27 0.19 0.18 0.20 0.45 0.40 0.63 0.56 0.40 0.45 0.25 0.09 0.03 0.00 0.00 0.00 0.00 0.00 0.00 0.00 0.00 0.00 0.00 0.01 0.01 0.00 0.00 0.00 0.00 0.00 0.01 0.02 0.03 0.01 0.00 0.00 0.01 0.04 0.00 0.01 0.01 0.02 0.03 0.03 0.03 0.10 0.08 0.12
0.04 0.25 0.30 0.47 0.27 0.26 0.46 0.82 0.73 0.32 0.31 0.11 0.07 0.01 0.00 0.01 0.00 0.00 0.00 0.00 0.00 0.00 0.00 0.01 0.01 0.00 0.00 0.00 0.00 0.00 0.00 0.00 0.00 0.01 0.00 0.00 0.00 0.00 0.02 0.03 0.03 0.01 0.04 0.02 0.02 0.02 0.06 0.07 0.14
0.05 1.03 1.23 0.44 0.42 0.35 0.20 0.23 0.32 0.28 0.15 0.08 0.02 0.00 0.01 0.00 0.00 0.00 0.00 0.00 0.00 0.00 0.00 0.00 0.00 0.00 0.00 0.00 0.00 0.00 0.00 0.00 0.00 0.00 0.00 0.00 0.00 0.01 0.04 0.11 0.07 0.02 0.04 0.03 0.04 0.04 0.05 0.06 0.07
0.05 1.36 0.54 0.12 0.09 0.17 0.29 0.21 0.16 0.23 0.07 0.03 0.02 0.00 0.00 0.00 0.00 0.00 0.00 0.01 0.00 0.01 0.00 0.00 0.00 0.00 0.00 0.00 0.00 0.00 0.00 0.00 0.00 0.02 0.02 0.03 0.03 0.02 0.03 0.04 0.02 0.03 0.07 0.06 0.06 0.04 0.05 0.04 0.05
0.22 0.27 0.16 0.09 0.03 0.14 0.25 0.24 0.12 0.10 0.04 0.02 0.01 0.00 0.00 0.00 0.00 0.00 0.00 0.00 0.00 0.00 0.00 0.00 0.00 0.00 0.00 0.00 0.00 0.00 0.00 0.00 0.02 0.03 0.01 0.09 0.05 0.04 0.03 0.01 0.01 0.00 0.02 0.01 0.00 0.00 0.02 0.01 0.07
0.11 0.07 0.00 0.00 0.00 0.07 0.01 0.09 0.08 0.01 0.00 0.00 0.00 0.00 0.00 0.00 0.00 0.00 0.00 0.00 0.00 0.00 0.00 0.00 0.00 0.00 0.00 0.00 0.00 0.00 0.00 0.00 0.04 0.04 0.02 0.37 0.14 0.08 0.03 0.01 0.01 0.02 0.01 0.01 0.01 0.01 0.00 0.00 0.01
0.03 0.02 0.00 0.00 0.00 0.00 0.03 0.01 0.02 0.00 0.00 0.00 0.00 0.00 0.00 0.00 0.00 0.00 0.00 0.00 0.00 0.00 0.00 0.00 0.00 0.00 0.00 0.00 0.00 0.00 0.00 0.00 0.00 0.03 0.04 0.08 0.32 0.10 0.06 0.04 0.03 0.06 0.04 0.04 0.03 0.01 0.00 0.00 0.00
0.00 0.00 0.00 0.00 0.00 0.00 0.00 0.00 0.00 0.00 0.00 0.00 0.00 0.00 0.00 0.00 0.00 0.00 0.00 0.00 0.00 0.00 0.00 0.00 0.00 0.00 0.00 0.00 0.00 0.00 0.00 0.00 0.00 0.02 0.04 0.10 0.07 0.05 0.02 0.05 0.08 0.03 0.03 0.07 0.07 0.04 0.00 0.00 0.00
0.00 0.00 0.00 0.01 0.00 0.00 0.00 0.00 0.00 0.00 0.00 0.00 0.00 0.00 0.00 0.00 0.00 0.00 0.00 0.00 0.00 0.00 0.00 0.00 0.00 0.00 0.00 0.00 0.00 0.00 0.00 0.00 0.00 0.00 0.00 0.06 0.09 0.02 0.06 0.08 0.04 0.02 0.03 0.02 0.05 0.03 0.00 0.00 0.00
0.00 0.00 0.00 0.01 0.00 0.00 0.00 0.00 0.00 0.01 0.02 0.00 0.00 0.00 0.00 0.00 0.00 0.00 0.00 0.00 0.00 0.00 0.00 0.00 0.00 0.00 0.00 0.00 0.00 0.00 0.00 0.00 0.00 0.00 0.00 0.00 0.02 0.05 0.14 0.07 0.01 0.01 0.01 0.01 0.01 0.01 0.00 0.00 0.00
0.00 0.00 0.00 0.00 0.00 0.00 0.00 0.00 0.00 0.00 0.01 0.00 0.00 0.00 0.00 0.00 0.00 0.00 0.00 0.00 0.00 0.00 0.00 0.00 0.00 0.00 0.00 0.00 0.00 0.00 0.00 0.00 0.00 0.00 0.00 0.00 0.01 0.05 0.13 0.12 0.04 0.00 0.01 0.04 0.06 0.03 0.00 0.00 0.00
0.00 0.00 0.00 0.00 0.00 0.00 0.00 0.00 0.00 0.00 0.04 0.03 0.00 0.00 0.00 0.00 0.00 0.00 0.00 0.00 0.00 0.00 0.00 0.00 0.00 0.00 0.00 0.00 0.00 0.00 0.00 0.00 0.00 0.00 0.00 0.00 0.00 0.01 0.04 0.06 0.03 0.03 0.03 0.05 0.04 0.01 0.00 0.00 0.00
0.00 0.00 0.00 0.00 0.00 0.00 0.00 0.00 0.00 0.00 0.02 0.12 0.07 0.01 0.00 0.00 0.00 0.00 0.00 0.00 0.00 0.00 0.00 0.00 0.00 0.00 0.00 0.00 0.00 0.00 0.00 0.00 0.00 0.00 0.00 0.00 0.00 0.00 0.01 0.05 0.02 0.01 0.02 0.03 0.00 0.00 0.00 0.00 0.00
0.00 0.00 0.00 0.00 0.00 0.00 0.00 0.00 0.00 0.00 0.02 0.21 0.09 0.07 0.03 0.00 0.00 0.00 0.00 0.00 0.00 0.00 0.00 0.00 0.00 0.00 0.00 0.00 0.00 0.00 0.00 0.00 0.00 0.00 0.00 0.00 0.00 0.00 0.01 0.02 0.06 0.01 0.05 0.01 0.00 0.00 0.00 0.00 0.00
0.00 0.00 0.00 0.00 0.00 0.00 0.00 0.00 0.00 0.00 0.00 0.02 0.20 0.16 0.09 0.00 0.00 0.00 0.00 0.00 0.00 0.00 0.00 0.00 0.00 0.00 0.00 0.00 0.00 0.00 0.00 0.00 0.00 0.00 0.00 0.00 0.00 0.00 0.01 0.03 0.03 0.04 0.04 0.04 0.01 0.00 0.00 0.00 0.00
0.00 0.00 0.00 0.00 0.00 0.00 0.00 0.00 0.00 0.00 0.00 0.00 0.06 0.28 0.05 0.01 0.00 0.00 0.00 0.00 0.00 0.00 0.00 0.00 0.00 0.00 0.00 0.00 0.00 0.00 0.00 0.00 0.00 0.00 0.00 0.00 0.00 0.00 0.00 0.00 0.01 0.02 0.09 0.04 0.00 0.00 0.00 0.00 0.00
0.00 0.00 0.00 0.00 0.00 0.00 0.00 0.00 0.00 0.00 0.00 0.00 0.00 0.00 0.01 0.01 0.00 0.00 0.00 0.00 0.00 0.00 0.00 0.00 0.00 0.00 0.00 0.00 0.00 0.00 0.00 0.00 0.00 0.00 0.00 0.00 0.00 0.00 0.00 0.00 0.00 0.00 0.04 0.04 0.01 0.00 0.00 0.00 0.00
0.00 0.00 0.00 0.00 0.00 0.00 0.00 0.00 0.00 0.00 0.00 0.00 0.00 0.00 0.00 0.00 0.01 0.00 0.00 0.00 0.00 0.00 0.00 0.00 0.00 0.00 0.00 0.00 0.00 0.00 0.00 0.00 0.00 0.00 0.00 0.00 0.00 0.00 0.00 0.00 0.00 0.00 0.02 0.02 0.02 0.00 0.00 0.00 0.00
0.00 0.00 0.00 0.00 0.00 0.00 0.00 0.00 0.00 0.00 0.00 0.00 0.00 0.00 0.00 0.00 0.00 0.00 0.00 0.00 0.00 0.00 0.00 0.00 0.00 0.00 0.00 0.00 0.00 0.00 0.00 0.00 0.00 0.00 0.00 0.00 0.00 0.00 0.00 0.00 0.00 0.00 0.00 0.00 0.01 0.00 0.00 0.00 0.00
0.00 0.00 0.00 0.00 0.00 0.00 0.00 0.00 0.00 0.00 0.00 0.00 0.00 0.00 0.00 0.00 0.00 0.00 0.00 0.00 0.00 0.00 0.00 0.00 0.00 0.00 0.00 0.00 0.00 0.00 0.00 0.00 0.00 0.00 0.00 0.00 0.00 0.00 0.00 0.00 0.00 0.00 0.00 0.00 0.00 0.00 0.00 0.00 0.00
0.00 0.00 0.00 0.00 0.00 0.00 0.00 0.00 0.00 0.00 0.00 0.00 0.00 0.00 0.00 0.00 0.00 0.00 0.00 0.00 0.00 0.00 0.00 0.00 0.00 0.00 0.00 0.00 0.00 0.00 0.00 0.00 0.00 0.00 0.00 0.00 0.00 0.00 0.00 0.00 0.00 0.00 0.00 0.00 0.00 0.00 0.00 0.00 0.00
0.00 0.00 0.00 0.00 0.00 0.00 0.00 0.00 0.00 0.00 0.00 0.00 0.00 0.00 0.00 0.00 0.00 0.00 0.00 0.00 0.00 0.00 0.00 0.00 0.00 0.00 0.00 0.00 0.00 0.00 0.00 0.00 0.00 0.00 0.00 0.00 0.00 0.00 0.00 0.00 0.00 0.00 0.00 0.00 0.00 0.00 0.00 0.00 0.00
0.00 0.00 0.00 0.00 0.00 0.00 0.00 0.00 0.00 0.00 0.00 0.00 0.00 0.00 0.00 0.00 0.00 0.00 0.00 0.00 0.00 0.00 0.00 0.00 0.00 0.00 0.00 0.00 0.00 0.00 0.00 0.00 0.00 0.00 0.00 0.00 0.00 0.00 0.00 0.00 0.00 0.00 0.00 0.00 0.00 0.00 0.00 0.00 0.00
0.00 0.00 0.00 0.00 0.00 0.00 0.00 0.00 0.00 0.00 0.00 0.00 0.00 0.00 0.00 0.00 0.00 0.00 0.00 0.00 0.00 0.00 0.00 0.00 0.00 0.00 0.00 0.00 0.00 0.00 0.00 0.00 0.00 0.00 0.00 0.00 0.00 0.00 0.00 0.00 0.00 0.00 0.00 0.00 0.00 0.00 0.00 0.00 0.00
0.00 0.00 0.00 0.00 0.00 0.00 0.00 0.00 0.00 0.00 0.00 0.00 0.00 0.00 0.00 0.00 0.00 0.00 0.00 0.00 0.00 0.00 0.00 0.00 0.00 0.00 0.00 0.00 0.00 0.00 0.00 0.00 0.00 0.00 0.00 0.00 0.00 0.00 0.00 0.00 0.00 0.00 0.00 0.00 0.00 0.00 0.00 0.00 0.00

GFSSGP_prec_precacc12_051.txt.gz
Total_Precipitation_Accumulation
0.00 0.00 0.00 0.02 0.13 0.05 0.05 0.07 0.10 0.22 0.07 0.01 0.00 0.00 0.00 0.00 0.00 0.00 0.00 0.00 0.00 0.00 0.02 0.03 0.04 0.02 0.01 0.00 0.00 0.01 0.01 0.01 0.02 0.02 0.05 0.08 0.14 0.19 0.09 0.08 0.06 0.10 0.06 0.01 0.00 0.01 0.01 0.01 0.02
0.00 0.00 0.12 0.72 0.37 0.21 0.17 0.16 0.22 0.36 0.07 0.03 0.00 0.01 0.00 0.00 0.00 0.01 0.00 0.00 0.00 0.00 0.00 0.00 0.03 0.02 0.01 0.01 0.01 0.01 0.01 0.02 0.02 0.07 0.15 0.13 0.23 0.14 0.09 0.13 0.18 0.31 0.37 0.22 0.11 0.07 0.01 0.03 0.07
0.00 0.10 1.04 1.35 0.48 0.21 0.53 0.27 0.28 0.21 0.14 0.04 0.01 0.01 0.00 0.00 0.00 0.00 0.00 0.00 0.00 0.00 0.00 0.00 0.03 0.01 0.00 0.01 0.02 0.02 0.02 0.02 0.02 0.09 0.12 0.16 0.16 0.06 0.07 0.09 0.08 0.11 0.07 0.08 0.08 0.08 0.07 0.04 0.07
0.00 0.19 0.70 0.23 0.24 0.34 0.71 0.45 0.20 0.20 0.16 0.05 0.07 0.01 0.00 0.00 0.00 0.00 0.00 0.00 0.00 0.00 0.00 0.01 0.02 0.00 0.01 0.02 0.03 0.01 0.01 0.02 0.06 0.14 0.13 0.13 0.09 0.06 0.05 0.05 0.04 0.03 0.01 0.00 0.00 0.02 0.06 0.12 0.17
0.02 0.17 0.24 0.10 0.24 0.17 0.32 0.33 0.29 0.49 0.34 0.18 0.03 0.02 0.01 0.00 0.00 0.00 0.01 0.00 0.00 0.00 0.00 0.01 0.01 0.01 0.03 0.03 0.01 0.00 0.00 0.01 0.10 0.14 0.05 0.03 0.02 0.02 0.03 0.05 0.02 0.01 0.00 0.01 0.03 0.05 0.07 0.09 0.16
0.02 0.04 0.10 0.09 0.15 0.36 0.32 0.62 0.64 0.44 0.65 0.33 0.09 0.03 0.00 0.01 0.00 0.01 0.00 0.00 0.00 0.00 0.00 0.01 0.01 0.01 0.03 0.01 0.00 0.00 0.00 0.01 0.05 0.12 0.04 0.01 0.02 0.03 0.02 0.01 0.02 0.01 0.03 0.03 0.03 0.03 0.10 0.09 0.18
0.02 0.09 0.07 0.15 0.14 0.21 0.40 0.78 0.84 0.32 0.39 0.17 0.07 0.01 0.01 0.03 0.00 0.00 0.00 0.00 0.00 0.00 0.00 0.01 0.02 0.01 0.00 0.00 0.00 0.00 0.01 0.02 0.05 0.07 0.03 0.00 0.00 0.01 0.03 0.04 0.07 0.04 0.08 0.03 0.02 0.02 0.06 0.07 0.15
0.01 0.00 0.05 0.15 0.39 0.37 0.20 0.21 0.28 0.28 0.21 0.09 0.01 0.00 0.01 0.01 0.01 0.00 0.00 0.00 0.00 0.00 0.00 0.00 0.01 0.00 0.00 0.00 0.00 0.00 0.00 0.00 0.02 0.00 0.00 0.00 0.00 0.02 0.06 0.14 0.16 0.07 0.06 0.03 0.04 0.04 0.05 0.06 0.09
0.01 0.16 0.06 0.03 0.10 0.18 0.28 0.21 0.16 0.25 0.12 0.01 0.01 0.00 0.00 0.00 0.00 0.01 0.01 0.01 0.01 0.01 0.00 0.00 0.00 0.00 0.00 0.00 0.00 0.00 0.00 0.00 0.00 0.01 0.02 0.00 0.00 0.00 0.02 0.07 0.09 0.09 0.08 0.07 0.07 0.04 0.04 0.04 0.05
0.11 0.13 0.01 0.01 0.03 0.14 0.25 0.24 0.13 0.15 0.05 0.02 0.01 0.00 0.00 0.00 0.00 0.00 0.00 0.00 0.00 0.00 0.00 0.00 0.00 0.00 0.00 0.00 0.00 0.00 0.00 0.00 0.01 0.00 0.00 0.00 0.00 0.00 0.01 0.08 0.04 0.01 0.04 0.02 0.00 0.00 0.00 0.01 0.01
0.09 0.03 0.00 0.00 0.00 0.06 0.01 0.10 0.10 0.02 0.00 0.00 0.00 0.00 0.00 0.00 0.00 0.00 0.00 0.00 0.00 0.00 0.00 0.00 0.00 0.00 0.00 0.00 0.00 0.00 0.00 0.00 0.00 0.00 0.00 0.00 0.00 0.00 0.00 0.01 0.02 0.02 0.01 0.00 0.00 0.00 0.00 0.00 0.00
0.04 0.00 0.00 0.00 0.00 0.00 0.00 0.01 0.02 0.00 0.00 0.00 0.00 0.00 0.00 0.00 0.00 0.00 0.00 0.00 0.00 0.00 0.00 0.00 0.00 0.00 0.00 0.00 0.00 0.00 0.00 0.00 0.00 0.00 0.00 0.00 0.00 0.00 0.00 0.02 0.01 0.00 0.01 0.01 0.01 0.00 0.00 0.00 0.00
0.00 0.00 0.00 0.00 0.00 0.00 0.00 0.00 0.00 0.00 0.00 0.00 0.00 0.00 0.00 0.00 0.00 0.00 0.00 0.00 0.00 0.00 0.00 0.00 0.00 0.00 0.00 0.00 0.00 0.00 0.00 0.00 0.00 0.00 0.00 0.00 0.00 0.00 0.01 0.03 0.05 0.02 0.01 0.03 0.05 0.03 0.00 0.00 0.00
0.00 0.01 0.00 0.01 0.00 0.00 0.00 0.00 0.00 0.00 0.00 0.00 0.00 0.00 0.00 0.00 0.00 0.00 0.00 0.00 0.00 0.00 0.00 0.00 0.00 0.00 0.00 0.00 0.00 0.00 0.00 0.00 0.00 0.00 0.00 0.00 0.00 0.01 0.04 0.06 0.04 0.02 0.00 0.01 0.03 0.02 0.00 0.00 0.00
0.00 0.00 0.00 0.01 0.00 0.00 0.00 0.00 0.00 0.00 0.00 0.00 0.00 0.00 0.00 0.00 0.00 0.00 0.00 0.00 0.00 0.00 0.00 0.00 0.00 0.00 0.00 0.00 0.00 0.00 0.00 0.00 0.00 0.00 0.00 0.00 0.01 0.02 0.08 0.02 0.01 0.01 0.00 0.01 0.01 0.01 0.00 0.00 0.00
0.00 0.00 0.00 0.00 0.00 0.00 0.00 0.00 0.00 0.00 0.00 0.00 0.00 0.00 0.00 0.00 0.00 0.00 0.00 0.00 0.00 0.00 0.00 0.00 0.00 0.00 0.00 0.00 0.00 0.00 0.00 0.00 0.00 0.00 0.00 0.00 0.01 0.03 0.00 0.01 0.01 0.00 0.00 0.04 0.06 0.03 0.00 0.00 0.00
0.00 0.00 0.00 0.00 0.00 0.00 0.00 0.00 0.00 0.00 0.00 0.00 0.00 0.00 0.00 0.00 0.00 0.00 0.00 0.00 0.00 0.00 0.00 0.00 0.00 0.00 0.00 0.00 0.00 0.00 0.00 0.00 0.00 0.00 0.00 0.00 0.00 0.00 0.01 0.11 0.04 0.00 0.02 0.05 0.04 0.01 0.00 0.00 0.00
0.00 0.00 0.00 0.00 0.00 0.00 0.00 0.00 0.00 0.00 0.00 0.00 0.01 0.01 0.00 0.00 0.00 0.00 0.00 0.00 0.00 0.00 0.00 0.00 0.00 0.00 0.00 0.00 0.00 0.00 0.00 0.00 0.00 0.00 0.00 0.00 0.00 0.00 0.01 0.09 0.03 0.01 0.04 0.05 0.00 0.00 0.00 0.00 0.00
0.00 0.00 0.00 0.00 0.00 0.01 0.00 0.00 0.00 0.00 0.00 0.00 0.00 0.01 0.03 0.00 0.00 0.00 0.00 0.00 0.00 0.00 0.00 0.00 0.00 0.00 0.00 0.00 0.00 0.00 0.00 0.00 0.00 0.00 0.00 0.00 0.00 0.00 0.00 0.01 0.01 0.02 0.10 0.06 0.01 0.00 0.00 0.00 0.00
0.00 0.00 0.00 0.00 0.00 0.00 0.01 0.00 0.00 0.00 0.00 0.00 0.00 0.01 0.04 0.00 0.00 0.00 0.00 0.00 0.00 0.00 0.00 0.00 0.00 0.00 0.00 0.00 0.00 0.00 0.00 0.00 0.00 0.00 0.00 0.00 0.00 0.00 0.00 0.00 0.01 0.08 0.06 0.04 0.01 0.00 0.00 0.00 0.00
0.00 0.00 0.00 0.00 0.00 0.00 0.00 0.00 0.00 0.00 0.00 0.00 0.00 0.00 0.00 0.00 0.00 0.00 0.00 0.00 0.00 0.00 0.00 0.00 0.00 0.00 0.00 0.00 0.00 0.00 0.00 0.00 0.00 0.00 0.00 0.00 0.00 0.00 0.00 0.00 0.00 0.07 0.14 0.04 0.00 0.00 0.00 0.00 0.00
0.00 0.00 0.00 0.00 0.00 0.00 0.00 0.00 0.00 0.00 0.00 0.00 0.00 0.00 0.00 0.00 0.00 0.00 0.00 0.00 0.00 0.00 0.00 0.00 0.00 0.00 0.00 0.00 0.00 0.00 0.00 0.00 0.00 0.00 0.00 0.00 0.00 0.00 0.00 0.00 0.00 0.01 0.06 0.06 0.01 0.00 0.00 0.00 0.00
0.00 0.00 0.00 0.00 0.00 0.00 0.00 0.00 0.00 0.00 0.00 0.00 0.00 0.00 0.00 0.00 0.00 0.00 0.00 0.00 0.00 0.00 0.00 0.00 0.00 0.00 0.00 0.00 0.00 0.00 0.00 0.00 0.00 0.00 0.00 0.00 0.00 0.00 0.00 0.00 0.00 0.00 0.01 0.05 0.03 0.02 0.00 0.00 0.00
0.00 0.00 0.00 0.00 0.00 0.00 0.00 0.00 0.00 0.00 0.00 0.00 0.00 0.00 0.00 0.00 0.00 0.00 0.00 0.00 0.00 0.00 0.00 0.00 0.00 0.00 0.00 0.00 0.00 0.00 0.00 0.00 0.00 0.00 0.00 0.00 0.00 0.00 0.00 0.00 0.00 0.00 0.00 0.00 0.01 0.01 0.00 0.00 0.00
0.00 0.00 0.00 0.00 0.00 0.00 0.00 0.00 0.00 0.00 0.00 0.00 0.00 0.00 0.00 0.00 0.00 0.00 0.00 0.00 0.00 0.00 0.00 0.00 0.00 0.00 0.00 0.00 0.00 0.00 0.00 0.00 0.00 0.00 0.00 0.00 0.00 0.00 0.00 0.00 0.00 0.00 0.00 0.00 0.00 0.00 0.00 0.00 0.00
0.00 0.00 0.00 0.00 0.00 0.00 0.00 0.00 0.00 0.00 0.00 0.00 0.00 0.00 0.00 0.00 0.00 0.00 0.00 0.00 0.00 0.00 0.00 0.00 0.00 0.00 0.00 0.00 0.00 0.00 0.00 0.00 0.00 0.00 0.00 0.00 0.00 0.00 0.00 0.00 0.00 0.00 0.00 0.00 0.00 0.00 0.00 0.00 0.00
0.00 0.00 0.00 0.00 0.00 0.00 0.00 0.00 0.00 0.00 0.00 0.00 0.00 0.00 0.00 0.00 0.00 0.00 0.00 0.00 0.00 0.00 0.00 0.00 0.00 0.00 0.00 0.00 0.00 0.00 0.00 0.00 0.00 0.00 0.00 0.00 0.00 0.00 0.00 0.00 0.00 0.00 0.00 0.00 0.00 0.00 0.00 0.00 0.00
0.00 0.00 0.00 0.00 0.00 0.00 0.00 0.00 0.00 0.00 0.00 0.00 0.00 0.00 0.00 0.00 0.00 0.00 0.00 0.00 0.00 0.00 0.00 0.00 0.00 0.00 0.00 0.00 0.00 0.00 0.00 0.00 0.00 0.00 0.00 0.00 0.00 0.00 0.00 0.00 0.00 0.00 0.00 0.00 0.00 0.00 0.00 0.00 0.00
0.00 0.00 0.00 0.00 0.00 0.00 0.00 0.00 0.00 0.00 0.00 0.00 0.00 0.00 0.00 0.00 0.00 0.00 0.00 0.00 0.00 0.00 0.00 0.00 0.00 0.00 0.00 0.00 0.00 0.00 0.00 0.00 0.00 0.00 0.00 0.00 0.00 0.00 0.00 0.00 0.00 0.00 0.00 0.00 0.00 0.00 0.00 0.00 0.00
0.00 0.00 0.00 0.00 0.00 0.00 0.00 0.00 0.00 0.00 0.00 0.00 0.00 0.00 0.00 0.00 0.00 0.00 0.00 0.00 0.00 0.00 0.00 0.00 0.00 0.00 0.00 0.00 0.00 0.00 0.00 0.00 0.00 0.00 0.00 0.00 0.00 0.00 0.00 0.00 0.00 0.00 0.00 0.00 0.00 0.00 0.00 0.00 0.00

GFSSGP_prec_precacc12_054.txt.gz
Total_Precipitation_Accumulation
0.00 0.00 0.00 0.04 0.16 0.05 0.05 0.08 0.11 0.11 0.04 0.00 0.00 0.00 0.00 0.00 0.01 0.05 0.00 0.00 0.00 0.00 0.02 0.04 0.05 0.04 0.05 0.03 0.01 0.01 0.01 0.01 0.02 0.02 0.05 0.07 0.14 0.19 0.08 0.07 0.11 0.11 0.06 0.01 0.03 0.01 0.03 0.07 0.04
0.00 0.00 0.09 0.75 0.40 0.17 0.16 0.10 0.13 0.10 0.02 0.01 0.00 0.01 0.01 0.00 0.00 0.01 0.00 0.00 0.00 0.00 0.00 0.00 0.05 0.03 0.01 0.01 0.02 0.01 0.01 0.02 0.01 0.07 0.15 0.12 0.23 0.13 0.12 0.13 0.19 0.33 0.38 0.22 0.12 0.07 0.01 0.06 0.09
0.00 0.07 0.86 0.89 0.28 0.21 0.33 0.23 0.25 0.20 0.11 0.04 0.01 0.01 0.01 0.00 0.00 0.00 0.00 0.00 0.00 0.00 0.00 0.00 0.04 0.02 0.02 0.03 0.04 0.03 0.02 0.01 0.02 0.09 0.12 0.16 0.16 0.09 0.15 0.09 0.09 0.11 0.08 0.08 0.08 0.08 0.08 0.12 0.16
0.00 0.16 0.47 0.20 0.17 0.25 0.48 0.47 0.23 0.21 0.16 0.03 0.05 0.01 0.00 0.00 0.00 0.00 0.00 0.00 0.00 0.00 0.00 0.01 0.02 0.02 0.01 0.02 0.04 0.02 0.01 0.02 0.06 0.14 0.13 0.14 0.11 0.07 0.08 0.07 0.05 0.03 0.01 0.00 0.00 0.06 0.11 0.12 0.17
0.03 0.23 0.21 0.15 0.12 0.18 0.23 0.22 0.28 0.47 0.27 0.16 0.03 0.02 0.01 0.00 0.00 0.00 0.01 0.00 0.00 0.00 0.00 0.01 0.02 0.03 0.03 0.03 0.02 0.01 0.00 0.01 0.10 0.15 0.06 0.07 0.07 0.05 0.04 0.05 0.02 0.01 0.00 0.01 0.03 0.06 0.09 0.09 0.16
0.05 0.05 0.07 0.06 0.09 0.12 0.24 0.52 0.55 0.37 0.61 0.35 0.09 0.03 0.01 0.02 0.00 0.01 0.00 0.00 0.00 0.00 0.00 0.01 0.02 0.03 0.04 0.01 0.01 0.00 0.00 0.01 0.05 0.15 0.11 0.05 0.04 0.04 0.03 0.01 0.02 0.01 0.03 0.03 0.03 0.03 0.11 0.09 0.19
0.05 0.02 0.01 0.03 0.11 0.21 0.07 0.56 0.79 0.30 0.37 0.20 0.07 0.01 0.02 0.04 0.01 0.00 0.00 0.00 0.00 0.00 0.00 0.01 0.02 0.03 0.02 0.00 0.00 0.01 0.01 0.02 0.05 0.10 0.12 0.02 0.00 0.01 0.03 0.04 0.07 0.04 0.08 0.03 0.02 0.03 0.04 0.04 0.13
0.06 0.00 0.00 0.03 0.15 0.16 0.08 0.12 0.23 0.23 0.21 0.12 0.02 0.00 0.01 0.02 0.01 0.00 0.00 0.00 0.00 0.00 0.00 0.01 0.02 0.00 0.00 0.00 0.02 0.01 0.01 0.01 0.06 0.05 0.01 0.00 0.00 0.02 0.06 0.13 0.16 0.08 0.06 0.03 0.04 0.04 0.06 0.04 0.06
0.01 0.00 0.01 0.03 0.14 0.12 0.14 0.12 0.11 0.25 0.19 0.04 0.00 0.00 0.00 0.01 0.01 0.01 0.01 0.01 0.01 0.01 0.00 0.00 0.01 0.00 0.00 0.00 0.00 0.01 0.01 0.01 0.00 0.01 0.04 0.01 0.00 0.00 0.01 0.07 0.09 0.10 0.10 0.07 0.07 0.04 0.04 0.03 0.01
0.01 0.01 0.01 0.00 0.02 0.12 0.14 0.09 0.11 0.14 0.06 0.00 0.00 0.00 0.00 0.01 0.01 0.00 0.00 0.00 0.00 0.00 0.00 0.00 0.00 0.00 0.00 0.00 0.00 0.00 0.00 0.00 0.00 0.00 0.00 0.00 0.00 0.00 0.00 0.09 0.05 0.02 0.04 0.03 0.00 0.00 0.00 0.00 0.01
0.03 0.01 0.00 0.00 0.00 0.06 0.01 0.03 0.07 0.03 0.02 0.00 0.00 0.00 0.00 0.00 0.00 0.00 0.00 0.00 0.00 0.00 0.00 0.00 0.00 0.00 0.00 0.00 0.00 0.00 0.00 0.00 0.00 0.00 0.00 0.00 0.00 0.00 0.00 0.01 0.03 0.02 0.00 0.00 0.00 0.00 0.00 0.00 0.00
0.03 0.00 0.00 0.00 0.00 0.00 0.00 0.00 0.01 0.00 0.02 0.00 0.00 0.00 0.00 0.00 0.00 0.00 0.00 0.00 0.00 0.00 0.00 0.00 0.00 0.00 0.00 0.00 0.00 0.00 0.00 0.00 0.00 0.00 0.00 0.00 0.00 0.00 0.00 0.00 0.00 0.00 0.00 0.00 0.00 0.00 0.00 0.00 0.00
0.00 0.00 0.00 0.00 0.00 0.00 0.00 0.00 0.00 0.00 0.00 0.00 0.00 0.00 0.00 0.00 0.00 0.00 0.00 0.00 0.00 0.00 0.00 0.00 0.00 0.00 0.00 0.00 0.00 0.00 0.00 0.00 0.00 0.00 0.00 0.00 0.00 0.00 0.00 0.00 0.04 0.01 0.01 0.03 0.04 0.03 0.00 0.00 0.00
0.00 0.01 0.00 0.00 0.00 0.00 0.00 0.00 0.00 0.00 0.00 0.00 0.00 0.00 0.00 0.00 0.00 0.00 0.00 0.00 0.00 0.00 0.00 0.00 0.00 0.00 0.00 0.00 0.00 0.00 0.00 0.00 0.00 0.00 0.00 0.00 0.00 0.00 0.04 0.07 0.04 0.02 0.00 0.00 0.03 0.01 0.00 0.00 0.00
0.00 0.00 0.00 0.01 0.00 0.00 0.00 0.00 0.00 0.00 0.00 0.00 0.00 0.00 0.00 0.00 0.00 0.00 0.00 0.00 0.00 0.00 0.00 0.00 0.00 0.00 0.00 0.00 0.00 0.00 0.00 0.00 0.00 0.00 0.00 0.00 0.00 0.00 0.01 0.01 0.03 0.01 0.00 0.01 0.01 0.01 0.00 0.00 0.00
0.00 0.00 0.00 0.00 0.00 0.00 0.00 0.00 0.00 0.00 0.00 0.00 0.00 0.00 0.00 0.00 0.00 0.00 0.00 0.00 0.00 0.00 0.00 0.00 0.00 0.00 0.00 0.00 0.00 0.00 0.00 0.00 0.00 0.00 0.00 0.00 0.01 0.05 0.11 0.07 0.01 0.00 0.00 0.02 0.04 0.01 0.00 0.00 0.00
0.00 0.00 0.00 0.00 0.00 0.00 0.00 0.00 0.00 0.00 0.00 0.00 0.00 0.00 0.00 0.00 0.00 0.00 0.00 0.00 0.00 0.00 0.00 0.00 0.00 0.00 0.00 0.00 0.00 0.00 0.00 0.00 0.00 0.00 0.00 0.00 0.00 0.09 0.12 0.13 0.11 0.03 0.01 0.05 0.04 0.01 0.00 0.00 0.00
0.00 0.00 0.00 0.00 0.00 0.00 0.00 0.00 0.00 0.00 0.00 0.00 0.00 0.00 0.00 0.00 0.00 0.00 0.00 0.00 0.00 0.00 0.00 0.00 0.00 0.00 0.00 0.00 0.00 0.00 0.00 0.00 0.00 0.00 0.00 0.00 0.00 0.06 0.10 0.12 0.13 0.10 0.03 0.03 0.00 0.00 0.00 0.00 0.00
0.00 0.00 0.00 0.00 0.01 0.01 0.00 0.00 0.00 0.00 0.00 0.00 0.00 0.00 0.00 0.00 0.00 0.00 0.00 0.00 0.00 0.00 0.00 0.00 0.00 0.00 0.00 0.00 0.00 0.00 0.00 0.00 0.00 0.00 0.00 0.00 0.00 0.03 0.06 0.05 0.11 0.10 0.10 0.06 0.02 0.00 0.00 0.00 0.00
0.00 0.00 0.00 0.00 0.00 0.00 0.02 0.00 0.00 0.00 0.00 0.00 0.00 0.00 0.00 0.00 0.00 0.00 0.00 0.00 0.00 0.00 0.00 0.00 0.00 0.00 0.00 0.00 0.00 0.00 0.00 0.00 0.00 0.00 0.00 0.00 0.00 0.00 0.00 0.04 0.08 0.14 0.10 0.11 0.07 0.01 0.00 0.00 0.00
0.00 0.00 0.00 0.00 0.00 0.00 0.00 0.00 0.00 0.00 0.00 0.00 0.00 0.00 0.00 0.00 0.00 0.00 0.00 0.00 0.00 0.00 0.00 0.00 0.00 0.00 0.00 0.00 0.00 0.00 0.00 0.00 0.00 0.00 0.00 0.00 0.00 0.00 0.00 0.04 0.08 0.12 0.18 0.09 0.07 0.03 0.00 0.00 0.00
0.00 0.00 0.00 0.00 0.00 0.00 0.00 0.00 0.00 0.00 0.00 0.00 0.00 0.00 0.00 0.00 0.00 0.00 0.00 0.00 0.00 0.00 0.00 0.00 0.00 0.00 0.00 0.00 0.00 0.00 0.00 0.00 0.00 0.00 0.00 0.00 0.00 0.00 0.00 0.02 0.07 0.08 0.14 0.14 0.06 0.01 0.00 0.00 0.00
0.00 0.00 0.00 0.00 0.00 0.00 0.00 0.00 0.00 0.00 0.00 0.00 0.00 0.00 0.00 0.00 0.00 0.00 0.00 0.00 0.00 0.00 0.00 0.00 0.00 0.00 0.00 0.00 0.00 0.00 0.00 0.00 0.00 0.00 0.00 0.00 0.00 0.00 0.00 0.00 0.03 0.07 0.10 0.13 0.10 0.12 0.03 0.00 0.00
0.00 0.00 0.00 0.00 0.00 0.00 0.00 0.00 0.00 0.00 0.00 0.00 0.00 0.00 0.00 0.00 0.00 0.00 0.00 0.00 0.00 0.00 0.00 0.00 0.00 0.00 0.00 0.00 0.00 0.00 0.00 0.00 0.00 0.00 0.00 0.00 0.00 0.00 0.00 0.00 0.00 0.03 0.02 0.04 0.09 0.09 0.05 0.00 0.00
0.00 0.00 0.00 0.00 0.00 0.00 0.00 0.00 0.00 0.00 0.00 0.00 0.00 0.00 0.00 0.00 0.00 0.00 0.00 0.00 0.00 0.00 0.00 0.00 0.00 0.00 0.00 0.00 0.00 0.00 0.00 0.00 0.00 0.00 0.00 0.00 0.00 0.00 0.00 0.00 0.00 0.00 0.00 0.00 0.05 0.08 0.04 0.00 0.00
0.00 0.00 0.00 0.00 0.00 0.00 0.00 0.00 0.00 0.00 0.00 0.00 0.00 0.00 0.00 0.00 0.00 0.00 0.00 0.00 0.00 0.00 0.00 0.00 0.00 0.00 0.00 0.00 0.00 0.00 0.00 0.00 0.00 0.00 0.00 0.00 0.00 0.00 0.00 0.00 0.00 0.00 0.00 0.00 0.00 0.02 0.01 0.00 0.00
0.00 0.00 0.00 0.00 0.00 0.00 0.00 0.00 0.00 0.00 0.00 0.00 0.00 0.00 0.00 0.00 0.00 0.00 0.00 0.00 0.00 0.00 0.00 0.00 0.00 0.00 0.00 0.00 0.00 0.00 0.00 0.00 0.00 0.00 0.00 0.00 0.00 0.00 0.00 0.00 0.00 0.00 0.00 0.00 0.00 0.00 0.00 0.00 0.01
0.00 0.00 0.00 0.00 0.00 0.00 0.00 0.00 0.00 0.00 0.00 0.00 0.00 0.00 0.00 0.00 0.00 0.00 0.00 0.00 0.00 0.00 0.00 0.00 0.00 0.00 0.00 0.00 0.00 0.00 0.00 0.00 0.00 0.00 0.00 0.00 0.00 0.00 0.00 0.00 0.00 0.00 0.00 0.00 0.00 0.00 0.00 0.00 0.00
0.00 0.00 0.00 0.00 0.00 0.00 0.00 0.00 0.00 0.00 0.00 0.00 0.00 0.00 0.00 0.00 0.00 0.00 0.00 0.00 0.00 0.00 0.00 0.00 0.00 0.00 0.00 0.00 0.00 0.00 0.00 0.00 0.00 0.00 0.00 0.00 0.00 0.00 0.00 0.00 0.00 0.00 0.00 0.00 0.00 0.00 0.00 0.00 0.00
0.00 0.00 0.00 0.00 0.00 0.00 0.00 0.00 0.00 0.00 0.00 0.00 0.00 0.00 0.00 0.00 0.00 0.00 0.00 0.00 0.00 0.00 0.00 0.00 0.00 0.00 0.00 0.00 0.00 0.00 0.00 0.00 0.00 0.00 0.00 0.00 0.00 0.00 0.00 0.00 0.00 0.00 0.00 0.00 0.00 0.00 0.00 0.00 0.00

GFSSGP_prec_precacc12_057.txt.gz
Total_Precipitation_Accumulation
0.00 0.00 0.00 0.04 0.16 0.08 0.14 0.16 0.12 0.15 0.03 0.00 0.00 0.00 0.01 0.04 0.09 0.14 0.00 0.00 0.00 0.00 0.02 0.03 0.06 0.04 0.05 0.03 0.01 0.01 0.01 0.01 0.02 0.02 0.04 0.05 0.10 0.17 0.04 0.09 0.13 0.11 0.08 0.02 0.03 0.02 0.16 0.13 0.06
0.00 0.00 0.06 0.74 0.39 0.21 0.28 0.09 0.18 0.11 0.02 0.01 0.00 0.00 0.01 0.00 0.00 0.00 0.00 0.00 0.00 0.00 0.00 0.00 0.05 0.05 0.01 0.02 0.03 0.05 0.01 0.01 0.01 0.03 0.14 0.11 0.22 0.12 0.10 0.13 0.27 0.39 0.38 0.16 0.05 0.01 0.02 0.06 0.06
0.00 0.04 0.63 0.59 0.26 0.27 0.43 0.15 0.24 0.18 0.07 0.02 0.00 0.01 0.01 0.01 0.00 0.00 0.00 0.00 0.00 0.00 0.00 0.00 0.04 0.02 0.03 0.04 0.05 0.07 0.04 0.03 0.02 0.07 0.11 0.14 0.16 0.09 0.15 0.09 0.10 0.12 0.07 0.04 0.04 0.00 0.05 0.11 0.15
0.00 0.14 0.30 0.18 0.16 0.25 0.42 0.40 0.22 0.20 0.15 0.00 0.03 0.03 0.00 0.00 0.00 0.00 0.00 0.00 0.00 0.00 0.00 0.01 0.02 0.04 0.03 0.03 0.05 0.03 0.01 0.02 0.06 0.13 0.13 0.14 0.10 0.07 0.08 0.07 0.05 0.03 0.01 0.00 0.00 0.04 0.07 0.07 0.13
0.03 0.30 0.28 0.22 0.18 0.19 0.15 0.19 0.23 0.38 0.19 0.16 0.06 0.03 0.01 0.00 0.00 0.00 0.01 0.00 0.00 0.00 0.00 0.01 0.03 0.04 0.03 0.04 0.03 0.01 0.00 0.01 0.09 0.14 0.06 0.07 0.08 0.06 0.05 0.05 0.03 0.01 0.00 0.01 0.05 0.05 0.06 0.05 0.12
0.09 0.13 0.16 0.17 0.16 0.19 0.05 0.11 0.27 0.20 0.47 0.30 0.09 0.03 0.01 0.02 0.00 0.01 0.00 0.00 0.00 0.00 0.00 0.01 0.02 0.04 0.05 0.02 0.01 0.00 0.00 0.01 0.05 0.15 0.10 0.05 0.05 0.05 0.03 0.01 0.02 0.01 0.03 0.04 0.03 0.00 0.03 0.02 0.15
0.10 0.12 0.09 0.09 0.11 0.21 0.03 0.33 0.62 0.17 0.29 0.15 0.05 0.05 0.03 0.04 0.01 0.00 0.00 0.00 0.00 0.00 0.00 0.01 0.02 0.04 0.02 0.03 0.01 0.01 0.01 0.02 0.05 0.10 0.13 0.04 0.00 0.01 0.02 0.03 0.07 0.04 0.08 0.03 0.04 0.02 0.01 0.01 0.09
0.12 0.05 0.02 0.06 0.18 0.24 0.07 0.01 0.08 0.19 0.14 0.07 0.03 0.04 0.02 0.02 0.01 0.00 0.00 0.00 0.00 0.00 0.00 0.01 0.02 0.00 0.00 0.01 0.04 0.03 0.01 0.01 0.06 0.05 0.02 0.00 0.00 0.02 0.03 0.13 0.16 0.08 0.06 0.03 0.05 0.02 0.02 0.01 0.05
0.02 0.02 0.03 0.10 0.16 0.17 0.08 0.01 0.02 0.18 0.15 0.04 0.01 0.01 0.00 0.01 0.01 0.01 0.01 0.01 0.01 0.01 0.00 0.00 0.01 0.00 0.00 0.00 0.03 0.04 0.02 0.01 0.00 0.01 0.06 0.03 0.00 0.00 0.01 0.07 0.09 0.10 0.10 0.07 0.04 0.00 0.00 0.00 0.00
0.02 0.05 0.06 0.01 0.02 0.06 0.07 0.01 0.05 0.12 0.05 0.00 0.00 0.00 0.00 0.01 0.01 0.00 0.00 0.00 0.00 0.00 0.00 0.00 0.00 0.00 0.00 0.00 0.00 0.01 0.01 0.00 0.00 0.00 0.00 0.01 0.00 0.00 0.00 0.09 0.05 0.02 0.04 0.03 0.00 0.00 0.00 0.00 0.01
0.01 0.00 0.01 0.01 0.00 0.01 0.03 0.13 0.08 0.04 0.03 0.00 0.00 0.00 0.00 0.00 0.00 0.00 0.00 0.00 0.00 0.00 0.00 0.00 0.00 0.00 0.00 0.00 0.00 0.00 0.00 0.00 0.00 0.00 0.00 0.00 0.00 0.00 0.00 0.01 0.04 0.02 0.01 0.00 0.00 0.02 0.00 0.01 0.00
0.02 0.00 0.02 0.03 0.00 0.00 0.01 0.05 0.03 0.01 0.08 0.01 0.00 0.00 0.00 0.00 0.00 0.00 0.00 0.00 0.00 0.00 0.00 0.00 0.00 0.00 0.00 0.00 0.00 0.00 0.00 0.00 0.00 0.00 0.00 0.00 0.00 0.00 0.01 0.01 0.01 0.01 0.01 0.00 0.02 0.06 0.00 0.00 0.02
0.00 0.01 0.01 0.00 0.02 0.04 0.01 0.00 0.09 0.02 0.02 0.00 0.00 0.00 0.00 0.00 0.00 0.00 0.00 0.00 0.00 0.00 0.00 0.00 0.00 0.00 0.00 0.00 0.00 0.00 0.00 0.00 0.00 0.00 0.00 0.00 0.00 0.00 0.00 0.01 0.06 0.02 0.02 0.03 0.03 0.01 0.00 0.00 0.00
0.00 0.01 0.03 0.00 0.00 0.01 0.00 0.01 0.00 0.00 0.00 0.00 0.00 0.00 0.00 0.00 0.00 0.00 0.00 0.00 0.00 0.00 0.00 0.00 0.00 0.00 0.00 0.00 0.00 0.00 0.00 0.00 0.00 0.00 0.00 0.00 0.00 0.02 0.05 0.07 0.04 0.02 0.00 0.00 0.00 0.00 0.00 0.00 0.00
0.00 0.00 0.00 0.01 0.00 0.00 0.00 0.00 0.00 0.01 0.00 0.00 0.00 0.00 0.00 0.00 0.00 0.00 0.00 0.00 0.00 0.00 0.00 0.00 0.00 0.00 0.00 0.00 0.00 0.00 0.00 0.00 0.00 0.00 0.00 0.00 0.00 0.02 0.06 0.02 0.03 0.01 0.00 0.01 0.00 0.00 0.00 0.00 0.00
0.00 0.00 0.00 0.00 0.00 0.00 0.00 0.00 0.00 0.00 0.00 0.00 0.00 0.00 0.00 0.00 0.00 0.00 0.00 0.00 0.00 0.00 0.00 0.00 0.00 0.00 0.00 0.00 0.00 0.00 0.00 0.00 0.00 0.00 0.00 0.00 0.03 0.10 0.14 0.08 0.02 0.00 0.00 0.02 0.04 0.00 0.00 0.00 0.00
0.00 0.00 0.00 0.01 0.00 0.00 0.00 0.11 0.07 0.00 0.00 0.00 0.00 0.00 0.00 0.00 0.00 0.00 0.00 0.00 0.00 0.00 0.00 0.00 0.00 0.00 0.00 0.00 0.00 0.00 0.00 0.00 0.00 0.00 0.00 0.00 0.03 0.11 0.12 0.14 0.13 0.04 0.00 0.01 0.02 0.00 0.00 0.00 0.00
0.00 0.00 0.00 0.00 0.00 0.00 0.00 0.06 0.22 0.00 0.00 0.00 0.00 0.00 0.00 0.00 0.00 0.00 0.00 0.00 0.00 0.00 0.00 0.00 0.00 0.00 0.00 0.00 0.00 0.00 0.00 0.00 0.00 0.00 0.00 0.00 0.03 0.10 0.10 0.13 0.13 0.10 0.03 0.02 0.00 0.00 0.00 0.00 0.00
0.00 0.00 0.00 0.00 0.02 0.02 0.01 0.02 0.16 0.00 0.00 0.00 0.00 0.00 0.00 0.00 0.00 0.00 0.00 0.00 0.00 0.00 0.00 0.00 0.00 0.00 0.00 0.00 0.00 0.00 0.00 0.00 0.00 0.00 0.00 0.00 0.00 0.05 0.06 0.06 0.11 0.10 0.09 0.09 0.02 0.00 0.00 0.00 0.00
0.00 0.00 0.00 0.00 0.00 0.01 0.05 0.02 0.00 0.00 0.00 0.00 0.00 0.00 0.00 0.00 0.00 0.00 0.00 0.00 0.00 0.00 0.00 0.00 0.00 0.00 0.00 0.00 0.00 0.00 0.00 0.00 0.00 0.00 0.00 0.00 0.00 0.00 0.00 0.07 0.08 0.12 0.10 0.10 0.07 0.01 0.00 0.00 0.00
0.00 0.00 0.00 0.00 0.00 0.00 0.02 0.02 0.01 0.01 0.00 0.00 0.00 0.00 0.00 0.00 0.00 0.00 0.00 0.00 0.00 0.00 0.00 0.00 0.00 0.00 0.00 0.00 0.00 0.00 0.00 0.00 0.00 0.00 0.00 0.00 0.00 0.00 0.00 0.05 0.11 0.12 0.14 0.08 0.07 0.03 0.00 0.00 0.00
0.00 0.00 0.00 0.00 0.00 0.00 0.00 0.00 0.00 0.04 0.01 0.00 0.00 0.00 0.00 0.00 0.00 0.00 0.00 0.00 0.00 0.00 0.00 0.00 0.00 0.00 0.00 0.00 0.00 0.00 0.00 0.00 0.00 0.00 0.00 0.00 0.00 0.00 0.00 0.04 0.07 0.08 0.12 0.13 0.07 0.02 0.00 0.00 0.00
0.00 0.00 0.00 0.00 0.00 0.00 0.00 0.00 0.00 0.00 0.00 0.00 0.00 0.00 0.00 0.00 0.00 0.00 0.00 0.00 0.00 0.00 0.00 0.00 0.00 0.00 0.00 0.00 0.00 0.00 0.00 0.00 0.00 0.00 0.00 0.00 0.00 0.00 0.00 0.01 0.06 0.07 0.10 0.13 0.12 0.14 0.03 0.00 0.00
0.00 0.00 0.00 0.00 0.00 0.00 0.00 0.00 0.00 0.00 0.00 0.00 0.00 0.00 0.00 0.00 0.00 0.00 0.00 0.00 0.00 0.00 0.00 0.00 0.00 0.00 0.00 0.00 0.00 0.00 0.00 0.00 0.00 0.00 0.00 0.00 0.00 0.00 0.00 0.00 0.04 0.03 0.02 0.04 0.09 0.09 0.05 0.00 0.00
0.00 0.00 0.00 0.00 0.00 0.00 0.00 0.00 0.00 0.00 0.00 0.00 0.00 0.00 0.00 0.00 0.00 0.00 0.00 0.00 0.00 0.00 0.00 0.00 0.00 0.00 0.00 0.00 0.00 0.00 0.00 0.00 0.00 0.00 0.00 0.00 0.00 0.00 0.00 0.00 0.00 0.00 0.01 0.00 0.06 0.09 0.09 0.01 0.00
0.00 0.00 0.00 0.00 0.00 0.00 0.00 0.00 0.00 0.00 0.00 0.00 0.01 0.00 0.00 0.00 0.00 0.00 0.00 0.00 0.00 0.00 0.00 0.00 0.00 0.00 0.00 0.00 0.00 0.00 0.00 0.00 0.00 0.00 0.00 0.00 0.00 0.00 0.00 0.00 0.00 0.00 0.00 0.00 0.01 0.02 0.01 0.01 0.00
0.00 0.00 0.00 0.00 0.00 0.00 0.00 0.00 0.00 0.00 0.00 0.00 0.00 0.00 0.00 0.00 0.00 0.00 0.00 0.00 0.00 0.00 0.00 0.00 0.00 0.00 0.00 0.00 0.00 0.00 0.00 0.00 0.00 0.00 0.00 0.00 0.00 0.00 0.00 0.00 0.00 0.00 0.00 0.00 0.00 0.00 0.01 0.02 0.01
0.00 0.00 0.00 0.00 0.00 0.00 0.00 0.00 0.00 0.00 0.00 0.00 0.00 0.00 0.00 0.02 0.00 0.00 0.00 0.00 0.00 0.00 0.00 0.00 0.00 0.00 0.00 0.00 0.00 0.00 0.00 0.00 0.00 0.00 0.00 0.00 0.00 0.00 0.00 0.00 0.00 0.00 0.00 0.00 0.00 0.00 0.00 0.00 0.00
0.00 0.00 0.00 0.00 0.00 0.00 0.00 0.00 0.00 0.00 0.00 0.00 0.00 0.00 0.00 0.00 0.00 0.00 0.00 0.00 0.00 0.00 0.00 0.00 0.00 0.00 0.00 0.00 0.00 0.00 0.00 0.00 0.00 0.00 0.00 0.00 0.00 0.00 0.00 0.00 0.00 0.00 0.00 0.00 0.00 0.00 0.00 0.00 0.00
0.00 0.00 0.00 0.00 0.00 0.00 0.00 0.00 0.00 0.00 0.00 0.00 0.00 0.00 0.00 0.00 0.00 0.00 0.00 0.00 0.00 0.00 0.00 0.00 0.00 0.00 0.00 0.00 0.00 0.00 0.00 0.00 0.00 0.00 0.00 0.00 0.00 0.00 0.00 0.00 0.00 0.00 0.00 0.00 0.00 0.00 0.00 0.00 0.00

GFSSGP_prec_precacc12_060.txt.gz
Total_Precipitation_Accumulation
0.00 0.00 0.00 0.04 0.13 0.07 0.23 0.32 0.23 0.16 0.02 0.00 0.00 0.00 0.02 0.08 0.19 0.19 0.00 0.00 0.00 0.00 0.00 0.02 0.08 0.04 0.06 0.03 0.01 0.01 0.02 0.01 0.01 0.00 0.00 0.00 0.02 0.01 0.02 0.09 0.14 0.11 0.08 0.01 0.02 0.02 0.16 0.13 0.05
0.00 0.00 0.03 0.57 0.29 0.27 0.44 0.28 0.19 0.10 0.02 0.00 0.00 0.03 0.06 0.02 0.00 0.00 0.00 0.00 0.00 0.00 0.00 0.00 0.05 0.05 0.01 0.02 0.02 0.04 0.01 0.01 0.00 0.00 0.02 0.04 0.07 0.03 0.09 0.18 0.35 0.25 0.13 0.02 0.02 0.02 0.02 0.04 0.04
0.00 0.02 0.56 0.61 0.18 0.55 1.70 0.34 0.21 0.11 0.04 0.00 0.01 0.02 0.02 0.01 0.00 0.00 0.00 0.00 0.00 0.00 0.00 0.00 0.03 0.02 0.03 0.07 0.05 0.06 0.03 0.02 0.00 0.02 0.05 0.08 0.12 0.06 0.14 0.09 0.08 0.04 0.00 0.00 0.00 0.00 0.03 0.08 0.13
0.00 0.12 0.31 0.19 0.15 0.31 0.45 0.42 0.16 0.11 0.03 0.00 0.01 0.04 0.00 0.00 0.00 0.00 0.00 0.00 0.00 0.00 0.00 0.01 0.02 0.04 0.03 0.03 0.04 0.03 0.03 0.04 0.02 0.06 0.09 0.09 0.07 0.06 0.08 0.07 0.03 0.02 0.01 0.00 0.00 0.04 0.07 0.04 0.06
0.02 0.33 0.34 0.30 0.32 0.25 0.10 0.20 0.18 0.19 0.05 0.08 0.07 0.03 0.01 0.00 0.00 0.00 0.00 0.00 0.00 0.00 0.00 0.01 0.03 0.06 0.03 0.04 0.03 0.01 0.00 0.00 0.02 0.08 0.05 0.07 0.07 0.06 0.04 0.06 0.03 0.01 0.01 0.01 0.03 0.04 0.02 0.03 0.07
0.11 0.20 0.21 0.26 0.26 0.27 0.07 0.05 0.20 0.16 0.25 0.34 0.08 0.00 0.01 0.01 0.00 0.00 0.00 0.00 0.00 0.00 0.00 0.00 0.03 0.06 0.07 0.03 0.01 0.01 0.01 0.01 0.03 0.12 0.11 0.05 0.05 0.04 0.02 0.01 0.01 0.00 0.02 0.05 0.02 0.00 0.02 0.01 0.08
0.12 0.21 0.13 0.15 0.17 0.31 0.05 0.04 0.30 0.10 0.12 0.13 0.03 0.05 0.03 0.03 0.01 0.00 0.00 0.00 0.00 0.00 0.00 0.00 0.02 0.04 0.03 0.03 0.02 0.01 0.01 0.02 0.06 0.09 0.13 0.04 0.00 0.01 0.02 0.02 0.04 0.03 0.05 0.06 0.03 0.02 0.01 0.00 0.04
0.14 0.15 0.08 0.09 0.23 0.77 0.03 0.01 0.27 0.22 0.11 0.08 0.06 0.05 0.02 0.02 0.01 0.00 0.00 0.00 0.00 0.00 0.00 0.00 0.02 0.01 0.00 0.01 0.04 0.03 0.01 0.01 0.06 0.05 0.02 0.01 0.00 0.01 0.02 0.05 0.10 0.06 0.03 0.00 0.01 0.02 0.02 0.01 0.04
0.04 0.12 0.10 0.12 0.18 0.54 0.03 0.00 0.12 0.32 0.14 0.05 0.02 0.02 0.01 0.01 0.01 0.01 0.00 0.00 0.01 0.00 0.00 0.00 0.01 0.00 0.01 0.00 0.04 0.04 0.02 0.01 0.00 0.01 0.07 0.06 0.01 0.00 0.01 0.04 0.07 0.07 0.03 0.01 0.01 0.00 0.01 0.00 0.00
0.03 0.16 0.38 0.05 0.04 0.05 0.00 0.01 0.03 0.06 0.02 0.02 0.01 0.01 0.00 0.01 0.01 0.00 0.00 0.00 0.00 0.00 0.00 0.00 0.00 0.00 0.00 0.00 0.01 0.01 0.01 0.00 0.00 0.00 0.01 0.02 0.01 0.00 0.00 0.08 0.05 0.02 0.02 0.02 0.00 0.02 0.09 0.13 0.03
0.00 0.04 0.06 0.02 0.00 0.01 0.08 0.19 0.21 0.05 0.03 0.01 0.00 0.00 0.00 0.00 0.00 0.00 0.00 0.00 0.00 0.00 0.00 0.00 0.00 0.00 0.00 0.00 0.00 0.00 0.01 0.01 0.00 0.00 0.02 0.02 0.00 0.01 0.03 0.02 0.04 0.00 0.02 0.00 0.00 0.06 0.10 0.06 0.05
0.01 0.01 0.03 0.03 0.00 0.00 0.02 0.28 0.85 0.43 0.19 0.03 0.00 0.00 0.00 0.00 0.00 0.00 0.00 0.00 0.00 0.00 0.00 0.00 0.00 0.00 0.00 0.00 0.00 0.02 0.07 0.01 0.00 0.00 0.00 0.00 0.00 0.03 0.21 0.09 0.06 0.06 0.01 0.02 0.06 0.13 0.07 0.10 0.11
0.00 0.02 0.01 0.02 0.04 0.04 0.01 0.07 0.69 0.26 0.39 0.06 0.00 0.00 0.00 0.00 0.00 0.00 0.00 0.00 0.00 0.00 0.00 0.00 0.00 0.00 0.01 0.00 0.01 0.00 0.01 0.00 0.00 0.00 0.00 0.05 0.02 0.05 0.04 0.09 0.08 0.04 0.04 0.01 0.02 0.00 0.00 0.02 0.00
0.00 0.01 0.03 0.00 0.01 0.03 0.01 0.01 0.02 0.15 0.03 0.00 0.00 0.00 0.00 0.00 0.00 0.00 0.00 0.00 0.00 0.00 0.00 0.00 0.00 0.00 0.01 0.00 0.01 0.01 0.00 0.00 0.00 0.00 0.00 0.07 0.02 0.11 0.07 0.08 0.04 0.06 0.03 0.00 0.01 0.00 0.00 0.01 0.00
0.00 0.00 0.00 0.02 0.01 0.02 0.01 0.06 0.01 0.09 0.04 0.00 0.00 0.00 0.00 0.00 0.00 0.00 0.00 0.00 0.00 0.00 0.00 0.00 0.00 0.00 0.00 0.00 0.00 0.00 0.00 0.00 0.00 0.00 0.00 0.00 0.03 0.06 0.12 0.06 0.04 0.01 0.02 0.01 0.00 0.00 0.00 0.00 0.00
0.00 0.00 0.00 0.00 0.01 0.00 0.00 0.01 0.02 0.10 0.10 0.00 0.00 0.00 0.00 0.00 0.00 0.00 0.00 0.00 0.00 0.00 0.00 0.00 0.00 0.00 0.00 0.00 0.00 0.00 0.00 0.00 0.00 0.00 0.00 0.00 0.02 0.11 0.22 0.17 0.07 0.00 0.00 0.00 0.00 0.00 0.00 0.00 0.00
0.00 0.00 0.00 0.01 0.01 0.00 0.00 0.12 0.17 0.07 0.01 0.00 0.00 0.00 0.00 0.00 0.00 0.00 0.00 0.00 0.00 0.00 0.00 0.00 0.00 0.00 0.00 0.00 0.00 0.00 0.00 0.00 0.00 0.00 0.00 0.00 0.03 0.12 0.21 0.22 0.25 0.04 0.03 0.00 0.00 0.00 0.00 0.00 0.00
0.00 0.00 0.00 0.00 0.01 0.00 0.00 0.07 0.44 0.12 0.03 0.00 0.00 0.00 0.00 0.00 0.00 0.00 0.00 0.00 0.00 0.00 0.00 0.00 0.00 0.00 0.00 0.00 0.00 0.00 0.00 0.00 0.00 0.00 0.00 0.00 0.03 0.10 0.14 0.14 0.12 0.11 0.04 0.02 0.00 0.00 0.00 0.00 0.00
0.00 0.00 0.00 0.00 0.02 0.02 0.02 0.04 0.49 0.08 0.02 0.01 0.00 0.00 0.00 0.00 0.00 0.00 0.00 0.00 0.00 0.00 0.00 0.00 0.00 0.00 0.00 0.00 0.00 0.00 0.00 0.00 0.01 0.00 0.02 0.02 0.01 0.05 0.08 0.09 0.11 0.11 0.11 0.14 0.01 0.00 0.00 0.00 0.00
0.00 0.00 0.00 0.00 0.00 0.01 0.05 0.05 0.13 0.14 0.01 0.00 0.00 0.00 0.00 0.00 0.00 0.00 0.00 0.00 0.00 0.00 0.00 0.00 0.00 0.00 0.00 0.00 0.00 0.00 0.00 0.00 0.02 0.00 0.01 0.00 0.00 0.00 0.01 0.08 0.09 0.13 0.12 0.09 0.07 0.05 0.00 0.00 0.00
0.00 0.00 0.00 0.00 0.00 0.00 0.03 0.06 0.04 0.17 0.18 0.05 0.00 0.00 0.00 0.00 0.00 0.00 0.00 0.00 0.00 0.00 0.00 0.00 0.00 0.00 0.00 0.00 0.00 0.00 0.00 0.00 0.00 0.00 0.00 0.00 0.00 0.00 0.02 0.06 0.12 0.13 0.14 0.06 0.07 0.04 0.01 0.00 0.00
0.00 0.00 0.00 0.00 0.00 0.00 0.00 0.01 0.01 0.09 0.30 0.33 0.02 0.00 0.00 0.00 0.00 0.00 0.00 0.00 0.00 0.00 0.00 0.00 0.00 0.00 0.00 0.00 0.00 0.00 0.00 0.00 0.00 0.00 0.00 0.00 0.00 0.00 0.00 0.05 0.09 0.13 0.16 0.14 0.07 0.02 0.02 0.01 0.00
0.00 0.00 0.00 0.00 0.00 0.00 0.00 0.00 0.00 0.01 0.24 0.31 0.02 0.00 0.00 0.00 0.00 0.00 0.00 0.00 0.00 0.00 0.00 0.00 0.00 0.00 0.00 0.00 0.00 0.00 0.00 0.00 0.00 0.00 0.00 0.01 0.00 0.00 0.00 0.01 0.06 0.10 0.13 0.14 0.11 0.15 0.05 0.02 0.00
0.00 0.00 0.00 0.00 0.00 0.00 0.00 0.00 0.00 0.00 0.00 0.09 0.11 0.02 0.00 0.00 0.00 0.00 0.00 0.00 0.00 0.00 0.00 0.00 0.00 0.00 0.00 0.00 0.00 0.00 0.00 0.00 0.00 0.00 0.00 0.00 0.00 0.00 0.00 0.03 0.06 0.05 0.04 0.07 0.11 0.10 0.05 0.01 0.01
0.00 0.00 0.00 0.00 0.00 0.00 0.00 0.00 0.00 0.00 0.00 0.01 0.10 0.14 0.00 0.00 0.00 0.00 0.00 0.00 0.00 0.00 0.00 0.00 0.00 0.00 0.00 0.00 0.00 0.00 0.00 0.00 0.00 0.00 0.00 0.00 0.00 0.00 0.00 0.00 0.03 0.02 0.03 0.05 0.09 0.11 0.10 0.01 0.00
0.00 0.00 0.00 0.00 0.00 0.00 0.00 0.00 0.00 0.00 0.00 0.00 0.02 0.04 0.04 0.00 0.00 0.00 0.00 0.00 0.00 0.00 0.00 0.00 0.00 0.00 0.00 0.00 0.00 0.00 0.00 0.00 0.00 0.00 0.00 0.00 0.00 0.00 0.00 0.00 0.00 0.01 0.03 0.04 0.06 0.03 0.02 0.02 0.00
0.00 0.00 0.00 0.00 0.00 0.00 0.00 0.00 0.00 0.00 0.00 0.00 0.00 0.08 0.12 0.06 0.01 0.00 0.00 0.00 0.00 0.00 0.00 0.00 0.00 0.00 0.00 0.00 0.00 0.00 0.00 0.00 0.00 0.00 0.00 0.00 0.00 0.00 0.00 0.00 0.00 0.00 0.00 0.01 0.03 0.01 0.04 0.07 0.03
0.00 0.00 0.00 0.00 0.00 0.00 0.00 0.00 0.00 0.00 0.00 0.00 0.00 0.00 0.06 0.08 0.09 0.02 0.00 0.00 0.00 0.00 0.00 0.00 0.00 0.00 0.00 0.00 0.00 0.00 0.00 0.00 0.00 0.00 0.00 0.00 0.00 0.00 0.00 0.00 0.00 0.00 0.00 0.00 0.01 0.00 0.01 0.02 0.02
0.00 0.00 0.00 0.00 0.00 0.00 0.00 0.00 0.00 0.00 0.00 0.00 0.00 0.00 0.01 0.07 0.26 0.27 0.04 0.00 0.00 0.00 0.00 0.00 0.00 0.00 0.00 0.00 0.00 0.00 0.00 0.00 0.00 0.00 0.00 0.00 0.00 0.00 0.00 0.00 0.00 0.00 0.00 0.00 0.00 0.00 0.01 0.01 0.01
0.00 0.00 0.00 0.00 0.00 0.00 0.00 0.00 0.00 0.00 0.00 0.00 0.00 0.00 0.00 0.01 0.09 0.20 0.13 0.01 0.00 0.00 0.00 0.00 0.00 0.00 0.00 0.00 0.00 0.00 0.00 0.00 0.00 0.00 0.00 0.00 0.00 0.00 0.00 0.00 0.00 0.00 0.00 0.00 0.00 0.00 0.00 0.00 0.00

GFSSGP_prec_precacc12_063.txt.gz
Total_Precipitation_Accumulation
0.00 0.00 0.00 0.03 0.11 0.07 0.31 1.12 0.36 0.22 0.03 0.01 0.00 0.00 0.02 0.09 0.20 0.20 0.00 0.00 0.00 0.00 0.00 0.03 0.09 0.09 0.13 0.07 0.02 0.02 0.06 0.02 0.01 0.00 0.00 0.01 0.00 0.00 0.02 0.08 0.10 0.04 0.08 0.01 0.02 0.02 0.16 0.13 0.06
0.00 0.00 0.02 0.28 0.23 0.27 0.52 1.09 0.40 0.07 0.02 0.00 0.00 0.04 0.07 0.02 0.00 0.00 0.00 0.00 0.00 0.00 0.00 0.00 0.06 0.06 0.02 0.02 0.02 0.04 0.01 0.00 0.01 0.00 0.01 0.01 0.00 0.01 0.05 0.07 0.18 0.10 0.03 0.02 0.03 0.02 0.02 0.04 0.05
0.00 0.02 0.28 0.31 0.14 0.75 2.19 1.38 0.20 0.03 0.00 0.00 0.02 0.04 0.03 0.01 0.00 0.00 0.00 0.00 0.00 0.00 0.00 0.00 0.02 0.02 0.03 0.06 0.05 0.06 0.03 0.01 0.01 0.01 0.02 0.01 0.02 0.04 0.10 0.01 0.03 0.02 0.00 0.00 0.02 0.01 0.03 0.08 0.11
0.00 0.10 0.25 0.20 0.12 0.64 0.85 0.87 0.25 0.04 0.00 0.02 0.04 0.04 0.00 0.00 0.00 0.00 0.00 0.00 0.00 0.00 0.00 0.00 0.01 0.04 0.03 0.02 0.06 0.06 0.04 0.04 0.01 0.01 0.02 0.03 0.02 0.01 0.03 0.02 0.01 0.02 0.00 0.00 0.00 0.04 0.06 0.00 0.01
0.02 0.31 0.31 0.31 0.46 0.36 0.24 0.30 0.44 0.10 0.02 0.11 0.09 0.03 0.00 0.00 0.00 0.00 0.00 0.00 0.00 0.00 0.00 0.00 0.03 0.06 0.01 0.03 0.04 0.02 0.00 0.01 0.01 0.02 0.02 0.05 0.06 0.06 0.04 0.02 0.01 0.01 0.01 0.01 0.03 0.04 0.02 0.00 0.00
0.11 0.22 0.23 0.31 0.44 0.72 0.17 0.10 0.13 0.14 0.07 0.40 0.09 0.00 0.01 0.01 0.00 0.00 0.00 0.00 0.00 0.00 0.00 0.00 0.03 0.07 0.05 0.04 0.02 0.02 0.01 0.01 0.01 0.04 0.08 0.04 0.03 0.02 0.01 0.01 0.00 0.00 0.01 0.04 0.02 0.00 0.02 0.01 0.02
0.11 0.25 0.18 0.24 0.30 0.58 0.33 0.04 0.16 0.08 0.06 0.11 0.03 0.04 0.02 0.02 0.00 0.00 0.00 0.00 0.00 0.00 0.00 0.00 0.01 0.03 0.03 0.04 0.02 0.01 0.00 0.01 0.01 0.03 0.10 0.04 0.00 0.00 0.00 0.00 0.00 0.00 0.01 0.04 0.03 0.02 0.01 0.00 0.03
0.13 0.20 0.21 0.15 0.24 0.80 0.12 0.08 0.33 0.25 0.14 0.18 0.10 0.07 0.01 0.01 0.00 0.00 0.00 0.00 0.00 0.00 0.00 0.00 0.01 0.00 0.00 0.01 0.04 0.03 0.01 0.01 0.04 0.05 0.02 0.05 0.01 0.00 0.00 0.01 0.00 0.01 0.00 0.00 0.01 0.02 0.02 0.00 0.02
0.04 0.19 0.24 0.16 0.21 0.54 0.02 0.04 0.16 0.38 0.16 0.08 0.09 0.11 0.01 0.00 0.00 0.00 0.00 0.00 0.00 0.00 0.00 0.00 0.00 0.00 0.01 0.00 0.04 0.04 0.02 0.01 0.00 0.02 0.07 0.09 0.01 0.01 0.01 0.00 0.00 0.01 0.01 0.00 0.00 0.00 0.01 0.00 0.00
0.04 0.28 0.55 0.09 0.07 0.12 0.01 0.02 0.05 0.02 0.03 0.19 0.05 0.08 0.00 0.00 0.00 0.00 0.00 0.00 0.00 0.00 0.00 0.00 0.00 0.00 0.00 0.00 0.01 0.00 0.00 0.00 0.03 0.02 0.02 0.03 0.06 0.00 0.00 0.01 0.02 0.00 0.00 0.01 0.01 0.02 0.11 0.14 0.05
0.00 0.07 0.11 0.03 0.03 0.09 0.43 0.34 0.24 0.06 0.06 0.07 0.09 0.06 0.00 0.00 0.00 0.00 0.00 0.00 0.00 0.00 0.00 0.00 0.00 0.00 0.00 0.00 0.00 0.00 0.01 0.01 0.00 0.03 0.04 0.03 0.01 0.01 0.04 0.02 0.03 0.00 0.02 0.00 0.01 0.07 0.15 0.14 0.18
0.00 0.01 0.04 0.04 0.01 0.02 0.18 0.49 0.94 0.59 0.50 0.14 0.09 0.03 0.00 0.00 0.00 0.00 0.00 0.00 0.00 0.00 0.00 0.00 0.00 0.00 0.00 0.00 0.00 0.02 0.08 0.01 0.00 0.00 0.02 0.07 0.04 0.05 0.25 0.11 0.08 0.08 0.02 0.03 0.09 0.16 0.14 0.12 0.19
0.00 0.02 0.01 0.04 0.06 0.07 0.06 0.20 1.05 0.54 0.86 0.28 0.07 0.01 0.00 0.00 0.00 0.00 0.00 0.00 0.00 0.00 0.00 0.00 0.00 0.00 0.01 0.00 0.01 0.00 0.01 0.00 0.00 0.00 0.02 0.13 0.16 0.13 0.12 0.10 0.11 0.07 0.07 0.03 0.02 0.01 0.00 0.06 0.01
0.00 0.00 0.03 0.01 0.04 0.10 0.04 0.03 0.06 0.23 0.27 0.24 0.02 0.00 0.00 0.00 0.00 0.00 0.00 0.00 0.00 0.00 0.00 0.00 0.00 0.01 0.02 0.00 0.01 0.01 0.00 0.00 0.00 0.00 0.00 0.16 0.11 0.16 0.13 0.10 0.11 0.10 0.06 0.03 0.01 0.00 0.00 0.01 0.00
0.00 0.00 0.00 0.02 0.00 0.08 0.08 0.07 0.03 0.31 0.31 0.07 0.01 0.00 0.00 0.00 0.00 0.00 0.00 0.00 0.00 0.00 0.00 0.00 0.00 0.00 0.00 0.00 0.00 0.00 0.00 0.00 0.00 0.00 0.00 0.04 0.06 0.07 0.14 0.09 0.08 0.04 0.06 0.01 0.00 0.00 0.00 0.00 0.00
0.00 0.00 0.00 0.00 0.01 0.01 0.09 0.11 0.12 0.28 0.34 0.01 0.00 0.00 0.00 0.00 0.00 0.00 0.00 0.00 0.00 0.00 0.00 0.00 0.00 0.00 0.00 0.00 0.00 0.00 0.00 0.00 0.00 0.00 0.00 0.00 0.03 0.15 0.24 0.17 0.09 0.01 0.01 0.01 0.00 0.00 0.00 0.00 0.00
0.00 0.00 0.00 0.01 0.01 0.00 0.01 0.16 0.24 0.23 0.14 0.01 0.00 0.00 0.00 0.00 0.00 0.00 0.00 0.00 0.00 0.00 0.00 0.00 0.00 0.00 0.00 0.00 0.00 0.00 0.00 0.00 0.00 0.00 0.00 0.00 0.04 0.16 0.24 0.16 0.24 0.07 0.03 0.00 0.00 0.00 0.00 0.00 0.00
0.00 0.00 0.00 0.00 0.01 0.01 0.03 0.07 0.45 0.42 0.94 0.18 0.01 0.00 0.00 0.00 0.00 0.00 0.00 0.00 0.00 0.00 0.00 0.00 0.00 0.00 0.00 0.00 0.00 0.00 0.00 0.00 0.00 0.00 0.00 0.01 0.03 0.10 0.18 0.09 0.14 0.14 0.03 0.00 0.00 0.00 0.00 0.00 0.00
0.00 0.00 0.00 0.00 0.02 0.02 0.04 0.04 0.49 0.15 0.63 0.56 0.05 0.00 0.00 0.00 0.00 0.00 0.00 0.00 0.00 0.00 0.00 0.00 0.00 0.00 0.00 0.00 0.00 0.00 0.00 0.00 0.01 0.00 0.02 0.02 0.01 0.05 0.10 0.11 0.11 0.12 0.08 0.08 0.01 0.00 0.00 0.00 0.00
0.00 0.00 0.00 0.00 0.00 0.01 0.04 0.05 0.14 0.17 0.06 0.18 0.10 0.01 0.00 0.00 0.00 0.00 0.00 0.00 0.00 0.00 0.00 0.00 0.00 0.00 0.00 0.00 0.00 0.00 0.00 0.00 0.02 0.00 0.02 0.01 0.00 0.00 0.01 0.08 0.09 0.07 0.09 0.08 0.07 0.05 0.00 0.00 0.00
0.00 0.00 0.00 0.00 0.00 0.01 0.03 0.07 0.06 0.20 0.20 0.16 0.17 0.02 0.01 0.00 0.00 0.00 0.00 0.00 0.00 0.00 0.00 0.00 0.00 0.00 0.00 0.00 0.00 0.01 0.01 0.01 0.00 0.03 0.01 0.00 0.00 0.00 0.02 0.06 0.13 0.08 0.08 0.06 0.07 0.04 0.01 0.00 0.00
0.00 0.00 0.00 0.00 0.00 0.00 0.00 0.01 0.01 0.09 0.32 0.56 0.29 0.05 0.01 0.00 0.00 0.00 0.00 0.00 0.00 0.00 0.00 0.00 0.00 0.00 0.00 0.00 0.00 0.00 0.00 0.00 0.00 0.00 0.00 0.00 0.00 0.00 0.00 0.05 0.09 0.12 0.15 0.11 0.06 0.02 0.02 0.01 0.00
0.00 0.00 0.00 0.00 0.00 0.00 0.00 0.00 0.00 0.01 0.24 0.60 0.42 0.14 0.00 0.00 0.00 0.00 0.00 0.00 0.00 0.00 0.00 0.00 0.00 0.00 0.00 0.00 0.00 0.00 0.00 0.00 0.00 0.00 0.00 0.01 0.01 0.00 0.00 0.01 0.06 0.10 0.13 0.11 0.10 0.13 0.05 0.02 0.00
0.00 0.00 0.00 0.00 0.00 0.00 0.00 0.00 0.00 0.00 0.00 0.11 0.17 0.08 0.00 0.00 0.00 0.00 0.00 0.00 0.00 0.00 0.00 0.00 0.00 0.00 0.00 0.00 0.00 0.00 0.00 0.00 0.00 0.00 0.00 0.00 0.01 0.00 0.01 0.03 0.06 0.06 0.04 0.07 0.11 0.09 0.05 0.01 0.01
0.00 0.00 0.00 0.00 0.00 0.00 0.00 0.00 0.00 0.00 0.00 0.01 0.10 0.23 0.02 0.00 0.00 0.00 0.00 0.00 0.00 0.00 0.00 0.00 0.00 0.00 0.00 0.00 0.00 0.00 0.00 0.00 0.00 0.01 0.00 0.00 0.00 0.00 0.00 0.00 0.03 0.03 0.03 0.05 0.09 0.11 0.10 0.01 0.00
0.00 0.00 0.00 0.00 0.00 0.00 0.00 0.00 0.00 0.00 0.00 0.00 0.03 0.13 0.12 0.04 0.00 0.00 0.00 0.00 0.00 0.00 0.00 0.00 0.00 0.00 0.00 0.00 0.00 0.00 0.00 0.00 0.00 0.00 0.00 0.00 0.00 0.00 0.00 0.00 0.00 0.01 0.03 0.04 0.06 0.03 0.02 0.02 0.00
0.00 0.00 0.00 0.00 0.00 0.00 0.00 0.00 0.00 0.00 0.00 0.00 0.00 0.08 0.16 0.19 0.08 0.02 0.00 0.00 0.00 0.00 0.00 0.00 0.00 0.00 0.00 0.00 0.00 0.00 0.00 0.00 0.00 0.00 0.00 0.00 0.00 0.00 0.00 0.00 0.00 0.00 0.00 0.01 0.03 0.01 0.04 0.07 0.03
0.00 0.00 0.00 0.00 0.00 0.00 0.00 0.00 0.00 0.00 0.00 0.00 0.00 0.00 0.06 0.28 0.47 0.18 0.09 0.02 0.01 0.00 0.00 0.00 0.00 0.00 0.00 0.00 0.00 0.00 0.00 0.00 0.00 0.00 0.00 0.00 0.00 0.00 0.00 0.00 0.00 0.00 0.00 0.00 0.01 0.00 0.01 0.02 0.02
0.00 0.00 0.00 0.00 0.00 0.00 0.00 0.00 0.00 0.00 0.00 0.00 0.00 0.00 0.01 0.07 0.34 0.51 0.33 0.04 0.02 0.00 0.00 0.00 0.00 0.00 0.00 0.00 0.00 0.00 0.00 0.00 0.00 0.00 0.00 0.00 0.00 0.00 0.00 0.00 0.00 0.00 0.00 0.00 0.00 0.00 0.01 0.01 0.01
0.00 0.00 0.00 0.00 0.00 0.00 0.00 0.00 0.00 0.00 0.00 0.00 0.00 0.00 0.00 0.01 0.09 0.31 0.51 0.12 0.02 0.00 0.00 0.00 0.00 0.00 0.00 0.00 0.00 0.00 0.00 0.00 0.00 0.00 0.00 0.00 0.00 0.00 0.00 0.00 0.00 0.00 0.00 0.00 0.00 0.00 0.00 0.00 0.00

GFSSGP_prec_precacc12_066.txt.gz
Total_Precipitation_Accumulation
0.00 0.00 0.00 0.01 0.06 0.06 0.31 1.42 0.78 0.38 0.06 0.01 0.00 0.00 0.02 0.09 0.19 0.15 0.00 0.00 0.00 0.00 0.00 0.04 0.08 0.08 0.08 0.08 0.04 0.02 0.06 0.02 0.02 0.01 0.00 0.01 0.03 0.02 0.02 0.08 0.04 0.03 0.08 0.01 0.01 0.02 0.14 0.07 0.04
0.00 0.00 0.01 0.21 0.16 0.21 0.50 1.21 0.65 0.12 0.03 0.00 0.01 0.04 0.07 0.02 0.00 0.00 0.00 0.00 0.00 0.00 0.00 0.00 0.03 0.05 0.03 0.07 0.02 0.04 0.00 0.00 0.02 0.01 0.01 0.01 0.02 0.01 0.02 0.07 0.18 0.09 0.02 0.03 0.03 0.02 0.02 0.02 0.04
0.00 0.02 0.13 0.16 0.14 0.76 2.15 1.62 0.63 0.08 0.00 0.00 0.03 0.06 0.05 0.01 0.00 0.00 0.00 0.00 0.00 0.00 0.00 0.00 0.02 0.02 0.01 0.05 0.03 0.05 0.03 0.02 0.01 0.02 0.02 0.01 0.02 0.03 0.02 0.01 0.03 0.02 0.01 0.01 0.02 0.01 0.02 0.01 0.02
0.00 0.04 0.15 0.16 0.27 1.09 0.99 1.18 1.03 0.11 0.04 0.04 0.10 0.06 0.01 0.00 0.00 0.00 0.00 0.00 0.00 0.00 0.00 0.00 0.01 0.03 0.02 0.03 0.05 0.05 0.06 0.07 0.03 0.02 0.02 0.03 0.01 0.02 0.01 0.01 0.01 0.02 0.00 0.00 0.01 0.00 0.01 0.00 0.00
0.00 0.18 0.21 0.23 0.87 0.91 0.35 0.39 0.65 0.15 0.05 0.20 0.12 0.03 0.00 0.00 0.00 0.00 0.00 0.00 0.00 0.00 0.00 0.00 0.03 0.04 0.01 0.03 0.03 0.04 0.05 0.01 0.01 0.02 0.02 0.01 0.02 0.03 0.02 0.02 0.01 0.01 0.01 0.01 0.03 0.02 0.00 0.00 0.04
0.07 0.19 0.18 0.30 0.65 1.41 0.38 0.19 0.15 0.15 0.05 0.41 0.09 0.00 0.01 0.00 0.00 0.00 0.00 0.00 0.00 0.00 0.00 0.00 0.02 0.05 0.04 0.04 0.01 0.03 0.01 0.01 0.01 0.01 0.01 0.01 0.03 0.02 0.00 0.00 0.00 0.00 0.01 0.04 0.02 0.00 0.00 0.01 0.02
0.08 0.23 0.17 0.29 0.39 0.97 0.77 0.26 0.18 0.06 0.06 0.07 0.03 0.04 0.01 0.00 0.00 0.00 0.00 0.00 0.00 0.00 0.00 0.00 0.01 0.02 0.02 0.04 0.02 0.00 0.00 0.00 0.00 0.00 0.01 0.03 0.00 0.00 0.00 0.00 0.00 0.00 0.01 0.04 0.03 0.01 0.00 0.02 0.01
0.08 0.20 0.23 0.15 0.21 0.84 0.24 0.14 0.39 0.26 0.15 0.17 0.10 0.07 0.00 0.00 0.00 0.00 0.00 0.00 0.00 0.00 0.00 0.00 0.00 0.00 0.00 0.01 0.03 0.02 0.00 0.00 0.00 0.00 0.01 0.07 0.02 0.00 0.00 0.02 0.00 0.00 0.00 0.00 0.01 0.01 0.01 0.01 0.02
0.04 0.19 0.24 0.16 0.17 0.54 0.13 0.13 0.20 0.37 0.14 0.06 0.13 0.12 0.01 0.00 0.00 0.00 0.00 0.00 0.00 0.00 0.00 0.00 0.00 0.00 0.01 0.00 0.03 0.03 0.01 0.00 0.05 0.03 0.04 0.09 0.01 0.01 0.01 0.01 0.00 0.00 0.00 0.00 0.00 0.00 0.01 0.03 0.01
0.04 0.28 0.55 0.11 0.10 0.16 0.05 0.05 0.06 0.11 0.13 0.34 0.16 0.09 0.00 0.00 0.00 0.00 0.00 0.00 0.00 0.00 0.00 0.00 0.00 0.00 0.00 0.00 0.00 0.00 0.00 0.02 0.06 0.03 0.02 0.03 0.06 0.00 0.00 0.00 0.00 0.00 0.00 0.00 0.00 0.02 0.12 0.15 0.05
0.00 0.08 0.11 0.04 0.04 0.15 0.51 0.49 0.26 0.10 0.20 0.82 0.37 0.07 0.00 0.00 0.00 0.00 0.00 0.00 0.00 0.00 0.00 0.00 0.00 0.00 0.00 0.00 0.00 0.00 0.01 0.02 0.00 0.04 0.05 0.03 0.01 0.01 0.04 0.02 0.02 0.00 0.02 0.00 0.01 0.07 0.14 0.14 0.18
0.00 0.01 0.03 0.04 0.01 0.06 0.43 0.81 0.97 0.64 0.58 0.32 0.21 0.05 0.00 0.00 0.00 0.00 0.00 0.00 0.00 0.00 0.00 0.00 0.00 0.00 0.00 0.00 0.00 0.02 0.08 0.01 0.00 0.00 0.02 0.08 0.05 0.05 0.25 0.11 0.08 0.08 0.03 0.05 0.10 0.16 0.14 0.12 0.19
0.00 0.02 0.01 0.04 0.07 0.13 0.16 0.31 1.08 0.57 1.19 0.53 0.16 0.03 0.00 0.00 0.00 0.00 0.00 0.00 0.00 0.00 0.00 0.00 0.00 0.00 0.01 0.00 0.01 0.01 0.01 0.00 0.00 0.00 0.02 0.13 0.16 0.14 0.13 0.10 0.12 0.07 0.08 0.04 0.03 0.03 0.00 0.07 0.01
0.00 0.00 0.03 0.01 0.04 0.10 0.12 0.06 0.08 0.24 0.33 0.32 0.08 0.00 0.00 0.00 0.00 0.00 0.00 0.00 0.00 0.00 0.00 0.00 0.00 0.01 0.02 0.00 0.02 0.01 0.00 0.00 0.00 0.00 0.00 0.16 0.11 0.18 0.13 0.06 0.09 0.11 0.07 0.03 0.01 0.01 0.00 0.02 0.00
0.00 0.00 0.00 0.01 0.01 0.08 0.11 0.08 0.05 0.32 0.39 0.15 0.04 0.00 0.00 0.00 0.00 0.00 0.00 0.00 0.00 0.00 0.00 0.00 0.00 0.00 0.00 0.01 0.00 0.00 0.00 0.00 0.00 0.00 0.00 0.04 0.06 0.07 0.14 0.09 0.05 0.05 0.06 0.01 0.00 0.00 0.00 0.00 0.00
0.00 0.00 0.00 0.00 0.01 0.02 0.11 0.13 0.14 0.31 0.36 0.03 0.01 0.00 0.00 0.00 0.00 0.00 0.00 0.00 0.00 0.00 0.00 0.00 0.00 0.00 0.00 0.00 0.00 0.00 0.00 0.00 0.00 0.00 0.00 0.02 0.06 0.12 0.14 0.12 0.11 0.02 0.01 0.01 0.00 0.00 0.00 0.00 0.00
0.00 0.00 0.00 0.01 0.00 0.01 0.03 0.16 0.27 0.25 0.24 0.10 0.00 0.00 0.00 0.00 0.00 0.00 0.00 0.00 0.00 0.00 0.00 0.00 0.00 0.00 0.00 0.00 0.00 0.00 0.00 0.00 0.00 0.00 0.00 0.00 0.06 0.07 0.13 0.12 0.18 0.04 0.03 0.00 0.00 0.00 0.00 0.00 0.00
0.00 0.00 0.00 0.00 0.01 0.01 0.07 0.08 0.50 0.45 1.45 0.52 0.08 0.00 0.00 0.00 0.00 0.00 0.00 0.00 0.00 0.00 0.00 0.00 0.00 0.00 0.00 0.00 0.00 0.00 0.00 0.00 0.00 0.00 0.00 0.01 0.03 0.05 0.09 0.04 0.05 0.05 0.02 0.00 0.00 0.00 0.00 0.00 0.00
0.00 0.00 0.00 0.00 0.01 0.01 0.06 0.04 0.51 0.16 0.70 0.70 0.06 0.01 0.00 0.00 0.00 0.00 0.00 0.00 0.00 0.00 0.00 0.00 0.00 0.00 0.00 0.00 0.00 0.00 0.00 0.00 0.01 0.00 0.03 0.03 0.01 0.03 0.04 0.07 0.01 0.03 0.06 0.08 0.00 0.00 0.00 0.00 0.00
0.00 0.00 0.00 0.00 0.00 0.00 0.04 0.08 0.23 0.22 0.07 0.20 0.12 0.02 0.03 0.00 0.00 0.00 0.00 0.00 0.00 0.00 0.00 0.00 0.00 0.00 0.00 0.00 0.00 0.00 0.00 0.00 0.02 0.00 0.02 0.01 0.00 0.00 0.01 0.05 0.02 0.02 0.04 0.01 0.01 0.04 0.00 0.00 0.00
0.00 0.00 0.00 0.00 0.00 0.01 0.16 0.27 0.14 0.26 0.21 0.18 0.37 0.13 0.04 0.00 0.00 0.00 0.00 0.00 0.00 0.00 0.00 0.00 0.00 0.00 0.00 0.00 0.00 0.01 0.01 0.01 0.00 0.03 0.01 0.00 0.00 0.00 0.02 0.02 0.05 0.02 0.04 0.01 0.00 0.01 0.01 0.00 0.00
0.00 0.00 0.00 0.00 0.00 0.00 0.04 0.17 0.17 0.17 0.33 0.56 0.54 0.42 0.07 0.00 0.00 0.00 0.00 0.00 0.00 0.00 0.00 0.00 0.00 0.00 0.00 0.00 0.00 0.00 0.00 0.00 0.00 0.00 0.00 0.00 0.00 0.00 0.00 0.03 0.02 0.05 0.07 0.03 0.01 0.01 0.02 0.01 0.00
0.00 0.00 0.00 0.00 0.00 0.00 0.00 0.01 0.01 0.03 0.25 0.60 0.43 0.24 0.04 0.01 0.00 0.00 0.00 0.00 0.00 0.00 0.00 0.00 0.00 0.00 0.00 0.00 0.00 0.00 0.00 0.00 0.00 0.00 0.00 0.01 0.01 0.00 0.00 0.01 0.03 0.03 0.04 0.03 0.03 0.02 0.02 0.02 0.00
0.00 0.00 0.00 0.00 0.00 0.00 0.00 0.00 0.00 0.00 0.00 0.11 0.17 0.09 0.01 0.00 0.00 0.00 0.00 0.00 0.00 0.00 0.00 0.00 0.00 0.00 0.00 0.00 0.00 0.00 0.00 0.00 0.00 0.00 0.00 0.00 0.01 0.00 0.01 0.03 0.06 0.03 0.03 0.03 0.03 0.01 0.00 0.01 0.01
0.00 0.00 0.00 0.00 0.00 0.00 0.00 0.00 0.00 0.00 0.00 0.01 0.10 0.23 0.02 0.00 0.00 0.00 0.00 0.00 0.00 0.00 0.00 0.00 0.00 0.00 0.00 0.00 0.00 0.00 0.00 0.00 0.00 0.01 0.00 0.00 0.00 0.00 0.00 0.00 0.03 0.03 0.03 0.04 0.04 0.02 0.06 0.00 0.00
0.00 0.00 0.00 0.00 0.00 0.00 0.00 0.00 0.00 0.00 0.00 0.00 0.03 0.14 0.12 0.04 0.00 0.00 0.00 0.00 0.00 0.00 0.00 0.00 0.00 0.00 0.00 0.00 0.00 0.00 0.00 0.00 0.00 0.00 0.00 0.00 0.00 0.00 0.00 0.00 0.00 0.01 0.03 0.03 0.05 0.01 0.00 0.02 0.00
0.00 0.00 0.00 0.00 0.00 0.00 0.00 0.00 0.00 0.00 0.00 0.00 0.00 0.08 0.16 0.19 0.08 0.02 0.00 0.00 0.00 0.00 0.00 0.00 0.00 0.00 0.00 0.00 0.00 0.00 0.00 0.00 0.00 0.00 0.00 0.00 0.00 0.00 0.00 0.00 0.00 0.00 0.00 0.01 0.03 0.01 0.04 0.07 0.02
0.00 0.00 0.00 0.00 0.00 0.00 0.00 0.00 0.00 0.00 0.00 0.00 0.00 0.00 0.06 0.28 0.47 0.18 0.09 0.03 0.02 0.01 0.00 0.00 0.00 0.00 0.00 0.00 0.00 0.00 0.00 0.00 0.00 0.00 0.00 0.00 0.00 0.00 0.00 0.00 0.00 0.00 0.00 0.00 0.01 0.00 0.01 0.02 0.02
0.00 0.00 0.00 0.00 0.00 0.00 0.00 0.00 0.00 0.00 0.00 0.00 0.00 0.00 0.01 0.07 0.35 0.51 0.35 0.06 0.02 0.00 0.00 0.00 0.00 0.00 0.00 0.00 0.00 0.00 0.00 0.00 0.00 0.00 0.00 0.00 0.00 0.00 0.00 0.00 0.00 0.00 0.00 0.00 0.00 0.00 0.01 0.01 0.01
0.00 0.00 0.00 0.00 0.00 0.00 0.00 0.00 0.00 0.00 0.00 0.00 0.00 0.00 0.00 0.01 0.10 0.31 0.51 0.12 0.02 0.00 0.00 0.00 0.00 0.00 0.00 0.00 0.00 0.00 0.00 0.00 0.00 0.00 0.00 0.00 0.00 0.00 0.00 0.00 0.00 0.00 0.00 0.00 0.00 0.00 0.00 0.00 0.00

GFSSGP_prec_precacc12_069.txt.gz
Total_Precipitation_Accumulation
0.00 0.00 0.00 0.00 0.03 0.02 0.21 1.36 0.79 0.40 0.06 0.01 0.00 0.00 0.01 0.06 0.11 0.06 0.00 0.00 0.00 0.00 0.00 0.05 0.07 0.07 0.08 0.08 0.04 0.02 0.06 0.02 0.02 0.01 0.00 0.01 0.03 0.02 0.02 0.04 0.02 0.03 0.06 0.01 0.01 0.02 0.02 0.01 0.01
0.00 0.00 0.01 0.13 0.08 0.19 0.38 1.19 0.65 0.16 0.03 0.00 0.01 0.04 0.06 0.01 0.00 0.00 0.00 0.00 0.00 0.00 0.00 0.02 0.04 0.03 0.03 0.06 0.01 0.01 0.00 0.01 0.02 0.01 0.02 0.01 0.02 0.02 0.03 0.09 0.11 0.04 0.07 0.08 0.04 0.02 0.01 0.01 0.04
0.00 0.01 0.09 0.15 0.17 1.16 2.22 1.64 0.72 0.10 0.00 0.01 0.07 0.07 0.06 0.01 0.00 0.00 0.00 0.00 0.00 0.00 0.00 0.00 0.02 0.02 0.01 0.05 0.03 0.02 0.00 0.02 0.02 0.02 0.03 0.01 0.03 0.05 0.02 0.02 0.05 0.03 0.05 0.04 0.04 0.03 0.02 0.02 0.07
0.00 0.01 0.11 0.12 0.49 1.43 0.94 1.15 1.10 0.16 0.09 0.12 0.18 0.13 0.08 0.01 0.00 0.00 0.00 0.00 0.00 0.00 0.00 0.00 0.01 0.01 0.00 0.04 0.08 0.04 0.07 0.09 0.04 0.04 0.07 0.04 0.01 0.02 0.01 0.01 0.01 0.03 0.02 0.02 0.01 0.00 0.02 0.04 0.05
0.00 0.09 0.13 0.25 0.97 1.09 0.37 0.37 0.71 0.15 0.13 0.24 0.14 0.05 0.04 0.00 0.00 0.00 0.00 0.00 0.00 0.00 0.00 0.00 0.03 0.03 0.01 0.02 0.03 0.05 0.07 0.03 0.02 0.04 0.03 0.01 0.02 0.03 0.03 0.03 0.01 0.01 0.01 0.01 0.00 0.00 0.07 0.07 0.09
0.03 0.11 0.09 0.24 0.72 1.44 0.68 0.37 0.24 0.24 0.11 0.45 0.10 0.00 0.01 0.00 0.00 0.00 0.00 0.00 0.00 0.00 0.00 0.00 0.02 0.05 0.04 0.05 0.04 0.04 0.02 0.02 0.02 0.03 0.02 0.02 0.03 0.02 0.03 0.01 0.00 0.00 0.01 0.02 0.00 0.01 0.07 0.08 0.05
0.02 0.13 0.10 0.24 0.51 2.16 1.24 0.53 0.25 0.13 0.07 0.08 0.03 0.00 0.00 0.00 0.00 0.00 0.00 0.00 0.00 0.00 0.00 0.00 0.01 0.02 0.07 0.07 0.04 0.01 0.01 0.02 0.01 0.01 0.03 0.02 0.01 0.00 0.01 0.00 0.00 0.00 0.01 0.04 0.00 0.01 0.04 0.03 0.01
0.03 0.15 0.22 0.13 0.21 0.92 0.40 0.29 0.46 0.21 0.13 0.16 0.08 0.03 0.00 0.00 0.00 0.00 0.00 0.00 0.00 0.00 0.00 0.00 0.00 0.01 0.01 0.01 0.02 0.00 0.00 0.00 0.00 0.01 0.01 0.07 0.02 0.00 0.00 0.02 0.00 0.00 0.00 0.00 0.00 0.01 0.02 0.00 0.01
0.02 0.17 0.21 0.09 0.16 0.53 0.20 0.24 0.31 0.37 0.14 0.06 0.15 0.11 0.00 0.00 0.00 0.00 0.00 0.00 0.00 0.00 0.00 0.00 0.00 0.00 0.01 0.00 0.01 0.00 0.00 0.00 0.06 0.04 0.03 0.08 0.03 0.02 0.01 0.00 0.00 0.00 0.00 0.00 0.00 0.00 0.03 0.03 0.01
0.03 0.24 0.50 0.09 0.09 0.18 0.09 0.14 0.17 0.14 0.22 0.40 0.20 0.09 0.00 0.00 0.00 0.00 0.00 0.00 0.00 0.00 0.00 0.00 0.00 0.00 0.00 0.00 0.01 0.00 0.00 0.04 0.07 0.03 0.02 0.02 0.06 0.01 0.00 0.00 0.00 0.00 0.00 0.00 0.04 0.03 0.12 0.14 0.04
0.09 0.09 0.11 0.03 0.04 0.22 0.51 0.40 0.32 0.13 0.29 0.97 0.75 0.08 0.00 0.00 0.00 0.00 0.00 0.00 0.00 0.00 0.00 0.00 0.00 0.00 0.00 0.00 0.00 0.00 0.01 0.02 0.01 0.04 0.05 0.03 0.01 0.01 0.03 0.02 0.02 0.00 0.01 0.04 0.03 0.05 0.14 0.13 0.17
0.02 0.00 0.01 0.02 0.01 0.08 0.56 0.79 0.98 0.65 0.61 0.35 0.27 0.05 0.00 0.00 0.00 0.00 0.00 0.00 0.00 0.00 0.00 0.00 0.00 0.00 0.00 0.00 0.00 0.02 0.07 0.01 0.00 0.00 0.02 0.08 0.05 0.05 0.24 0.10 0.07 0.07 0.02 0.05 0.08 0.10 0.14 0.12 0.17
0.00 0.00 0.00 0.03 0.05 0.12 0.28 0.33 0.99 0.61 1.31 0.64 0.21 0.04 0.00 0.00 0.00 0.00 0.00 0.00 0.00 0.00 0.00 0.00 0.00 0.00 0.01 0.00 0.01 0.01 0.01 0.00 0.00 0.01 0.02 0.13 0.16 0.14 0.13 0.09 0.09 0.06 0.07 0.04 0.01 0.03 0.00 0.07 0.01
0.00 0.00 0.00 0.01 0.04 0.11 0.14 0.06 0.09 0.24 0.40 0.48 0.17 0.01 0.00 0.00 0.00 0.00 0.00 0.00 0.00 0.00 0.00 0.00 0.00 0.01 0.02 0.00 0.02 0.01 0.00 0.00 0.00 0.00 0.00 0.16 0.11 0.17 0.12 0.06 0.09 0.11 0.06 0.03 0.01 0.01 0.00 0.02 0.00
0.00 0.00 0.00 0.00 0.01 0.09 0.14 0.09 0.07 0.34 0.41 0.27 0.10 0.00 0.00 0.00 0.00 0.00 0.00 0.00 0.00 0.00 0.00 0.00 0.00 0.00 0.00 0.02 0.01 0.00 0.00 0.00 0.00 0.00 0.00 0.04 0.06 0.06 0.09 0.08 0.05 0.05 0.06 0.01 0.00 0.00 0.00 0.00 0.00
0.00 0.00 0.00 0.00 0.02 0.02 0.12 0.19 0.15 0.32 0.38 0.10 0.07 0.00 0.00 0.00 0.00 0.00 0.00 0.00 0.00 0.00 0.00 0.00 0.00 0.00 0.00 0.00 0.00 0.01 0.00 0.00 0.00 0.00 0.00 0.03 0.03 0.08 0.11 0.10 0.10 0.02 0.01 0.01 0.00 0.00 0.00 0.00 0.00
0.00 0.00 0.00 0.02 0.08 0.01 0.05 0.08 0.20 0.25 0.24 0.10 0.00 0.00 0.00 0.00 0.00 0.00 0.00 0.00 0.00 0.00 0.00 0.00 0.00 0.00 0.00 0.00 0.00 0.00 0.00 0.00 0.00 0.00 0.02 0.02 0.03 0.05 0.13 0.12 0.16 0.04 0.03 0.00 0.00 0.00 0.00 0.00 0.00
0.00 0.00 0.00 0.00 0.02 0.02 0.08 0.02 0.32 0.45 1.45 0.52 0.08 0.00 0.00 0.00 0.00 0.00 0.00 0.00 0.00 0.00 0.00 0.00 0.00 0.00 0.00 0.02 0.00 0.00 0.00 0.00 0.00 0.00 0.04 0.04 0.00 0.01 0.09 0.04 0.05 0.06 0.02 0.00 0.00 0.00 0.00 0.00 0.00
0.00 0.00 0.00 0.00 0.00 0.00 0.05 0.03 0.36 0.16 0.71 0.70 0.06 0.01 0.00 0.00 0.00 0.00 0.00 0.00 0.00 0.00 0.00 0.00 0.00 0.00 0.00 0.01 0.00 0.00 0.00 0.00 0.01 0.00 0.07 0.11 0.03 0.01 0.04 0.06 0.01 0.03 0.05 0.05 0.00 0.00 0.00 0.00 0.00
0.00 0.00 0.00 0.00 0.00 0.00 0.01 0.09 0.29 0.24 0.10 0.20 0.12 0.02 0.03 0.00 0.00 0.00 0.00 0.00 0.00 0.00 0.00 0.00 0.00 0.00 0.00 0.00 0.00 0.00 0.00 0.00 0.02 0.00 0.06 0.10 0.02 0.01 0.01 0.01 0.02 0.02 0.04 0.01 0.01 0.04 0.00 0.00 0.00
0.00 0.00 0.00 0.00 0.00 0.01 0.16 0.34 0.25 0.29 0.23 0.18 0.37 0.13 0.04 0.00 0.01 0.00 0.00 0.00 0.00 0.00 0.00 0.00 0.00 0.00 0.00 0.00 0.00 0.01 0.01 0.01 0.00 0.03 0.02 0.02 0.04 0.03 0.02 0.01 0.01 0.02 0.04 0.01 0.00 0.01 0.01 0.00 0.00
0.00 0.00 0.00 0.00 0.00 0.00 0.05 0.21 0.27 0.28 0.35 0.56 0.54 0.42 0.07 0.00 0.00 0.00 0.00 0.00 0.00 0.00 0.00 0.00 0.00 0.00 0.00 0.00 0.00 0.00 0.00 0.00 0.00 0.00 0.01 0.00 0.00 0.00 0.02 0.00 0.01 0.05 0.06 0.02 0.00 0.01 0.01 0.01 0.00
0.00 0.00 0.00 0.00 0.00 0.00 0.00 0.02 0.03 0.07 0.26 0.60 0.43 0.24 0.04 0.01 0.00 0.00 0.00 0.00 0.00 0.00 0.00 0.00 0.00 0.00 0.00 0.00 0.00 0.00 0.00 0.00 0.00 0.00 0.00 0.01 0.01 0.00 0.00 0.00 0.00 0.03 0.04 0.03 0.01 0.00 0.02 0.02 0.00
0.00 0.00 0.00 0.00 0.00 0.00 0.00 0.00 0.00 0.00 0.00 0.11 0.17 0.09 0.01 0.00 0.00 0.00 0.00 0.00 0.00 0.00 0.00 0.00 0.00 0.00 0.00 0.00 0.00 0.00 0.00 0.00 0.00 0.00 0.00 0.00 0.01 0.00 0.01 0.03 0.02 0.02 0.02 0.03 0.03 0.01 0.00 0.01 0.01
0.00 0.00 0.00 0.00 0.00 0.00 0.00 0.00 0.00 0.00 0.00 0.00 0.10 0.23 0.02 0.00 0.00 0.00 0.00 0.00 0.00 0.00 0.00 0.00 0.00 0.00 0.00 0.00 0.00 0.00 0.00 0.00 0.00 0.01 0.00 0.00 0.00 0.00 0.00 0.00 0.02 0.02 0.02 0.04 0.03 0.02 0.01 0.00 0.00
0.00 0.00 0.00 0.00 0.00 0.00 0.00 0.00 0.00 0.00 0.00 0.00 0.02 0.14 0.12 0.04 0.00 0.00 0.00 0.00 0.00 0.00 0.00 0.00 0.00 0.00 0.00 0.00 0.00 0.00 0.00 0.00 0.00 0.00 0.00 0.00 0.00 0.00 0.00 0.00 0.00 0.01 0.03 0.03 0.05 0.01 0.00 0.01 0.00
0.00 0.00 0.00 0.00 0.00 0.00 0.00 0.00 0.00 0.00 0.00 0.00 0.00 0.08 0.16 0.19 0.08 0.02 0.00 0.00 0.00 0.00 0.00 0.00 0.00 0.00 0.00 0.00 0.00 0.00 0.00 0.00 0.00 0.00 0.00 0.00 0.00 0.00 0.00 0.00 0.00 0.00 0.00 0.01 0.02 0.01 0.03 0.06 0.02
0.00 0.00 0.00 0.00 0.00 0.00 0.00 0.00 0.00 0.00 0.00 0.00 0.00 0.00 0.06 0.26 0.47 0.18 0.09 0.03 0.02 0.01 0.00 0.00 0.00 0.00 0.00 0.00 0.00 0.00 0.00 0.00 0.00 0.00 0.00 0.00 0.00 0.00 0.00 0.00 0.01 0.00 0.00 0.00 0.01 0.00 0.01 0.02 0.02
0.00 0.00 0.00 0.00 0.00 0.00 0.00 0.00 0.00 0.00 0.00 0.00 0.00 0.00 0.01 0.07 0.35 0.51 0.35 0.06 0.02 0.00 0.00 0.00 0.00 0.00 0.00 0.00 0.00 0.00 0.00 0.00 0.00 0.00 0.00 0.00 0.00 0.00 0.00 0.00 0.00 0.00 0.00 0.00 0.00 0.00 0.01 0.01 0.01
0.00 0.00 0.00 0.00 0.00 0.00 0.00 0.00 0.00 0.00 0.00 0.00 0.00 0.00 0.00 0.01 0.10 0.33 0.55 0.18 0.08 0.03 0.01 0.01 0.00 0.00 0.00 0.00 0.00 0.00 0.00 0.00 0.00 0.00 0.00 0.00 0.00 0.00 0.00 0.00 0.00 0.00 0.00 0.00 0.00 0.00 0.00 0.00 0.00

GFSSGP_prec_precacc12_072.txt.gz
Total_Precipitation_Accumulation
0.00 0.00 0.00 0.00 0.01 0.01 0.12 1.24 0.75 0.49 0.09 0.00 0.00 0.00 0.00 0.01 0.01 0.01 0.00 0.00 0.00 0.00 0.00 0.05 0.05 0.06 0.08 0.08 0.03 0.01 0.04 0.01 0.02 0.01 0.00 0.00 0.03 0.02 0.01 0.00 0.00 0.01 0.02 0.01 0.03 0.05 0.05 0.03 0.02
0.00 0.00 0.00 0.03 0.02 0.19 0.28 0.96 0.72 0.26 0.05 0.00 0.00 0.01 0.01 0.00 0.00 0.00 0.00 0.00 0.00 0.00 0.00 0.07 0.05 0.03 0.03 0.06 0.01 0.01 0.00 0.01 0.02 0.01 0.02 0.01 0.02 0.02 0.04 0.04 0.02 0.04 0.07 0.08 0.05 0.02 0.03 0.01 0.06
0.00 0.00 0.04 0.10 0.12 0.96 1.10 1.46 0.84 0.17 0.01 0.01 0.06 0.05 0.05 0.01 0.00 0.00 0.00 0.00 0.00 0.00 0.00 0.02 0.03 0.02 0.01 0.02 0.02 0.01 0.01 0.03 0.02 0.02 0.03 0.01 0.03 0.04 0.07 0.04 0.04 0.04 0.11 0.07 0.07 0.06 0.02 0.03 0.18
0.00 0.00 0.04 0.08 0.48 1.35 0.81 1.05 1.22 0.19 0.09 0.16 0.23 0.14 0.09 0.00 0.00 0.00 0.00 0.00 0.00 0.00 0.00 0.00 0.02 0.00 0.01 0.03 0.07 0.04 0.06 0.06 0.04 0.05 0.06 0.05 0.01 0.02 0.02 0.01 0.04 0.07 0.10 0.08 0.04 0.03 0.07 0.13 0.08
0.00 0.02 0.05 0.19 0.88 1.07 0.38 0.31 0.76 0.17 0.16 0.29 0.16 0.10 0.08 0.00 0.00 0.00 0.00 0.00 0.00 0.00 0.00 0.01 0.02 0.02 0.03 0.01 0.02 0.05 0.10 0.05 0.03 0.04 0.04 0.03 0.05 0.03 0.05 0.02 0.01 0.03 0.03 0.01 0.03 0.08 0.13 0.12 0.11
0.00 0.04 0.04 0.15 0.69 1.53 0.76 0.40 0.28 0.29 0.21 0.32 0.14 0.05 0.02 0.00 0.00 0.00 0.00 0.00 0.00 0.00 0.00 0.00 0.01 0.03 0.03 0.04 0.06 0.07 0.03 0.03 0.03 0.04 0.02 0.03 0.04 0.05 0.07 0.01 0.00 0.00 0.00 0.00 0.00 0.03 0.13 0.14 0.05
0.00 0.04 0.06 0.20 0.49 2.40 1.90 0.98 0.38 0.25 0.13 0.11 0.07 0.01 0.02 0.00 0.00 0.00 0.00 0.00 0.00 0.00 0.00 0.00 0.01 0.04 0.10 0.10 0.10 0.05 0.02 0.03 0.01 0.02 0.07 0.05 0.04 0.05 0.02 0.02 0.01 0.01 0.00 0.00 0.00 0.02 0.06 0.03 0.03
0.00 0.06 0.16 0.11 0.17 0.49 0.64 0.47 0.35 0.16 0.11 0.14 0.05 0.02 0.01 0.00 0.00 0.00 0.00 0.00 0.00 0.00 0.00 0.00 0.01 0.02 0.03 0.03 0.04 0.02 0.01 0.01 0.01 0.02 0.02 0.08 0.05 0.06 0.05 0.03 0.01 0.00 0.00 0.00 0.00 0.01 0.02 0.00 0.01
0.00 0.07 0.14 0.06 0.10 0.15 0.32 0.38 0.48 0.29 0.14 0.05 0.14 0.10 0.00 0.00 0.00 0.00 0.00 0.00 0.00 0.00 0.00 0.00 0.00 0.00 0.00 0.00 0.01 0.01 0.01 0.01 0.06 0.04 0.04 0.08 0.07 0.03 0.01 0.00 0.00 0.00 0.00 0.00 0.00 0.00 0.03 0.03 0.01
0.04 0.15 0.18 0.06 0.07 0.21 0.13 0.26 0.25 0.15 0.23 0.40 0.20 0.07 0.00 0.00 0.00 0.00 0.00 0.00 0.00 0.00 0.00 0.00 0.00 0.00 0.00 0.00 0.00 0.00 0.00 0.04 0.07 0.03 0.01 0.01 0.05 0.01 0.00 0.00 0.00 0.00 0.00 0.00 0.04 0.01 0.03 0.01 0.01
0.14 0.06 0.05 0.02 0.05 0.24 0.51 0.40 0.25 0.13 0.32 1.00 0.77 0.08 0.00 0.00 0.00 0.00 0.00 0.00 0.00 0.00 0.00 0.00 0.00 0.00 0.00 0.00 0.00 0.00 0.00 0.01 0.01 0.04 0.03 0.01 0.01 0.00 0.01 0.01 0.00 0.00 0.03 0.06 0.03 0.02 0.05 0.08 0.13
0.05 0.00 0.01 0.01 0.01 0.12 0.73 0.67 0.26 0.29 0.57 0.36 0.27 0.05 0.00 0.00 0.00 0.00 0.00 0.00 0.00 0.00 0.00 0.00 0.00 0.00 0.00 0.00 0.00 0.00 0.00 0.00 0.00 0.00 0.02 0.08 0.04 0.02 0.04 0.01 0.02 0.01 0.02 0.03 0.04 0.04 0.07 0.02 0.08
0.00 0.00 0.00 0.02 0.03 0.15 0.32 0.30 0.49 0.47 0.97 0.66 0.22 0.04 0.00 0.00 0.00 0.00 0.00 0.00 0.00 0.00 0.00 0.00 0.00 0.00 0.00 0.00 0.00 0.00 0.00 0.00 0.00 0.01 0.01 0.08 0.14 0.08 0.08 0.01 0.03 0.03 0.04 0.03 0.01 0.03 0.00 0.06 0.01
0.00 0.00 0.00 0.01 0.03 0.10 0.15 0.08 0.06 0.10 0.37 0.61 0.27 0.03 0.00 0.00 0.00 0.00 0.00 0.00 0.00 0.00 0.00 0.00 0.00 0.00 0.01 0.00 0.01 0.00 0.00 0.00 0.00 0.03 0.02 0.09 0.09 0.08 0.08 0.03 0.06 0.06 0.03 0.03 0.01 0.01 0.01 0.00 0.00
0.00 0.00 0.00 0.00 0.01 0.07 0.17 0.06 0.06 0.25 0.43 0.45 0.24 0.04 0.00 0.00 0.00 0.00 0.00 0.00 0.00 0.00 0.00 0.00 0.00 0.00 0.00 0.02 0.01 0.00 0.00 0.00 0.00 0.00 0.00 0.04 0.03 0.02 0.02 0.03 0.04 0.05 0.03 0.01 0.00 0.01 0.00 0.00 0.00
0.00 0.00 0.00 0.00 0.04 0.09 0.17 0.21 0.14 0.23 0.35 0.18 0.08 0.01 0.00 0.00 0.00 0.00 0.00 0.00 0.00 0.00 0.00 0.00 0.00 0.00 0.00 0.00 0.00 0.01 0.00 0.00 0.00 0.00 0.00 0.03 0.04 0.06 0.03 0.02 0.05 0.01 0.01 0.00 0.00 0.00 0.00 0.00 0.00
0.00 0.00 0.00 0.01 0.10 0.08 0.14 0.08 0.11 0.18 0.24 0.11 0.00 0.00 0.00 0.00 0.00 0.00 0.00 0.00 0.00 0.00 0.00 0.00 0.00 0.00 0.00 0.00 0.00 0.00 0.00 0.00 0.00 0.00 0.02 0.06 0.03 0.05 0.09 0.02 0.03 0.03 0.01 0.00 0.00 0.00 0.00 0.00 0.00
0.00 0.00 0.00 0.00 0.02 0.03 0.07 0.02 0.10 0.38 1.44 0.52 0.08 0.00 0.00 0.00 0.00 0.00 0.00 0.00 0.00 0.00 0.00 0.00 0.00 0.00 0.00 0.04 0.01 0.00 0.00 0.00 0.01 0.00 0.05 0.07 0.01 0.01 0.08 0.02 0.05 0.05 0.01 0.00 0.00 0.00 0.00 0.00 0.00
0.00 0.00 0.00 0.00 0.00 0.00 0.04 0.00 0.03 0.11 0.70 0.68 0.06 0.01 0.00 0.00 0.00 0.00 0.00 0.00 0.00 0.00 0.00 0.00 0.00 0.00 0.00 0.01 0.00 0.00 0.00 0.00 0.00 0.00 0.05 0.11 0.07 0.02 0.02 0.04 0.01 0.02 0.02 0.00 0.00 0.00 0.00 0.00 0.00
0.00 0.00 0.00 0.00 0.00 0.00 0.01 0.05 0.17 0.11 0.13 0.19 0.12 0.02 0.03 0.00 0.00 0.00 0.00 0.00 0.00 0.00 0.00 0.00 0.00 0.00 0.00 0.00 0.00 0.00 0.00 0.00 0.00 0.01 0.05 0.12 0.08 0.11 0.02 0.01 0.04 0.01 0.00 0.00 0.00 0.00 0.00 0.00 0.00
0.00 0.00 0.00 0.00 0.00 0.01 0.15 0.31 0.22 0.13 0.05 0.15 0.43 0.13 0.04 0.00 0.01 0.00 0.00 0.00 0.00 0.00 0.00 0.00 0.00 0.00 0.00 0.00 0.00 0.00 0.01 0.01 0.00 0.03 0.03 0.02 0.06 0.06 0.05 0.01 0.03 0.02 0.00 0.00 0.00 0.00 0.00 0.00 0.00
0.00 0.00 0.00 0.00 0.00 0.00 0.05 0.20 0.27 0.24 0.06 0.25 0.55 0.42 0.07 0.00 0.00 0.00 0.00 0.00 0.00 0.00 0.00 0.00 0.00 0.00 0.00 0.00 0.00 0.00 0.00 0.00 0.00 0.00 0.01 0.00 0.00 0.02 0.06 0.04 0.02 0.01 0.00 0.00 0.00 0.00 0.00 0.00 0.00
0.00 0.00 0.00 0.00 0.00 0.00 0.00 0.02 0.03 0.08 0.03 0.30 0.41 0.24 0.05 0.01 0.00 0.00 0.00 0.00 0.00 0.00 0.00 0.00 0.00 0.00 0.00 0.00 0.00 0.00 0.00 0.00 0.00 0.00 0.01 0.00 0.01 0.00 0.04 0.03 0.02 0.00 0.00 0.00 0.00 0.00 0.00 0.00 0.00
0.00 0.00 0.00 0.00 0.00 0.00 0.00 0.00 0.00 0.00 0.00 0.02 0.06 0.07 0.01 0.00 0.00 0.00 0.00 0.00 0.00 0.00 0.00 0.00 0.00 0.00 0.00 0.00 0.00 0.00 0.00 0.00 0.00 0.00 0.00 0.00 0.01 0.00 0.00 0.00 0.02 0.01 0.00 0.00 0.00 0.00 0.00 0.00 0.00
0.00 0.00 0.00 0.00 0.00 0.00 0.00 0.00 0.00 0.00 0.00 0.00 0.00 0.09 0.02 0.00 0.00 0.00 0.00 0.00 0.00 0.00 0.00 0.00 0.00 0.00 0.00 0.00 0.00 0.00 0.00 0.00 0.00 0.00 0.00 0.00 0.00 0.00 0.00 0.00 0.00 0.05 0.01 0.00 0.00 0.00 0.00 0.00 0.00
0.00 0.00 0.00 0.00 0.00 0.00 0.00 0.00 0.00 0.00 0.00 0.00 0.01 0.10 0.08 0.03 0.00 0.00 0.00 0.00 0.00 0.00 0.00 0.00 0.00 0.00 0.00 0.00 0.00 0.00 0.00 0.00 0.00 0.00 0.00 0.00 0.00 0.00 0.00 0.00 0.00 0.01 0.02 0.00 0.00 0.00 0.00 0.00 0.00
0.00 0.00 0.00 0.00 0.00 0.00 0.00 0.00 0.00 0.00 0.00 0.00 0.00 0.00 0.04 0.13 0.07 0.02 0.00 0.00 0.00 0.00 0.00 0.00 0.00 0.00 0.00 0.00 0.00 0.00 0.00 0.00 0.00 0.00 0.00 0.00 0.00 0.00 0.00 0.01 0.00 0.00 0.02 0.01 0.00 0.00 0.00 0.01 0.00
0.00 0.00 0.00 0.00 0.00 0.00 0.00 0.00 0.00 0.00 0.00 0.00 0.00 0.00 0.01 0.19 0.38 0.16 0.09 0.03 0.02 0.01 0.00 0.00 0.00 0.00 0.00 0.00 0.00 0.00 0.00 0.00 0.00 0.00 0.00 0.00 0.00 0.00 0.00 0.01 0.04 0.04 0.03 0.00 0.00 0.00 0.00 0.00 0.00
0.00 0.00 0.00 0.00 0.00 0.00 0.00 0.00 0.00 0.00 0.00 0.00 0.00 0.00 0.00 0.00 0.09 0.24 0.32 0.07 0.02 0.00 0.00 0.00 0.00 0.00 0.00 0.00 0.00 0.00 0.00 0.00 0.00 0.00 0.00 0.00 0.00 0.00 0.00 0.00 0.00 0.01 0.02 0.02 0.04 0.01 0.00 0.00 0.00
0.00 0.00 0.00 0.00 0.00 0.00 0.00 0.00 0.00 0.00 0.00 0.00 0.00 0.00 0.00 0.00 0.01 0.13 0.45 0.23 0.15 0.05 0.01 0.02 0.00 0.00 0.00 0.00 0.00 0.00 0.00 0.00 0.00 0.00 0.00 0.00 0.00 0.00 0.00 0.00 0.00 0.00 0.00 0.00 0.00 0.00 0.00 0.00 0.00

GFSSGP_prec_precacc12_075.txt.gz
Total_Precipitation_Accumulation
0.00 0.00 0.00 0.00 0.00 0.00 0.05 0.46 0.66 0.47 0.12 0.00 0.00 0.00 0.00 0.00 0.00 0.00 0.00 0.00 0.00 0.00 0.00 0.03 0.02 0.01 0.00 0.03 0.02 0.00 0.00 0.00 0.01 0.01 0.00 0.00 0.03 0.03 0.01 0.00 0.02 0.02 0.02 0.01 0.03 0.05 0.05 0.04 0.03
0.00 0.00 0.00 0.00 0.00 0.19 0.27 0.15 0.57 0.38 0.08 0.00 0.00 0.00 0.00 0.00 0.00 0.00 0.00 0.00 0.00 0.00 0.00 0.07 0.03 0.02 0.01 0.05 0.01 0.01 0.00 0.01 0.02 0.02 0.05 0.05 0.03 0.04 0.06 0.04 0.02 0.05 0.07 0.08 0.04 0.02 0.04 0.07 0.13
0.00 0.00 0.02 0.05 0.10 0.77 0.62 0.49 0.89 0.25 0.01 0.01 0.05 0.03 0.04 0.01 0.00 0.00 0.00 0.00 0.00 0.00 0.00 0.02 0.02 0.01 0.00 0.02 0.01 0.01 0.01 0.03 0.07 0.08 0.21 0.13 0.09 0.15 0.10 0.05 0.05 0.05 0.12 0.08 0.05 0.06 0.04 0.13 0.31
0.00 0.00 0.00 0.04 0.47 1.00 0.44 0.64 1.16 0.20 0.10 0.16 0.21 0.13 0.09 0.00 0.00 0.00 0.00 0.00 0.00 0.00 0.00 0.00 0.02 0.00 0.00 0.02 0.04 0.01 0.05 0.05 0.04 0.04 0.11 0.06 0.04 0.06 0.03 0.02 0.04 0.08 0.12 0.08 0.05 0.05 0.17 0.29 0.30
0.00 0.00 0.02 0.16 0.81 1.17 0.21 0.18 0.47 0.18 0.16 0.26 0.14 0.10 0.08 0.01 0.00 0.00 0.00 0.00 0.00 0.00 0.00 0.01 0.02 0.01 0.02 0.01 0.01 0.04 0.11 0.06 0.05 0.08 0.07 0.04 0.06 0.04 0.05 0.03 0.02 0.03 0.05 0.03 0.04 0.13 0.24 0.27 0.27
0.00 0.00 0.01 0.11 0.57 1.25 0.68 0.34 0.30 0.33 0.29 0.26 0.14 0.06 0.03 0.00 0.00 0.00 0.00 0.00 0.00 0.00 0.00 0.00 0.01 0.01 0.03 0.04 0.05 0.06 0.04 0.04 0.04 0.05 0.03 0.05 0.05 0.08 0.08 0.01 0.00 0.01 0.01 0.00 0.00 0.04 0.29 0.26 0.16
0.00 0.01 0.01 0.12 0.37 2.23 1.67 0.97 0.45 0.32 0.17 0.16 0.11 0.01 0.04 0.01 0.00 0.00 0.00 0.00 0.00 0.00 0.00 0.00 0.01 0.04 0.11 0.11 0.11 0.05 0.03 0.03 0.03 0.04 0.07 0.06 0.07 0.11 0.05 0.05 0.02 0.01 0.01 0.00 0.03 0.11 0.14 0.10 0.11
0.00 0.00 0.04 0.05 0.14 0.42 0.56 0.50 0.52 0.17 0.06 0.06 0.01 0.00 0.02 0.01 0.00 0.00 0.00 0.00 0.00 0.00 0.00 0.00 0.01 0.02 0.03 0.04 0.05 0.03 0.01 0.01 0.03 0.02 0.01 0.03 0.04 0.07 0.09 0.06 0.02 0.00 0.00 0.00 0.00 0.01 0.02 0.04 0.05
0.00 0.01 0.01 0.02 0.07 0.14 0.35 0.51 1.00 0.35 0.08 0.02 0.06 0.00 0.00 0.01 0.00 0.00 0.00 0.01 0.00 0.00 0.00 0.00 0.00 0.00 0.01 0.00 0.02 0.01 0.02 0.01 0.07 0.03 0.03 0.05 0.07 0.03 0.03 0.03 0.01 0.00 0.00 0.01 0.05 0.00 0.03 0.02 0.06
0.04 0.03 0.01 0.01 0.04 0.22 0.23 0.65 0.35 0.14 0.20 0.23 0.16 0.01 0.00 0.00 0.00 0.00 0.00 0.00 0.00 0.00 0.00 0.00 0.00 0.00 0.00 0.01 0.01 0.01 0.00 0.05 0.05 0.01 0.00 0.00 0.00 0.00 0.00 0.02 0.01 0.00 0.00 0.02 0.04 0.01 0.02 0.01 0.00
0.14 0.04 0.00 0.01 0.03 0.22 0.31 0.42 0.22 0.12 0.33 0.94 0.68 0.02 0.00 0.00 0.00 0.00 0.00 0.00 0.00 0.00 0.00 0.00 0.00 0.00 0.00 0.00 0.00 0.00 0.00 0.00 0.00 0.01 0.01 0.00 0.00 0.00 0.00 0.00 0.00 0.00 0.03 0.06 0.02 0.03 0.00 0.00 0.00
0.08 0.00 0.00 0.00 0.01 0.12 0.68 0.58 0.26 0.15 0.31 0.27 0.19 0.02 0.00 0.00 0.00 0.00 0.00 0.00 0.00 0.00 0.00 0.00 0.00 0.00 0.00 0.00 0.00 0.00 0.00 0.00 0.00 0.00 0.00 0.01 0.00 0.00 0.00 0.00 0.00 0.00 0.01 0.02 0.01 0.00 0.00 0.00 0.00
0.00 0.00 0.00 0.00 0.00 0.12 0.27 0.22 0.19 0.24 0.52 0.46 0.15 0.03 0.00 0.00 0.00 0.00 0.00 0.00 0.00 0.00 0.00 0.00 0.00 0.00 0.00 0.00 0.00 0.00 0.00 0.00 0.00 0.01 0.00 0.00 0.00 0.01 0.00 0.00 0.00 0.00 0.01 0.00 0.00 0.02 0.00 0.01 0.00
0.00 0.00 0.00 0.00 0.00 0.03 0.14 0.10 0.03 0.04 0.16 0.37 0.25 0.03 0.00 0.00 0.00 0.00 0.00 0.00 0.00 0.00 0.00 0.00 0.00 0.00 0.00 0.00 0.01 0.00 0.00 0.00 0.00 0.03 0.02 0.00 0.00 0.02 0.01 0.00 0.00 0.01 0.00 0.00 0.00 0.01 0.01 0.00 0.00
0.00 0.00 0.00 0.00 0.01 0.01 0.14 0.15 0.05 0.07 0.22 0.39 0.24 0.05 0.00 0.00 0.00 0.00 0.00 0.00 0.00 0.00 0.00 0.00 0.00 0.00 0.00 0.02 0.01 0.00 0.00 0.00 0.00 0.00 0.00 0.00 0.00 0.00 0.00 0.00 0.00 0.01 0.00 0.00 0.00 0.01 0.00 0.00 0.00
0.00 0.00 0.00 0.00 0.04 0.10 0.13 0.17 0.04 0.15 0.32 0.22 0.11 0.04 0.00 0.00 0.00 0.00 0.00 0.00 0.00 0.00 0.00 0.00 0.00 0.00 0.00 0.00 0.00 0.01 0.00 0.00 0.00 0.00 0.00 0.03 0.04 0.02 0.01 0.01 0.02 0.00 0.00 0.00 0.00 0.00 0.00 0.00 0.00
0.00 0.00 0.00 0.01 0.10 0.08 0.17 0.15 0.07 0.03 0.15 0.13 0.01 0.01 0.00 0.00 0.00 0.00 0.00 0.00 0.00 0.00 0.00 0.00 0.00 0.00 0.00 0.00 0.00 0.00 0.00 0.00 0.01 0.00 0.02 0.06 0.03 0.01 0.06 0.00 0.00 0.01 0.00 0.00 0.00 0.00 0.00 0.00 0.00
0.00 0.00 0.00 0.00 0.02 0.02 0.05 0.04 0.09 0.09 0.52 0.35 0.08 0.01 0.00 0.00 0.00 0.00 0.00 0.00 0.00 0.00 0.00 0.00 0.00 0.00 0.00 0.04 0.01 0.00 0.00 0.00 0.02 0.01 0.05 0.07 0.01 0.01 0.03 0.01 0.01 0.01 0.00 0.00 0.00 0.00 0.00 0.00 0.00
0.00 0.00 0.00 0.00 0.00 0.00 0.02 0.00 0.03 0.05 0.11 0.14 0.01 0.01 0.00 0.00 0.00 0.00 0.00 0.00 0.00 0.00 0.00 0.00 0.00 0.00 0.00 0.01 0.00 0.00 0.00 0.00 0.00 0.00 0.05 0.11 0.07 0.02 0.01 0.03 0.01 0.00 0.00 0.00 0.00 0.00 0.00 0.00 0.00
0.00 0.00 0.00 0.00 0.00 0.00 0.00 0.05 0.16 0.08 0.13 0.07 0.02 0.01 0.03 0.00 0.00 0.00 0.00 0.00 0.00 0.00 0.00 0.00 0.00 0.00 0.00 0.00 0.00 0.00 0.00 0.00 0.00 0.02 0.04 0.12 0.08 0.11 0.02 0.00 0.03 0.01 0.00 0.00 0.00 0.00 0.00 0.00 0.00
0.00 0.00 0.00 0.00 0.00 0.01 0.15 0.30 0.20 0.10 0.04 0.07 0.27 0.12 0.03 0.00 0.01 0.00 0.00 0.00 0.00 0.00 0.00 0.00 0.00 0.00 0.00 0.00 0.00 0.00 0.00 0.00 0.00 0.00 0.02 0.02 0.06 0.06 0.06 0.01 0.02 0.01 0.00 0.00 0.00 0.00 0.00 0.00 0.00
0.00 0.00 0.00 0.00 0.00 0.00 0.05 0.20 0.27 0.23 0.04 0.01 0.29 0.37 0.06 0.00 0.00 0.00 0.00 0.00 0.00 0.00 0.00 0.00 0.00 0.00 0.00 0.00 0.00 0.00 0.00 0.00 0.00 0.00 0.01 0.00 0.00 0.02 0.07 0.05 0.03 0.01 0.00 0.00 0.00 0.00 0.00 0.00 0.00
0.00 0.00 0.00 0.00 0.00 0.00 0.00 0.02 0.03 0.08 0.03 0.01 0.01 0.14 0.11 0.00 0.00 0.00 0.00 0.00 0.00 0.00 0.00 0.00 0.00 0.00 0.00 0.00 0.00 0.00 0.00 0.00 0.00 0.00 0.00 0.00 0.01 0.00 0.03 0.05 0.03 0.00 0.00 0.00 0.00 0.00 0.00 0.00 0.00
0.00 0.00 0.00 0.00 0.00 0.00 0.00 0.00 0.00 0.00 0.01 0.00 0.00 0.01 0.02 0.00 0.00 0.00 0.00 0.00 0.00 0.00 0.00 0.00 0.00 0.00 0.00 0.00 0.00 0.00 0.00 0.00 0.00 0.00 0.00 0.00 0.00 0.00 0.00 0.03 0.02 0.02 0.00 0.00 0.00 0.00 0.00 0.00 0.01
0.00 0.00 0.00 0.00 0.00 0.00 0.00 0.00 0.00 0.00 0.00 0.00 0.00 0.00 0.00 0.00 0.00 0.00 0.00 0.00 0.00 0.00 0.00 0.00 0.00 0.00 0.00 0.00 0.00 0.00 0.00 0.00 0.00 0.00 0.00 0.00 0.00 0.00 0.00 0.00 0.07 0.09 0.01 0.00 0.00 0.00 0.00 0.00 0.01
0.00 0.00 0.00 0.00 0.00 0.00 0.00 0.00 0.00 0.00 0.00 0.00 0.00 0.01 0.00 0.00 0.00 0.00 0.00 0.00 0.00 0.00 0.00 0.00 0.00 0.00 0.00 0.00 0.00 0.00 0.00 0.00 0.00 0.00 0.00 0.00 0.00 0.00 0.00 0.00 0.01 0.05 0.05 0.00 0.00 0.00 0.00 0.01 0.00
0.00 0.00 0.00 0.00 0.00 0.00 0.00 0.00 0.00 0.00 0.00 0.00 0.00 0.00 0.00 0.00 0.00 0.00 0.00 0.00 0.00 0.00 0.00 0.00 0.00 0.00 0.00 0.00 0.00 0.00 0.00 0.00 0.00 0.00 0.00 0.00 0.00 0.00 0.00 0.01 0.00 0.01 0.04 0.01 0.00 0.00 0.03 0.04 0.01
0.00 0.00 0.00 0.00 0.00 0.00 0.00 0.00 0.00 0.00 0.00 0.00 0.00 0.00 0.00 0.00 0.00 0.00 0.00 0.01 0.01 0.01 0.00 0.00 0.00 0.00 0.00 0.00 0.00 0.00 0.00 0.00 0.00 0.00 0.00 0.00 0.00 0.00 0.00 0.01 0.04 0.07 0.05 0.01 0.01 0.00 0.00 0.00 0.00
0.00 0.00 0.00 0.00 0.00 0.00 0.00 0.00 0.00 0.00 0.00 0.00 0.01 0.00 0.00 0.00 0.00 0.01 0.03 0.02 0.03 0.02 0.00 0.00 0.00 0.00 0.00 0.00 0.00 0.00 0.00 0.00 0.00 0.00 0.00 0.00 0.00 0.00 0.00 0.00 0.00 0.01 0.03 0.02 0.05 0.02 0.00 0.00 0.00
0.00 0.00 0.00 0.00 0.00 0.00 0.00 0.00 0.00 0.00 0.00 0.00 0.01 0.01 0.00 0.00 0.01 0.02 0.07 0.13 0.15 0.06 0.03 0.03 0.02 0.00 0.00 0.00 0.00 0.00 0.00 0.00 0.00 0.00 0.00 0.00 0.00 0.00 0.00 0.00 0.00 0.00 0.00 0.00 0.00 0.01 0.02 0.03 0.01

GFSSGP_prec_precacc12_078.txt.gz
Total_Precipitation_Accumulation
0.00 0.00 0.00 0.00 0.00 0.02 0.06 0.17 0.22 0.26 0.08 0.00 0.00 0.00 0.00 0.00 0.00 0.01 0.00 0.00 0.00 0.00 0.00 0.01 0.02 0.00 0.00 0.00 0.00 0.00 0.02 0.02 0.00 0.00 0.00 0.01 0.01 0.01 0.01 0.00 0.02 0.01 0.01 0.02 0.04 0.07 0.09 0.09 0.10
0.00 0.00 0.00 0.03 0.02 0.24 0.29 0.11 0.39 0.40 0.07 0.00 0.00 0.00 0.00 0.00 0.00 0.00 0.00 0.00 0.00 0.00 0.00 0.07 0.04 0.01 0.00 0.00 0.00 0.00 0.00 0.01 0.00 0.02 0.05 0.05 0.01 0.04 0.06 0.07 0.06 0.06 0.08 0.07 0.06 0.04 0.08 0.14 0.18
0.00 0.00 0.05 0.14 0.15 0.75 0.59 0.33 0.54 0.25 0.01 0.01 0.04 0.01 0.02 0.01 0.00 0.00 0.00 0.00 0.00 0.00 0.00 0.02 0.03 0.01 0.00 0.01 0.02 0.01 0.01 0.02 0.06 0.08 0.22 0.14 0.15 0.25 0.12 0.07 0.10 0.06 0.15 0.15 0.07 0.07 0.07 0.16 0.37
0.00 0.00 0.02 0.06 0.35 0.82 0.26 0.32 0.32 0.12 0.06 0.13 0.15 0.11 0.08 0.00 0.00 0.00 0.00 0.00 0.00 0.00 0.00 0.00 0.01 0.00 0.00 0.02 0.04 0.02 0.02 0.03 0.03 0.06 0.14 0.10 0.09 0.09 0.04 0.03 0.05 0.10 0.13 0.09 0.05 0.07 0.22 0.35 0.38
0.00 0.02 0.08 0.23 0.58 0.88 0.11 0.11 0.22 0.14 0.14 0.16 0.11 0.10 0.08 0.01 0.00 0.00 0.00 0.00 0.00 0.00 0.00 0.00 0.01 0.01 0.02 0.01 0.02 0.03 0.06 0.07 0.07 0.15 0.11 0.08 0.07 0.04 0.05 0.03 0.02 0.04 0.05 0.04 0.08 0.21 0.34 0.44 0.28
0.02 0.05 0.05 0.12 0.39 0.53 0.48 0.26 0.30 0.38 0.27 0.21 0.14 0.06 0.04 0.01 0.00 0.00 0.00 0.00 0.00 0.00 0.00 0.00 0.01 0.02 0.05 0.06 0.06 0.06 0.05 0.07 0.09 0.07 0.05 0.05 0.04 0.08 0.08 0.01 0.01 0.01 0.01 0.01 0.05 0.12 0.41 0.38 0.19
0.02 0.07 0.05 0.10 0.24 1.77 1.25 0.76 0.45 0.37 0.17 0.16 0.11 0.01 0.05 0.01 0.00 0.00 0.00 0.00 0.00 0.00 0.00 0.00 0.01 0.06 0.14 0.14 0.13 0.06 0.03 0.05 0.05 0.07 0.09 0.06 0.08 0.12 0.05 0.06 0.03 0.01 0.03 0.06 0.16 0.28 0.25 0.16 0.13
0.02 0.02 0.03 0.09 0.12 0.32 0.47 0.48 0.50 0.16 0.06 0.06 0.02 0.00 0.02 0.01 0.00 0.00 0.00 0.00 0.00 0.00 0.00 0.00 0.01 0.03 0.03 0.05 0.07 0.04 0.02 0.03 0.05 0.03 0.03 0.03 0.04 0.07 0.10 0.07 0.02 0.01 0.06 0.12 0.16 0.13 0.06 0.09 0.07
0.01 0.03 0.02 0.07 0.07 0.14 0.25 0.58 1.14 0.37 0.03 0.01 0.02 0.00 0.00 0.01 0.00 0.00 0.00 0.01 0.00 0.01 0.00 0.00 0.00 0.00 0.01 0.01 0.03 0.03 0.04 0.02 0.06 0.05 0.09 0.06 0.07 0.03 0.04 0.03 0.01 0.00 0.04 0.02 0.07 0.05 0.08 0.10 0.10
0.07 0.11 0.01 0.02 0.08 0.24 0.22 0.74 0.39 0.08 0.10 0.08 0.05 0.00 0.00 0.00 0.00 0.00 0.00 0.00 0.00 0.01 0.00 0.00 0.00 0.01 0.00 0.01 0.02 0.04 0.02 0.08 0.05 0.02 0.00 0.00 0.00 0.00 0.00 0.02 0.00 0.00 0.00 0.02 0.04 0.03 0.05 0.01 0.02
0.17 0.12 0.00 0.00 0.03 0.24 0.30 0.33 0.21 0.08 0.20 0.20 0.40 0.01 0.00 0.00 0.00 0.00 0.00 0.00 0.00 0.00 0.00 0.00 0.00 0.00 0.00 0.00 0.00 0.00 0.00 0.00 0.01 0.00 0.00 0.00 0.00 0.00 0.00 0.00 0.00 0.00 0.03 0.06 0.02 0.03 0.00 0.00 0.00
0.13 0.01 0.00 0.00 0.01 0.18 0.60 0.28 0.26 0.11 0.23 0.09 0.06 0.00 0.00 0.00 0.00 0.00 0.00 0.00 0.00 0.00 0.00 0.00 0.00 0.00 0.00 0.00 0.00 0.00 0.00 0.00 0.00 0.00 0.00 0.00 0.00 0.00 0.00 0.00 0.00 0.00 0.00 0.00 0.00 0.00 0.00 0.00 0.00
0.01 0.00 0.00 0.00 0.00 0.07 0.25 0.22 0.25 0.23 0.19 0.21 0.06 0.01 0.00 0.00 0.00 0.00 0.00 0.00 0.00 0.00 0.00 0.00 0.00 0.00 0.00 0.00 0.00 0.00 0.00 0.00 0.00 0.01 0.00 0.00 0.00 0.00 0.00 0.00 0.00 0.00 0.00 0.00 0.00 0.00 0.00 0.00 0.00
0.00 0.00 0.00 0.00 0.00 0.02 0.10 0.13 0.03 0.05 0.10 0.29 0.20 0.03 0.00 0.00 0.00 0.00 0.00 0.00 0.00 0.00 0.00 0.00 0.00 0.00 0.00 0.00 0.00 0.00 0.00 0.00 0.00 0.03 0.02 0.00 0.00 0.00 0.00 0.00 0.00 0.00 0.00 0.00 0.00 0.00 0.00 0.00 0.00
0.00 0.00 0.00 0.00 0.00 0.01 0.12 0.24 0.11 0.06 0.14 0.32 0.21 0.05 0.00 0.00 0.00 0.00 0.00 0.00 0.00 0.00 0.00 0.00 0.00 0.00 0.00 0.01 0.01 0.00 0.00 0.00 0.00 0.00 0.00 0.00 0.00 0.00 0.00 0.00 0.00 0.00 0.00 0.00 0.00 0.01 0.00 0.00 0.00
0.00 0.00 0.00 0.00 0.03 0.08 0.15 0.30 0.09 0.12 0.31 0.21 0.10 0.04 0.00 0.00 0.00 0.00 0.00 0.00 0.00 0.00 0.00 0.00 0.00 0.00 0.00 0.00 0.00 0.01 0.00 0.00 0.00 0.00 0.00 0.01 0.01 0.01 0.00 0.00 0.00 0.00 0.00 0.00 0.00 0.00 0.00 0.00 0.00
0.00 0.00 0.00 0.01 0.10 0.08 0.19 0.27 0.14 0.03 0.11 0.11 0.01 0.01 0.00 0.00 0.00 0.00 0.00 0.00 0.00 0.00 0.00 0.00 0.00 0.00 0.00 0.00 0.00 0.00 0.00 0.00 0.01 0.00 0.02 0.06 0.00 0.01 0.06 0.00 0.00 0.00 0.00 0.00 0.00 0.00 0.00 0.00 0.00
0.00 0.00 0.00 0.00 0.04 0.03 0.09 0.09 0.06 0.07 0.10 0.07 0.02 0.01 0.00 0.00 0.00 0.00 0.00 0.00 0.00 0.00 0.00 0.00 0.00 0.00 0.00 0.04 0.01 0.00 0.00 0.00 0.02 0.01 0.05 0.06 0.00 0.00 0.03 0.01 0.00 0.00 0.00 0.00 0.00 0.00 0.00 0.00 0.00
0.00 0.00 0.00 0.00 0.00 0.00 0.00 0.00 0.01 0.04 0.06 0.02 0.01 0.01 0.00 0.00 0.00 0.00 0.00 0.00 0.00 0.00 0.00 0.00 0.00 0.00 0.00 0.01 0.00 0.00 0.00 0.00 0.00 0.00 0.04 0.09 0.07 0.01 0.00 0.02 0.01 0.00 0.00 0.00 0.00 0.00 0.00 0.00 0.00
0.00 0.00 0.00 0.00 0.00 0.00 0.00 0.02 0.07 0.04 0.13 0.05 0.00 0.01 0.00 0.00 0.00 0.00 0.00 0.00 0.00 0.00 0.00 0.00 0.00 0.00 0.00 0.00 0.00 0.00 0.00 0.00 0.00 0.02 0.04 0.11 0.08 0.11 0.02 0.00 0.03 0.00 0.00 0.00 0.00 0.00 0.00 0.00 0.00
0.00 0.00 0.00 0.00 0.00 0.00 0.02 0.10 0.12 0.04 0.03 0.06 0.07 0.01 0.00 0.00 0.00 0.00 0.00 0.00 0.00 0.00 0.00 0.00 0.00 0.00 0.00 0.00 0.00 0.00 0.01 0.00 0.00 0.00 0.02 0.02 0.06 0.06 0.06 0.01 0.02 0.01 0.00 0.00 0.00 0.00 0.00 0.00 0.00
0.00 0.00 0.00 0.00 0.00 0.00 0.01 0.05 0.10 0.15 0.03 0.03 0.05 0.00 0.00 0.00 0.00 0.00 0.00 0.00 0.00 0.00 0.00 0.00 0.00 0.00 0.00 0.00 0.00 0.00 0.00 0.00 0.00 0.00 0.01 0.00 0.01 0.06 0.11 0.05 0.03 0.01 0.00 0.00 0.00 0.00 0.00 0.00 0.00
0.00 0.00 0.00 0.00 0.00 0.00 0.00 0.00 0.02 0.06 0.08 0.08 0.00 0.03 0.06 0.00 0.00 0.00 0.00 0.00 0.00 0.00 0.00 0.00 0.00 0.00 0.00 0.00 0.00 0.00 0.00 0.00 0.00 0.00 0.00 0.01 0.04 0.07 0.12 0.10 0.04 0.02 0.00 0.00 0.00 0.00 0.00 0.00 0.00
0.00 0.00 0.00 0.00 0.00 0.00 0.00 0.00 0.00 0.00 0.02 0.01 0.00 0.00 0.02 0.00 0.00 0.00 0.00 0.00 0.00 0.00 0.00 0.00 0.00 0.00 0.00 0.00 0.00 0.00 0.00 0.00 0.00 0.00 0.01 0.00 0.00 0.01 0.05 0.06 0.09 0.06 0.01 0.00 0.01 0.03 0.00 0.00 0.01
0.00 0.00 0.00 0.00 0.00 0.00 0.00 0.00 0.00 0.00 0.00 0.00 0.00 0.00 0.00 0.00 0.00 0.00 0.00 0.00 0.00 0.00 0.00 0.00 0.00 0.00 0.00 0.00 0.00 0.00 0.00 0.00 0.00 0.04 0.01 0.00 0.00 0.00 0.00 0.03 0.14 0.11 0.04 0.03 0.01 0.03 0.01 0.04 0.05
0.00 0.00 0.00 0.00 0.00 0.00 0.00 0.00 0.00 0.00 0.00 0.00 0.00 0.00 0.00 0.00 0.00 0.00 0.00 0.00 0.00 0.00 0.00 0.00 0.00 0.00 0.00 0.00 0.00 0.00 0.00 0.00 0.00 0.00 0.00 0.00 0.00 0.00 0.00 0.00 0.02 0.06 0.08 0.01 0.01 0.03 0.02 0.04 0.03
0.00 0.00 0.00 0.00 0.00 0.00 0.00 0.00 0.00 0.00 0.00 0.00 0.00 0.00 0.01 0.00 0.00 0.00 0.00 0.00 0.00 0.00 0.00 0.00 0.00 0.00 0.00 0.00 0.00 0.00 0.00 0.00 0.00 0.00 0.00 0.00 0.00 0.00 0.00 0.01 0.02 0.03 0.05 0.03 0.01 0.02 0.06 0.08 0.02
0.00 0.00 0.00 0.00 0.00 0.00 0.00 0.00 0.00 0.00 0.00 0.00 0.00 0.00 0.00 0.00 0.00 0.00 0.00 0.00 0.00 0.00 0.00 0.00 0.00 0.00 0.00 0.00 0.00 0.00 0.00 0.00 0.00 0.00 0.00 0.00 0.00 0.00 0.00 0.01 0.06 0.10 0.05 0.01 0.04 0.01 0.00 0.04 0.03
0.00 0.00 0.00 0.00 0.00 0.00 0.00 0.00 0.00 0.00 0.00 0.00 0.01 0.01 0.01 0.00 0.00 0.01 0.01 0.01 0.03 0.02 0.00 0.00 0.00 0.00 0.00 0.00 0.00 0.00 0.00 0.00 0.00 0.00 0.00 0.00 0.00 0.00 0.00 0.00 0.07 0.10 0.04 0.02 0.05 0.02 0.00 0.02 0.02
0.00 0.00 0.00 0.00 0.00 0.00 0.00 0.00 0.00 0.00 0.00 0.01 0.01 0.01 0.00 0.00 0.01 0.07 0.15 0.16 0.15 0.06 0.03 0.03 0.02 0.00 0.00 0.00 0.00 0.00 0.00 0.00 0.00 0.00 0.00 0.00 0.00 0.00 0.00 0.00 0.11 0.07 0.03 0.03 0.02 0.01 0.03 0.07 0.02

GFSSGP_prec_precacc12_081.txt.gz
Total_Precipitation_Accumulation
0.00 0.00 0.00 0.00 0.02 0.05 0.07 0.19 0.20 0.20 0.08 0.00 0.00 0.00 0.00 0.00 0.03 0.04 0.00 0.00 0.00 0.00 0.00 0.00 0.02 0.00 0.00 0.01 0.01 0.22 0.13 0.02 0.00 0.00 0.03 0.02 0.01 0.02 0.01 0.01 0.02 0.02 0.01 0.04 0.08 0.12 0.14 0.12 0.11
0.00 0.00 0.00 0.05 0.06 0.31 0.29 0.23 0.40 0.38 0.06 0.00 0.00 0.00 0.00 0.00 0.00 0.00 0.00 0.00 0.00 0.00 0.00 0.05 0.02 0.01 0.00 0.01 0.01 0.03 0.01 0.04 0.08 0.04 0.08 0.07 0.02 0.03 0.05 0.05 0.05 0.05 0.03 0.04 0.08 0.08 0.14 0.18 0.17
0.00 0.00 0.10 0.23 0.19 0.33 0.38 0.39 0.56 0.24 0.01 0.00 0.00 0.00 0.01 0.01 0.00 0.00 0.00 0.00 0.00 0.00 0.00 0.02 0.03 0.00 0.00 0.01 0.04 0.03 0.05 0.02 0.09 0.12 0.22 0.14 0.13 0.24 0.11 0.06 0.08 0.04 0.11 0.15 0.09 0.10 0.16 0.17 0.34
0.00 0.02 0.08 0.21 0.28 0.51 0.30 0.27 0.24 0.06 0.01 0.06 0.06 0.02 0.01 0.00 0.00 0.00 0.00 0.00 0.00 0.00 0.00 0.01 0.02 0.00 0.01 0.02 0.06 0.04 0.03 0.01 0.03 0.05 0.10 0.08 0.09 0.09 0.04 0.02 0.05 0.10 0.13 0.08 0.08 0.14 0.26 0.38 0.34
0.00 0.07 0.20 0.36 0.65 0.80 0.12 0.09 0.10 0.11 0.07 0.11 0.06 0.06 0.04 0.01 0.00 0.00 0.00 0.00 0.00 0.00 0.00 0.01 0.03 0.01 0.02 0.01 0.05 0.03 0.03 0.05 0.06 0.14 0.10 0.08 0.07 0.04 0.05 0.03 0.03 0.04 0.06 0.05 0.09 0.23 0.35 0.38 0.23
0.06 0.17 0.22 0.13 0.30 0.48 0.25 0.10 0.21 0.32 0.22 0.17 0.12 0.05 0.03 0.01 0.00 0.00 0.00 0.00 0.00 0.00 0.00 0.00 0.06 0.04 0.07 0.05 0.04 0.07 0.03 0.07 0.10 0.07 0.05 0.04 0.03 0.07 0.06 0.01 0.01 0.01 0.03 0.09 0.07 0.11 0.34 0.30 0.15
0.07 0.23 0.23 0.14 0.11 0.59 0.85 0.57 0.48 0.34 0.17 0.16 0.10 0.01 0.05 0.01 0.00 0.00 0.00 0.00 0.01 0.00 0.00 0.00 0.01 0.10 0.12 0.13 0.13 0.07 0.03 0.04 0.06 0.06 0.06 0.04 0.08 0.11 0.04 0.07 0.05 0.03 0.07 0.13 0.22 0.28 0.25 0.14 0.12
0.06 0.19 0.21 0.14 0.08 0.16 0.34 0.36 0.40 0.17 0.08 0.06 0.02 0.02 0.02 0.01 0.00 0.00 0.00 0.00 0.01 0.00 0.00 0.00 0.00 0.03 0.03 0.06 0.11 0.04 0.02 0.03 0.05 0.02 0.05 0.02 0.04 0.07 0.10 0.07 0.03 0.03 0.09 0.23 0.26 0.21 0.07 0.10 0.07
0.03 0.18 0.15 0.16 0.06 0.08 0.18 0.47 1.02 0.34 0.03 0.00 0.00 0.00 0.00 0.01 0.00 0.00 0.00 0.01 0.01 0.01 0.00 0.00 0.01 0.01 0.02 0.03 0.04 0.03 0.04 0.02 0.07 0.06 0.13 0.08 0.04 0.02 0.05 0.04 0.02 0.04 0.09 0.07 0.14 0.07 0.07 0.12 0.10
0.14 0.30 0.07 0.07 0.08 0.22 0.17 0.67 0.28 0.04 0.02 0.01 0.01 0.00 0.00 0.00 0.00 0.00 0.00 0.00 0.00 0.01 0.00 0.00 0.00 0.01 0.00 0.01 0.03 0.05 0.04 0.20 0.08 0.03 0.00 0.01 0.00 0.00 0.00 0.02 0.00 0.00 0.02 0.02 0.01 0.02 0.05 0.03 0.02
0.13 0.18 0.02 0.02 0.05 0.17 0.28 0.32 0.12 0.04 0.14 0.07 0.02 0.01 0.00 0.00 0.00 0.00 0.00 0.00 0.00 0.00 0.00 0.00 0.00 0.00 0.00 0.00 0.00 0.00 0.00 0.01 0.01 0.00 0.00 0.00 0.00 0.00 0.00 0.00 0.00 0.00 0.02 0.02 0.00 0.03 0.00 0.00 0.00
0.15 0.03 0.01 0.01 0.01 0.19 0.49 0.26 0.24 0.14 0.23 0.06 0.01 0.00 0.00 0.00 0.00 0.00 0.00 0.00 0.00 0.00 0.00 0.00 0.00 0.00 0.00 0.00 0.00 0.00 0.00 0.00 0.00 0.00 0.00 0.00 0.00 0.00 0.00 0.00 0.00 0.00 0.00 0.00 0.00 0.00 0.00 0.00 0.00
0.02 0.01 0.00 0.00 0.00 0.06 0.16 0.22 0.28 0.19 0.05 0.11 0.01 0.00 0.00 0.00 0.00 0.00 0.00 0.00 0.00 0.00 0.00 0.00 0.00 0.00 0.00 0.00 0.00 0.00 0.00 0.00 0.00 0.00 0.00 0.00 0.00 0.00 0.00 0.00 0.00 0.00 0.00 0.00 0.00 0.00 0.00 0.00 0.00
0.01 0.00 0.00 0.00 0.00 0.01 0.10 0.16 0.04 0.05 0.03 0.13 0.10 0.03 0.00 0.00 0.00 0.00 0.00 0.00 0.00 0.00 0.00 0.00 0.00 0.00 0.00 0.00 0.00 0.00 0.00 0.00 0.00 0.03 0.02 0.00 0.00 0.00 0.00 0.00 0.00 0.00 0.00 0.00 0.00 0.03 0.00 0.00 0.00
0.00 0.00 0.00 0.00 0.00 0.01 0.12 0.36 0.19 0.04 0.13 0.20 0.15 0.05 0.00 0.00 0.00 0.00 0.00 0.00 0.00 0.00 0.00 0.00 0.00 0.00 0.00 0.00 0.00 0.00 0.00 0.00 0.00 0.00 0.00 0.00 0.00 0.00 0.00 0.00 0.01 0.00 0.00 0.00 0.00 0.01 0.00 0.00 0.00
0.00 0.00 0.00 0.00 0.02 0.08 0.21 0.50 0.24 0.10 0.28 0.13 0.04 0.04 0.00 0.00 0.00 0.00 0.00 0.00 0.00 0.00 0.00 0.00 0.00 0.00 0.00 0.00 0.00 0.00 0.00 0.01 0.01 0.00 0.00 0.00 0.01 0.00 0.00 0.00 0.00 0.00 0.00 0.00 0.00 0.00 0.00 0.00 0.00
0.00 0.00 0.00 0.00 0.04 0.09 0.22 0.42 0.35 0.02 0.12 0.11 0.01 0.01 0.00 0.00 0.00 0.00 0.00 0.00 0.00 0.00 0.00 0.00 0.00 0.00 0.00 0.00 0.00 0.00 0.00 0.00 0.01 0.00 0.00 0.04 0.00 0.01 0.06 0.00 0.00 0.00 0.00 0.00 0.00 0.00 0.00 0.00 0.00
0.00 0.00 0.00 0.00 0.03 0.02 0.11 0.11 0.02 0.06 0.15 0.10 0.02 0.01 0.00 0.00 0.00 0.00 0.00 0.00 0.00 0.00 0.00 0.00 0.00 0.00 0.00 0.02 0.01 0.00 0.00 0.00 0.02 0.01 0.00 0.04 0.00 0.00 0.03 0.01 0.00 0.02 0.00 0.00 0.00 0.00 0.00 0.00 0.00
0.00 0.00 0.01 0.00 0.00 0.02 0.01 0.01 0.00 0.04 0.11 0.08 0.02 0.02 0.00 0.00 0.00 0.00 0.00 0.00 0.00 0.00 0.00 0.00 0.00 0.00 0.00 0.00 0.00 0.00 0.00 0.00 0.00 0.00 0.00 0.02 0.05 0.01 0.00 0.02 0.01 0.01 0.00 0.01 0.00 0.00 0.00 0.00 0.00
0.00 0.00 0.00 0.00 0.01 0.01 0.04 0.00 0.00 0.02 0.13 0.10 0.06 0.03 0.01 0.00 0.00 0.00 0.00 0.00 0.00 0.00 0.00 0.00 0.00 0.00 0.00 0.00 0.00 0.00 0.00 0.00 0.00 0.02 0.00 0.02 0.07 0.10 0.02 0.00 0.02 0.01 0.02 0.00 0.00 0.01 0.00 0.00 0.00
0.00 0.00 0.00 0.00 0.00 0.00 0.00 0.00 0.00 0.01 0.06 0.31 0.14 0.02 0.01 0.00 0.00 0.00 0.00 0.00 0.00 0.00 0.00 0.00 0.00 0.00 0.00 0.00 0.00 0.01 0.02 0.00 0.00 0.00 0.01 0.00 0.02 0.03 0.06 0.01 0.03 0.01 0.00 0.00 0.00 0.00 0.00 0.00 0.00
0.00 0.00 0.00 0.00 0.00 0.00 0.00 0.05 0.01 0.03 0.02 0.28 0.21 0.09 0.02 0.01 0.00 0.00 0.00 0.00 0.00 0.00 0.00 0.00 0.00 0.00 0.00 0.00 0.00 0.01 0.01 0.00 0.00 0.00 0.00 0.00 0.01 0.06 0.11 0.05 0.03 0.01 0.01 0.02 0.00 0.00 0.00 0.00 0.00
0.00 0.00 0.00 0.00 0.00 0.00 0.00 0.03 0.17 0.03 0.11 0.18 0.08 0.09 0.14 0.02 0.01 0.00 0.00 0.00 0.00 0.00 0.00 0.00 0.00 0.00 0.00 0.00 0.01 0.00 0.00 0.00 0.00 0.00 0.01 0.07 0.06 0.07 0.12 0.10 0.05 0.05 0.02 0.02 0.00 0.00 0.00 0.00 0.00
0.00 0.00 0.00 0.00 0.00 0.00 0.00 0.00 0.09 0.06 0.02 0.03 0.02 0.01 0.08 0.03 0.01 0.00 0.00 0.00 0.00 0.00 0.00 0.00 0.00 0.00 0.00 0.00 0.00 0.00 0.00 0.00 0.01 0.00 0.01 0.00 0.01 0.01 0.05 0.06 0.09 0.06 0.04 0.03 0.01 0.03 0.00 0.00 0.01
0.00 0.00 0.00 0.00 0.00 0.00 0.00 0.00 0.01 0.01 0.00 0.00 0.00 0.00 0.03 0.01 0.01 0.01 0.00 0.00 0.00 0.00 0.00 0.00 0.00 0.00 0.00 0.00 0.00 0.00 0.00 0.00 0.01 0.05 0.01 0.00 0.01 0.00 0.00 0.03 0.14 0.11 0.04 0.04 0.03 0.03 0.01 0.04 0.05
0.00 0.00 0.00 0.00 0.00 0.00 0.00 0.00 0.00 0.00 0.00 0.00 0.00 0.00 0.00 0.00 0.01 0.01 0.00 0.00 0.00 0.00 0.00 0.00 0.00 0.00 0.00 0.00 0.00 0.00 0.00 0.00 0.00 0.00 0.00 0.00 0.00 0.00 0.01 0.00 0.02 0.06 0.08 0.01 0.03 0.04 0.02 0.04 0.03
0.00 0.00 0.00 0.00 0.00 0.00 0.00 0.00 0.00 0.00 0.00 0.00 0.00 0.00 0.01 0.00 0.02 0.03 0.00 0.00 0.00 0.00 0.00 0.00 0.00 0.00 0.00 0.00 0.00 0.00 0.00 0.00 0.00 0.00 0.00 0.00 0.00 0.01 0.00 0.01 0.02 0.03 0.05 0.03 0.04 0.02 0.06 0.08 0.02
0.00 0.00 0.00 0.00 0.00 0.00 0.00 0.00 0.00 0.00 0.00 0.00 0.00 0.00 0.01 0.01 0.05 0.19 0.07 0.00 0.00 0.00 0.00 0.00 0.00 0.00 0.00 0.00 0.00 0.00 0.00 0.00 0.00 0.00 0.00 0.00 0.00 0.00 0.03 0.02 0.05 0.10 0.05 0.01 0.04 0.01 0.00 0.04 0.03
0.00 0.00 0.00 0.00 0.00 0.00 0.00 0.00 0.00 0.00 0.00 0.00 0.01 0.01 0.02 0.01 0.09 0.24 0.19 0.09 0.06 0.03 0.00 0.00 0.00 0.00 0.00 0.00 0.00 0.00 0.00 0.00 0.00 0.00 0.00 0.00 0.00 0.00 0.00 0.00 0.12 0.10 0.04 0.02 0.07 0.02 0.02 0.03 0.02
0.00 0.00 0.00 0.00 0.00 0.00 0.00 0.03 0.00 0.00 0.00 0.01 0.02 0.01 0.00 0.01 0.06 0.23 0.35 0.31 0.24 0.09 0.04 0.02 0.02 0.00 0.00 0.00 0.00 0.00 0.00 0.00 0.00 0.00 0.00 0.00 0.00 0.00 0.00 0.02 0.15 0.07 0.03 0.03 0.02 0.01 0.03 0.07 0.02

GFSSGP_prec_precacc12_087.txt.gz
Total_Precipitation_Accumulation
0.00 0.00 0.00 0.00 0.08 0.23 0.13 0.44 0.34 0.05 0.02 0.00 0.00 0.00 0.00 0.01 0.04 0.07 0.00 0.00 0.00 0.00 0.00 0.02 0.02 0.00 0.00 0.00 0.09 0.36 0.12 0.01 0.00 0.01 0.05 0.02 0.02 0.03 0.01 0.01 0.05 0.06 0.04 0.06 0.06 0.08 0.09 0.10 0.08
0.00 0.00 0.00 0.11 0.20 0.65 0.16 0.36 0.46 0.18 0.01 0.00 0.00 0.00 0.00 0.01 0.00 0.00 0.00 0.01 0.00 0.00 0.00 0.00 0.01 0.02 0.04 0.03 0.10 0.09 0.03 0.04 0.08 0.03 0.05 0.04 0.02 0.07 0.05 0.06 0.10 0.07 0.08 0.05 0.07 0.07 0.10 0.15 0.07
0.00 0.00 0.13 0.35 0.58 0.47 0.49 0.51 0.48 0.10 0.00 0.00 0.00 0.00 0.00 0.00 0.00 0.00 0.00 0.01 0.00 0.01 0.00 0.00 0.01 0.02 0.03 0.04 0.05 0.05 0.05 0.02 0.04 0.05 0.04 0.05 0.07 0.14 0.08 0.06 0.10 0.06 0.10 0.14 0.08 0.09 0.14 0.06 0.09
0.00 0.03 0.19 1.05 1.61 0.56 0.33 0.27 0.06 0.01 0.00 0.00 0.00 0.00 0.00 0.00 0.00 0.00 0.00 0.00 0.01 0.02 0.00 0.00 0.01 0.00 0.03 0.04 0.06 0.06 0.03 0.02 0.04 0.05 0.06 0.07 0.07 0.05 0.05 0.04 0.04 0.05 0.04 0.03 0.06 0.19 0.12 0.14 0.09
0.00 0.23 1.39 1.17 0.89 0.84 0.53 0.14 0.01 0.04 0.02 0.01 0.00 0.00 0.00 0.00 0.00 0.00 0.00 0.01 0.00 0.00 0.00 0.00 0.08 0.03 0.03 0.02 0.05 0.06 0.02 0.04 0.06 0.12 0.09 0.06 0.04 0.02 0.03 0.02 0.03 0.02 0.07 0.04 0.05 0.12 0.20 0.18 0.05
0.09 0.49 1.14 0.26 0.20 0.68 0.51 0.07 0.12 0.13 0.02 0.00 0.00 0.00 0.01 0.00 0.00 0.00 0.00 0.01 0.00 0.00 0.00 0.00 0.12 0.08 0.08 0.06 0.03 0.03 0.01 0.05 0.09 0.05 0.02 0.02 0.02 0.02 0.01 0.01 0.02 0.03 0.11 0.16 0.06 0.08 0.12 0.12 0.04
0.11 0.62 0.60 0.19 0.09 0.38 0.31 0.16 0.28 0.13 0.04 0.03 0.01 0.00 0.01 0.00 0.00 0.00 0.00 0.03 0.02 0.00 0.00 0.00 0.01 0.09 0.08 0.09 0.05 0.02 0.01 0.03 0.03 0.04 0.02 0.01 0.01 0.01 0.01 0.03 0.04 0.05 0.12 0.15 0.19 0.19 0.15 0.07 0.03
0.12 0.58 0.84 0.28 0.18 0.36 0.23 0.12 0.10 0.08 0.06 0.05 0.03 0.02 0.00 0.00 0.00 0.00 0.05 0.04 0.03 0.01 0.00 0.00 0.00 0.02 0.02 0.03 0.07 0.01 0.01 0.02 0.03 0.04 0.06 0.06 0.00 0.00 0.01 0.04 0.02 0.04 0.09 0.23 0.25 0.21 0.06 0.06 0.03
0.17 0.63 0.74 0.75 0.13 0.08 0.02 0.19 0.28 0.09 0.04 0.07 0.02 0.00 0.00 0.00 0.00 0.01 0.01 0.04 0.01 0.02 0.00 0.01 0.01 0.03 0.04 0.02 0.02 0.02 0.03 0.11 0.14 0.11 0.15 0.16 0.03 0.00 0.05 0.05 0.03 0.07 0.09 0.07 0.13 0.12 0.08 0.12 0.05
0.65 0.74 0.69 0.44 0.11 0.07 0.03 0.15 0.11 0.04 0.03 0.02 0.01 0.00 0.00 0.00 0.00 0.00 0.00 0.01 0.00 0.02 0.01 0.09 0.01 0.01 0.00 0.00 0.03 0.04 0.10 0.23 0.13 0.09 0.05 0.06 0.02 0.00 0.00 0.00 0.01 0.01 0.11 0.13 0.06 0.10 0.26 0.11 0.02
0.49 0.35 0.15 0.11 0.06 0.08 0.07 0.08 0.01 0.02 0.14 0.04 0.00 0.00 0.00 0.00 0.00 0.00 0.00 0.00 0.00 0.00 0.00 0.00 0.00 0.02 0.01 0.00 0.01 0.03 0.02 0.01 0.01 0.01 0.01 0.01 0.00 0.00 0.00 0.00 0.00 0.02 0.11 0.31 0.13 0.03 0.02 0.04 0.01
0.38 0.11 0.13 0.09 0.02 0.14 0.19 0.04 0.05 0.12 0.29 0.05 0.00 0.00 0.00 0.00 0.00 0.00 0.00 0.00 0.00 0.02 0.00 0.00 0.01 0.09 0.03 0.00 0.00 0.00 0.00 0.00 0.00 0.00 0.00 0.01 0.00 0.01 0.01 0.11 0.20 0.07 0.10 0.34 0.17 0.04 0.01 0.01 0.00
0.18 0.08 0.11 0.07 0.04 0.04 0.12 0.14 0.13 0.20 0.83 0.04 0.01 0.00 0.00 0.00 0.00 0.00 0.00 0.00 0.00 0.00 0.00 0.00 0.00 0.02 0.00 0.00 0.00 0.00 0.00 0.00 0.00 0.00 0.00 0.00 0.03 0.06 0.06 0.16 0.11 0.14 0.13 0.15 0.12 0.16 0.03 0.05 0.00
0.08 0.04 0.03 0.03 0.08 0.02 0.11 0.26 0.09 0.11 0.33 0.05 0.01 0.00 0.00 0.00 0.00 0.00 0.00 0.00 0.00 0.00 0.00 0.00 0.00 0.00 0.00 0.00 0.00 0.00 0.00 0.00 0.00 0.00 0.00 0.00 0.01 0.04 0.14 0.09 0.11 0.22 0.07 0.06 0.12 0.24 0.01 0.00 0.00
0.02 0.04 0.00 0.01 0.06 0.01 0.11 0.63 0.34 0.03 0.06 0.02 0.01 0.00 0.00 0.00 0.00 0.00 0.00 0.00 0.00 0.00 0.00 0.00 0.00 0.00 0.00 0.00 0.00 0.00 0.00 0.00 0.00 0.00 0.01 0.02 0.02 0.03 0.14 0.12 0.25 0.11 0.07 0.11 0.15 0.07 0.00 0.00 0.00
0.00 0.04 0.03 0.01 0.02 0.02 0.19 1.10 0.52 0.07 0.03 0.03 0.00 0.00 0.00 0.00 0.00 0.00 0.00 0.00 0.00 0.00 0.00 0.00 0.00 0.00 0.00 0.00 0.01 0.01 0.12 0.07 0.01 0.00 0.00 0.00 0.00 0.04 0.06 0.04 0.03 0.05 0.13 0.06 0.11 0.03 0.00 0.00 0.00
0.00 0.01 0.00 0.00 0.01 0.03 0.15 1.21 0.98 0.14 0.13 0.07 0.01 0.00 0.00 0.00 0.00 0.00 0.00 0.00 0.00 0.00 0.00 0.00 0.00 0.00 0.00 0.00 0.00 0.01 0.02 0.02 0.01 0.00 0.00 0.00 0.00 0.02 0.04 0.02 0.02 0.04 0.08 0.01 0.01 0.01 0.01 0.00 0.00
0.00 0.01 0.03 0.02 0.05 0.04 0.19 0.14 0.08 0.03 0.19 0.11 0.02 0.01 0.00 0.00 0.00 0.00 0.00 0.00 0.00 0.00 0.00 0.00 0.00 0.00 0.00 0.00 0.01 0.01 0.02 0.03 0.00 0.00 0.00 0.02 0.01 0.01 0.04 0.02 0.01 0.07 0.01 0.00 0.01 0.00 0.01 0.00 0.00
0.00 0.00 0.03 0.04 0.10 0.16 0.15 0.10 0.02 0.00 0.11 0.09 0.02 0.02 0.00 0.00 0.00 0.00 0.00 0.00 0.00 0.00 0.00 0.00 0.00 0.00 0.00 0.00 0.00 0.00 0.00 0.01 0.00 0.00 0.00 0.03 0.03 0.01 0.03 0.03 0.01 0.02 0.01 0.03 0.01 0.01 0.00 0.00 0.00
0.00 0.00 0.01 0.02 0.13 0.59 1.08 0.54 0.43 0.03 0.07 0.09 0.09 0.03 0.01 0.00 0.00 0.00 0.00 0.00 0.00 0.00 0.00 0.00 0.00 0.00 0.00 0.00 0.00 0.00 0.00 0.00 0.00 0.01 0.01 0.00 0.00 0.01 0.03 0.02 0.03 0.04 0.07 0.01 0.01 0.03 0.01 0.00 0.00
0.00 0.00 0.00 0.00 0.02 0.36 0.66 0.74 0.64 0.11 0.10 0.36 0.16 0.05 0.01 0.00 0.00 0.00 0.00 0.00 0.00 0.00 0.00 0.00 0.00 0.00 0.00 0.00 0.00 0.02 0.03 0.01 0.01 0.01 0.00 0.00 0.00 0.01 0.07 0.02 0.04 0.04 0.02 0.02 0.01 0.00 0.00 0.00 0.00
0.00 0.00 0.00 0.00 0.00 0.01 0.02 0.19 0.17 0.10 0.05 0.69 0.34 0.20 0.05 0.01 0.00 0.00 0.01 0.00 0.00 0.00 0.00 0.00 0.00 0.00 0.00 0.01 0.00 0.01 0.01 0.01 0.00 0.03 0.01 0.01 0.00 0.04 0.06 0.01 0.04 0.04 0.05 0.09 0.01 0.00 0.00 0.00 0.00
0.00 0.00 0.00 0.00 0.00 0.00 0.00 0.07 0.34 0.34 0.24 0.22 0.18 0.72 0.23 0.03 0.01 0.01 0.01 0.00 0.00 0.00 0.00 0.00 0.00 0.00 0.00 0.00 0.04 0.02 0.00 0.07 0.06 0.08 0.10 0.15 0.08 0.08 0.09 0.06 0.05 0.09 0.09 0.06 0.01 0.01 0.00 0.00 0.01
0.00 0.00 0.00 0.00 0.00 0.00 0.00 0.01 0.24 0.54 0.42 0.42 0.08 0.64 1.08 0.50 0.10 0.05 0.01 0.00 0.00 0.00 0.00 0.00 0.00 0.00 0.00 0.00 0.02 0.02 0.04 0.06 0.07 0.08 0.09 0.03 0.08 0.03 0.05 0.04 0.09 0.08 0.10 0.10 0.03 0.04 0.00 0.01 0.01
0.00 0.00 0.00 0.00 0.00 0.00 0.00 0.00 0.05 0.48 0.49 0.39 0.34 0.46 0.92 1.06 0.39 0.11 0.08 0.01 0.01 0.00 0.00 0.00 0.00 0.00 0.00 0.00 0.00 0.01 0.03 0.05 0.10 0.09 0.05 0.07 0.22 0.03 0.04 0.07 0.09 0.04 0.05 0.07 0.06 0.04 0.01 0.04 0.03
0.00 0.00 0.00 0.00 0.00 0.00 0.00 0.00 0.00 0.01 0.05 0.06 0.16 0.12 0.15 0.23 0.58 0.16 0.04 0.02 0.04 0.00 0.00 0.00 0.00 0.00 0.00 0.00 0.00 0.01 0.02 0.02 0.02 0.01 0.02 0.01 0.06 0.06 0.16 0.09 0.04 0.04 0.05 0.02 0.05 0.05 0.03 0.04 0.02
0.00 0.00 0.00 0.00 0.00 0.00 0.00 0.01 0.01 0.00 0.04 0.04 0.03 0.09 0.12 0.11 0.10 0.13 0.10 0.06 0.09 0.03 0.00 0.00 0.00 0.00 0.00 0.00 0.00 0.00 0.00 0.01 0.01 0.01 0.02 0.01 0.02 0.07 0.19 0.17 0.05 0.02 0.02 0.04 0.09 0.03 0.07 0.06 0.02
0.00 0.00 0.00 0.00 0.00 0.00 0.05 0.05 0.06 0.04 0.05 0.04 0.02 0.02 0.05 0.11 0.37 0.46 0.31 0.27 0.20 0.10 0.01 0.00 0.00 0.00 0.01 0.01 0.01 0.01 0.03 0.01 0.01 0.01 0.00 0.01 0.03 0.03 0.22 0.29 0.07 0.05 0.01 0.01 0.04 0.04 0.04 0.07 0.04
0.00 0.00 0.00 0.00 0.00 0.00 0.07 0.27 0.10 0.05 0.00 0.01 0.01 0.01 0.04 0.09 0.36 1.29 1.29 1.02 0.70 0.34 0.10 0.12 0.06 0.02 0.00 0.00 0.01 0.01 0.00 0.01 0.01 0.00 0.00 0.00 0.01 0.04 0.07 0.29 0.16 0.12 0.03 0.02 0.05 0.04 0.05 0.09 0.03
0.00 0.00 0.00 0.00 0.00 0.00 0.01 0.22 0.13 0.10 0.01 0.00 0.01 0.02 0.02 0.06 0.15 0.55 1.22 1.93 1.94 1.31 0.49 0.38 0.40 0.19 0.11 0.03 0.00 0.00 0.00 0.00 0.00 0.00 0.00 0.00 0.00 0.00 0.01 0.04 0.19 0.12 0.06 0.07 0.09 0.02 0.03 0.09 0.04

GFSSGP_prec_precacc12_090.txt.gz
Total_Precipitation_Accumulation
0.00 0.00 0.00 0.00 0.12 0.36 0.13 0.47 0.47 0.08 0.01 0.00 0.01 0.00 0.01 0.01 0.04 0.07 0.00 0.00 0.00 0.00 0.00 0.03 0.02 0.00 0.00 0.00 0.08 0.36 0.10 0.00 0.00 0.01 0.05 0.02 0.02 0.04 0.01 0.02 0.05 0.07 0.06 0.05 0.04 0.05 0.05 0.05 0.03
0.00 0.00 0.00 0.09 0.32 0.89 0.16 0.31 0.45 0.14 0.01 0.00 0.00 0.00 0.01 0.01 0.00 0.00 0.00 0.01 0.00 0.00 0.00 0.00 0.00 0.02 0.04 0.03 0.10 0.09 0.03 0.04 0.08 0.03 0.05 0.04 0.03 0.07 0.05 0.03 0.06 0.08 0.08 0.04 0.04 0.04 0.06 0.08 0.01
0.00 0.00 0.09 0.32 0.87 1.01 0.61 0.46 0.45 0.04 0.00 0.00 0.00 0.00 0.00 0.00 0.00 0.00 0.00 0.01 0.00 0.01 0.00 0.00 0.00 0.01 0.03 0.04 0.05 0.04 0.05 0.02 0.04 0.04 0.02 0.04 0.01 0.02 0.06 0.04 0.03 0.05 0.07 0.07 0.06 0.08 0.11 0.03 0.02
0.00 0.02 0.18 1.11 1.99 0.39 0.36 0.24 0.09 0.04 0.00 0.00 0.00 0.00 0.00 0.00 0.00 0.00 0.00 0.00 0.01 0.02 0.00 0.00 0.01 0.01 0.03 0.04 0.06 0.05 0.03 0.02 0.04 0.02 0.03 0.02 0.01 0.01 0.03 0.04 0.04 0.03 0.02 0.02 0.06 0.17 0.07 0.09 0.02
0.00 0.33 1.56 1.22 0.72 0.56 0.60 0.17 0.02 0.02 0.00 0.01 0.00 0.00 0.00 0.00 0.00 0.00 0.00 0.01 0.00 0.00 0.00 0.00 0.09 0.04 0.04 0.02 0.04 0.06 0.02 0.03 0.04 0.04 0.05 0.02 0.02 0.01 0.04 0.04 0.03 0.01 0.07 0.04 0.01 0.03 0.11 0.04 0.04
0.07 0.71 1.35 0.23 0.21 0.71 0.59 0.09 0.05 0.06 0.01 0.00 0.00 0.00 0.00 0.00 0.00 0.00 0.00 0.01 0.00 0.00 0.00 0.00 0.12 0.08 0.06 0.04 0.02 0.02 0.01 0.02 0.03 0.02 0.00 0.00 0.01 0.03 0.01 0.01 0.01 0.03 0.11 0.15 0.02 0.00 0.01 0.04 0.03
0.10 1.41 0.79 0.15 0.12 0.41 0.41 0.16 0.19 0.07 0.03 0.03 0.01 0.00 0.01 0.00 0.00 0.00 0.00 0.03 0.02 0.00 0.00 0.00 0.01 0.07 0.05 0.05 0.03 0.01 0.00 0.01 0.01 0.01 0.00 0.00 0.01 0.00 0.01 0.02 0.04 0.05 0.09 0.10 0.06 0.02 0.03 0.02 0.00
0.13 0.96 1.62 0.27 0.31 0.50 0.36 0.11 0.06 0.07 0.05 0.03 0.02 0.01 0.01 0.00 0.00 0.04 0.05 0.05 0.03 0.01 0.00 0.00 0.00 0.01 0.01 0.02 0.05 0.01 0.00 0.00 0.01 0.03 0.04 0.05 0.00 0.01 0.02 0.04 0.02 0.03 0.03 0.11 0.10 0.09 0.02 0.01 0.00
0.19 0.79 1.09 0.79 0.26 0.36 0.15 0.03 0.10 0.04 0.02 0.07 0.02 0.00 0.00 0.00 0.00 0.01 0.02 0.04 0.02 0.03 0.06 0.01 0.00 0.03 0.03 0.01 0.01 0.00 0.01 0.10 0.15 0.07 0.09 0.14 0.03 0.01 0.04 0.04 0.04 0.06 0.06 0.06 0.11 0.07 0.02 0.02 0.00
0.76 0.89 1.22 0.52 0.05 0.01 0.00 0.03 0.10 0.05 0.03 0.02 0.01 0.00 0.00 0.00 0.00 0.00 0.01 0.01 0.00 0.01 0.02 0.08 0.00 0.00 0.00 0.00 0.02 0.01 0.08 0.17 0.09 0.08 0.04 0.06 0.02 0.00 0.00 0.00 0.01 0.01 0.11 0.13 0.06 0.08 0.23 0.10 0.01
0.57 0.78 0.28 0.32 0.09 0.00 0.01 0.07 0.05 0.06 0.14 0.03 0.00 0.00 0.00 0.00 0.00 0.00 0.00 0.00 0.01 0.02 0.03 0.00 0.00 0.01 0.01 0.00 0.00 0.03 0.02 0.01 0.01 0.01 0.01 0.01 0.00 0.00 0.00 0.00 0.00 0.02 0.11 0.32 0.13 0.04 0.06 0.05 0.08
0.48 0.41 0.25 0.20 0.14 0.07 0.04 0.01 0.04 0.13 0.27 0.04 0.00 0.00 0.00 0.00 0.00 0.00 0.00 0.00 0.00 0.02 0.01 0.00 0.01 0.08 0.03 0.00 0.00 0.00 0.00 0.00 0.00 0.00 0.00 0.01 0.00 0.01 0.01 0.11 0.20 0.08 0.10 0.34 0.17 0.06 0.02 0.02 0.01
0.21 0.21 0.20 0.18 0.09 0.06 0.04 0.03 0.05 0.21 0.83 0.04 0.01 0.00 0.00 0.00 0.00 0.00 0.00 0.00 0.00 0.01 0.00 0.00 0.00 0.01 0.00 0.00 0.00 0.00 0.00 0.00 0.00 0.00 0.00 0.00 0.03 0.06 0.07 0.16 0.11 0.15 0.15 0.16 0.13 0.18 0.03 0.05 0.00
0.13 0.12 0.14 0.13 0.13 0.07 0.08 0.20 0.11 0.14 0.33 0.05 0.01 0.00 0.00 0.00 0.00 0.00 0.00 0.00 0.00 0.01 0.00 0.00 0.00 0.00 0.00 0.00 0.00 0.00 0.00 0.00 0.00 0.00 0.00 0.00 0.02 0.05 0.14 0.10 0.11 0.22 0.07 0.06 0.12 0.24 0.01 0.00 0.00
0.04 0.11 0.13 0.08 0.10 0.02 0.10 0.55 0.29 0.03 0.06 0.02 0.01 0.00 0.00 0.00 0.00 0.00 0.00 0.00 0.00 0.00 0.00 0.00 0.00 0.00 0.00 0.00 0.00 0.00 0.00 0.00 0.00 0.00 0.02 0.03 0.02 0.03 0.14 0.12 0.25 0.12 0.11 0.12 0.15 0.07 0.00 0.00 0.00
0.00 0.07 0.07 0.06 0.09 0.05 0.19 1.56 0.64 0.08 0.04 0.03 0.00 0.00 0.00 0.00 0.00 0.00 0.00 0.00 0.00 0.00 0.00 0.00 0.00 0.00 0.00 0.00 0.01 0.01 0.12 0.07 0.01 0.00 0.00 0.01 0.04 0.05 0.06 0.04 0.03 0.05 0.14 0.07 0.11 0.03 0.00 0.00 0.00
0.00 0.01 0.02 0.11 0.05 0.10 0.24 1.50 1.19 0.21 0.10 0.02 0.01 0.00 0.00 0.00 0.00 0.00 0.00 0.00 0.00 0.00 0.00 0.00 0.00 0.00 0.00 0.00 0.00 0.01 0.02 0.02 0.01 0.00 0.03 0.04 0.03 0.03 0.04 0.02 0.02 0.05 0.08 0.03 0.01 0.01 0.01 0.00 0.00
0.00 0.01 0.06 0.07 0.22 0.26 0.31 0.10 0.09 0.07 0.19 0.07 0.01 0.00 0.00 0.00 0.00 0.00 0.00 0.00 0.00 0.00 0.00 0.00 0.00 0.00 0.00 0.00 0.01 0.02 0.02 0.04 0.00 0.00 0.00 0.02 0.01 0.02 0.05 0.03 0.01 0.08 0.01 0.00 0.04 0.00 0.01 0.00 0.00
0.00 0.01 0.04 0.08 0.27 0.47 0.34 0.19 0.13 0.04 0.28 0.15 0.02 0.00 0.00 0.00 0.00 0.00 0.00 0.00 0.00 0.00 0.00 0.00 0.00 0.00 0.00 0.00 0.01 0.00 0.02 0.02 0.00 0.00 0.00 0.04 0.05 0.05 0.03 0.03 0.02 0.02 0.01 0.03 0.01 0.01 0.00 0.00 0.00
0.00 0.00 0.01 0.06 0.27 0.98 1.54 0.83 0.58 0.19 0.24 0.16 0.10 0.02 0.01 0.00 0.00 0.00 0.00 0.00 0.00 0.00 0.00 0.00 0.00 0.00 0.00 0.00 0.00 0.01 0.00 0.00 0.01 0.01 0.01 0.01 0.02 0.04 0.03 0.02 0.03 0.04 0.07 0.01 0.02 0.03 0.01 0.00 0.00
0.00 0.00 0.00 0.03 0.12 0.59 1.12 1.18 0.82 0.33 0.32 0.47 0.17 0.05 0.01 0.00 0.00 0.00 0.00 0.00 0.00 0.00 0.00 0.00 0.00 0.00 0.00 0.00 0.00 0.03 0.02 0.01 0.07 0.08 0.01 0.01 0.00 0.01 0.07 0.02 0.04 0.04 0.02 0.02 0.03 0.03 0.00 0.00 0.00
0.00 0.00 0.00 0.00 0.01 0.04 0.09 0.28 0.23 0.30 0.27 0.81 0.34 0.20 0.05 0.01 0.00 0.00 0.01 0.00 0.00 0.00 0.00 0.00 0.00 0.00 0.00 0.01 0.00 0.02 0.01 0.01 0.03 0.05 0.07 0.05 0.00 0.00 0.01 0.01 0.04 0.04 0.05 0.09 0.01 0.02 0.01 0.00 0.00
0.00 0.00 0.00 0.00 0.02 0.02 0.01 0.09 0.35 0.42 0.34 0.30 0.23 0.72 0.24 0.03 0.01 0.01 0.01 0.00 0.00 0.00 0.00 0.00 0.00 0.00 0.00 0.00 0.04 0.02 0.01 0.07 0.05 0.09 0.10 0.19 0.14 0.02 0.00 0.00 0.04 0.08 0.09 0.06 0.01 0.02 0.00 0.01 0.01
0.00 0.00 0.00 0.01 0.04 0.03 0.00 0.02 0.27 0.54 0.44 0.49 0.14 0.64 1.09 0.51 0.11 0.05 0.01 0.00 0.00 0.00 0.00 0.00 0.00 0.00 0.00 0.00 0.03 0.03 0.04 0.06 0.08 0.09 0.11 0.11 0.16 0.07 0.02 0.02 0.02 0.03 0.09 0.10 0.02 0.01 0.00 0.00 0.01
0.00 0.00 0.00 0.00 0.00 0.00 0.00 0.00 0.08 0.49 0.49 0.39 0.34 0.47 0.92 1.06 0.40 0.15 0.09 0.02 0.01 0.00 0.00 0.00 0.00 0.00 0.00 0.00 0.01 0.01 0.03 0.05 0.10 0.08 0.06 0.08 0.23 0.04 0.04 0.04 0.02 0.01 0.03 0.04 0.05 0.01 0.00 0.01 0.01
0.00 0.00 0.00 0.00 0.00 0.00 0.00 0.01 0.01 0.02 0.05 0.06 0.17 0.12 0.15 0.23 0.59 0.18 0.12 0.11 0.05 0.00 0.00 0.00 0.00 0.00 0.00 0.00 0.00 0.01 0.03 0.02 0.02 0.01 0.03 0.01 0.07 0.07 0.19 0.09 0.04 0.02 0.02 0.01 0.04 0.02 0.01 0.01 0.00
0.00 0.00 0.00 0.00 0.00 0.00 0.04 0.02 0.02 0.00 0.04 0.04 0.03 0.09 0.12 0.11 0.10 0.15 0.19 0.17 0.12 0.04 0.00 0.00 0.00 0.00 0.00 0.00 0.00 0.00 0.00 0.01 0.01 0.01 0.05 0.01 0.03 0.11 0.20 0.18 0.04 0.00 0.01 0.02 0.08 0.02 0.04 0.02 0.01
0.00 0.00 0.00 0.00 0.00 0.00 0.11 0.13 0.11 0.06 0.06 0.04 0.02 0.02 0.05 0.11 0.37 0.46 0.33 0.31 0.25 0.11 0.02 0.01 0.00 0.00 0.01 0.01 0.01 0.01 0.03 0.01 0.01 0.02 0.01 0.01 0.03 0.03 0.22 0.29 0.05 0.02 0.01 0.01 0.01 0.04 0.03 0.03 0.01
0.00 0.00 0.00 0.00 0.00 0.00 0.10 0.30 0.19 0.13 0.03 0.03 0.03 0.02 0.03 0.09 0.38 1.29 1.29 1.02 0.71 0.42 0.17 0.27 0.24 0.14 0.05 0.01 0.01 0.01 0.01 0.02 0.01 0.01 0.02 0.00 0.01 0.04 0.08 0.29 0.09 0.03 0.01 0.02 0.05 0.03 0.05 0.07 0.02
0.00 0.00 0.00 0.00 0.00 0.00 0.02 0.26 0.23 0.25 0.12 0.06 0.04 0.03 0.03 0.10 0.19 0.56 1.19 1.93 1.99 1.56 1.25 0.62 0.63 0.44 0.24 0.14 0.08 0.04 0.05 0.05 0.01 0.00 0.00 0.00 0.00 0.00 0.02 0.04 0.08 0.05 0.03 0.04 0.07 0.01 0.02 0.05 0.03

GFSSGP_prec_precacc12_093.txt.gz
Total_Precipitation_Accumulation
0.00 0.00 0.00 0.00 0.15 0.33 0.14 0.48 0.46 0.07 0.01 0.00 0.01 0.00 0.01 0.01 0.01 0.03 0.00 0.00 0.00 0.00 0.02 0.09 0.06 0.01 0.00 0.00 0.08 0.15 0.01 0.03 0.00 0.01 0.02 0.01 0.02 0.03 0.03 0.02 0.09 0.11 0.06 0.03 0.00 0.01 0.01 0.01 0.01
0.00 0.00 0.00 0.06 0.33 0.81 0.14 0.20 0.37 0.08 0.00 0.00 0.00 0.00 0.01 0.01 0.00 0.00 0.00 0.01 0.00 0.00 0.00 0.00 0.00 0.02 0.04 0.02 0.10 0.06 0.02 0.01 0.01 0.01 0.03 0.04 0.03 0.07 0.06 0.04 0.08 0.08 0.08 0.02 0.01 0.01 0.02 0.04 0.01
0.00 0.00 0.04 0.27 1.03 0.99 0.56 0.35 0.32 0.02 0.00 0.00 0.01 0.02 0.00 0.00 0.00 0.00 0.00 0.01 0.00 0.01 0.00 0.00 0.00 0.01 0.03 0.04 0.02 0.02 0.01 0.00 0.01 0.00 0.03 0.04 0.02 0.02 0.08 0.05 0.03 0.05 0.07 0.05 0.03 0.03 0.01 0.01 0.00
0.00 0.01 0.13 1.04 2.08 0.32 0.35 0.19 0.06 0.04 0.00 0.00 0.00 0.00 0.00 0.00 0.00 0.00 0.00 0.00 0.01 0.02 0.00 0.00 0.01 0.02 0.06 0.03 0.01 0.05 0.03 0.02 0.03 0.02 0.06 0.05 0.04 0.03 0.04 0.04 0.03 0.02 0.01 0.01 0.03 0.11 0.04 0.05 0.01
0.00 0.33 1.52 1.22 0.59 0.46 0.57 0.16 0.01 0.01 0.00 0.01 0.00 0.00 0.00 0.00 0.00 0.00 0.00 0.01 0.00 0.00 0.00 0.00 0.08 0.04 0.04 0.03 0.02 0.05 0.03 0.05 0.04 0.06 0.09 0.03 0.03 0.01 0.03 0.03 0.01 0.01 0.06 0.02 0.02 0.06 0.07 0.05 0.05
0.08 0.99 1.50 0.20 0.17 0.72 0.65 0.10 0.01 0.01 0.00 0.00 0.00 0.00 0.00 0.00 0.00 0.00 0.00 0.01 0.00 0.00 0.00 0.00 0.07 0.05 0.04 0.03 0.01 0.00 0.00 0.01 0.03 0.03 0.01 0.01 0.02 0.02 0.01 0.00 0.01 0.03 0.09 0.07 0.02 0.05 0.04 0.05 0.03
0.08 1.76 0.76 0.12 0.18 0.51 0.40 0.08 0.05 0.01 0.01 0.01 0.01 0.00 0.01 0.00 0.00 0.00 0.00 0.03 0.01 0.00 0.00 0.00 0.00 0.03 0.03 0.05 0.00 0.00 0.00 0.00 0.00 0.01 0.01 0.00 0.01 0.00 0.01 0.01 0.01 0.03 0.05 0.02 0.00 0.01 0.04 0.06 0.01
0.09 0.90 1.45 0.22 0.78 0.80 0.38 0.09 0.04 0.03 0.02 0.02 0.02 0.00 0.01 0.00 0.00 0.04 0.05 0.04 0.02 0.00 0.00 0.01 0.00 0.01 0.02 0.02 0.01 0.00 0.00 0.00 0.02 0.03 0.02 0.05 0.04 0.02 0.02 0.03 0.01 0.01 0.00 0.00 0.00 0.02 0.04 0.02 0.00
0.21 0.75 0.97 0.75 0.58 0.60 0.19 0.03 0.10 0.04 0.01 0.07 0.02 0.00 0.00 0.00 0.00 0.01 0.02 0.04 0.01 0.03 0.08 0.02 0.00 0.03 0.02 0.00 0.00 0.00 0.00 0.10 0.13 0.07 0.07 0.15 0.16 0.08 0.03 0.04 0.03 0.03 0.01 0.01 0.04 0.05 0.01 0.01 0.00
0.69 0.73 1.22 0.54 0.14 0.10 0.02 0.03 0.10 0.04 0.03 0.02 0.01 0.00 0.00 0.00 0.00 0.00 0.01 0.01 0.00 0.01 0.03 0.10 0.00 0.00 0.00 0.00 0.02 0.07 0.06 0.04 0.05 0.07 0.05 0.07 0.04 0.01 0.00 0.02 0.01 0.01 0.11 0.14 0.08 0.10 0.25 0.09 0.00
0.55 1.08 0.31 0.39 0.08 0.05 0.07 0.11 0.05 0.05 0.10 0.01 0.00 0.00 0.00 0.00 0.00 0.00 0.00 0.00 0.01 0.02 0.03 0.00 0.00 0.01 0.00 0.00 0.01 0.04 0.02 0.00 0.01 0.01 0.01 0.01 0.00 0.01 0.06 0.09 0.03 0.02 0.11 0.32 0.13 0.04 0.07 0.06 0.08
0.47 0.61 0.39 0.29 0.25 0.09 0.07 0.03 0.05 0.09 0.18 0.02 0.00 0.00 0.00 0.00 0.00 0.00 0.00 0.00 0.00 0.02 0.01 0.00 0.01 0.08 0.02 0.00 0.00 0.00 0.00 0.00 0.00 0.00 0.00 0.01 0.00 0.01 0.02 0.12 0.20 0.08 0.10 0.34 0.17 0.06 0.03 0.03 0.01
0.23 0.28 0.38 0.36 0.35 0.17 0.10 0.11 0.08 0.28 0.83 0.02 0.01 0.00 0.00 0.00 0.00 0.00 0.00 0.00 0.00 0.01 0.00 0.00 0.00 0.01 0.00 0.00 0.00 0.00 0.00 0.00 0.00 0.00 0.00 0.00 0.03 0.06 0.07 0.16 0.11 0.15 0.15 0.16 0.13 0.17 0.03 0.05 0.00
0.15 0.22 0.30 0.25 0.38 0.21 0.10 0.25 0.19 0.18 0.34 0.04 0.01 0.00 0.00 0.00 0.00 0.00 0.00 0.00 0.00 0.01 0.00 0.00 0.00 0.00 0.00 0.00 0.00 0.00 0.00 0.00 0.00 0.00 0.00 0.00 0.02 0.05 0.14 0.09 0.11 0.22 0.06 0.06 0.12 0.21 0.01 0.00 0.00
0.05 0.17 0.26 0.14 0.21 0.08 0.15 0.53 0.29 0.04 0.07 0.02 0.01 0.00 0.00 0.00 0.00 0.00 0.00 0.00 0.00 0.00 0.00 0.00 0.00 0.00 0.00 0.00 0.00 0.00 0.00 0.00 0.00 0.01 0.02 0.03 0.02 0.03 0.15 0.12 0.24 0.11 0.11 0.12 0.15 0.07 0.00 0.00 0.00
0.01 0.16 0.30 0.13 0.11 0.07 0.18 1.36 0.56 0.10 0.04 0.03 0.00 0.00 0.00 0.00 0.00 0.00 0.00 0.00 0.00 0.00 0.00 0.00 0.00 0.00 0.00 0.00 0.01 0.01 0.11 0.06 0.00 0.00 0.00 0.01 0.04 0.05 0.06 0.04 0.03 0.05 0.14 0.06 0.11 0.03 0.00 0.00 0.00
0.00 0.09 0.18 0.27 0.11 0.13 0.24 1.35 1.08 0.23 0.11 0.02 0.01 0.00 0.00 0.00 0.00 0.00 0.00 0.00 0.00 0.00 0.00 0.00 0.00 0.00 0.00 0.00 0.00 0.01 0.02 0.02 0.00 0.00 0.04 0.04 0.04 0.03 0.04 0.02 0.02 0.08 0.09 0.02 0.01 0.01 0.01 0.00 0.00
0.00 0.02 0.12 0.20 0.34 0.51 0.45 0.09 0.10 0.08 0.15 0.04 0.01 0.00 0.00 0.00 0.00 0.00 0.00 0.00 0.00 0.00 0.00 0.00 0.00 0.00 0.00 0.00 0.01 0.02 0.02 0.03 0.00 0.01 0.02 0.02 0.05 0.05 0.05 0.03 0.03 0.11 0.01 0.00 0.04 0.00 0.01 0.00 0.00
0.00 0.00 0.03 0.13 0.51 0.69 0.48 0.23 0.25 0.12 0.27 0.21 0.01 0.00 0.00 0.00 0.00 0.00 0.00 0.00 0.00 0.00 0.00 0.00 0.00 0.00 0.00 0.00 0.01 0.00 0.02 0.02 0.00 0.01 0.02 0.05 0.07 0.07 0.03 0.03 0.04 0.03 0.01 0.01 0.01 0.01 0.00 0.00 0.00
0.00 0.00 0.04 0.12 0.43 1.10 2.00 0.96 0.70 0.41 0.26 0.27 0.04 0.01 0.00 0.00 0.00 0.00 0.00 0.00 0.00 0.00 0.00 0.00 0.00 0.00 0.00 0.00 0.00 0.01 0.01 0.01 0.01 0.02 0.02 0.02 0.04 0.04 0.03 0.04 0.03 0.03 0.06 0.03 0.02 0.02 0.00 0.00 0.00
0.00 0.00 0.01 0.05 0.16 0.65 1.33 1.58 0.86 0.42 0.50 0.36 0.15 0.05 0.00 0.00 0.00 0.00 0.00 0.00 0.00 0.00 0.00 0.00 0.00 0.00 0.00 0.00 0.00 0.02 0.01 0.01 0.08 0.10 0.03 0.02 0.00 0.01 0.07 0.02 0.03 0.04 0.02 0.02 0.03 0.03 0.00 0.00 0.00
0.00 0.00 0.00 0.00 0.01 0.04 0.12 0.30 0.23 0.32 0.41 0.75 0.26 0.13 0.03 0.00 0.00 0.00 0.00 0.00 0.00 0.00 0.00 0.00 0.00 0.00 0.00 0.01 0.00 0.01 0.02 0.02 0.04 0.08 0.08 0.12 0.04 0.01 0.01 0.01 0.06 0.06 0.04 0.07 0.02 0.02 0.00 0.00 0.00
0.01 0.00 0.00 0.00 0.02 0.02 0.01 0.07 0.17 0.42 0.40 0.31 0.32 0.66 0.17 0.02 0.00 0.00 0.00 0.00 0.00 0.00 0.00 0.00 0.00 0.00 0.00 0.00 0.04 0.02 0.07 0.08 0.06 0.09 0.10 0.17 0.14 0.06 0.02 0.04 0.08 0.06 0.07 0.04 0.01 0.02 0.00 0.01 0.01
0.00 0.00 0.00 0.01 0.04 0.04 0.00 0.02 0.18 0.48 0.44 0.48 0.12 0.64 1.04 0.48 0.10 0.05 0.01 0.00 0.00 0.00 0.00 0.00 0.00 0.00 0.00 0.00 0.03 0.04 0.04 0.09 0.08 0.09 0.15 0.15 0.16 0.08 0.04 0.04 0.04 0.04 0.07 0.07 0.02 0.03 0.01 0.00 0.01
0.00 0.00 0.00 0.01 0.01 0.00 0.00 0.00 0.07 0.47 0.49 0.39 0.34 0.46 0.89 1.05 0.39 0.15 0.09 0.03 0.01 0.00 0.00 0.00 0.00 0.00 0.00 0.00 0.01 0.01 0.03 0.05 0.11 0.07 0.06 0.08 0.21 0.04 0.04 0.04 0.02 0.02 0.03 0.03 0.03 0.02 0.01 0.01 0.01
0.00 0.00 0.00 0.00 0.00 0.00 0.00 0.01 0.01 0.02 0.05 0.06 0.17 0.13 0.19 0.24 0.60 0.22 0.16 0.11 0.05 0.00 0.00 0.00 0.00 0.00 0.00 0.00 0.00 0.01 0.03 0.02 0.05 0.02 0.03 0.01 0.06 0.07 0.19 0.09 0.05 0.03 0.02 0.01 0.02 0.01 0.01 0.01 0.00
0.00 0.00 0.00 0.00 0.00 0.00 0.04 0.02 0.03 0.01 0.04 0.04 0.03 0.09 0.12 0.11 0.10 0.13 0.23 0.18 0.12 0.04 0.00 0.00 0.00 0.00 0.00 0.00 0.00 0.00 0.00 0.01 0.01 0.01 0.06 0.01 0.03 0.10 0.20 0.20 0.09 0.07 0.03 0.03 0.06 0.02 0.04 0.02 0.01
0.00 0.00 0.00 0.00 0.00 0.00 0.11 0.14 0.12 0.07 0.07 0.04 0.02 0.02 0.05 0.12 0.32 0.27 0.30 0.35 0.30 0.15 0.05 0.01 0.02 0.01 0.02 0.01 0.01 0.01 0.03 0.01 0.01 0.02 0.02 0.01 0.03 0.06 0.21 0.30 0.06 0.03 0.02 0.02 0.01 0.04 0.03 0.03 0.01
0.00 0.00 0.00 0.00 0.00 0.00 0.10 0.30 0.19 0.15 0.04 0.05 0.05 0.03 0.05 0.10 0.31 1.07 1.14 1.01 0.76 0.52 0.20 0.27 0.28 0.20 0.09 0.01 0.01 0.01 0.01 0.02 0.02 0.01 0.02 0.00 0.01 0.05 0.08 0.29 0.04 0.03 0.01 0.02 0.03 0.03 0.03 0.07 0.02
0.00 0.00 0.00 0.00 0.00 0.00 0.02 0.23 0.23 0.25 0.13 0.11 0.11 0.03 0.05 0.09 0.15 0.40 0.96 1.77 1.92 1.60 1.35 0.67 0.74 0.51 0.29 0.16 0.09 0.05 0.05 0.05 0.01 0.03 0.00 0.00 0.01 0.03 0.06 0.05 0.10 0.05 0.03 0.04 0.07 0.01 0.02 0.05 0.03

GFSSGP_prec_precacc12_096.txt.gz
Total_Precipitation_Accumulation
0.00 0.00 0.00 0.00 0.12 0.24 0.11 0.41 0.39 0.05 0.01 0.00 0.01 0.00 0.01 0.01 0.01 0.02 0.00 0.00 0.00 0.00 0.06 0.19 0.12 0.05 0.01 0.00 0.00 0.00 0.01 0.03 0.01 0.02 0.01 0.01 0.03 0.04 0.04 0.07 0.14 0.15 0.05 0.02 0.01 0.01 0.01 0.01 0.01
0.00 0.00 0.00 0.02 0.27 0.65 0.11 0.11 0.24 0.06 0.00 0.00 0.00 0.00 0.01 0.01 0.00 0.00 0.00 0.01 0.00 0.00 0.00 0.00 0.01 0.01 0.00 0.01 0.00 0.01 0.01 0.03 0.03 0.02 0.03 0.02 0.03 0.05 0.09 0.13 0.15 0.07 0.04 0.05 0.03 0.02 0.02 0.02 0.01
0.00 0.00 0.01 0.19 0.99 0.93 0.40 0.19 0.20 0.01 0.00 0.00 0.01 0.01 0.00 0.00 0.00 0.00 0.00 0.01 0.00 0.00 0.00 0.00 0.00 0.01 0.01 0.03 0.03 0.01 0.01 0.03 0.01 0.05 0.05 0.04 0.03 0.05 0.10 0.08 0.09 0.05 0.06 0.04 0.04 0.04 0.03 0.05 0.01
0.00 0.00 0.10 0.78 1.46 0.24 0.23 0.08 0.05 0.03 0.00 0.00 0.00 0.00 0.00 0.00 0.00 0.00 0.00 0.00 0.00 0.00 0.00 0.00 0.01 0.04 0.08 0.03 0.04 0.06 0.02 0.02 0.01 0.02 0.04 0.09 0.05 0.04 0.03 0.05 0.07 0.01 0.01 0.01 0.01 0.02 0.04 0.05 0.01
0.00 0.32 1.45 0.91 0.34 0.28 0.47 0.13 0.01 0.00 0.00 0.00 0.00 0.00 0.00 0.00 0.00 0.00 0.00 0.00 0.00 0.00 0.00 0.01 0.07 0.08 0.11 0.11 0.11 0.07 0.05 0.03 0.04 0.07 0.09 0.08 0.04 0.01 0.05 0.04 0.03 0.00 0.00 0.00 0.02 0.05 0.04 0.05 0.05
0.07 0.90 1.37 0.20 0.16 0.67 0.65 0.11 0.00 0.00 0.00 0.00 0.00 0.00 0.00 0.00 0.00 0.00 0.00 0.00 0.00 0.00 0.00 0.02 0.07 0.08 0.09 0.11 0.09 0.06 0.12 0.07 0.09 0.05 0.02 0.03 0.03 0.06 0.03 0.01 0.01 0.00 0.00 0.00 0.02 0.05 0.05 0.06 0.04
0.11 1.63 0.78 0.07 0.19 0.60 0.38 0.05 0.01 0.00 0.00 0.00 0.00 0.00 0.01 0.00 0.00 0.00 0.00 0.01 0.00 0.00 0.00 0.00 0.01 0.05 0.06 0.12 0.06 0.01 0.01 0.03 0.08 0.04 0.05 0.04 0.04 0.11 0.05 0.01 0.00 0.00 0.00 0.02 0.04 0.03 0.07 0.15 0.08
0.08 0.69 1.21 0.15 0.84 0.84 0.32 0.07 0.02 0.01 0.00 0.00 0.00 0.00 0.01 0.00 0.00 0.04 0.05 0.01 0.00 0.00 0.00 0.02 0.00 0.01 0.01 0.04 0.07 0.04 0.03 0.04 0.10 0.10 0.09 0.10 0.18 0.09 0.02 0.01 0.01 0.00 0.00 0.01 0.03 0.04 0.05 0.05 0.04
0.18 0.52 0.74 0.61 0.86 0.62 0.18 0.03 0.05 0.00 0.01 0.04 0.01 0.00 0.00 0.00 0.00 0.01 0.02 0.03 0.01 0.03 0.08 0.03 0.00 0.00 0.01 0.00 0.03 0.03 0.01 0.09 0.18 0.13 0.12 0.12 0.19 0.08 0.01 0.01 0.02 0.00 0.00 0.01 0.02 0.00 0.00 0.01 0.01
0.50 0.45 1.07 0.59 0.37 0.11 0.02 0.03 0.09 0.04 0.03 0.01 0.00 0.00 0.00 0.00 0.00 0.00 0.01 0.01 0.00 0.01 0.03 0.02 0.00 0.00 0.00 0.00 0.02 0.09 0.00 0.00 0.04 0.05 0.01 0.02 0.03 0.03 0.04 0.06 0.02 0.01 0.12 0.16 0.06 0.04 0.06 0.01 0.00
0.51 1.02 0.31 0.48 0.16 0.06 0.07 0.11 0.05 0.05 0.03 0.00 0.00 0.00 0.00 0.00 0.00 0.00 0.00 0.00 0.01 0.02 0.03 0.00 0.00 0.00 0.00 0.00 0.01 0.02 0.00 0.00 0.00 0.00 0.00 0.00 0.00 0.04 0.12 0.16 0.05 0.02 0.09 0.30 0.10 0.03 0.07 0.05 0.08
0.35 0.65 0.47 0.33 0.26 0.13 0.08 0.03 0.05 0.05 0.05 0.00 0.00 0.00 0.00 0.00 0.00 0.00 0.00 0.00 0.00 0.02 0.01 0.00 0.00 0.00 0.00 0.00 0.00 0.00 0.00 0.00 0.00 0.00 0.00 0.00 0.00 0.01 0.02 0.10 0.14 0.03 0.05 0.08 0.09 0.07 0.04 0.03 0.01
0.20 0.35 0.59 0.56 0.42 0.30 0.16 0.14 0.08 0.21 0.50 0.00 0.00 0.00 0.00 0.00 0.00 0.00 0.00 0.00 0.00 0.01 0.00 0.00 0.00 0.00 0.00 0.00 0.00 0.00 0.00 0.00 0.00 0.00 0.00 0.00 0.03 0.05 0.06 0.11 0.05 0.09 0.14 0.10 0.07 0.07 0.03 0.05 0.00
0.15 0.32 0.45 0.51 0.58 0.37 0.21 0.29 0.20 0.17 0.20 0.02 0.00 0.00 0.00 0.00 0.00 0.00 0.00 0.00 0.00 0.01 0.00 0.00 0.00 0.00 0.00 0.00 0.00 0.00 0.00 0.00 0.00 0.00 0.00 0.00 0.02 0.04 0.04 0.01 0.02 0.19 0.06 0.06 0.08 0.08 0.01 0.00 0.00
0.08 0.30 0.41 0.24 0.44 0.25 0.26 0.53 0.40 0.20 0.06 0.01 0.00 0.00 0.00 0.00 0.00 0.00 0.00 0.00 0.00 0.00 0.00 0.00 0.00 0.00 0.00 0.00 0.00 0.00 0.00 0.00 0.00 0.03 0.04 0.03 0.02 0.01 0.04 0.03 0.08 0.11 0.11 0.11 0.11 0.05 0.00 0.00 0.00
0.03 0.26 0.37 0.15 0.23 0.29 0.45 1.24 0.73 0.30 0.05 0.03 0.00 0.00 0.00 0.00 0.00 0.00 0.00 0.00 0.00 0.00 0.00 0.00 0.00 0.00 0.00 0.00 0.00 0.00 0.01 0.01 0.00 0.02 0.03 0.01 0.04 0.05 0.05 0.02 0.05 0.05 0.08 0.04 0.05 0.02 0.00 0.00 0.00
0.00 0.16 0.31 0.47 0.15 0.19 0.33 1.22 0.78 0.24 0.12 0.02 0.01 0.00 0.00 0.00 0.00 0.00 0.00 0.00 0.00 0.00 0.00 0.00 0.00 0.00 0.00 0.00 0.00 0.00 0.01 0.01 0.00 0.00 0.04 0.04 0.04 0.03 0.03 0.00 0.02 0.07 0.02 0.02 0.00 0.01 0.01 0.00 0.00
0.00 0.04 0.18 0.33 0.49 0.60 0.46 0.06 0.07 0.08 0.16 0.06 0.01 0.00 0.00 0.00 0.00 0.00 0.00 0.00 0.00 0.00 0.00 0.00 0.00 0.00 0.00 0.00 0.01 0.02 0.01 0.02 0.00 0.01 0.02 0.01 0.04 0.06 0.05 0.03 0.03 0.09 0.01 0.00 0.03 0.00 0.00 0.00 0.00
0.00 0.01 0.04 0.20 0.72 0.83 0.56 0.21 0.27 0.13 0.25 0.22 0.01 0.00 0.00 0.00 0.00 0.00 0.00 0.00 0.00 0.00 0.00 0.00 0.00 0.00 0.00 0.00 0.01 0.01 0.02 0.02 0.00 0.02 0.03 0.05 0.09 0.07 0.03 0.04 0.05 0.02 0.02 0.02 0.01 0.00 0.00 0.00 0.00
0.00 0.00 0.06 0.14 0.47 1.10 2.09 0.94 0.46 0.44 0.27 0.27 0.04 0.01 0.00 0.00 0.00 0.00 0.00 0.00 0.00 0.00 0.00 0.00 0.00 0.00 0.00 0.00 0.00 0.01 0.01 0.01 0.01 0.04 0.03 0.04 0.05 0.06 0.06 0.08 0.03 0.01 0.01 0.05 0.02 0.00 0.00 0.00 0.00
0.00 0.01 0.04 0.07 0.18 0.40 1.37 1.58 0.42 0.39 0.52 0.33 0.08 0.03 0.00 0.00 0.00 0.00 0.00 0.00 0.00 0.00 0.00 0.00 0.00 0.00 0.00 0.00 0.00 0.02 0.01 0.01 0.09 0.10 0.05 0.04 0.03 0.03 0.09 0.06 0.02 0.03 0.01 0.01 0.02 0.03 0.00 0.00 0.00
0.00 0.01 0.00 0.00 0.01 0.03 0.11 0.25 0.16 0.29 0.40 0.38 0.11 0.07 0.01 0.00 0.00 0.00 0.00 0.00 0.00 0.00 0.00 0.00 0.00 0.00 0.00 0.00 0.00 0.00 0.02 0.02 0.04 0.10 0.11 0.12 0.05 0.02 0.03 0.03 0.06 0.03 0.00 0.00 0.01 0.02 0.00 0.00 0.00
0.01 0.01 0.00 0.00 0.02 0.02 0.01 0.06 0.10 0.28 0.31 0.32 0.39 0.05 0.07 0.01 0.00 0.00 0.00 0.00 0.00 0.00 0.00 0.00 0.00 0.00 0.00 0.00 0.01 0.00 0.06 0.02 0.04 0.07 0.10 0.11 0.13 0.11 0.04 0.08 0.09 0.05 0.01 0.00 0.00 0.02 0.00 0.01 0.01
0.00 0.00 0.00 0.01 0.04 0.04 0.00 0.02 0.12 0.12 0.22 0.40 0.22 0.14 0.07 0.04 0.08 0.04 0.02 0.01 0.00 0.00 0.00 0.00 0.00 0.00 0.00 0.00 0.01 0.02 0.01 0.04 0.02 0.04 0.11 0.12 0.11 0.08 0.04 0.04 0.05 0.04 0.02 0.00 0.01 0.03 0.01 0.00 0.00
0.00 0.00 0.00 0.02 0.02 0.00 0.00 0.00 0.05 0.07 0.03 0.28 0.33 0.21 0.24 0.31 0.19 0.15 0.09 0.06 0.03 0.00 0.00 0.00 0.00 0.00 0.00 0.00 0.01 0.01 0.02 0.02 0.10 0.03 0.03 0.03 0.07 0.03 0.02 0.04 0.05 0.02 0.01 0.00 0.00 0.01 0.01 0.01 0.01
0.00 0.00 0.00 0.00 0.00 0.00 0.00 0.01 0.00 0.01 0.00 0.03 0.17 0.13 0.15 0.18 0.30 0.18 0.20 0.15 0.12 0.05 0.00 0.00 0.00 0.00 0.00 0.00 0.00 0.01 0.02 0.02 0.12 0.04 0.03 0.01 0.03 0.01 0.05 0.05 0.05 0.04 0.03 0.02 0.01 0.00 0.00 0.00 0.00
0.00 0.00 0.00 0.00 0.00 0.00 0.04 0.02 0.03 0.01 0.03 0.03 0.03 0.06 0.09 0.09 0.08 0.11 0.23 0.25 0.15 0.04 0.00 0.00 0.00 0.00 0.00 0.00 0.00 0.00 0.00 0.01 0.01 0.01 0.06 0.01 0.03 0.03 0.02 0.08 0.10 0.12 0.05 0.01 0.01 0.01 0.01 0.00 0.00
0.00 0.00 0.00 0.00 0.00 0.00 0.11 0.14 0.12 0.07 0.07 0.04 0.02 0.01 0.03 0.08 0.07 0.07 0.17 0.25 0.29 0.15 0.05 0.01 0.02 0.01 0.02 0.01 0.01 0.01 0.03 0.01 0.01 0.02 0.02 0.05 0.08 0.07 0.04 0.09 0.05 0.04 0.02 0.01 0.00 0.03 0.01 0.01 0.00
0.00 0.00 0.00 0.00 0.00 0.00 0.10 0.24 0.19 0.15 0.04 0.05 0.08 0.08 0.11 0.08 0.18 0.32 0.23 0.49 0.72 0.54 0.19 0.28 0.31 0.24 0.09 0.01 0.01 0.01 0.01 0.02 0.02 0.02 0.02 0.03 0.05 0.11 0.11 0.06 0.09 0.05 0.02 0.00 0.01 0.02 0.01 0.01 0.00
0.00 0.00 0.00 0.00 0.00 0.00 0.01 0.14 0.23 0.25 0.14 0.12 0.15 0.08 0.11 0.16 0.15 0.25 0.32 0.42 1.45 1.63 1.34 0.70 0.84 0.76 0.41 0.20 0.10 0.05 0.05 0.05 0.02 0.06 0.01 0.00 0.03 0.07 0.13 0.07 0.11 0.06 0.02 0.00 0.00 0.02 0.03 0.07 0.02

GFSSGP_prec_precacc12_099.txt.gz
Total_Precipitation_Accumulation
0.00 0.00 0.00 0.00 0.09 0.16 0.07 0.16 0.17 0.05 0.00 0.00 0.01 0.00 0.01 0.00 0.00 0.00 0.00 0.00 0.00 0.00 0.06 0.20 0.23 0.17 0.07 0.01 0.02 0.03 0.03 0.07 0.02 0.02 0.01 0.01 0.04 0.06 0.08 0.10 0.13 0.12 0.03 0.01 0.01 0.01 0.01 0.01 0.03
0.00 0.00 0.00 0.01 0.22 0.35 0.06 0.04 0.10 0.04 0.00 0.00 0.00 0.00 0.01 0.00 0.00 0.00 0.00 0.00 0.00 0.00 0.00 0.02 0.13 0.04 0.00 0.00 0.01 0.07 0.03 0.04 0.04 0.03 0.03 0.03 0.05 0.11 0.16 0.17 0.13 0.04 0.04 0.05 0.04 0.03 0.04 0.04 0.01
0.00 0.00 0.00 0.16 0.77 0.68 0.16 0.07 0.10 0.01 0.00 0.00 0.01 0.01 0.00 0.00 0.00 0.00 0.00 0.00 0.00 0.00 0.00 0.00 0.00 0.00 0.01 0.03 0.03 0.02 0.05 0.04 0.04 0.10 0.07 0.06 0.09 0.14 0.13 0.09 0.10 0.05 0.05 0.06 0.08 0.06 0.07 0.15 0.01
0.00 0.00 0.06 0.29 0.86 0.15 0.12 0.04 0.05 0.03 0.00 0.00 0.00 0.01 0.00 0.00 0.00 0.00 0.00 0.00 0.00 0.00 0.00 0.00 0.00 0.04 0.13 0.12 0.06 0.06 0.04 0.07 0.06 0.06 0.08 0.15 0.16 0.14 0.08 0.08 0.12 0.04 0.03 0.02 0.05 0.02 0.05 0.05 0.01
0.00 0.19 0.55 0.60 0.31 0.11 0.14 0.10 0.01 0.00 0.00 0.00 0.00 0.00 0.01 0.00 0.00 0.00 0.00 0.00 0.00 0.00 0.00 0.01 0.09 0.12 0.11 0.18 0.25 0.08 0.06 0.08 0.05 0.10 0.16 0.15 0.10 0.13 0.19 0.15 0.03 0.02 0.01 0.01 0.05 0.05 0.05 0.08 0.06
0.08 0.75 0.94 0.31 0.12 0.22 0.29 0.09 0.00 0.00 0.00 0.00 0.00 0.00 0.01 0.01 0.00 0.00 0.00 0.00 0.00 0.00 0.00 0.02 0.08 0.07 0.08 0.14 0.22 0.12 0.16 0.12 0.13 0.09 0.11 0.16 0.16 0.14 0.07 0.07 0.01 0.01 0.00 0.00 0.02 0.05 0.05 0.06 0.04
0.12 1.57 0.83 0.08 0.18 0.45 0.27 0.01 0.00 0.00 0.00 0.00 0.00 0.00 0.02 0.01 0.00 0.00 0.00 0.00 0.00 0.00 0.00 0.00 0.03 0.05 0.06 0.14 0.17 0.11 0.07 0.05 0.11 0.06 0.12 0.16 0.15 0.17 0.13 0.08 0.01 0.00 0.00 0.02 0.06 0.04 0.07 0.15 0.08
0.08 0.55 0.86 0.11 0.76 0.63 0.23 0.04 0.00 0.00 0.00 0.00 0.00 0.00 0.01 0.00 0.00 0.03 0.00 0.00 0.00 0.00 0.00 0.02 0.00 0.01 0.03 0.07 0.12 0.06 0.03 0.04 0.10 0.16 0.13 0.22 0.32 0.13 0.05 0.03 0.00 0.00 0.00 0.01 0.03 0.04 0.05 0.06 0.04
0.18 0.41 0.44 0.21 0.89 0.59 0.17 0.01 0.00 0.00 0.00 0.00 0.00 0.00 0.00 0.00 0.00 0.00 0.01 0.00 0.01 0.01 0.08 0.02 0.00 0.00 0.02 0.02 0.05 0.04 0.01 0.03 0.10 0.11 0.16 0.15 0.24 0.09 0.01 0.00 0.01 0.00 0.00 0.00 0.00 0.00 0.00 0.03 0.02
0.20 0.32 0.64 0.29 0.41 0.11 0.02 0.02 0.06 0.03 0.01 0.00 0.00 0.00 0.00 0.00 0.00 0.00 0.01 0.00 0.00 0.00 0.02 0.01 0.00 0.00 0.00 0.00 0.03 0.09 0.00 0.00 0.00 0.01 0.01 0.01 0.02 0.03 0.05 0.09 0.04 0.01 0.02 0.05 0.03 0.02 0.03 0.01 0.00
0.17 0.93 0.22 0.45 0.16 0.08 0.07 0.10 0.04 0.05 0.01 0.00 0.00 0.00 0.00 0.00 0.00 0.00 0.00 0.00 0.00 0.02 0.03 0.00 0.00 0.00 0.00 0.01 0.01 0.01 0.00 0.00 0.00 0.00 0.00 0.00 0.00 0.04 0.12 0.16 0.05 0.01 0.00 0.01 0.00 0.01 0.04 0.02 0.07
0.18 0.62 0.41 0.38 0.27 0.14 0.08 0.03 0.04 0.03 0.00 0.00 0.00 0.00 0.00 0.00 0.00 0.00 0.00 0.00 0.00 0.00 0.01 0.00 0.00 0.00 0.00 0.01 0.00 0.00 0.00 0.00 0.00 0.00 0.00 0.00 0.00 0.00 0.01 0.00 0.00 0.00 0.00 0.02 0.02 0.04 0.03 0.01 0.00
0.08 0.41 0.66 0.57 0.41 0.34 0.18 0.15 0.08 0.13 0.01 0.00 0.00 0.00 0.00 0.00 0.00 0.00 0.00 0.00 0.00 0.00 0.00 0.00 0.00 0.00 0.01 0.00 0.00 0.00 0.00 0.00 0.00 0.00 0.00 0.00 0.00 0.00 0.00 0.00 0.00 0.00 0.01 0.01 0.02 0.02 0.00 0.00 0.00
0.13 0.44 0.59 0.64 0.55 0.45 0.28 0.20 0.19 0.14 0.00 0.00 0.00 0.00 0.00 0.00 0.00 0.00 0.00 0.00 0.00 0.01 0.00 0.00 0.00 0.00 0.00 0.00 0.00 0.00 0.00 0.00 0.00 0.00 0.00 0.00 0.01 0.01 0.00 0.00 0.00 0.01 0.00 0.00 0.01 0.00 0.00 0.00 0.00
0.11 0.41 0.53 0.30 0.49 0.32 0.41 0.37 0.36 0.20 0.00 0.00 0.00 0.00 0.00 0.00 0.00 0.00 0.00 0.00 0.00 0.00 0.00 0.00 0.00 0.00 0.00 0.00 0.00 0.00 0.00 0.00 0.00 0.03 0.02 0.01 0.00 0.00 0.04 0.01 0.02 0.00 0.03 0.00 0.01 0.00 0.00 0.00 0.00
0.09 0.26 0.42 0.23 0.56 0.51 0.86 1.25 0.70 0.35 0.02 0.01 0.00 0.00 0.00 0.00 0.00 0.00 0.00 0.00 0.00 0.00 0.00 0.00 0.00 0.00 0.00 0.00 0.00 0.00 0.00 0.00 0.00 0.02 0.04 0.00 0.03 0.01 0.00 0.00 0.02 0.00 0.01 0.00 0.00 0.00 0.00 0.00 0.00
0.04 0.29 0.38 0.59 0.48 0.94 1.54 1.46 0.93 0.27 0.08 0.04 0.01 0.00 0.00 0.00 0.00 0.00 0.00 0.00 0.00 0.00 0.00 0.00 0.00 0.00 0.00 0.00 0.00 0.00 0.00 0.00 0.00 0.00 0.04 0.04 0.04 0.01 0.00 0.00 0.01 0.04 0.01 0.01 0.00 0.00 0.00 0.00 0.00
0.02 0.12 0.22 0.47 0.65 0.79 0.72 0.22 0.28 0.11 0.12 0.08 0.02 0.00 0.00 0.00 0.00 0.00 0.00 0.00 0.00 0.00 0.00 0.00 0.00 0.00 0.00 0.00 0.00 0.01 0.00 0.00 0.00 0.01 0.02 0.00 0.04 0.05 0.02 0.02 0.03 0.06 0.01 0.00 0.02 0.00 0.00 0.00 0.00
0.00 0.03 0.13 0.26 0.73 0.85 0.52 0.21 0.33 0.14 0.26 0.25 0.05 0.01 0.00 0.00 0.00 0.00 0.00 0.00 0.00 0.00 0.00 0.00 0.00 0.00 0.00 0.00 0.01 0.00 0.02 0.00 0.00 0.02 0.03 0.04 0.06 0.06 0.06 0.04 0.04 0.02 0.02 0.01 0.01 0.00 0.00 0.00 0.00
0.00 0.00 0.10 0.16 0.50 0.75 1.26 0.71 0.35 0.43 0.29 0.28 0.05 0.01 0.01 0.00 0.00 0.00 0.00 0.00 0.00 0.00 0.00 0.00 0.00 0.00 0.00 0.00 0.00 0.00 0.01 0.01 0.01 0.04 0.02 0.03 0.04 0.07 0.05 0.08 0.03 0.00 0.01 0.05 0.02 0.00 0.00 0.00 0.00
0.00 0.01 0.10 0.14 0.25 0.37 0.78 1.13 0.43 0.35 0.55 0.37 0.10 0.03 0.00 0.00 0.00 0.00 0.00 0.00 0.00 0.00 0.00 0.00 0.00 0.00 0.00 0.00 0.00 0.01 0.00 0.01 0.08 0.10 0.09 0.10 0.04 0.02 0.06 0.07 0.01 0.02 0.01 0.01 0.02 0.03 0.00 0.00 0.00
0.00 0.01 0.00 0.00 0.01 0.03 0.10 0.18 0.15 0.25 0.40 0.39 0.12 0.04 0.00 0.00 0.00 0.00 0.00 0.00 0.00 0.00 0.00 0.00 0.00 0.00 0.00 0.00 0.00 0.03 0.03 0.04 0.05 0.11 0.18 0.18 0.06 0.02 0.08 0.06 0.06 0.03 0.00 0.00 0.01 0.02 0.00 0.00 0.00
0.01 0.01 0.00 0.00 0.02 0.02 0.00 0.03 0.01 0.09 0.25 0.31 0.39 0.04 0.02 0.01 0.00 0.00 0.00 0.00 0.00 0.00 0.00 0.00 0.00 0.00 0.00 0.00 0.00 0.02 0.06 0.02 0.02 0.03 0.08 0.15 0.15 0.14 0.09 0.12 0.07 0.03 0.00 0.00 0.00 0.02 0.01 0.01 0.00
0.00 0.00 0.00 0.01 0.04 0.04 0.00 0.01 0.03 0.00 0.04 0.09 0.20 0.11 0.02 0.01 0.01 0.01 0.01 0.01 0.00 0.00 0.00 0.00 0.00 0.00 0.00 0.00 0.01 0.02 0.01 0.03 0.03 0.03 0.07 0.12 0.09 0.07 0.04 0.05 0.04 0.03 0.01 0.00 0.00 0.02 0.01 0.00 0.00
0.00 0.00 0.00 0.02 0.02 0.00 0.00 0.00 0.02 0.01 0.00 0.00 0.00 0.02 0.00 0.00 0.01 0.05 0.02 0.05 0.03 0.00 0.00 0.00 0.00 0.00 0.00 0.00 0.01 0.00 0.02 0.01 0.08 0.05 0.02 0.02 0.08 0.05 0.01 0.06 0.08 0.03 0.01 0.00 0.00 0.01 0.01 0.01 0.01
0.00 0.00 0.00 0.00 0.00 0.00 0.00 0.00 0.00 0.01 0.00 0.00 0.01 0.02 0.05 0.02 0.02 0.07 0.16 0.13 0.09 0.05 0.00 0.00 0.00 0.00 0.00 0.00 0.01 0.00 0.03 0.01 0.10 0.03 0.01 0.00 0.04 0.02 0.03 0.02 0.06 0.04 0.03 0.01 0.01 0.00 0.00 0.00 0.00
0.00 0.00 0.00 0.00 0.00 0.00 0.04 0.01 0.01 0.01 0.00 0.00 0.00 0.00 0.00 0.00 0.01 0.02 0.16 0.20 0.07 0.02 0.00 0.00 0.00 0.00 0.00 0.00 0.00 0.01 0.01 0.00 0.01 0.01 0.04 0.00 0.02 0.03 0.01 0.03 0.12 0.18 0.08 0.02 0.01 0.00 0.00 0.00 0.00
0.00 0.00 0.00 0.00 0.00 0.00 0.06 0.09 0.06 0.03 0.02 0.00 0.00 0.00 0.00 0.00 0.01 0.01 0.06 0.10 0.13 0.07 0.05 0.01 0.02 0.01 0.01 0.00 0.00 0.00 0.00 0.01 0.00 0.01 0.01 0.05 0.07 0.08 0.04 0.10 0.06 0.05 0.02 0.07 0.04 0.01 0.00 0.01 0.00
0.00 0.00 0.00 0.00 0.00 0.00 0.03 0.04 0.09 0.10 0.04 0.04 0.07 0.07 0.10 0.05 0.04 0.01 0.03 0.09 0.16 0.29 0.12 0.16 0.27 0.24 0.09 0.01 0.00 0.03 0.02 0.01 0.01 0.03 0.04 0.03 0.10 0.16 0.11 0.10 0.10 0.05 0.01 0.04 0.03 0.05 0.01 0.03 0.02
0.00 0.00 0.00 0.00 0.00 0.00 0.00 0.04 0.10 0.15 0.12 0.12 0.14 0.08 0.10 0.15 0.13 0.11 0.09 0.12 0.22 0.62 1.17 0.45 0.62 0.64 0.35 0.21 0.10 0.06 0.09 0.07 0.03 0.07 0.04 0.00 0.12 0.11 0.13 0.08 0.11 0.07 0.03 0.00 0.00 0.06 0.06 0.12 0.09

GFSSGP_prec_precacc12_102.txt.gz
Total_Precipitation_Accumulation
0.00 0.00 0.00 0.00 0.05 0.01 0.03 0.08 0.02 0.00 0.00 0.00 0.00 0.00 0.00 0.00 0.00 0.00 0.00 0.00 0.00 0.00 0.07 0.19 0.32 0.28 0.11 0.02 0.02 0.03 0.03 0.08 0.02 0.02 0.01 0.01 0.05 0.10 0.09 0.10 0.13 0.12 0.02 0.02 0.01 0.02 0.02 0.02 0.03
0.00 0.00 0.00 0.01 0.08 0.04 0.02 0.01 0.02 0.00 0.00 0.00 0.00 0.00 0.01 0.00 0.00 0.00 0.00 0.00 0.00 0.00 0.01 0.05 0.17 0.09 0.01 0.00 0.01 0.07 0.03 0.04 0.04 0.03 0.03 0.03 0.06 0.12 0.17 0.17 0.13 0.03 0.05 0.10 0.10 0.07 0.05 0.03 0.01
0.00 0.00 0.00 0.10 0.44 0.10 0.02 0.03 0.02 0.00 0.00 0.00 0.01 0.01 0.00 0.00 0.00 0.00 0.00 0.00 0.00 0.01 0.01 0.02 0.00 0.00 0.01 0.03 0.03 0.02 0.06 0.04 0.04 0.10 0.10 0.10 0.12 0.15 0.14 0.10 0.10 0.04 0.07 0.11 0.14 0.11 0.09 0.18 0.02
0.00 0.00 0.06 0.19 0.45 0.06 0.07 0.01 0.01 0.00 0.00 0.00 0.00 0.02 0.00 0.00 0.00 0.00 0.00 0.00 0.00 0.00 0.01 0.00 0.00 0.05 0.16 0.12 0.06 0.07 0.04 0.06 0.06 0.09 0.12 0.18 0.23 0.18 0.10 0.10 0.13 0.06 0.04 0.05 0.06 0.03 0.05 0.04 0.00
0.00 0.09 0.36 0.47 0.28 0.08 0.06 0.02 0.00 0.00 0.00 0.00 0.00 0.03 0.00 0.00 0.00 0.00 0.00 0.00 0.00 0.00 0.00 0.01 0.12 0.15 0.12 0.19 0.26 0.08 0.06 0.08 0.05 0.14 0.24 0.28 0.16 0.18 0.21 0.16 0.04 0.03 0.01 0.01 0.05 0.05 0.05 0.06 0.03
0.08 0.51 0.80 0.29 0.04 0.15 0.20 0.05 0.00 0.00 0.00 0.00 0.00 0.00 0.01 0.01 0.00 0.00 0.00 0.00 0.00 0.00 0.00 0.02 0.11 0.09 0.10 0.17 0.28 0.14 0.22 0.13 0.24 0.24 0.26 0.30 0.28 0.15 0.08 0.09 0.01 0.01 0.00 0.00 0.02 0.05 0.04 0.02 0.01
0.11 0.77 0.65 0.09 0.14 0.39 0.15 0.00 0.00 0.00 0.00 0.00 0.00 0.00 0.02 0.01 0.00 0.00 0.00 0.00 0.00 0.00 0.00 0.01 0.03 0.07 0.08 0.18 0.26 0.20 0.13 0.10 0.24 0.17 0.20 0.27 0.24 0.20 0.14 0.10 0.01 0.00 0.00 0.02 0.06 0.04 0.09 0.14 0.08
0.07 0.26 0.10 0.08 0.65 0.51 0.05 0.00 0.00 0.00 0.00 0.00 0.00 0.00 0.00 0.00 0.00 0.00 0.00 0.00 0.00 0.00 0.01 0.02 0.01 0.03 0.04 0.07 0.15 0.10 0.04 0.05 0.13 0.17 0.16 0.29 0.39 0.13 0.05 0.02 0.00 0.00 0.00 0.01 0.03 0.04 0.06 0.07 0.04
0.18 0.34 0.16 0.15 0.74 0.32 0.04 0.00 0.00 0.00 0.00 0.00 0.00 0.00 0.00 0.00 0.00 0.00 0.00 0.00 0.00 0.01 0.02 0.03 0.01 0.02 0.03 0.02 0.06 0.04 0.02 0.04 0.07 0.13 0.24 0.29 0.28 0.08 0.01 0.00 0.00 0.00 0.00 0.00 0.00 0.00 0.00 0.05 0.03
0.13 0.20 0.18 0.20 0.41 0.10 0.02 0.01 0.00 0.00 0.00 0.00 0.00 0.00 0.00 0.00 0.00 0.00 0.00 0.00 0.00 0.00 0.01 0.01 0.00 0.00 0.00 0.00 0.03 0.09 0.00 0.00 0.01 0.04 0.02 0.01 0.02 0.03 0.06 0.09 0.05 0.01 0.02 0.05 0.03 0.02 0.02 0.01 0.00
0.17 0.51 0.12 0.24 0.13 0.08 0.06 0.05 0.00 0.00 0.00 0.00 0.00 0.00 0.00 0.00 0.00 0.00 0.00 0.00 0.00 0.00 0.00 0.00 0.00 0.00 0.00 0.01 0.01 0.01 0.00 0.00 0.00 0.00 0.00 0.00 0.00 0.04 0.12 0.16 0.05 0.01 0.00 0.00 0.00 0.00 0.01 0.01 0.00
0.08 0.34 0.30 0.27 0.14 0.11 0.08 0.02 0.02 0.01 0.00 0.00 0.00 0.00 0.00 0.00 0.00 0.00 0.00 0.00 0.00 0.00 0.00 0.00 0.00 0.00 0.00 0.01 0.00 0.00 0.00 0.00 0.00 0.00 0.00 0.00 0.00 0.00 0.01 0.00 0.00 0.00 0.00 0.02 0.02 0.02 0.02 0.01 0.00
0.08 0.37 0.58 0.47 0.36 0.31 0.17 0.15 0.07 0.10 0.01 0.00 0.00 0.00 0.00 0.00 0.00 0.00 0.00 0.00 0.00 0.00 0.00 0.00 0.00 0.00 0.02 0.01 0.00 0.00 0.00 0.00 0.00 0.00 0.00 0.00 0.00 0.00 0.00 0.00 0.00 0.00 0.00 0.00 0.00 0.00 0.00 0.00 0.00
0.10 0.48 0.54 0.57 0.53 0.42 0.26 0.19 0.15 0.10 0.00 0.00 0.00 0.00 0.00 0.00 0.00 0.00 0.00 0.00 0.00 0.00 0.00 0.00 0.00 0.00 0.00 0.00 0.00 0.00 0.00 0.00 0.00 0.00 0.00 0.00 0.00 0.00 0.00 0.00 0.00 0.00 0.00 0.00 0.01 0.00 0.00 0.00 0.00
0.18 0.46 0.49 0.28 0.48 0.34 0.42 0.35 0.35 0.21 0.00 0.00 0.00 0.00 0.00 0.00 0.00 0.00 0.00 0.00 0.00 0.00 0.00 0.00 0.00 0.00 0.00 0.00 0.00 0.00 0.00 0.00 0.00 0.03 0.02 0.00 0.00 0.00 0.04 0.01 0.02 0.00 0.00 0.00 0.01 0.00 0.00 0.00 0.00
0.28 0.39 0.48 0.29 0.60 0.57 0.95 0.71 0.57 0.36 0.01 0.00 0.00 0.00 0.00 0.00 0.00 0.00 0.00 0.00 0.00 0.00 0.00 0.00 0.00 0.00 0.00 0.00 0.00 0.00 0.00 0.00 0.00 0.02 0.03 0.00 0.00 0.00 0.00 0.00 0.02 0.00 0.00 0.00 0.00 0.00 0.00 0.00 0.00
0.14 0.46 0.52 0.61 0.67 1.60 1.82 1.41 0.80 0.21 0.04 0.04 0.01 0.00 0.00 0.00 0.00 0.00 0.00 0.00 0.00 0.00 0.00 0.00 0.00 0.00 0.00 0.00 0.00 0.00 0.00 0.00 0.00 0.00 0.01 0.00 0.01 0.00 0.00 0.00 0.00 0.03 0.00 0.00 0.00 0.00 0.00 0.00 0.00
0.03 0.25 0.38 0.55 0.72 1.46 1.00 0.59 0.60 0.10 0.05 0.06 0.02 0.00 0.00 0.00 0.00 0.00 0.00 0.00 0.00 0.00 0.00 0.00 0.00 0.00 0.00 0.00 0.00 0.00 0.00 0.00 0.00 0.01 0.02 0.00 0.05 0.06 0.09 0.02 0.02 0.05 0.00 0.00 0.00 0.00 0.00 0.00 0.00
0.00 0.10 0.37 0.42 0.87 0.86 0.51 0.34 0.44 0.13 0.13 0.24 0.05 0.01 0.00 0.00 0.00 0.00 0.00 0.00 0.00 0.00 0.00 0.00 0.00 0.00 0.00 0.00 0.00 0.00 0.00 0.00 0.00 0.02 0.03 0.03 0.06 0.06 0.08 0.06 0.03 0.02 0.02 0.01 0.00 0.00 0.00 0.00 0.00
0.00 0.04 0.30 0.41 0.48 0.48 1.17 0.65 0.37 0.31 0.16 0.22 0.05 0.01 0.01 0.00 0.00 0.00 0.00 0.00 0.00 0.00 0.00 0.00 0.02 0.04 0.01 0.01 0.01 0.00 0.01 0.01 0.00 0.04 0.04 0.03 0.03 0.06 0.06 0.08 0.03 0.00 0.01 0.04 0.01 0.00 0.00 0.00 0.00
0.00 0.01 0.17 0.24 0.19 0.21 0.39 0.92 0.38 0.19 0.43 0.31 0.10 0.02 0.00 0.00 0.00 0.00 0.00 0.00 0.00 0.00 0.00 0.00 0.01 0.04 0.01 0.00 0.00 0.00 0.03 0.03 0.02 0.06 0.14 0.12 0.05 0.03 0.08 0.07 0.01 0.02 0.01 0.01 0.00 0.00 0.00 0.00 0.00
0.00 0.02 0.00 0.01 0.03 0.01 0.04 0.14 0.18 0.11 0.28 0.27 0.12 0.04 0.00 0.00 0.00 0.00 0.00 0.00 0.00 0.00 0.00 0.00 0.01 0.05 0.02 0.00 0.00 0.09 0.09 0.06 0.03 0.09 0.12 0.16 0.13 0.05 0.08 0.06 0.06 0.03 0.00 0.00 0.00 0.00 0.00 0.00 0.00
0.01 0.01 0.00 0.00 0.00 0.00 0.00 0.01 0.00 0.02 0.15 0.18 0.34 0.04 0.00 0.00 0.00 0.00 0.00 0.00 0.00 0.00 0.00 0.00 0.00 0.01 0.00 0.00 0.05 0.07 0.08 0.02 0.02 0.02 0.09 0.13 0.14 0.16 0.10 0.13 0.07 0.05 0.00 0.00 0.00 0.02 0.03 0.01 0.00
0.01 0.00 0.00 0.00 0.00 0.00 0.00 0.00 0.01 0.00 0.00 0.01 0.15 0.10 0.00 0.00 0.00 0.00 0.01 0.01 0.00 0.00 0.00 0.00 0.00 0.00 0.00 0.00 0.03 0.06 0.09 0.07 0.05 0.07 0.09 0.06 0.04 0.10 0.09 0.09 0.11 0.10 0.03 0.00 0.00 0.06 0.05 0.02 0.00
0.00 0.00 0.00 0.03 0.01 0.00 0.00 0.00 0.00 0.00 0.00 0.00 0.00 0.02 0.00 0.00 0.01 0.01 0.01 0.04 0.03 0.00 0.00 0.00 0.00 0.00 0.00 0.00 0.01 0.06 0.07 0.09 0.14 0.06 0.03 0.08 0.11 0.07 0.05 0.11 0.13 0.07 0.04 0.01 0.00 0.04 0.05 0.02 0.01
0.00 0.00 0.00 0.00 0.00 0.00 0.00 0.00 0.00 0.00 0.00 0.00 0.01 0.02 0.05 0.02 0.02 0.05 0.09 0.05 0.07 0.05 0.00 0.00 0.00 0.00 0.00 0.00 0.03 0.09 0.09 0.06 0.13 0.07 0.04 0.06 0.07 0.02 0.01 0.05 0.08 0.08 0.07 0.02 0.00 0.00 0.00 0.00 0.00
0.00 0.00 0.00 0.00 0.00 0.00 0.00 0.00 0.01 0.01 0.00 0.00 0.00 0.00 0.00 0.00 0.01 0.01 0.07 0.08 0.03 0.01 0.00 0.00 0.00 0.00 0.00 0.00 0.01 0.03 0.04 0.04 0.06 0.06 0.09 0.05 0.08 0.03 0.03 0.04 0.15 0.19 0.10 0.04 0.01 0.00 0.00 0.00 0.00
0.00 0.00 0.00 0.00 0.00 0.00 0.00 0.01 0.00 0.01 0.01 0.00 0.00 0.00 0.00 0.00 0.01 0.00 0.04 0.06 0.08 0.06 0.03 0.00 0.02 0.01 0.01 0.00 0.00 0.01 0.02 0.03 0.04 0.09 0.10 0.13 0.19 0.18 0.08 0.10 0.07 0.08 0.11 0.10 0.05 0.01 0.00 0.04 0.01
0.00 0.00 0.00 0.00 0.00 0.00 0.00 0.01 0.00 0.01 0.01 0.02 0.06 0.07 0.10 0.05 0.02 0.01 0.03 0.08 0.14 0.20 0.05 0.01 0.09 0.13 0.04 0.00 0.00 0.09 0.05 0.04 0.04 0.08 0.07 0.13 0.23 0.28 0.19 0.17 0.11 0.11 0.11 0.10 0.03 0.05 0.01 0.04 0.02
0.00 0.00 0.00 0.00 0.00 0.00 0.00 0.00 0.00 0.00 0.01 0.05 0.11 0.06 0.09 0.11 0.07 0.05 0.04 0.09 0.17 0.38 0.41 0.20 0.39 0.39 0.23 0.13 0.02 0.12 0.09 0.04 0.03 0.11 0.06 0.09 0.16 0.18 0.23 0.18 0.20 0.18 0.13 0.11 0.08 0.07 0.06 0.14 0.10

GFSSGP_prec_precacc12_105.txt.gz
Total_Precipitation_Accumulation
0.00 0.00 0.00 0.00 0.05 0.01 0.00 0.00 0.00 0.00 0.00 0.00 0.00 0.00 0.00 0.00 0.00 0.00 0.00 0.00 0.00 0.00 0.05 0.13 0.28 0.29 0.12 0.02 0.02 0.04 0.03 0.05 0.02 0.04 0.02 0.03 0.07 0.11 0.08 0.09 0.12 0.10 0.04 0.03 0.03 0.06 0.05 0.03 0.03
0.00 0.00 0.00 0.02 0.09 0.00 0.00 0.00 0.00 0.00 0.00 0.00 0.00 0.00 0.01 0.00 0.00 0.00 0.00 0.00 0.00 0.00 0.01 0.04 0.19 0.12 0.01 0.00 0.01 0.07 0.03 0.04 0.03 0.02 0.02 0.01 0.06 0.13 0.18 0.17 0.14 0.08 0.09 0.13 0.11 0.08 0.04 0.02 0.00
0.00 0.00 0.06 0.07 0.20 0.03 0.01 0.01 0.00 0.00 0.00 0.00 0.00 0.00 0.00 0.00 0.00 0.00 0.00 0.00 0.01 0.01 0.02 0.02 0.01 0.00 0.00 0.02 0.02 0.02 0.06 0.04 0.04 0.10 0.11 0.12 0.14 0.17 0.15 0.13 0.15 0.10 0.11 0.16 0.18 0.14 0.11 0.20 0.03
0.00 0.01 0.08 0.11 0.20 0.04 0.04 0.00 0.00 0.00 0.00 0.00 0.00 0.02 0.00 0.00 0.00 0.00 0.00 0.01 0.01 0.02 0.02 0.00 0.00 0.03 0.13 0.11 0.05 0.04 0.02 0.06 0.06 0.11 0.17 0.22 0.30 0.22 0.12 0.11 0.14 0.06 0.05 0.07 0.08 0.03 0.03 0.03 0.01
0.00 0.04 0.36 0.28 0.19 0.05 0.02 0.00 0.00 0.00 0.00 0.00 0.02 0.04 0.00 0.00 0.00 0.00 0.00 0.02 0.02 0.01 0.00 0.01 0.11 0.13 0.11 0.18 0.26 0.08 0.04 0.07 0.08 0.12 0.25 0.32 0.19 0.21 0.23 0.16 0.05 0.03 0.01 0.02 0.04 0.00 0.01 0.04 0.02
0.04 0.13 0.52 0.34 0.08 0.11 0.05 0.01 0.00 0.00 0.01 0.00 0.00 0.00 0.01 0.01 0.00 0.00 0.00 0.00 0.00 0.00 0.00 0.02 0.10 0.09 0.09 0.16 0.27 0.14 0.22 0.17 0.32 0.24 0.28 0.37 0.30 0.16 0.08 0.09 0.02 0.01 0.01 0.01 0.00 0.00 0.01 0.01 0.01
0.11 0.30 0.57 0.13 0.11 0.28 0.09 0.00 0.00 0.00 0.00 0.01 0.00 0.00 0.02 0.01 0.00 0.00 0.00 0.00 0.00 0.00 0.00 0.01 0.03 0.07 0.07 0.16 0.26 0.19 0.13 0.12 0.28 0.23 0.23 0.29 0.23 0.20 0.14 0.10 0.01 0.00 0.00 0.02 0.05 0.03 0.05 0.09 0.07
0.11 0.29 0.12 0.09 0.21 0.28 0.02 0.00 0.00 0.00 0.01 0.00 0.00 0.00 0.00 0.00 0.00 0.00 0.00 0.00 0.00 0.00 0.01 0.02 0.01 0.03 0.03 0.06 0.14 0.10 0.04 0.05 0.13 0.19 0.15 0.29 0.35 0.12 0.05 0.03 0.00 0.00 0.00 0.01 0.02 0.02 0.01 0.05 0.04
0.15 0.40 0.26 0.16 0.44 0.10 0.01 0.00 0.00 0.00 0.00 0.00 0.00 0.00 0.00 0.00 0.00 0.00 0.00 0.00 0.00 0.01 0.01 0.02 0.00 0.03 0.03 0.02 0.05 0.04 0.02 0.07 0.10 0.14 0.21 0.26 0.15 0.02 0.02 0.01 0.00 0.00 0.00 0.00 0.00 0.00 0.00 0.04 0.03
0.23 0.43 0.37 0.17 0.32 0.01 0.00 0.00 0.00 0.00 0.00 0.00 0.00 0.00 0.00 0.00 0.00 0.00 0.00 0.00 0.00 0.00 0.01 0.01 0.00 0.00 0.01 0.01 0.01 0.02 0.02 0.01 0.02 0.05 0.01 0.00 0.00 0.03 0.05 0.07 0.05 0.01 0.01 0.03 0.00 0.00 0.00 0.00 0.01
0.27 0.36 0.23 0.16 0.13 0.04 0.00 0.00 0.00 0.00 0.00 0.00 0.00 0.00 0.00 0.00 0.00 0.00 0.00 0.00 0.00 0.00 0.00 0.00 0.00 0.00 0.00 0.01 0.00 0.00 0.00 0.00 0.00 0.00 0.00 0.00 0.00 0.03 0.06 0.07 0.03 0.01 0.00 0.00 0.00 0.00 0.00 0.00 0.00
0.14 0.22 0.18 0.17 0.04 0.07 0.01 0.00 0.00 0.00 0.00 0.00 0.00 0.00 0.00 0.00 0.00 0.00 0.00 0.00 0.00 0.00 0.00 0.00 0.00 0.00 0.00 0.01 0.00 0.00 0.00 0.00 0.00 0.00 0.00 0.00 0.00 0.00 0.00 0.00 0.00 0.00 0.00 0.02 0.02 0.02 0.01 0.00 0.00
0.12 0.39 0.40 0.28 0.10 0.20 0.08 0.04 0.01 0.01 0.00 0.00 0.00 0.00 0.00 0.00 0.00 0.00 0.00 0.00 0.00 0.00 0.00 0.00 0.00 0.00 0.03 0.01 0.00 0.00 0.00 0.00 0.00 0.00 0.00 0.00 0.00 0.00 0.00 0.00 0.00 0.00 0.00 0.00 0.00 0.00 0.00 0.00 0.00
0.12 0.41 0.39 0.45 0.29 0.29 0.23 0.10 0.04 0.06 0.00 0.00 0.00 0.00 0.00 0.00 0.00 0.00 0.00 0.00 0.00 0.00 0.00 0.00 0.00 0.00 0.00 0.00 0.00 0.00 0.00 0.00 0.00 0.00 0.00 0.00 0.00 0.00 0.00 0.00 0.00 0.00 0.00 0.00 0.01 0.00 0.00 0.00 0.00
0.23 0.47 0.39 0.25 0.45 0.32 0.36 0.26 0.26 0.20 0.00 0.00 0.00 0.00 0.00 0.00 0.00 0.00 0.00 0.00 0.00 0.00 0.00 0.00 0.00 0.00 0.00 0.00 0.00 0.00 0.00 0.00 0.00 0.02 0.02 0.00 0.00 0.00 0.03 0.01 0.02 0.00 0.00 0.00 0.01 0.00 0.00 0.00 0.00
0.47 0.49 0.35 0.33 0.75 0.61 0.93 0.77 0.53 0.34 0.00 0.00 0.00 0.00 0.00 0.00 0.00 0.00 0.00 0.00 0.00 0.00 0.00 0.00 0.00 0.00 0.00 0.00 0.00 0.00 0.00 0.00 0.00 0.02 0.03 0.00 0.00 0.00 0.00 0.00 0.02 0.00 0.00 0.00 0.00 0.00 0.00 0.00 0.00
0.45 0.63 0.51 0.62 0.76 1.64 1.86 1.48 0.78 0.20 0.02 0.03 0.01 0.00 0.00 0.00 0.00 0.00 0.00 0.00 0.00 0.00 0.00 0.00 0.00 0.00 0.00 0.00 0.00 0.00 0.00 0.00 0.00 0.00 0.00 0.00 0.00 0.00 0.00 0.00 0.00 0.00 0.00 0.00 0.00 0.00 0.00 0.00 0.00
0.26 0.46 0.50 0.55 0.68 1.41 1.09 0.72 0.62 0.10 0.04 0.06 0.02 0.00 0.00 0.00 0.00 0.00 0.00 0.00 0.00 0.00 0.00 0.00 0.00 0.00 0.00 0.00 0.00 0.00 0.00 0.00 0.00 0.00 0.00 0.00 0.01 0.03 0.09 0.02 0.01 0.00 0.00 0.00 0.00 0.00 0.00 0.00 0.00
0.04 0.36 0.61 0.65 0.71 0.79 0.65 0.53 0.44 0.07 0.10 0.12 0.05 0.01 0.00 0.00 0.00 0.00 0.00 0.00 0.00 0.00 0.00 0.00 0.00 0.01 0.00 0.00 0.00 0.00 0.00 0.00 0.00 0.01 0.01 0.02 0.03 0.04 0.08 0.06 0.01 0.01 0.02 0.01 0.00 0.00 0.00 0.00 0.00
0.01 0.12 0.48 0.93 0.53 0.44 0.96 0.84 0.49 0.14 0.15 0.08 0.04 0.00 0.01 0.00 0.00 0.00 0.00 0.00 0.00 0.00 0.00 0.00 0.02 0.05 0.02 0.01 0.02 0.00 0.00 0.00 0.00 0.02 0.03 0.02 0.01 0.06 0.06 0.07 0.02 0.01 0.00 0.02 0.01 0.00 0.00 0.00 0.00
0.00 0.08 0.38 0.64 0.44 0.33 0.34 0.91 0.64 0.16 0.25 0.20 0.06 0.01 0.00 0.00 0.00 0.00 0.00 0.00 0.00 0.00 0.00 0.00 0.02 0.05 0.03 0.01 0.01 0.02 0.08 0.05 0.02 0.05 0.11 0.10 0.05 0.03 0.08 0.07 0.01 0.02 0.00 0.01 0.00 0.00 0.00 0.00 0.00
0.00 0.02 0.25 0.23 0.08 0.04 0.04 0.27 0.36 0.19 0.24 0.11 0.04 0.03 0.01 0.00 0.00 0.00 0.00 0.00 0.00 0.00 0.00 0.00 0.01 0.05 0.04 0.03 0.05 0.18 0.11 0.07 0.04 0.05 0.11 0.10 0.10 0.04 0.07 0.06 0.03 0.02 0.00 0.00 0.00 0.00 0.00 0.00 0.00
0.00 0.00 0.13 0.12 0.02 0.00 0.00 0.04 0.05 0.06 0.15 0.16 0.18 0.03 0.01 0.00 0.00 0.00 0.00 0.00 0.00 0.00 0.00 0.00 0.00 0.01 0.00 0.06 0.21 0.11 0.03 0.04 0.07 0.02 0.09 0.09 0.12 0.13 0.08 0.09 0.03 0.06 0.01 0.00 0.00 0.01 0.03 0.00 0.00
0.00 0.01 0.00 0.01 0.00 0.00 0.00 0.00 0.03 0.00 0.00 0.01 0.14 0.10 0.00 0.01 0.00 0.00 0.01 0.01 0.00 0.00 0.00 0.00 0.00 0.00 0.00 0.03 0.05 0.08 0.10 0.06 0.10 0.09 0.06 0.02 0.04 0.09 0.08 0.08 0.09 0.09 0.02 0.00 0.00 0.04 0.04 0.02 0.00
0.00 0.00 0.01 0.03 0.01 0.00 0.00 0.00 0.00 0.00 0.00 0.00 0.00 0.02 0.00 0.00 0.00 0.00 0.03 0.04 0.03 0.01 0.00 0.00 0.00 0.00 0.00 0.00 0.02 0.06 0.07 0.08 0.17 0.08 0.04 0.24 0.13 0.07 0.05 0.11 0.12 0.07 0.05 0.02 0.00 0.03 0.04 0.02 0.02
0.00 0.00 0.02 0.04 0.01 0.00 0.00 0.00 0.00 0.00 0.00 0.00 0.01 0.01 0.01 0.00 0.00 0.00 0.04 0.05 0.07 0.07 0.02 0.00 0.00 0.00 0.00 0.00 0.04 0.09 0.09 0.06 0.10 0.06 0.15 0.14 0.09 0.03 0.02 0.04 0.07 0.07 0.07 0.02 0.01 0.01 0.00 0.00 0.00
0.00 0.00 0.00 0.00 0.02 0.01 0.01 0.00 0.00 0.00 0.00 0.00 0.00 0.00 0.00 0.00 0.00 0.02 0.03 0.07 0.07 0.01 0.01 0.00 0.00 0.00 0.00 0.00 0.01 0.03 0.04 0.04 0.07 0.21 0.20 0.13 0.09 0.04 0.03 0.02 0.10 0.12 0.08 0.04 0.02 0.00 0.00 0.01 0.00
0.00 0.00 0.00 0.00 0.00 0.01 0.00 0.00 0.00 0.01 0.00 0.00 0.00 0.00 0.00 0.00 0.02 0.01 0.01 0.02 0.03 0.02 0.00 0.00 0.00 0.00 0.00 0.00 0.00 0.01 0.02 0.03 0.04 0.10 0.10 0.37 0.31 0.21 0.16 0.16 0.09 0.08 0.11 0.09 0.05 0.00 0.00 0.04 0.01
0.00 0.00 0.00 0.00 0.00 0.00 0.00 0.00 0.00 0.00 0.00 0.00 0.03 0.06 0.07 0.03 0.01 0.03 0.01 0.06 0.06 0.09 0.02 0.01 0.05 0.06 0.00 0.00 0.00 0.09 0.05 0.04 0.04 0.07 0.07 0.13 0.23 0.29 0.20 0.28 0.24 0.18 0.11 0.11 0.11 0.06 0.04 0.04 0.02
0.00 0.00 0.00 0.00 0.00 0.00 0.00 0.01 0.00 0.00 0.00 0.01 0.04 0.05 0.07 0.10 0.07 0.04 0.04 0.07 0.10 0.29 0.30 0.16 0.29 0.32 0.18 0.11 0.01 0.12 0.09 0.04 0.03 0.08 0.06 0.09 0.15 0.23 0.20 0.16 0.19 0.19 0.13 0.11 0.10 0.07 0.06 0.14 0.10

GFSSGP_prec_precacc12_108.txt.gz
Total_Precipitation_Accumulation
0.00 0.00 0.00 0.02 0.17 0.15 0.00 0.00 0.00 0.00 0.00 0.00 0.00 0.00 0.00 0.00 0.00 0.00 0.00 0.03 0.00 0.00 0.01 0.03 0.22 0.26 0.11 0.02 0.02 0.05 0.06 0.07 0.03 0.04 0.06 0.04 0.05 0.07 0.07 0.05 0.06 0.06 0.05 0.05 0.06 0.08 0.05 0.02 0.03
0.00 0.00 0.00 0.09 0.24 0.01 0.00 0.00 0.00 0.00 0.00 0.00 0.00 0.01 0.01 0.00 0.00 0.00 0.00 0.00 0.00 0.00 0.01 0.04 0.20 0.14 0.01 0.00 0.02 0.08 0.05 0.02 0.03 0.04 0.06 0.07 0.07 0.10 0.13 0.07 0.05 0.08 0.08 0.10 0.10 0.07 0.04 0.02 0.00
0.00 0.00 0.13 0.16 0.23 0.04 0.01 0.01 0.00 0.00 0.00 0.00 0.01 0.03 0.00 0.00 0.00 0.00 0.00 0.00 0.01 0.02 0.02 0.02 0.01 0.00 0.00 0.01 0.00 0.02 0.06 0.01 0.04 0.07 0.11 0.12 0.14 0.16 0.12 0.10 0.12 0.11 0.09 0.15 0.16 0.11 0.08 0.16 0.02
0.00 0.02 0.07 0.20 0.15 0.03 0.03 0.00 0.00 0.00 0.00 0.00 0.00 0.02 0.00 0.00 0.00 0.00 0.00 0.01 0.02 0.07 0.04 0.00 0.00 0.01 0.08 0.10 0.04 0.02 0.04 0.06 0.06 0.12 0.18 0.18 0.29 0.22 0.12 0.10 0.10 0.08 0.05 0.08 0.08 0.02 0.02 0.03 0.01
0.00 0.02 0.16 0.20 0.10 0.03 0.00 0.00 0.00 0.00 0.00 0.01 0.02 0.04 0.00 0.00 0.00 0.00 0.00 0.02 0.02 0.02 0.00 0.00 0.08 0.08 0.02 0.10 0.17 0.04 0.01 0.07 0.05 0.08 0.24 0.30 0.20 0.21 0.21 0.15 0.03 0.04 0.01 0.02 0.05 0.01 0.01 0.04 0.02
0.04 0.08 0.41 0.30 0.08 0.04 0.00 0.00 0.00 0.01 0.01 0.02 0.00 0.00 0.01 0.01 0.00 0.00 0.00 0.00 0.00 0.00 0.00 0.00 0.06 0.03 0.02 0.07 0.19 0.08 0.10 0.11 0.26 0.22 0.27 0.38 0.31 0.13 0.07 0.09 0.02 0.01 0.02 0.01 0.00 0.00 0.00 0.00 0.00
0.08 0.27 0.38 0.15 0.10 0.11 0.01 0.00 0.00 0.01 0.01 0.02 0.00 0.00 0.01 0.01 0.00 0.01 0.00 0.00 0.03 0.01 0.00 0.01 0.02 0.03 0.02 0.08 0.20 0.18 0.12 0.09 0.21 0.20 0.20 0.26 0.20 0.09 0.10 0.09 0.00 0.00 0.00 0.00 0.02 0.01 0.02 0.01 0.00
0.16 0.34 0.26 0.16 0.16 0.18 0.01 0.00 0.00 0.00 0.02 0.00 0.00 0.00 0.00 0.00 0.00 0.00 0.00 0.01 0.04 0.01 0.01 0.01 0.01 0.03 0.03 0.03 0.08 0.05 0.02 0.02 0.04 0.12 0.08 0.21 0.21 0.05 0.04 0.04 0.00 0.00 0.00 0.00 0.00 0.00 0.01 0.01 0.00
0.13 0.40 0.42 0.13 0.13 0.07 0.00 0.00 0.00 0.01 0.00 0.00 0.00 0.00 0.00 0.00 0.00 0.00 0.00 0.02 0.00 0.01 0.03 0.01 0.00 0.04 0.03 0.02 0.03 0.01 0.01 0.06 0.05 0.07 0.15 0.27 0.10 0.01 0.03 0.02 0.00 0.00 0.00 0.00 0.00 0.00 0.00 0.04 0.03
0.37 1.07 0.57 0.09 0.08 0.00 0.00 0.00 0.00 0.00 0.00 0.01 0.00 0.00 0.00 0.00 0.00 0.00 0.00 0.00 0.00 0.00 0.02 0.06 0.00 0.00 0.01 0.00 0.01 0.00 0.07 0.06 0.03 0.07 0.20 0.06 0.00 0.00 0.02 0.03 0.05 0.01 0.00 0.00 0.00 0.00 0.00 0.00 0.01
0.36 1.27 0.89 0.15 0.06 0.03 0.00 0.00 0.00 0.00 0.00 0.00 0.00 0.00 0.00 0.00 0.00 0.00 0.00 0.00 0.00 0.00 0.00 0.01 0.00 0.00 0.00 0.01 0.00 0.00 0.01 0.00 0.00 0.03 0.11 0.00 0.00 0.00 0.00 0.01 0.00 0.00 0.00 0.07 0.02 0.00 0.01 0.03 0.00
0.24 0.63 0.62 0.42 0.04 0.05 0.00 0.00 0.00 0.00 0.00 0.00 0.00 0.00 0.00 0.00 0.00 0.00 0.00 0.00 0.00 0.00 0.00 0.00 0.00 0.00 0.01 0.01 0.00 0.00 0.00 0.00 0.00 0.00 0.00 0.00 0.00 0.00 0.17 0.16 0.05 0.00 0.01 0.25 0.08 0.00 0.00 0.00 0.00
0.22 0.41 0.25 0.16 0.04 0.07 0.02 0.00 0.00 0.00 0.00 0.00 0.00 0.00 0.00 0.00 0.00 0.00 0.00 0.00 0.00 0.00 0.00 0.00 0.00 0.00 0.03 0.01 0.00 0.00 0.00 0.00 0.00 0.08 0.04 0.00 0.01 0.01 0.00 0.15 0.14 0.00 0.01 0.00 0.00 0.00 0.00 0.00 0.00
0.12 0.31 0.23 0.18 0.08 0.16 0.10 0.01 0.02 0.01 0.00 0.00 0.00 0.00 0.00 0.00 0.00 0.00 0.00 0.00 0.00 0.00 0.00 0.00 0.00 0.00 0.00 0.00 0.00 0.00 0.02 0.00 0.00 0.03 0.37 0.24 0.00 0.01 0.01 0.02 0.01 0.04 0.00 0.00 0.01 0.00 0.00 0.00 0.00
0.22 0.37 0.25 0.17 0.23 0.27 0.23 0.12 0.10 0.03 0.00 0.00 0.00 0.00 0.00 0.00 0.00 0.00 0.00 0.00 0.00 0.00 0.00 0.00 0.00 0.00 0.00 0.00 0.00 0.00 0.01 0.00 0.00 0.01 0.10 0.12 0.01 0.00 0.05 0.02 0.01 0.00 0.00 0.00 0.00 0.00 0.00 0.00 0.00
0.59 0.53 0.33 0.36 0.68 0.55 0.64 0.59 0.27 0.14 0.00 0.00 0.00 0.00 0.00 0.00 0.00 0.00 0.00 0.00 0.00 0.00 0.00 0.00 0.00 0.00 0.00 0.00 0.00 0.00 0.00 0.00 0.00 0.00 0.00 0.00 0.00 0.00 0.01 0.01 0.00 0.00 0.00 0.00 0.00 0.00 0.00 0.00 0.00
0.63 1.11 0.59 0.48 0.84 1.68 1.80 1.37 0.74 0.16 0.01 0.03 0.01 0.00 0.00 0.00 0.00 0.00 0.00 0.00 0.00 0.00 0.00 0.00 0.00 0.00 0.00 0.00 0.00 0.00 0.00 0.00 0.00 0.00 0.00 0.00 0.00 0.00 0.01 0.00 0.00 0.00 0.00 0.00 0.00 0.00 0.00 0.00 0.00
0.32 0.67 0.83 0.55 0.69 1.48 1.18 0.88 0.63 0.09 0.03 0.03 0.02 0.00 0.00 0.00 0.00 0.00 0.00 0.00 0.00 0.00 0.00 0.00 0.00 0.00 0.00 0.00 0.00 0.00 0.00 0.00 0.00 0.00 0.00 0.00 0.01 0.02 0.09 0.01 0.00 0.03 0.01 0.00 0.00 0.00 0.00 0.00 0.00
0.05 0.71 1.19 0.98 0.68 0.87 0.70 0.72 0.52 0.07 0.09 0.10 0.05 0.01 0.00 0.00 0.00 0.00 0.00 0.00 0.00 0.00 0.00 0.00 0.00 0.01 0.00 0.00 0.00 0.00 0.00 0.00 0.00 0.00 0.00 0.00 0.01 0.04 0.08 0.04 0.01 0.32 0.05 0.00 0.00 0.00 0.00 0.00 0.00
0.04 0.70 0.89 1.13 0.62 0.53 1.07 0.90 0.71 0.15 0.17 0.06 0.02 0.00 0.01 0.01 0.00 0.00 0.00 0.00 0.00 0.00 0.00 0.00 0.02 0.05 0.02 0.01 0.02 0.00 0.00 0.00 0.00 0.01 0.02 0.01 0.00 0.04 0.02 0.02 0.03 0.05 0.02 0.00 0.00 0.00 0.00 0.00 0.00
0.07 0.22 0.53 0.73 0.69 0.56 0.41 1.06 0.92 0.26 0.22 0.14 0.07 0.01 0.01 0.01 0.00 0.00 0.00 0.00 0.00 0.00 0.00 0.00 0.02 0.05 0.04 0.03 0.02 0.02 0.10 0.06 0.03 0.05 0.10 0.09 0.02 0.02 0.07 0.02 0.04 0.01 0.01 0.01 0.00 0.00 0.00 0.00 0.00
0.10 0.04 0.26 0.27 0.19 0.11 0.08 0.38 0.56 0.35 0.24 0.07 0.03 0.01 0.01 0.01 0.01 0.01 0.00 0.00 0.00 0.00 0.00 0.00 0.01 0.05 0.06 0.11 0.08 0.22 0.13 0.08 0.05 0.03 0.08 0.07 0.08 0.03 0.05 0.03 0.01 0.02 0.08 0.03 0.00 0.00 0.01 0.01 0.00
0.01 0.00 0.15 0.31 0.19 0.03 0.01 0.09 0.15 0.17 0.23 0.16 0.01 0.01 0.01 0.02 0.01 0.01 0.00 0.00 0.00 0.00 0.00 0.00 0.01 0.03 0.04 0.13 0.26 0.15 0.08 0.16 0.29 0.09 0.15 0.11 0.11 0.08 0.05 0.06 0.01 0.04 0.04 0.02 0.00 0.01 0.04 0.01 0.01
0.00 0.02 0.03 0.14 0.30 0.17 0.01 0.03 0.05 0.00 0.01 0.01 0.02 0.01 0.02 0.01 0.03 0.01 0.00 0.00 0.00 0.00 0.00 0.00 0.00 0.03 0.03 0.06 0.10 0.20 0.25 0.23 0.26 0.47 0.21 0.07 0.05 0.09 0.07 0.08 0.07 0.07 0.03 0.03 0.00 0.04 0.04 0.02 0.00
0.00 0.01 0.04 0.04 0.04 0.01 0.00 0.00 0.01 0.00 0.00 0.00 0.00 0.00 0.00 0.01 0.02 0.01 0.02 0.00 0.00 0.02 0.00 0.00 0.00 0.01 0.01 0.02 0.04 0.12 0.15 0.16 0.30 0.18 0.17 0.40 0.18 0.08 0.05 0.10 0.10 0.06 0.04 0.03 0.00 0.04 0.05 0.02 0.02
0.00 0.00 0.04 0.07 0.03 0.05 0.04 0.00 0.00 0.00 0.00 0.00 0.00 0.00 0.00 0.00 0.00 0.02 0.01 0.06 0.01 0.03 0.04 0.00 0.00 0.00 0.00 0.01 0.06 0.11 0.11 0.06 0.05 0.07 0.27 0.72 0.34 0.15 0.06 0.05 0.07 0.06 0.06 0.01 0.02 0.01 0.01 0.01 0.00
0.00 0.00 0.00 0.01 0.03 0.03 0.05 0.04 0.03 0.02 0.00 0.00 0.00 0.00 0.00 0.00 0.00 0.03 0.01 0.04 0.13 0.02 0.04 0.05 0.01 0.00 0.00 0.00 0.02 0.03 0.04 0.04 0.10 0.23 0.28 0.42 0.77 0.33 0.17 0.04 0.08 0.08 0.06 0.03 0.03 0.00 0.01 0.05 0.05
0.00 0.00 0.00 0.00 0.00 0.02 0.04 0.03 0.11 0.03 0.00 0.00 0.00 0.00 0.01 0.00 0.01 0.02 0.01 0.03 0.06 0.05 0.01 0.07 0.06 0.00 0.00 0.00 0.00 0.01 0.02 0.03 0.05 0.12 0.15 0.61 0.69 0.40 0.79 0.13 0.06 0.06 0.12 0.10 0.05 0.02 0.02 0.04 0.01
0.00 0.00 0.00 0.00 0.00 0.00 0.03 0.11 0.07 0.01 0.01 0.00 0.00 0.02 0.02 0.01 0.01 0.03 0.02 0.09 0.08 0.05 0.01 0.01 0.02 0.03 0.00 0.00 0.00 0.09 0.05 0.04 0.03 0.07 0.08 0.13 0.22 0.23 0.25 0.29 0.17 0.14 0.12 0.12 0.12 0.10 0.09 0.07 0.02
0.00 0.00 0.00 0.00 0.00 0.00 0.00 0.03 0.03 0.31 0.08 0.02 0.00 0.00 0.01 0.02 0.02 0.02 0.02 0.16 0.51 0.37 0.33 0.18 0.15 0.10 0.07 0.07 0.01 0.12 0.09 0.04 0.02 0.05 0.05 0.09 0.14 0.22 0.19 0.21 0.21 0.16 0.13 0.13 0.14 0.09 0.07 0.08 0.08

GFSSGP_prec_precacc12_111.txt.gz
Total_Precipitation_Accumulation
0.00 0.00 0.04 0.13 0.42 0.21 0.00 0.00 0.00 0.00 0.00 0.00 0.01 0.00 0.00 0.00 0.00 0.00 0.01 0.05 0.02 0.00 0.00 0.01 0.10 0.13 0.05 0.01 0.01 0.03 0.05 0.05 0.07 0.05 0.07 0.04 0.04 0.06 0.02 0.03 0.06 0.06 0.05 0.05 0.06 0.07 0.05 0.02 0.02
0.00 0.01 0.04 0.15 0.36 0.03 0.00 0.00 0.00 0.00 0.00 0.00 0.00 0.01 0.01 0.00 0.00 0.00 0.03 0.05 0.01 0.00 0.01 0.02 0.07 0.09 0.01 0.01 0.01 0.03 0.03 0.03 0.03 0.04 0.06 0.07 0.05 0.04 0.05 0.03 0.05 0.08 0.08 0.09 0.09 0.06 0.02 0.01 0.01
0.00 0.05 0.17 0.31 0.31 0.04 0.01 0.01 0.00 0.00 0.00 0.00 0.01 0.03 0.00 0.00 0.00 0.00 0.03 0.02 0.02 0.02 0.02 0.02 0.01 0.00 0.00 0.00 0.00 0.01 0.02 0.01 0.02 0.04 0.10 0.10 0.09 0.05 0.05 0.08 0.10 0.10 0.08 0.13 0.12 0.08 0.04 0.07 0.02
0.00 0.04 0.07 0.19 0.15 0.03 0.02 0.00 0.00 0.00 0.00 0.00 0.00 0.02 0.00 0.00 0.00 0.00 0.07 0.12 0.04 0.09 0.04 0.00 0.00 0.01 0.04 0.02 0.02 0.02 0.02 0.01 0.02 0.09 0.17 0.14 0.19 0.12 0.07 0.05 0.05 0.06 0.03 0.07 0.04 0.02 0.02 0.03 0.01
0.00 0.04 0.28 0.21 0.09 0.03 0.00 0.00 0.00 0.00 0.00 0.01 0.02 0.03 0.00 0.00 0.00 0.01 0.03 0.08 0.10 0.09 0.00 0.00 0.04 0.03 0.01 0.02 0.04 0.03 0.01 0.01 0.06 0.08 0.19 0.24 0.16 0.10 0.07 0.05 0.03 0.02 0.01 0.01 0.02 0.00 0.00 0.01 0.01
0.03 0.06 0.20 0.14 0.07 0.03 0.00 0.00 0.00 0.01 0.01 0.02 0.00 0.00 0.00 0.00 0.00 0.02 0.03 0.04 0.01 0.00 0.00 0.00 0.04 0.02 0.02 0.05 0.07 0.03 0.06 0.06 0.23 0.18 0.20 0.26 0.19 0.06 0.04 0.02 0.01 0.01 0.02 0.01 0.00 0.00 0.00 0.00 0.00
0.06 0.18 0.23 0.14 0.10 0.09 0.01 0.00 0.00 0.01 0.01 0.02 0.00 0.00 0.01 0.01 0.02 0.04 0.00 0.00 0.03 0.01 0.00 0.00 0.00 0.02 0.02 0.06 0.09 0.09 0.08 0.08 0.18 0.19 0.14 0.13 0.10 0.03 0.01 0.02 0.00 0.00 0.00 0.00 0.00 0.00 0.02 0.01 0.00
0.20 0.36 0.33 0.26 0.16 0.13 0.01 0.00 0.00 0.00 0.02 0.00 0.00 0.00 0.00 0.00 0.02 0.03 0.00 0.02 0.06 0.01 0.02 0.01 0.01 0.03 0.01 0.00 0.03 0.04 0.01 0.02 0.03 0.04 0.03 0.08 0.08 0.01 0.01 0.04 0.00 0.00 0.00 0.00 0.00 0.00 0.01 0.01 0.00
0.11 0.42 0.79 0.28 0.08 0.05 0.00 0.02 0.01 0.01 0.00 0.00 0.00 0.00 0.00 0.00 0.00 0.00 0.01 0.03 0.00 0.02 0.04 0.02 0.00 0.04 0.01 0.00 0.01 0.00 0.01 0.09 0.13 0.14 0.22 0.31 0.07 0.01 0.03 0.03 0.00 0.00 0.00 0.00 0.00 0.01 0.02 0.02 0.01
0.53 1.19 1.26 0.35 0.05 0.00 0.00 0.00 0.00 0.00 0.00 0.01 0.00 0.00 0.00 0.00 0.00 0.00 0.00 0.00 0.00 0.07 0.05 0.07 0.00 0.00 0.01 0.00 0.00 0.00 0.07 0.12 0.17 0.28 0.34 0.13 0.02 0.04 0.01 0.00 0.01 0.00 0.00 0.00 0.01 0.10 0.10 0.02 0.01
0.47 1.91 1.73 0.52 0.08 0.01 0.00 0.00 0.00 0.00 0.00 0.00 0.00 0.00 0.00 0.00 0.00 0.00 0.00 0.00 0.00 0.00 0.00 0.02 0.00 0.00 0.00 0.00 0.00 0.00 0.01 0.01 0.02 0.16 0.17 0.04 0.06 0.02 0.01 0.01 0.06 0.01 0.01 0.07 0.02 0.16 0.45 0.03 0.01
0.33 0.97 1.26 1.31 0.20 0.05 0.00 0.00 0.00 0.00 0.00 0.00 0.00 0.00 0.00 0.00 0.00 0.00 0.00 0.00 0.00 0.00 0.00 0.00 0.00 0.00 0.00 0.00 0.00 0.01 0.00 0.00 0.01 0.03 0.04 0.09 0.13 0.41 0.36 0.26 0.43 0.16 0.03 0.25 0.09 0.01 0.00 0.00 0.00
0.30 0.90 0.43 0.79 0.21 0.12 0.00 0.00 0.00 0.00 0.00 0.00 0.00 0.00 0.00 0.00 0.00 0.00 0.00 0.00 0.00 0.00 0.00 0.00 0.00 0.00 0.02 0.01 0.03 0.00 0.01 0.01 0.00 0.12 0.09 0.09 0.12 0.12 0.03 0.23 0.26 0.26 0.11 0.02 0.00 0.00 0.00 0.00 0.00
0.14 0.29 0.17 0.13 0.16 0.07 0.02 0.00 0.00 0.00 0.00 0.00 0.00 0.00 0.00 0.00 0.00 0.00 0.00 0.00 0.00 0.00 0.00 0.00 0.00 0.00 0.00 0.00 0.00 0.00 0.02 0.00 0.01 0.08 0.51 0.29 0.03 0.07 0.06 0.08 0.05 0.12 0.06 0.01 0.01 0.00 0.00 0.00 0.00
0.24 0.37 0.26 0.24 0.16 0.21 0.05 0.03 0.02 0.00 0.00 0.00 0.00 0.00 0.00 0.00 0.00 0.00 0.00 0.00 0.00 0.00 0.00 0.00 0.00 0.00 0.00 0.00 0.00 0.00 0.02 0.00 0.02 0.04 0.11 0.15 0.03 0.03 0.08 0.04 0.01 0.00 0.01 0.01 0.00 0.00 0.00 0.02 0.03
1.11 0.74 0.47 0.45 0.42 0.49 0.26 0.24 0.10 0.02 0.00 0.00 0.00 0.00 0.00 0.00 0.00 0.00 0.00 0.00 0.00 0.00 0.00 0.00 0.00 0.00 0.00 0.00 0.00 0.00 0.01 0.00 0.01 0.00 0.01 0.02 0.03 0.00 0.01 0.01 0.00 0.00 0.01 0.04 0.03 0.00 0.00 0.01 0.01
0.71 1.12 0.75 0.59 0.62 1.01 0.66 0.57 0.27 0.04 0.00 0.00 0.00 0.00 0.00 0.00 0.00 0.00 0.00 0.00 0.00 0.00 0.00 0.00 0.00 0.00 0.00 0.00 0.00 0.00 0.00 0.00 0.00 0.00 0.01 0.00 0.00 0.00 0.01 0.02 0.03 0.01 0.02 0.01 0.02 0.00 0.00 0.00 0.00
0.36 0.61 0.94 0.65 0.58 1.35 1.07 0.72 0.40 0.04 0.02 0.00 0.00 0.00 0.00 0.00 0.00 0.00 0.00 0.00 0.00 0.00 0.00 0.00 0.00 0.00 0.00 0.00 0.00 0.00 0.00 0.00 0.00 0.00 0.00 0.00 0.02 0.02 0.09 0.02 0.01 0.04 0.06 0.01 0.00 0.00 0.00 0.00 0.01
0.07 0.70 1.17 1.22 0.82 0.81 0.87 0.86 0.49 0.06 0.07 0.06 0.01 0.00 0.00 0.00 0.00 0.00 0.00 0.00 0.00 0.00 0.00 0.00 0.00 0.01 0.00 0.00 0.00 0.00 0.00 0.01 0.00 0.00 0.00 0.00 0.01 0.04 0.03 0.03 0.03 0.34 0.07 0.01 0.00 0.00 0.00 0.00 0.00
0.09 0.75 1.01 1.54 0.90 0.70 1.23 1.16 0.77 0.14 0.13 0.03 0.00 0.00 0.00 0.00 0.00 0.00 0.00 0.00 0.00 0.00 0.00 0.00 0.02 0.05 0.02 0.01 0.02 0.00 0.00 0.00 0.00 0.00 0.02 0.01 0.00 0.04 0.03 0.02 0.06 0.10 0.04 0.00 0.00 0.00 0.00 0.00 0.00
0.14 0.27 0.51 0.83 0.80 0.62 0.70 1.25 1.03 0.28 0.18 0.10 0.04 0.00 0.01 0.00 0.00 0.00 0.00 0.00 0.00 0.00 0.00 0.00 0.02 0.05 0.04 0.05 0.02 0.03 0.10 0.06 0.06 0.06 0.06 0.02 0.01 0.02 0.07 0.04 0.09 0.03 0.03 0.01 0.00 0.00 0.01 0.00 0.00
0.40 0.24 0.32 0.29 0.24 0.18 0.16 0.59 0.72 0.42 0.26 0.07 0.02 0.01 0.01 0.01 0.01 0.01 0.00 0.00 0.00 0.00 0.00 0.00 0.01 0.05 0.07 0.12 0.11 0.20 0.14 0.07 0.07 0.06 0.04 0.02 0.08 0.03 0.00 0.00 0.02 0.03 0.11 0.04 0.01 0.00 0.01 0.01 0.00
0.06 0.11 0.18 0.37 0.23 0.08 0.05 0.15 0.21 0.22 0.25 0.16 0.01 0.01 0.01 0.02 0.01 0.01 0.00 0.00 0.00 0.00 0.00 0.00 0.01 0.03 0.04 0.13 0.28 0.16 0.11 0.16 0.29 0.11 0.24 0.13 0.10 0.05 0.00 0.01 0.01 0.05 0.04 0.03 0.01 0.01 0.03 0.01 0.02
0.01 0.10 0.14 0.18 0.32 0.21 0.02 0.04 0.06 0.01 0.01 0.01 0.01 0.01 0.01 0.02 0.04 0.01 0.01 0.00 0.00 0.00 0.00 0.00 0.00 0.03 0.03 0.06 0.11 0.22 0.25 0.23 0.26 0.54 0.30 0.19 0.13 0.10 0.07 0.06 0.07 0.08 0.04 0.04 0.00 0.05 0.04 0.02 0.01
0.04 0.11 0.12 0.07 0.07 0.04 0.02 0.02 0.01 0.00 0.00 0.00 0.00 0.00 0.00 0.01 0.03 0.02 0.02 0.00 0.00 0.02 0.00 0.00 0.00 0.01 0.01 0.02 0.09 0.17 0.17 0.19 0.31 0.22 0.41 0.58 0.24 0.12 0.09 0.10 0.05 0.05 0.04 0.03 0.00 0.04 0.05 0.02 0.02
0.00 0.00 0.05 0.10 0.06 0.08 0.11 0.19 0.03 0.00 0.00 0.00 0.00 0.00 0.00 0.00 0.00 0.02 0.01 0.06 0.02 0.03 0.04 0.00 0.00 0.00 0.00 0.02 0.07 0.15 0.14 0.15 0.08 0.09 0.36 0.75 0.36 0.18 0.11 0.08 0.03 0.04 0.07 0.01 0.02 0.01 0.01 0.01 0.00
0.00 0.00 0.00 0.02 0.03 0.03 0.07 0.11 0.16 0.08 0.00 0.00 0.00 0.00 0.00 0.00 0.00 0.03 0.01 0.06 0.14 0.02 0.04 0.07 0.02 0.00 0.00 0.00 0.02 0.03 0.05 0.09 0.10 0.23 0.28 0.42 0.97 0.50 0.26 0.10 0.07 0.01 0.02 0.03 0.03 0.01 0.01 0.05 0.05
0.00 0.00 0.00 0.00 0.00 0.03 0.04 0.03 0.13 0.07 0.03 0.01 0.01 0.00 0.01 0.00 0.01 0.03 0.02 0.04 0.06 0.03 0.02 0.10 0.12 0.01 0.00 0.00 0.00 0.01 0.03 0.04 0.06 0.12 0.16 0.61 0.78 0.73 0.93 0.17 0.08 0.07 0.11 0.04 0.01 0.02 0.02 0.04 0.01
0.00 0.00 0.00 0.00 0.00 0.00 0.03 0.12 0.12 0.03 0.09 0.08 0.08 0.03 0.03 0.00 0.01 0.03 0.02 0.10 0.08 0.03 0.04 0.04 0.05 0.04 0.03 0.00 0.00 0.06 0.04 0.04 0.04 0.06 0.06 0.13 0.18 0.25 0.28 0.31 0.25 0.16 0.13 0.09 0.12 0.08 0.09 0.06 0.01
0.00 0.00 0.00 0.00 0.00 0.00 0.00 0.03 0.04 0.31 0.13 0.12 0.09 0.09 0.10 0.03 0.01 0.00 0.01 0.16 0.57 0.34 0.17 0.17 0.05 0.03 0.02 0.03 0.01 0.12 0.05 0.02 0.02 0.04 0.03 0.09 0.08 0.25 0.23 0.21 0.23 0.15 0.15 0.15 0.22 0.09 0.05 0.04 0.02

GFSSGP_prec_precacc12_114.txt.gz
Total_Precipitation_Accumulation
0.00 0.00 0.09 0.18 0.43 0.21 0.00 0.00 0.00 0.00 0.00 0.01 0.01 0.00 0.00 0.00 0.00 0.00 0.01 0.06 0.03 0.00 0.04 0.01 0.02 0.03 0.02 0.00 0.01 0.04 0.09 0.08 0.09 0.05 0.07 0.04 0.03 0.03 0.03 0.03 0.06 0.06 0.04 0.04 0.06 0.06 0.03 0.00 0.01
0.00 0.03 0.13 0.20 0.36 0.03 0.00 0.00 0.00 0.00 0.00 0.00 0.00 0.01 0.01 0.00 0.00 0.00 0.03 0.07 0.01 0.00 0.00 0.00 0.04 0.05 0.01 0.01 0.01 0.03 0.06 0.05 0.03 0.06 0.10 0.09 0.05 0.04 0.05 0.02 0.04 0.07 0.05 0.05 0.03 0.02 0.01 0.01 0.00
0.00 0.16 0.25 0.34 0.30 0.02 0.00 0.00 0.00 0.00 0.00 0.00 0.01 0.03 0.00 0.00 0.00 0.00 0.03 0.02 0.02 0.01 0.01 0.00 0.01 0.01 0.00 0.00 0.00 0.01 0.02 0.03 0.03 0.05 0.10 0.08 0.06 0.05 0.04 0.06 0.10 0.09 0.05 0.07 0.05 0.04 0.02 0.03 0.01
0.00 0.13 0.09 0.19 0.13 0.00 0.00 0.00 0.00 0.00 0.00 0.00 0.00 0.00 0.00 0.00 0.00 0.00 0.07 0.12 0.04 0.09 0.06 0.00 0.00 0.00 0.00 0.01 0.02 0.01 0.02 0.02 0.03 0.07 0.12 0.10 0.13 0.08 0.05 0.02 0.03 0.04 0.02 0.04 0.04 0.02 0.02 0.02 0.00
0.00 0.04 0.24 0.20 0.06 0.01 0.00 0.00 0.00 0.00 0.00 0.01 0.02 0.00 0.00 0.00 0.00 0.01 0.03 0.08 0.10 0.09 0.00 0.00 0.00 0.00 0.00 0.01 0.02 0.03 0.01 0.02 0.06 0.04 0.13 0.13 0.12 0.07 0.04 0.02 0.03 0.01 0.01 0.00 0.01 0.00 0.00 0.01 0.00
0.02 0.04 0.10 0.12 0.07 0.02 0.00 0.00 0.00 0.01 0.01 0.02 0.00 0.00 0.01 0.01 0.01 0.03 0.04 0.05 0.02 0.00 0.00 0.00 0.00 0.00 0.00 0.02 0.01 0.01 0.00 0.06 0.15 0.07 0.08 0.15 0.08 0.04 0.03 0.01 0.01 0.00 0.02 0.01 0.00 0.00 0.00 0.00 0.00
0.07 0.24 0.26 0.12 0.08 0.07 0.01 0.00 0.00 0.01 0.01 0.02 0.00 0.00 0.03 0.11 0.10 0.10 0.01 0.00 0.03 0.01 0.00 0.00 0.00 0.00 0.00 0.01 0.00 0.01 0.10 0.08 0.08 0.10 0.06 0.03 0.00 0.00 0.01 0.00 0.00 0.00 0.00 0.00 0.00 0.00 0.00 0.00 0.00
0.21 0.33 0.38 0.27 0.15 0.10 0.00 0.00 0.00 0.00 0.02 0.00 0.00 0.00 0.00 0.03 0.06 0.03 0.00 0.03 0.06 0.01 0.01 0.00 0.00 0.01 0.01 0.01 0.01 0.04 0.01 0.00 0.01 0.02 0.01 0.02 0.01 0.00 0.01 0.04 0.00 0.00 0.00 0.00 0.00 0.00 0.00 0.00 0.00
0.12 0.37 0.78 0.33 0.07 0.03 0.00 0.02 0.01 0.01 0.00 0.00 0.00 0.00 0.00 0.00 0.01 0.00 0.01 0.10 0.10 0.01 0.04 0.05 0.01 0.02 0.01 0.01 0.00 0.02 0.02 0.09 0.12 0.12 0.14 0.23 0.10 0.02 0.04 0.04 0.00 0.00 0.00 0.00 0.02 0.03 0.02 0.00 0.00
0.75 1.72 1.46 0.47 0.06 0.02 0.00 0.02 0.00 0.00 0.00 0.01 0.00 0.00 0.00 0.00 0.00 0.00 0.00 0.02 0.05 0.08 0.06 0.09 0.01 0.00 0.00 0.00 0.00 0.00 0.09 0.16 0.16 0.25 0.34 0.16 0.10 0.06 0.04 0.04 0.00 0.01 0.01 0.00 0.01 0.10 0.10 0.02 0.01
0.55 2.12 2.18 0.84 0.17 0.13 0.01 0.00 0.00 0.00 0.00 0.00 0.00 0.00 0.00 0.00 0.00 0.00 0.00 0.01 0.01 0.01 0.01 0.02 0.00 0.00 0.00 0.00 0.00 0.01 0.01 0.01 0.02 0.16 0.17 0.07 0.09 0.05 0.02 0.04 0.07 0.04 0.07 0.10 0.02 0.16 0.45 0.03 0.01
0.34 1.09 1.49 1.50 0.31 0.21 0.04 0.00 0.00 0.00 0.00 0.00 0.00 0.00 0.00 0.00 0.00 0.00 0.00 0.00 0.00 0.01 0.00 0.00 0.00 0.00 0.00 0.00 0.03 0.02 0.01 0.01 0.01 0.03 0.07 0.11 0.13 0.41 0.38 0.31 0.47 0.16 0.04 0.25 0.09 0.01 0.00 0.00 0.00
0.32 0.92 0.51 0.87 0.29 0.18 0.04 0.00 0.00 0.01 0.00 0.00 0.00 0.00 0.00 0.00 0.00 0.00 0.00 0.00 0.00 0.00 0.00 0.00 0.00 0.00 0.00 0.01 0.08 0.02 0.01 0.01 0.00 0.12 0.10 0.10 0.12 0.12 0.04 0.30 0.27 0.28 0.11 0.02 0.00 0.00 0.00 0.00 0.00
0.19 0.30 0.17 0.22 0.32 0.15 0.02 0.00 0.00 0.01 0.00 0.00 0.00 0.00 0.00 0.00 0.00 0.00 0.00 0.00 0.00 0.00 0.00 0.00 0.00 0.00 0.00 0.00 0.00 0.01 0.03 0.00 0.02 0.09 0.51 0.29 0.05 0.09 0.07 0.11 0.05 0.14 0.08 0.02 0.01 0.00 0.00 0.00 0.00
0.27 0.53 0.40 0.53 0.52 0.28 0.04 0.03 0.00 0.00 0.00 0.00 0.00 0.00 0.00 0.00 0.00 0.00 0.00 0.00 0.00 0.00 0.00 0.00 0.00 0.00 0.00 0.00 0.00 0.01 0.02 0.01 0.02 0.04 0.12 0.16 0.09 0.07 0.10 0.06 0.02 0.03 0.05 0.03 0.00 0.00 0.00 0.02 0.05
1.31 0.99 0.84 1.01 0.49 0.43 0.16 0.21 0.04 0.00 0.00 0.00 0.00 0.00 0.00 0.00 0.00 0.00 0.00 0.00 0.00 0.00 0.00 0.00 0.00 0.00 0.00 0.00 0.00 0.00 0.01 0.01 0.02 0.00 0.02 0.03 0.07 0.05 0.04 0.07 0.07 0.13 0.13 0.05 0.03 0.00 0.00 0.02 0.04
0.94 1.40 0.86 0.63 0.46 0.31 0.34 0.27 0.12 0.01 0.00 0.00 0.00 0.00 0.00 0.00 0.00 0.00 0.00 0.00 0.00 0.00 0.00 0.00 0.00 0.00 0.00 0.00 0.00 0.00 0.00 0.00 0.00 0.01 0.02 0.01 0.02 0.05 0.03 0.05 0.06 0.12 0.06 0.03 0.03 0.00 0.00 0.00 0.02
0.39 0.53 0.85 0.69 0.46 0.54 0.78 0.48 0.10 0.02 0.00 0.00 0.00 0.00 0.00 0.00 0.00 0.00 0.00 0.00 0.00 0.00 0.00 0.00 0.00 0.00 0.00 0.00 0.00 0.00 0.00 0.00 0.00 0.00 0.01 0.00 0.01 0.01 0.01 0.02 0.02 0.06 0.06 0.04 0.01 0.00 0.00 0.00 0.01
0.10 0.65 0.93 1.07 0.72 0.68 0.84 0.82 0.31 0.04 0.02 0.01 0.00 0.00 0.00 0.00 0.00 0.00 0.00 0.00 0.00 0.00 0.00 0.00 0.00 0.00 0.00 0.00 0.01 0.00 0.00 0.01 0.00 0.01 0.00 0.00 0.00 0.01 0.00 0.01 0.03 0.35 0.08 0.02 0.01 0.00 0.00 0.00 0.01
0.19 0.78 0.83 1.25 0.91 0.78 1.11 1.13 0.66 0.13 0.10 0.01 0.00 0.00 0.00 0.00 0.00 0.00 0.00 0.00 0.00 0.00 0.00 0.00 0.00 0.01 0.01 0.00 0.00 0.00 0.00 0.00 0.00 0.00 0.00 0.00 0.01 0.01 0.02 0.03 0.06 0.10 0.04 0.02 0.02 0.00 0.00 0.00 0.00
0.18 0.32 0.45 0.71 0.78 0.68 0.94 1.32 1.09 0.26 0.08 0.04 0.02 0.00 0.01 0.00 0.00 0.00 0.00 0.00 0.00 0.00 0.00 0.00 0.01 0.01 0.03 0.04 0.02 0.03 0.06 0.03 0.08 0.07 0.01 0.00 0.00 0.00 0.05 0.05 0.09 0.03 0.03 0.02 0.02 0.01 0.01 0.00 0.00
0.41 0.25 0.32 0.28 0.21 0.17 0.21 0.75 0.71 0.42 0.16 0.04 0.02 0.01 0.01 0.01 0.01 0.01 0.00 0.00 0.00 0.00 0.00 0.00 0.01 0.00 0.05 0.12 0.10 0.14 0.08 0.05 0.07 0.05 0.04 0.00 0.00 0.00 0.00 0.02 0.06 0.03 0.11 0.04 0.03 0.00 0.01 0.01 0.00
0.06 0.11 0.19 0.37 0.23 0.08 0.07 0.21 0.24 0.22 0.20 0.13 0.00 0.01 0.01 0.02 0.01 0.01 0.00 0.00 0.00 0.00 0.00 0.00 0.01 0.02 0.03 0.13 0.23 0.11 0.09 0.17 0.30 0.11 0.22 0.10 0.02 0.00 0.00 0.00 0.00 0.03 0.05 0.03 0.01 0.01 0.01 0.01 0.02
0.01 0.11 0.22 0.22 0.33 0.21 0.03 0.05 0.06 0.01 0.01 0.01 0.00 0.00 0.01 0.02 0.04 0.01 0.01 0.00 0.00 0.00 0.00 0.00 0.00 0.03 0.03 0.06 0.08 0.17 0.18 0.19 0.24 0.48 0.25 0.17 0.10 0.02 0.01 0.01 0.01 0.01 0.02 0.04 0.00 0.03 0.00 0.00 0.01
0.05 0.17 0.17 0.10 0.07 0.05 0.03 0.02 0.02 0.00 0.00 0.00 0.00 0.00 0.00 0.01 0.03 0.02 0.02 0.00 0.00 0.02 0.00 0.00 0.00 0.01 0.01 0.02 0.08 0.11 0.13 0.11 0.24 0.19 0.38 0.52 0.20 0.10 0.06 0.06 0.04 0.01 0.01 0.02 0.00 0.01 0.01 0.00 0.01
0.01 0.00 0.08 0.13 0.08 0.12 0.16 0.22 0.05 0.01 0.00 0.00 0.00 0.00 0.00 0.00 0.00 0.02 0.01 0.06 0.02 0.03 0.04 0.00 0.00 0.00 0.00 0.02 0.05 0.06 0.08 0.11 0.05 0.05 0.32 0.69 0.32 0.18 0.10 0.05 0.02 0.00 0.03 0.01 0.02 0.00 0.00 0.01 0.00
0.00 0.00 0.00 0.02 0.03 0.03 0.08 0.12 0.16 0.08 0.00 0.00 0.00 0.00 0.00 0.00 0.00 0.03 0.01 0.06 0.14 0.02 0.04 0.07 0.02 0.00 0.00 0.00 0.01 0.01 0.07 0.07 0.05 0.18 0.19 0.37 0.89 0.47 0.24 0.08 0.03 0.00 0.00 0.00 0.02 0.01 0.01 0.05 0.05
0.00 0.00 0.00 0.00 0.00 0.03 0.04 0.03 0.13 0.07 0.03 0.01 0.01 0.00 0.01 0.00 0.01 0.03 0.02 0.04 0.06 0.03 0.03 0.12 0.12 0.01 0.00 0.00 0.00 0.00 0.02 0.03 0.02 0.04 0.06 0.53 0.66 0.63 0.89 0.18 0.07 0.03 0.03 0.00 0.01 0.03 0.02 0.01 0.01
0.00 0.00 0.00 0.00 0.00 0.00 0.03 0.12 0.12 0.03 0.09 0.09 0.08 0.03 0.03 0.00 0.01 0.03 0.02 0.10 0.08 0.03 0.05 0.04 0.07 0.06 0.03 0.00 0.00 0.00 0.00 0.01 0.01 0.01 0.01 0.03 0.05 0.13 0.19 0.23 0.24 0.11 0.03 0.06 0.17 0.10 0.09 0.05 0.02
0.00 0.00 0.00 0.00 0.00 0.00 0.00 0.03 0.04 0.31 0.13 0.12 0.09 0.10 0.10 0.03 0.01 0.00 0.01 0.16 0.57 0.33 0.16 0.18 0.06 0.06 0.02 0.00 0.00 0.02 0.00 0.00 0.00 0.00 0.00 0.01 0.03 0.18 0.14 0.12 0.16 0.06 0.05 0.09 0.24 0.11 0.06 0.03 0.03

GFSSGP_prec_precacc12_117.txt.gz
Total_Precipitation_Accumulation
0.00 0.01 0.09 0.21 0.39 0.21 0.00 0.00 0.00 0.00 0.02 0.01 0.01 0.00 0.00 0.00 0.00 0.00 0.01 0.06 0.03 0.00 0.04 0.01 0.05 0.06 0.02 0.01 0.02 0.03 0.08 0.08 0.09 0.03 0.06 0.05 0.05 0.03 0.05 0.04 0.05 0.03 0.02 0.03 0.03 0.03 0.02 0.02 0.03
0.00 0.04 0.14 0.26 0.31 0.03 0.00 0.00 0.00 0.00 0.00 0.00 0.00 0.00 0.00 0.00 0.00 0.00 0.03 0.07 0.01 0.00 0.00 0.00 0.03 0.03 0.02 0.03 0.01 0.03 0.06 0.05 0.03 0.08 0.12 0.13 0.07 0.05 0.04 0.03 0.01 0.01 0.01 0.01 0.01 0.02 0.00 0.00 0.01
0.02 0.19 0.19 0.31 0.27 0.02 0.00 0.00 0.00 0.00 0.00 0.00 0.01 0.02 0.00 0.00 0.00 0.00 0.03 0.02 0.01 0.00 0.00 0.00 0.01 0.01 0.00 0.01 0.00 0.01 0.02 0.04 0.04 0.05 0.11 0.10 0.05 0.01 0.01 0.03 0.06 0.04 0.01 0.02 0.01 0.01 0.01 0.00 0.02
0.01 0.12 0.06 0.19 0.10 0.00 0.00 0.00 0.00 0.00 0.00 0.00 0.00 0.00 0.00 0.00 0.00 0.00 0.07 0.11 0.02 0.07 0.04 0.00 0.02 0.01 0.00 0.01 0.03 0.02 0.03 0.05 0.04 0.05 0.05 0.03 0.03 0.02 0.02 0.02 0.02 0.03 0.01 0.02 0.02 0.01 0.01 0.00 0.04
0.00 0.03 0.16 0.17 0.02 0.00 0.00 0.00 0.00 0.00 0.00 0.00 0.00 0.00 0.00 0.00 0.00 0.01 0.02 0.06 0.08 0.08 0.00 0.00 0.01 0.01 0.00 0.01 0.03 0.04 0.03 0.02 0.04 0.05 0.09 0.08 0.08 0.04 0.03 0.02 0.02 0.01 0.01 0.00 0.00 0.00 0.00 0.00 0.00
0.01 0.01 0.05 0.05 0.00 0.00 0.00 0.00 0.00 0.00 0.00 0.02 0.00 0.00 0.02 0.03 0.01 0.02 0.04 0.05 0.04 0.03 0.00 0.00 0.00 0.01 0.00 0.02 0.02 0.01 0.04 0.02 0.06 0.06 0.04 0.07 0.05 0.03 0.03 0.01 0.01 0.00 0.01 0.01 0.00 0.00 0.00 0.00 0.00
0.05 0.20 0.21 0.06 0.02 0.00 0.00 0.00 0.00 0.01 0.01 0.00 0.00 0.00 0.03 0.16 0.14 0.11 0.02 0.02 0.03 0.01 0.00 0.00 0.00 0.00 0.00 0.02 0.02 0.01 0.11 0.10 0.06 0.03 0.02 0.01 0.00 0.00 0.01 0.00 0.00 0.00 0.00 0.00 0.00 0.00 0.00 0.00 0.00
0.19 0.21 0.35 0.24 0.08 0.01 0.00 0.00 0.01 0.00 0.02 0.00 0.00 0.00 0.00 0.03 0.12 0.05 0.00 0.03 0.05 0.01 0.01 0.00 0.00 0.00 0.01 0.02 0.05 0.06 0.01 0.01 0.00 0.00 0.00 0.01 0.01 0.00 0.00 0.03 0.00 0.00 0.00 0.00 0.00 0.00 0.01 0.01 0.00
0.14 0.25 0.69 0.30 0.05 0.01 0.00 0.02 0.01 0.00 0.00 0.00 0.00 0.00 0.01 0.00 0.02 0.00 0.01 0.10 0.10 0.01 0.04 0.05 0.01 0.04 0.03 0.06 0.02 0.02 0.02 0.07 0.09 0.10 0.19 0.27 0.12 0.03 0.03 0.03 0.00 0.00 0.00 0.00 0.02 0.04 0.03 0.00 0.00
0.71 1.70 1.25 0.45 0.07 0.02 0.00 0.02 0.00 0.00 0.00 0.01 0.00 0.00 0.01 0.02 0.00 0.00 0.00 0.02 0.08 0.08 0.05 0.08 0.01 0.00 0.01 0.03 0.04 0.06 0.14 0.20 0.19 0.24 0.36 0.16 0.10 0.06 0.04 0.04 0.02 0.03 0.01 0.00 0.01 0.12 0.12 0.03 0.01
0.45 2.07 2.10 0.84 0.16 0.12 0.01 0.00 0.00 0.00 0.00 0.00 0.00 0.00 0.00 0.00 0.00 0.01 0.00 0.01 0.03 0.01 0.01 0.02 0.00 0.00 0.02 0.12 0.06 0.02 0.03 0.02 0.02 0.16 0.17 0.07 0.09 0.05 0.02 0.04 0.07 0.04 0.07 0.10 0.02 0.16 0.45 0.03 0.01
0.27 1.01 1.53 1.52 0.31 0.21 0.05 0.00 0.00 0.00 0.00 0.00 0.00 0.00 0.00 0.00 0.00 0.03 0.03 0.01 0.00 0.02 0.01 0.00 0.00 0.00 0.01 0.04 0.10 0.04 0.01 0.01 0.03 0.06 0.09 0.11 0.13 0.41 0.38 0.31 0.47 0.16 0.04 0.25 0.09 0.01 0.00 0.00 0.00
0.26 0.84 0.51 0.88 0.32 0.18 0.06 0.02 0.00 0.01 0.00 0.00 0.00 0.00 0.00 0.00 0.00 0.01 0.04 0.00 0.01 0.00 0.00 0.00 0.00 0.00 0.01 0.04 0.11 0.05 0.02 0.02 0.01 0.13 0.10 0.10 0.12 0.12 0.04 0.30 0.27 0.28 0.11 0.02 0.00 0.00 0.00 0.00 0.00
0.17 0.39 0.21 0.22 0.36 0.18 0.12 0.02 0.02 0.03 0.00 0.00 0.00 0.00 0.00 0.00 0.00 0.00 0.00 0.00 0.00 0.00 0.00 0.00 0.00 0.00 0.01 0.04 0.01 0.03 0.03 0.02 0.04 0.11 0.53 0.29 0.05 0.09 0.07 0.11 0.05 0.16 0.11 0.03 0.01 0.00 0.00 0.00 0.00
0.32 0.53 0.39 0.58 0.59 0.32 0.10 0.05 0.02 0.03 0.00 0.00 0.00 0.00 0.00 0.00 0.00 0.00 0.00 0.00 0.00 0.00 0.00 0.00 0.00 0.00 0.01 0.04 0.01 0.01 0.03 0.01 0.02 0.04 0.12 0.16 0.10 0.07 0.10 0.06 0.02 0.03 0.06 0.03 0.01 0.01 0.00 0.02 0.05
1.15 1.32 1.04 1.40 0.75 0.46 0.18 0.12 0.02 0.00 0.01 0.00 0.00 0.00 0.00 0.00 0.00 0.00 0.00 0.00 0.00 0.00 0.00 0.00 0.00 0.00 0.00 0.00 0.00 0.01 0.01 0.02 0.02 0.00 0.04 0.03 0.08 0.05 0.04 0.07 0.07 0.13 0.13 0.05 0.04 0.00 0.00 0.02 0.04
0.63 1.28 1.60 1.36 1.04 0.39 0.30 0.21 0.08 0.03 0.00 0.00 0.00 0.00 0.00 0.00 0.00 0.00 0.00 0.00 0.00 0.00 0.00 0.00 0.00 0.00 0.00 0.00 0.00 0.00 0.00 0.00 0.00 0.01 0.02 0.01 0.03 0.06 0.06 0.07 0.06 0.13 0.07 0.05 0.03 0.00 0.00 0.00 0.02
0.16 0.38 0.94 1.02 0.78 0.52 0.55 0.37 0.10 0.04 0.00 0.00 0.00 0.00 0.00 0.00 0.00 0.00 0.00 0.00 0.00 0.00 0.00 0.00 0.00 0.00 0.00 0.00 0.00 0.00 0.00 0.01 0.00 0.01 0.01 0.01 0.02 0.04 0.04 0.03 0.05 0.13 0.09 0.04 0.01 0.02 0.00 0.00 0.01
0.07 0.43 0.82 0.90 0.76 0.70 0.66 0.70 0.29 0.04 0.00 0.00 0.00 0.00 0.00 0.00 0.00 0.00 0.00 0.00 0.00 0.00 0.00 0.00 0.00 0.00 0.00 0.00 0.01 0.00 0.00 0.01 0.00 0.02 0.01 0.01 0.02 0.01 0.00 0.01 0.04 0.36 0.08 0.02 0.02 0.00 0.00 0.00 0.01
0.20 0.74 0.65 0.70 0.79 0.77 0.97 0.92 0.51 0.11 0.05 0.00 0.00 0.00 0.00 0.00 0.00 0.00 0.00 0.00 0.00 0.00 0.00 0.00 0.00 0.00 0.00 0.00 0.00 0.00 0.00 0.00 0.01 0.00 0.00 0.01 0.01 0.01 0.02 0.03 0.06 0.09 0.04 0.02 0.03 0.00 0.00 0.00 0.00
0.18 0.27 0.26 0.29 0.52 0.55 0.84 1.02 0.87 0.25 0.04 0.01 0.02 0.00 0.01 0.00 0.00 0.00 0.00 0.00 0.00 0.00 0.00 0.00 0.00 0.00 0.01 0.04 0.01 0.01 0.02 0.01 0.07 0.08 0.04 0.02 0.02 0.00 0.05 0.05 0.09 0.03 0.03 0.02 0.03 0.01 0.01 0.00 0.00
0.41 0.24 0.07 0.07 0.17 0.16 0.20 0.60 0.58 0.37 0.05 0.01 0.01 0.00 0.00 0.01 0.00 0.01 0.00 0.00 0.00 0.00 0.00 0.00 0.00 0.00 0.03 0.09 0.06 0.04 0.05 0.04 0.05 0.05 0.04 0.02 0.04 0.02 0.01 0.02 0.06 0.04 0.10 0.04 0.04 0.00 0.01 0.01 0.00
0.06 0.11 0.06 0.25 0.22 0.08 0.07 0.17 0.22 0.24 0.16 0.03 0.00 0.01 0.01 0.02 0.01 0.01 0.00 0.00 0.00 0.00 0.00 0.00 0.01 0.02 0.03 0.07 0.06 0.06 0.08 0.14 0.24 0.11 0.22 0.10 0.03 0.01 0.00 0.00 0.01 0.03 0.05 0.03 0.01 0.01 0.01 0.01 0.02
0.01 0.11 0.21 0.21 0.33 0.21 0.03 0.04 0.05 0.02 0.03 0.01 0.00 0.00 0.01 0.01 0.04 0.01 0.01 0.00 0.00 0.00 0.00 0.00 0.00 0.03 0.03 0.03 0.07 0.15 0.16 0.17 0.19 0.46 0.25 0.17 0.10 0.02 0.01 0.01 0.01 0.01 0.02 0.03 0.00 0.03 0.00 0.00 0.01
0.05 0.17 0.16 0.09 0.08 0.05 0.03 0.02 0.01 0.00 0.00 0.00 0.00 0.00 0.00 0.01 0.02 0.02 0.00 0.00 0.00 0.01 0.00 0.00 0.00 0.01 0.01 0.02 0.08 0.11 0.12 0.11 0.19 0.17 0.37 0.36 0.18 0.10 0.06 0.06 0.04 0.01 0.01 0.01 0.01 0.01 0.00 0.00 0.00
0.01 0.01 0.06 0.13 0.10 0.12 0.17 0.23 0.05 0.01 0.00 0.00 0.00 0.00 0.00 0.00 0.00 0.02 0.01 0.05 0.01 0.01 0.02 0.00 0.00 0.00 0.00 0.02 0.04 0.06 0.08 0.11 0.05 0.04 0.21 0.61 0.31 0.16 0.09 0.05 0.02 0.00 0.03 0.01 0.03 0.00 0.00 0.01 0.00
0.00 0.00 0.00 0.01 0.02 0.02 0.07 0.12 0.16 0.08 0.00 0.00 0.00 0.00 0.00 0.00 0.00 0.01 0.01 0.06 0.09 0.02 0.03 0.07 0.02 0.00 0.00 0.00 0.01 0.01 0.07 0.07 0.04 0.02 0.08 0.30 0.89 0.46 0.24 0.09 0.03 0.00 0.00 0.00 0.02 0.01 0.01 0.05 0.05
0.00 0.00 0.00 0.00 0.00 0.02 0.04 0.03 0.12 0.06 0.03 0.01 0.01 0.00 0.01 0.00 0.00 0.02 0.02 0.04 0.06 0.03 0.03 0.12 0.12 0.01 0.00 0.00 0.00 0.00 0.02 0.03 0.02 0.03 0.06 0.28 0.54 0.57 0.78 0.13 0.03 0.03 0.03 0.00 0.01 0.03 0.02 0.01 0.01
0.00 0.00 0.00 0.00 0.00 0.00 0.03 0.12 0.12 0.03 0.09 0.09 0.08 0.03 0.03 0.00 0.00 0.00 0.02 0.06 0.09 0.06 0.05 0.04 0.07 0.06 0.03 0.00 0.00 0.00 0.00 0.01 0.01 0.01 0.01 0.03 0.05 0.11 0.17 0.12 0.11 0.04 0.03 0.05 0.10 0.09 0.07 0.05 0.03
0.00 0.00 0.00 0.00 0.00 0.00 0.00 0.02 0.04 0.31 0.13 0.12 0.09 0.11 0.10 0.04 0.01 0.00 0.00 0.13 0.55 0.35 0.16 0.17 0.06 0.06 0.02 0.00 0.00 0.02 0.00 0.00 0.00 0.00 0.00 0.01 0.03 0.10 0.13 0.10 0.12 0.06 0.06 0.17 0.27 0.13 0.09 0.04 0.05

GFSSGP_prec_precacc12_120.txt.gz
Total_Precipitation_Accumulation
0.00 0.01 0.10 0.19 0.27 0.07 0.00 0.00 0.00 0.00 0.02 0.01 0.02 0.01 0.00 0.00 0.00 0.00 0.00 0.04 0.03 0.00 0.04 0.08 0.16 0.11 0.08 0.06 0.02 0.03 0.04 0.06 0.07 0.02 0.01 0.03 0.04 0.03 0.05 0.04 0.05 0.08 0.02 0.02 0.03 0.04 0.09 0.08 0.07
0.00 0.05 0.15 0.18 0.15 0.02 0.00 0.00 0.00 0.01 0.03 0.00 0.00 0.00 0.00 0.00 0.00 0.00 0.03 0.07 0.00 0.00 0.00 0.02 0.09 0.07 0.05 0.05 0.02 0.02 0.03 0.04 0.02 0.04 0.08 0.08 0.06 0.06 0.06 0.02 0.01 0.03 0.01 0.02 0.09 0.09 0.11 0.18 0.13
0.02 0.19 0.12 0.21 0.13 0.00 0.00 0.00 0.00 0.00 0.00 0.00 0.00 0.00 0.00 0.00 0.00 0.00 0.03 0.02 0.01 0.00 0.00 0.01 0.05 0.03 0.01 0.04 0.05 0.02 0.02 0.03 0.03 0.03 0.07 0.08 0.04 0.01 0.01 0.03 0.03 0.01 0.00 0.01 0.02 0.05 0.11 0.11 0.16
0.01 0.11 0.04 0.04 0.02 0.00 0.00 0.00 0.00 0.00 0.00 0.00 0.00 0.00 0.00 0.00 0.00 0.00 0.07 0.11 0.02 0.02 0.03 0.00 0.04 0.02 0.01 0.01 0.03 0.01 0.01 0.04 0.04 0.03 0.03 0.03 0.03 0.03 0.02 0.01 0.01 0.00 0.00 0.01 0.06 0.08 0.06 0.06 0.11
0.00 0.02 0.14 0.08 0.01 0.00 0.00 0.00 0.00 0.00 0.00 0.00 0.00 0.00 0.00 0.00 0.00 0.01 0.02 0.06 0.08 0.07 0.00 0.00 0.04 0.01 0.01 0.01 0.03 0.02 0.03 0.03 0.04 0.05 0.07 0.05 0.06 0.04 0.03 0.02 0.02 0.01 0.00 0.00 0.00 0.01 0.01 0.04 0.03
0.00 0.00 0.02 0.01 0.00 0.00 0.00 0.00 0.00 0.00 0.00 0.00 0.00 0.00 0.02 0.04 0.01 0.02 0.04 0.05 0.04 0.04 0.00 0.00 0.02 0.01 0.01 0.02 0.03 0.01 0.04 0.04 0.06 0.07 0.06 0.08 0.11 0.09 0.02 0.01 0.01 0.01 0.00 0.00 0.00 0.00 0.00 0.00 0.01
0.02 0.14 0.14 0.02 0.00 0.00 0.00 0.00 0.00 0.00 0.00 0.00 0.00 0.00 0.03 0.17 0.16 0.10 0.03 0.02 0.00 0.00 0.00 0.00 0.01 0.01 0.05 0.10 0.05 0.03 0.15 0.11 0.07 0.03 0.05 0.07 0.03 0.00 0.00 0.00 0.00 0.00 0.00 0.00 0.00 0.00 0.00 0.00 0.00
0.12 0.13 0.20 0.15 0.02 0.00 0.00 0.00 0.00 0.00 0.00 0.00 0.00 0.00 0.00 0.04 0.16 0.05 0.02 0.02 0.02 0.00 0.00 0.01 0.10 0.10 0.05 0.08 0.12 0.12 0.04 0.01 0.01 0.02 0.04 0.04 0.01 0.00 0.00 0.02 0.00 0.00 0.00 0.00 0.00 0.00 0.02 0.02 0.00
0.10 0.18 0.51 0.27 0.06 0.01 0.00 0.02 0.01 0.00 0.00 0.00 0.00 0.00 0.01 0.00 0.02 0.00 0.01 0.09 0.09 0.01 0.02 0.09 0.06 0.08 0.09 0.15 0.04 0.04 0.04 0.06 0.09 0.13 0.23 0.21 0.12 0.03 0.02 0.02 0.01 0.00 0.01 0.03 0.06 0.08 0.05 0.01 0.00
0.55 1.04 1.05 0.43 0.09 0.03 0.00 0.02 0.00 0.00 0.00 0.01 0.00 0.00 0.01 0.02 0.00 0.00 0.00 0.02 0.08 0.08 0.04 0.03 0.01 0.00 0.03 0.09 0.08 0.13 0.14 0.16 0.19 0.24 0.18 0.11 0.09 0.06 0.04 0.07 0.05 0.08 0.04 0.01 0.04 0.14 0.13 0.04 0.00
0.36 1.15 1.42 0.75 0.16 0.13 0.01 0.00 0.00 0.00 0.00 0.00 0.00 0.00 0.00 0.00 0.00 0.02 0.00 0.01 0.03 0.01 0.00 0.01 0.00 0.00 0.07 0.18 0.11 0.03 0.04 0.02 0.02 0.14 0.07 0.07 0.09 0.06 0.02 0.03 0.08 0.05 0.07 0.03 0.01 0.16 0.44 0.00 0.01
0.20 0.56 1.02 1.23 0.31 0.20 0.05 0.00 0.00 0.00 0.00 0.00 0.00 0.00 0.00 0.00 0.00 0.03 0.03 0.00 0.00 0.02 0.01 0.00 0.00 0.00 0.01 0.05 0.10 0.04 0.01 0.01 0.03 0.06 0.09 0.11 0.13 0.41 0.21 0.15 0.42 0.16 0.04 0.01 0.01 0.01 0.00 0.00 0.00
0.17 0.78 0.47 0.79 0.30 0.18 0.06 0.02 0.00 0.01 0.00 0.00 0.00 0.00 0.00 0.00 0.00 0.04 0.05 0.00 0.04 0.01 0.00 0.00 0.00 0.00 0.01 0.05 0.11 0.05 0.02 0.02 0.01 0.04 0.05 0.10 0.11 0.11 0.03 0.15 0.12 0.28 0.10 0.02 0.00 0.00 0.00 0.00 0.00
0.18 0.42 0.26 0.27 0.38 0.16 0.16 0.03 0.02 0.03 0.01 0.00 0.00 0.00 0.00 0.00 0.00 0.00 0.01 0.00 0.00 0.01 0.00 0.00 0.00 0.00 0.03 0.04 0.01 0.03 0.01 0.02 0.04 0.08 0.16 0.06 0.04 0.08 0.06 0.09 0.04 0.12 0.10 0.03 0.00 0.00 0.00 0.00 0.00
0.31 0.53 0.44 0.68 0.61 0.25 0.20 0.11 0.07 0.04 0.01 0.00 0.00 0.00 0.00 0.00 0.00 0.00 0.00 0.00 0.00 0.00 0.00 0.00 0.00 0.00 0.03 0.05 0.04 0.04 0.04 0.02 0.02 0.03 0.02 0.04 0.11 0.07 0.06 0.04 0.01 0.03 0.06 0.03 0.01 0.01 0.00 0.02 0.05
1.04 1.27 1.17 1.60 0.79 0.39 0.21 0.14 0.11 0.01 0.01 0.00 0.00 0.00 0.00 0.00 0.00 0.00 0.00 0.00 0.00 0.00 0.00 0.00 0.00 0.00 0.00 0.01 0.03 0.01 0.05 0.02 0.02 0.02 0.07 0.03 0.09 0.05 0.03 0.06 0.07 0.13 0.13 0.05 0.04 0.00 0.00 0.02 0.04
0.44 0.76 1.62 1.51 1.20 0.42 0.28 0.16 0.09 0.06 0.01 0.00 0.00 0.00 0.00 0.00 0.00 0.00 0.00 0.00 0.00 0.00 0.00 0.00 0.00 0.00 0.01 0.00 0.01 0.04 0.00 0.00 0.00 0.01 0.06 0.09 0.05 0.06 0.05 0.07 0.06 0.13 0.07 0.05 0.03 0.00 0.00 0.00 0.02
0.09 0.16 0.62 1.17 0.87 0.61 0.46 0.28 0.13 0.05 0.00 0.00 0.00 0.00 0.00 0.00 0.00 0.00 0.00 0.00 0.00 0.00 0.00 0.00 0.00 0.00 0.00 0.00 0.00 0.01 0.00 0.02 0.01 0.01 0.02 0.05 0.04 0.04 0.03 0.02 0.05 0.11 0.08 0.04 0.01 0.02 0.00 0.00 0.01
0.06 0.11 0.28 0.57 0.78 0.92 0.68 0.56 0.21 0.03 0.00 0.00 0.00 0.00 0.00 0.00 0.00 0.00 0.00 0.00 0.00 0.00 0.00 0.00 0.00 0.00 0.00 0.00 0.01 0.00 0.00 0.01 0.01 0.02 0.01 0.02 0.03 0.01 0.01 0.01 0.03 0.04 0.03 0.02 0.02 0.00 0.00 0.00 0.01
0.16 0.17 0.24 0.51 0.70 0.74 1.01 0.91 0.34 0.09 0.01 0.00 0.00 0.00 0.00 0.00 0.00 0.00 0.00 0.00 0.00 0.00 0.00 0.00 0.00 0.00 0.00 0.00 0.00 0.00 0.00 0.00 0.01 0.01 0.01 0.01 0.03 0.05 0.02 0.02 0.03 0.04 0.02 0.02 0.03 0.00 0.00 0.00 0.00
0.12 0.12 0.07 0.18 0.25 0.32 0.80 0.93 0.68 0.17 0.02 0.00 0.00 0.00 0.00 0.00 0.00 0.00 0.00 0.00 0.00 0.00 0.00 0.00 0.00 0.00 0.00 0.01 0.00 0.01 0.00 0.00 0.06 0.07 0.04 0.03 0.03 0.01 0.03 0.05 0.06 0.02 0.02 0.02 0.03 0.00 0.00 0.00 0.00
0.31 0.21 0.06 0.03 0.05 0.16 0.20 0.49 0.35 0.29 0.05 0.00 0.00 0.00 0.00 0.00 0.00 0.00 0.00 0.00 0.00 0.00 0.00 0.00 0.00 0.00 0.00 0.01 0.02 0.00 0.03 0.03 0.03 0.06 0.04 0.02 0.04 0.03 0.01 0.02 0.06 0.03 0.03 0.01 0.03 0.00 0.00 0.00 0.00
0.05 0.11 0.04 0.06 0.04 0.06 0.06 0.13 0.11 0.16 0.15 0.00 0.00 0.00 0.00 0.00 0.00 0.00 0.00 0.00 0.00 0.00 0.00 0.00 0.00 0.00 0.00 0.00 0.01 0.02 0.03 0.02 0.01 0.03 0.12 0.08 0.02 0.01 0.00 0.00 0.02 0.03 0.01 0.00 0.00 0.01 0.00 0.00 0.01
0.01 0.09 0.19 0.08 0.03 0.04 0.01 0.02 0.02 0.02 0.03 0.00 0.00 0.00 0.00 0.00 0.01 0.01 0.01 0.00 0.00 0.00 0.00 0.00 0.00 0.00 0.00 0.00 0.02 0.02 0.01 0.01 0.03 0.07 0.09 0.12 0.09 0.02 0.01 0.01 0.02 0.02 0.01 0.01 0.00 0.03 0.00 0.00 0.01
0.05 0.17 0.14 0.08 0.05 0.04 0.03 0.01 0.01 0.00 0.00 0.00 0.00 0.00 0.00 0.00 0.01 0.01 0.00 0.00 0.00 0.00 0.00 0.00 0.00 0.00 0.00 0.01 0.05 0.05 0.05 0.03 0.04 0.07 0.24 0.19 0.13 0.09 0.06 0.06 0.04 0.01 0.00 0.00 0.01 0.00 0.00 0.00 0.00
0.01 0.01 0.05 0.11 0.12 0.07 0.14 0.22 0.05 0.01 0.00 0.00 0.00 0.00 0.00 0.00 0.00 0.00 0.00 0.00 0.00 0.00 0.00 0.00 0.00 0.00 0.00 0.01 0.02 0.04 0.06 0.11 0.04 0.02 0.09 0.03 0.05 0.05 0.05 0.04 0.02 0.00 0.01 0.00 0.02 0.00 0.00 0.00 0.00
0.01 0.02 0.01 0.01 0.00 0.01 0.03 0.07 0.13 0.05 0.00 0.00 0.00 0.00 0.00 0.00 0.00 0.00 0.01 0.02 0.01 0.00 0.00 0.01 0.01 0.00 0.00 0.00 0.00 0.01 0.07 0.06 0.02 0.01 0.00 0.00 0.21 0.17 0.10 0.07 0.03 0.00 0.00 0.00 0.00 0.00 0.00 0.00 0.00
0.02 0.05 0.00 0.00 0.00 0.01 0.00 0.00 0.01 0.04 0.03 0.01 0.01 0.00 0.00 0.00 0.00 0.01 0.01 0.01 0.02 0.01 0.02 0.05 0.05 0.01 0.00 0.00 0.00 0.00 0.02 0.03 0.01 0.00 0.01 0.00 0.10 0.34 0.13 0.09 0.05 0.03 0.01 0.00 0.00 0.01 0.00 0.00 0.00
0.02 0.01 0.00 0.00 0.00 0.00 0.00 0.00 0.05 0.02 0.08 0.09 0.08 0.02 0.01 0.00 0.00 0.00 0.00 0.02 0.02 0.06 0.05 0.04 0.06 0.06 0.03 0.00 0.00 0.00 0.00 0.01 0.01 0.00 0.01 0.01 0.01 0.08 0.04 0.06 0.14 0.08 0.02 0.03 0.07 0.03 0.00 0.02 0.03
0.02 0.00 0.00 0.00 0.00 0.00 0.00 0.00 0.00 0.00 0.04 0.11 0.09 0.11 0.10 0.04 0.01 0.00 0.00 0.01 0.07 0.10 0.02 0.06 0.04 0.03 0.03 0.00 0.00 0.02 0.00 0.00 0.00 0.00 0.00 0.00 0.02 0.07 0.05 0.02 0.05 0.08 0.05 0.15 0.28 0.11 0.06 0.03 0.05

GFSSGP_prec_precacc12_126.txt.gz
Total_Precipitation_Accumulation
0.00 0.01 0.02 0.04 0.01 0.01 0.00 0.00 0.00 0.00 0.02 0.00 0.00 0.00 0.00 0.00 0.00 0.03 0.00 0.00 0.00 0.00 0.03 0.17 0.34 0.34 0.32 0.39 0.16 0.07 0.04 0.03 0.06 0.04 0.03 0.06 0.06 0.05 0.06 0.05 0.08 0.11 0.04 0.06 0.12 0.13 0.23 0.18 0.12
0.00 0.02 0.02 0.07 0.01 0.00 0.00 0.00 0.00 0.01 0.03 0.00 0.00 0.00 0.00 0.00 0.00 0.00 0.00 0.00 0.00 0.00 0.02 0.10 0.29 0.35 0.31 0.29 0.10 0.06 0.04 0.08 0.08 0.10 0.09 0.10 0.07 0.06 0.05 0.03 0.02 0.04 0.07 0.13 0.27 0.25 0.20 0.24 0.19
0.01 0.03 0.00 0.00 0.00 0.00 0.00 0.00 0.00 0.00 0.00 0.00 0.00 0.00 0.00 0.00 0.00 0.00 0.00 0.00 0.00 0.00 0.00 0.05 0.20 0.26 0.19 0.14 0.09 0.02 0.05 0.09 0.11 0.10 0.09 0.10 0.04 0.02 0.02 0.03 0.03 0.05 0.04 0.08 0.12 0.20 0.20 0.16 0.17
0.00 0.00 0.00 0.00 0.00 0.00 0.00 0.00 0.00 0.00 0.00 0.00 0.00 0.00 0.00 0.00 0.00 0.00 0.00 0.00 0.00 0.00 0.01 0.02 0.10 0.15 0.13 0.07 0.04 0.03 0.08 0.12 0.07 0.08 0.05 0.03 0.03 0.04 0.04 0.01 0.00 0.01 0.01 0.04 0.09 0.14 0.10 0.08 0.11
0.00 0.00 0.00 0.00 0.00 0.00 0.00 0.00 0.00 0.00 0.00 0.00 0.00 0.00 0.00 0.00 0.00 0.00 0.00 0.00 0.00 0.00 0.00 0.01 0.06 0.04 0.11 0.10 0.06 0.05 0.10 0.07 0.02 0.04 0.05 0.04 0.04 0.03 0.02 0.02 0.02 0.01 0.00 0.00 0.00 0.01 0.01 0.04 0.04
0.00 0.00 0.00 0.00 0.00 0.00 0.00 0.00 0.00 0.00 0.00 0.00 0.00 0.00 0.00 0.03 0.00 0.00 0.00 0.00 0.03 0.04 0.00 0.00 0.02 0.03 0.10 0.07 0.10 0.05 0.05 0.06 0.10 0.07 0.06 0.07 0.10 0.08 0.03 0.02 0.02 0.01 0.00 0.00 0.00 0.00 0.00 0.01 0.02
0.00 0.01 0.01 0.00 0.00 0.00 0.00 0.00 0.00 0.00 0.00 0.00 0.00 0.00 0.00 0.06 0.05 0.01 0.02 0.02 0.00 0.00 0.00 0.00 0.01 0.03 0.17 0.26 0.10 0.09 0.13 0.12 0.12 0.07 0.07 0.10 0.05 0.02 0.01 0.00 0.00 0.00 0.00 0.00 0.00 0.00 0.00 0.00 0.00
0.02 0.01 0.01 0.00 0.00 0.00 0.00 0.00 0.00 0.00 0.00 0.00 0.00 0.00 0.00 0.01 0.09 0.02 0.01 0.00 0.00 0.00 0.00 0.03 0.11 0.18 0.27 0.23 0.22 0.15 0.10 0.05 0.04 0.04 0.07 0.06 0.02 0.02 0.01 0.00 0.00 0.00 0.00 0.00 0.00 0.00 0.02 0.02 0.00
0.03 0.06 0.05 0.03 0.03 0.01 0.00 0.00 0.00 0.00 0.00 0.00 0.00 0.00 0.01 0.00 0.01 0.00 0.00 0.00 0.00 0.00 0.00 0.06 0.06 0.13 0.30 0.39 0.13 0.12 0.08 0.05 0.04 0.06 0.13 0.07 0.03 0.01 0.00 0.01 0.01 0.01 0.01 0.03 0.04 0.05 0.03 0.01 0.00
0.08 0.26 0.12 0.06 0.04 0.01 0.00 0.00 0.00 0.00 0.00 0.00 0.00 0.00 0.01 0.02 0.00 0.00 0.00 0.00 0.03 0.00 0.00 0.00 0.00 0.01 0.12 0.29 0.16 0.25 0.15 0.08 0.05 0.03 0.03 0.01 0.00 0.03 0.01 0.05 0.06 0.07 0.03 0.01 0.02 0.04 0.03 0.02 0.00
0.05 0.23 0.09 0.04 0.04 0.01 0.00 0.00 0.00 0.00 0.00 0.00 0.00 0.00 0.00 0.00 0.00 0.02 0.00 0.00 0.02 0.00 0.00 0.00 0.00 0.02 0.11 0.19 0.12 0.03 0.04 0.01 0.00 0.00 0.00 0.00 0.00 0.00 0.00 0.00 0.01 0.01 0.00 0.00 0.00 0.00 0.00 0.00 0.00
0.10 0.05 0.11 0.06 0.04 0.01 0.00 0.00 0.00 0.00 0.00 0.00 0.00 0.00 0.00 0.00 0.00 0.03 0.03 0.00 0.00 0.00 0.00 0.00 0.00 0.00 0.01 0.05 0.07 0.02 0.00 0.00 0.02 0.03 0.02 0.00 0.00 0.00 0.01 0.00 0.00 0.00 0.00 0.00 0.00 0.00 0.00 0.00 0.00
0.09 0.08 0.01 0.04 0.06 0.02 0.02 0.02 0.00 0.00 0.00 0.00 0.00 0.00 0.00 0.00 0.00 0.04 0.05 0.00 0.04 0.01 0.00 0.00 0.00 0.00 0.01 0.05 0.03 0.03 0.01 0.01 0.01 0.00 0.00 0.00 0.00 0.00 0.00 0.00 0.00 0.00 0.00 0.00 0.00 0.00 0.00 0.00 0.00
0.13 0.22 0.10 0.09 0.09 0.05 0.15 0.03 0.02 0.02 0.01 0.00 0.00 0.00 0.00 0.00 0.00 0.00 0.01 0.00 0.00 0.01 0.00 0.00 0.00 0.00 0.03 0.04 0.01 0.02 0.00 0.01 0.02 0.02 0.01 0.00 0.00 0.00 0.00 0.00 0.00 0.02 0.02 0.01 0.00 0.00 0.00 0.00 0.00
0.14 0.26 0.17 0.32 0.34 0.17 0.24 0.21 0.07 0.04 0.01 0.00 0.00 0.00 0.00 0.00 0.00 0.00 0.00 0.00 0.00 0.00 0.00 0.00 0.00 0.00 0.03 0.05 0.04 0.04 0.08 0.03 0.00 0.00 0.00 0.01 0.02 0.00 0.00 0.00 0.00 0.00 0.00 0.00 0.01 0.01 0.00 0.00 0.00
0.07 0.66 0.57 0.88 0.77 0.25 0.25 0.17 0.16 0.02 0.00 0.00 0.00 0.00 0.00 0.00 0.00 0.00 0.00 0.00 0.00 0.00 0.00 0.00 0.00 0.00 0.00 0.01 0.03 0.01 0.04 0.01 0.00 0.01 0.05 0.02 0.02 0.00 0.00 0.00 0.00 0.00 0.00 0.00 0.01 0.00 0.00 0.00 0.00
0.01 0.22 1.17 1.17 1.11 0.47 0.23 0.33 0.14 0.08 0.02 0.00 0.00 0.00 0.00 0.00 0.00 0.00 0.00 0.00 0.00 0.00 0.00 0.00 0.00 0.00 0.01 0.00 0.02 0.04 0.00 0.00 0.00 0.01 0.05 0.09 0.03 0.02 0.03 0.03 0.01 0.01 0.01 0.02 0.00 0.00 0.00 0.00 0.00
0.01 0.12 0.37 0.83 0.75 0.75 0.22 0.28 0.16 0.10 0.02 0.00 0.00 0.00 0.00 0.00 0.00 0.00 0.00 0.00 0.00 0.00 0.00 0.00 0.01 0.00 0.00 0.00 0.00 0.01 0.00 0.02 0.01 0.01 0.01 0.05 0.03 0.03 0.03 0.01 0.02 0.08 0.03 0.00 0.00 0.01 0.00 0.00 0.00
0.00 0.07 0.19 0.22 0.47 0.94 0.57 0.36 0.28 0.08 0.01 0.00 0.00 0.00 0.00 0.00 0.00 0.00 0.00 0.00 0.00 0.00 0.00 0.01 0.03 0.04 0.01 0.00 0.00 0.01 0.00 0.01 0.01 0.01 0.01 0.03 0.06 0.03 0.02 0.00 0.01 0.01 0.00 0.00 0.00 0.00 0.00 0.00 0.00
0.02 0.09 0.13 0.08 0.24 0.54 0.74 0.42 0.26 0.08 0.02 0.00 0.00 0.00 0.00 0.00 0.00 0.00 0.00 0.00 0.00 0.00 0.00 0.00 0.02 0.02 0.02 0.00 0.00 0.00 0.02 0.00 0.00 0.01 0.02 0.01 0.03 0.06 0.01 0.00 0.00 0.00 0.00 0.00 0.00 0.00 0.00 0.00 0.00
0.03 0.03 0.06 0.06 0.07 0.17 0.42 0.42 0.31 0.20 0.04 0.00 0.00 0.00 0.00 0.00 0.00 0.00 0.00 0.00 0.00 0.00 0.00 0.00 0.00 0.03 0.11 0.05 0.00 0.00 0.03 0.06 0.06 0.06 0.08 0.04 0.03 0.01 0.00 0.00 0.00 0.00 0.00 0.00 0.01 0.00 0.00 0.00 0.00
0.01 0.00 0.00 0.06 0.07 0.18 0.21 0.25 0.14 0.21 0.08 0.00 0.00 0.00 0.00 0.00 0.00 0.00 0.00 0.00 0.00 0.00 0.00 0.00 0.00 0.00 0.02 0.04 0.02 0.04 0.01 0.02 0.05 0.06 0.06 0.07 0.07 0.03 0.01 0.00 0.00 0.01 0.00 0.00 0.01 0.00 0.00 0.00 0.00
0.01 0.00 0.00 0.02 0.01 0.02 0.05 0.06 0.05 0.13 0.17 0.01 0.00 0.00 0.00 0.00 0.00 0.00 0.00 0.00 0.00 0.00 0.00 0.00 0.00 0.00 0.00 0.03 0.13 0.08 0.02 0.04 0.03 0.02 0.06 0.06 0.05 0.00 0.00 0.02 0.02 0.02 0.01 0.00 0.00 0.00 0.02 0.00 0.00
0.00 0.00 0.00 0.00 0.00 0.02 0.01 0.02 0.03 0.02 0.03 0.02 0.00 0.00 0.00 0.00 0.00 0.00 0.00 0.00 0.00 0.00 0.00 0.00 0.00 0.00 0.00 0.03 0.05 0.04 0.07 0.05 0.02 0.05 0.03 0.02 0.02 0.00 0.00 0.01 0.06 0.06 0.02 0.00 0.00 0.00 0.01 0.02 0.03
0.00 0.00 0.02 0.06 0.04 0.04 0.00 0.01 0.01 0.00 0.00 0.01 0.00 0.00 0.00 0.00 0.00 0.00 0.00 0.00 0.00 0.00 0.00 0.00 0.00 0.00 0.00 0.00 0.00 0.02 0.04 0.04 0.03 0.05 0.01 0.00 0.00 0.00 0.03 0.09 0.08 0.06 0.05 0.03 0.02 0.03 0.01 0.00 0.01
0.01 0.00 0.02 0.11 0.09 0.03 0.04 0.03 0.02 0.00 0.00 0.00 0.00 0.00 0.00 0.00 0.00 0.00 0.00 0.00 0.00 0.00 0.00 0.00 0.00 0.00 0.00 0.00 0.00 0.00 0.06 0.04 0.01 0.02 0.01 0.01 0.00 0.00 0.01 0.01 0.05 0.04 0.03 0.01 0.03 0.01 0.00 0.00 0.00
0.01 0.03 0.02 0.02 0.01 0.01 0.01 0.00 0.00 0.00 0.00 0.00 0.00 0.00 0.00 0.00 0.00 0.00 0.00 0.00 0.00 0.00 0.00 0.00 0.00 0.00 0.00 0.00 0.00 0.00 0.00 0.01 0.00 0.04 0.04 0.02 0.00 0.00 0.00 0.01 0.01 0.04 0.02 0.05 0.01 0.00 0.00 0.00 0.00
0.05 0.10 0.07 0.02 0.03 0.02 0.00 0.00 0.02 0.00 0.00 0.00 0.00 0.00 0.00 0.00 0.00 0.00 0.00 0.00 0.00 0.00 0.00 0.00 0.00 0.00 0.00 0.00 0.00 0.00 0.00 0.00 0.00 0.06 0.04 0.00 0.00 0.01 0.02 0.02 0.03 0.03 0.02 0.03 0.09 0.04 0.01 0.01 0.00
0.03 0.02 0.04 0.02 0.01 0.01 0.02 0.00 0.00 0.01 0.00 0.00 0.00 0.00 0.00 0.00 0.00 0.00 0.00 0.01 0.00 0.03 0.00 0.00 0.00 0.00 0.00 0.00 0.00 0.00 0.00 0.00 0.00 0.00 0.05 0.00 0.00 0.00 0.00 0.00 0.04 0.06 0.03 0.02 0.11 0.12 0.05 0.04 0.06
0.03 0.00 0.03 0.01 0.03 0.00 0.01 0.00 0.00 0.00 0.00 0.00 0.00 0.00 0.00 0.01 0.01 0.01 0.01 0.00 0.00 0.01 0.00 0.00 0.00 0.00 0.01 0.00 0.00 0.00 0.00 0.00 0.00 0.00 0.00 0.00 0.00 0.00 0.00 0.00 0.01 0.04 0.01 0.10 0.23 0.14 0.11 0.08 0.05

GFSSGP_prec_precacc12_129.txt.gz
Total_Precipitation_Accumulation
0.00 0.01 0.01 0.00 0.08 0.01 0.00 0.00 0.00 0.00 0.00 0.00 0.01 0.01 0.01 0.01 0.04 0.08 0.00 0.00 0.00 0.00 0.03 0.16 0.32 0.29 0.31 0.39 0.20 0.08 0.06 0.05 0.08 0.05 0.05 0.05 0.04 0.05 0.08 0.08 0.10 0.12 0.05 0.06 0.15 0.19 0.27 0.19 0.11
0.00 0.01 0.00 0.03 0.05 0.01 0.00 0.00 0.00 0.01 0.03 0.00 0.00 0.00 0.00 0.00 0.00 0.00 0.00 0.00 0.00 0.01 0.02 0.10 0.29 0.36 0.29 0.28 0.13 0.06 0.04 0.09 0.11 0.11 0.07 0.06 0.05 0.05 0.08 0.04 0.02 0.05 0.07 0.13 0.28 0.25 0.21 0.25 0.19
0.00 0.00 0.00 0.03 0.02 0.00 0.00 0.00 0.00 0.00 0.00 0.00 0.00 0.00 0.00 0.00 0.00 0.00 0.00 0.01 0.03 0.03 0.00 0.05 0.21 0.28 0.22 0.16 0.11 0.05 0.08 0.11 0.13 0.11 0.07 0.06 0.02 0.03 0.03 0.05 0.03 0.05 0.04 0.09 0.13 0.18 0.19 0.16 0.16
0.00 0.00 0.00 0.00 0.00 0.00 0.00 0.00 0.00 0.00 0.00 0.00 0.00 0.00 0.00 0.00 0.00 0.00 0.00 0.01 0.03 0.06 0.01 0.02 0.12 0.19 0.16 0.09 0.07 0.11 0.15 0.20 0.11 0.12 0.05 0.05 0.04 0.04 0.04 0.02 0.00 0.02 0.02 0.05 0.10 0.14 0.10 0.08 0.08
0.00 0.00 0.00 0.00 0.00 0.00 0.00 0.00 0.00 0.00 0.00 0.00 0.00 0.00 0.00 0.00 0.00 0.00 0.00 0.00 0.01 0.02 0.00 0.01 0.08 0.09 0.12 0.12 0.11 0.15 0.17 0.11 0.03 0.03 0.04 0.04 0.04 0.03 0.02 0.02 0.02 0.01 0.00 0.00 0.00 0.01 0.01 0.04 0.04
0.00 0.00 0.03 0.00 0.00 0.00 0.00 0.00 0.00 0.00 0.00 0.00 0.00 0.00 0.00 0.00 0.00 0.00 0.00 0.00 0.01 0.01 0.02 0.00 0.02 0.05 0.12 0.11 0.15 0.08 0.05 0.08 0.12 0.09 0.07 0.07 0.10 0.08 0.03 0.02 0.02 0.01 0.00 0.00 0.00 0.00 0.00 0.01 0.02
0.03 0.01 0.00 0.00 0.00 0.00 0.00 0.00 0.01 0.00 0.00 0.00 0.00 0.00 0.00 0.01 0.02 0.00 0.01 0.00 0.00 0.01 0.01 0.00 0.01 0.03 0.18 0.32 0.12 0.11 0.11 0.08 0.10 0.08 0.09 0.11 0.06 0.02 0.01 0.00 0.00 0.00 0.00 0.00 0.00 0.00 0.00 0.00 0.00
0.00 0.01 0.00 0.00 0.00 0.00 0.00 0.00 0.00 0.00 0.00 0.00 0.00 0.00 0.00 0.01 0.04 0.00 0.01 0.00 0.00 0.00 0.00 0.03 0.11 0.18 0.30 0.23 0.27 0.18 0.11 0.04 0.04 0.06 0.08 0.06 0.02 0.02 0.01 0.00 0.00 0.00 0.00 0.00 0.00 0.00 0.01 0.02 0.00
0.00 0.12 0.12 0.01 0.01 0.00 0.00 0.00 0.00 0.00 0.00 0.00 0.00 0.00 0.00 0.00 0.00 0.00 0.00 0.00 0.00 0.00 0.01 0.06 0.06 0.11 0.33 0.40 0.17 0.13 0.08 0.05 0.08 0.06 0.08 0.03 0.00 0.00 0.00 0.01 0.01 0.01 0.01 0.03 0.04 0.04 0.02 0.00 0.00
0.01 0.05 0.19 0.05 0.03 0.00 0.00 0.00 0.00 0.00 0.00 0.00 0.00 0.00 0.00 0.00 0.00 0.00 0.00 0.00 0.00 0.00 0.01 0.03 0.01 0.01 0.11 0.29 0.18 0.21 0.09 0.02 0.01 0.02 0.01 0.00 0.00 0.03 0.01 0.04 0.05 0.05 0.03 0.01 0.02 0.03 0.01 0.01 0.00
0.04 0.11 0.03 0.04 0.04 0.00 0.00 0.00 0.00 0.00 0.00 0.00 0.00 0.00 0.00 0.00 0.00 0.00 0.00 0.00 0.00 0.01 0.00 0.01 0.00 0.02 0.09 0.08 0.06 0.01 0.02 0.00 0.00 0.00 0.00 0.00 0.00 0.00 0.00 0.00 0.00 0.01 0.00 0.00 0.00 0.00 0.00 0.00 0.00
0.14 0.06 0.03 0.04 0.03 0.00 0.01 0.00 0.00 0.00 0.00 0.00 0.00 0.00 0.00 0.00 0.00 0.00 0.00 0.00 0.00 0.00 0.00 0.00 0.00 0.00 0.01 0.01 0.00 0.00 0.00 0.00 0.00 0.00 0.00 0.00 0.00 0.00 0.00 0.00 0.00 0.00 0.00 0.00 0.00 0.00 0.00 0.00 0.00
0.09 0.06 0.01 0.03 0.02 0.00 0.00 0.00 0.00 0.00 0.00 0.00 0.00 0.00 0.00 0.00 0.00 0.03 0.01 0.00 0.02 0.01 0.00 0.00 0.00 0.00 0.00 0.01 0.00 0.00 0.00 0.00 0.00 0.00 0.00 0.00 0.00 0.00 0.00 0.00 0.00 0.00 0.00 0.00 0.00 0.00 0.00 0.00 0.00
0.11 0.10 0.07 0.08 0.04 0.01 0.04 0.02 0.00 0.00 0.00 0.00 0.00 0.00 0.00 0.00 0.00 0.00 0.00 0.00 0.00 0.01 0.00 0.00 0.00 0.00 0.01 0.00 0.00 0.00 0.00 0.00 0.00 0.00 0.00 0.00 0.00 0.00 0.00 0.00 0.00 0.00 0.00 0.00 0.00 0.00 0.00 0.00 0.00
0.02 0.20 0.27 0.30 0.21 0.08 0.18 0.22 0.06 0.01 0.01 0.00 0.00 0.00 0.00 0.00 0.00 0.00 0.00 0.00 0.00 0.00 0.00 0.00 0.00 0.00 0.02 0.02 0.03 0.04 0.07 0.03 0.00 0.00 0.00 0.00 0.01 0.00 0.00 0.00 0.00 0.00 0.00 0.00 0.00 0.00 0.00 0.00 0.00
0.02 0.18 0.41 0.43 0.35 0.16 0.23 0.21 0.16 0.01 0.00 0.00 0.00 0.00 0.00 0.00 0.00 0.00 0.00 0.00 0.00 0.00 0.00 0.00 0.00 0.00 0.00 0.00 0.02 0.00 0.04 0.01 0.00 0.01 0.04 0.02 0.02 0.00 0.00 0.00 0.00 0.00 0.00 0.00 0.00 0.00 0.00 0.00 0.00
0.02 0.15 0.35 0.35 0.37 0.31 0.22 0.33 0.13 0.06 0.02 0.00 0.00 0.00 0.00 0.00 0.00 0.00 0.00 0.00 0.00 0.00 0.00 0.00 0.00 0.00 0.01 0.00 0.02 0.04 0.00 0.00 0.00 0.01 0.05 0.09 0.02 0.00 0.00 0.00 0.00 0.03 0.03 0.00 0.00 0.00 0.00 0.00 0.00
0.04 0.05 0.12 0.42 0.35 0.56 0.21 0.27 0.33 0.08 0.02 0.00 0.00 0.00 0.00 0.00 0.00 0.00 0.00 0.00 0.00 0.00 0.00 0.00 0.01 0.00 0.00 0.00 0.00 0.01 0.00 0.01 0.00 0.00 0.01 0.04 0.02 0.00 0.00 0.00 0.00 0.35 0.11 0.00 0.00 0.00 0.00 0.00 0.00
0.00 0.03 0.09 0.13 0.34 0.75 0.46 0.25 0.29 0.08 0.02 0.01 0.00 0.00 0.00 0.00 0.00 0.00 0.00 0.00 0.00 0.00 0.00 0.01 0.04 0.07 0.04 0.00 0.00 0.01 0.00 0.00 0.00 0.00 0.00 0.02 0.04 0.02 0.02 0.00 0.00 0.06 0.07 0.01 0.00 0.00 0.00 0.00 0.00
0.00 0.05 0.11 0.09 0.15 0.46 0.69 0.43 0.29 0.08 0.03 0.01 0.00 0.00 0.00 0.00 0.00 0.00 0.00 0.00 0.00 0.00 0.00 0.00 0.03 0.03 0.04 0.00 0.00 0.00 0.02 0.00 0.00 0.01 0.02 0.00 0.03 0.05 0.00 0.00 0.00 0.01 0.02 0.00 0.00 0.00 0.00 0.00 0.00
0.03 0.03 0.07 0.10 0.05 0.15 0.46 0.51 0.36 0.20 0.07 0.01 0.00 0.00 0.00 0.00 0.00 0.00 0.00 0.00 0.00 0.00 0.00 0.00 0.00 0.05 0.13 0.07 0.00 0.01 0.04 0.06 0.06 0.05 0.05 0.02 0.01 0.01 0.00 0.00 0.02 0.00 0.00 0.00 0.00 0.00 0.00 0.05 0.00
0.01 0.00 0.00 0.06 0.15 0.32 0.26 0.43 0.21 0.21 0.15 0.04 0.00 0.00 0.00 0.00 0.00 0.00 0.00 0.00 0.00 0.00 0.00 0.00 0.00 0.01 0.02 0.05 0.04 0.05 0.01 0.02 0.05 0.06 0.05 0.06 0.02 0.00 0.00 0.00 0.00 0.00 0.00 0.00 0.00 0.00 0.00 0.00 0.00
0.01 0.00 0.00 0.02 0.01 0.10 0.10 0.24 0.14 0.07 0.17 0.05 0.00 0.00 0.00 0.00 0.00 0.00 0.00 0.00 0.00 0.00 0.00 0.00 0.00 0.00 0.00 0.04 0.15 0.09 0.02 0.05 0.03 0.02 0.06 0.06 0.04 0.00 0.00 0.02 0.00 0.00 0.00 0.01 0.00 0.00 0.02 0.00 0.00
0.00 0.00 0.00 0.00 0.01 0.06 0.06 0.06 0.18 0.02 0.02 0.03 0.00 0.00 0.00 0.00 0.00 0.00 0.00 0.00 0.00 0.00 0.00 0.00 0.00 0.00 0.00 0.05 0.06 0.04 0.07 0.05 0.03 0.06 0.03 0.02 0.02 0.00 0.00 0.01 0.06 0.06 0.02 0.00 0.01 0.00 0.01 0.02 0.03
0.00 0.00 0.02 0.08 0.04 0.06 0.07 0.05 0.08 0.00 0.00 0.01 0.00 0.00 0.00 0.00 0.00 0.00 0.00 0.00 0.00 0.00 0.00 0.00 0.00 0.00 0.00 0.00 0.00 0.02 0.04 0.04 0.03 0.05 0.01 0.01 0.00 0.00 0.03 0.09 0.08 0.06 0.05 0.03 0.01 0.05 0.01 0.00 0.01
0.01 0.00 0.02 0.09 0.07 0.07 0.06 0.07 0.13 0.00 0.00 0.00 0.00 0.00 0.00 0.00 0.00 0.00 0.00 0.00 0.00 0.00 0.00 0.00 0.00 0.00 0.00 0.00 0.00 0.00 0.06 0.05 0.01 0.02 0.01 0.02 0.00 0.00 0.01 0.01 0.05 0.04 0.03 0.01 0.02 0.01 0.00 0.00 0.00
0.01 0.03 0.03 0.01 0.02 0.02 0.07 0.01 0.02 0.00 0.00 0.00 0.00 0.00 0.01 0.00 0.00 0.00 0.00 0.00 0.00 0.00 0.00 0.00 0.00 0.00 0.00 0.00 0.00 0.00 0.00 0.01 0.01 0.04 0.05 0.03 0.00 0.01 0.01 0.00 0.02 0.05 0.03 0.05 0.02 0.00 0.00 0.01 0.00
0.06 0.14 0.07 0.02 0.05 0.05 0.02 0.04 0.06 0.02 0.01 0.00 0.00 0.00 0.00 0.01 0.00 0.00 0.00 0.00 0.00 0.00 0.00 0.00 0.00 0.00 0.00 0.00 0.00 0.00 0.00 0.00 0.00 0.07 0.04 0.00 0.00 0.03 0.08 0.02 0.05 0.03 0.04 0.06 0.11 0.04 0.01 0.03 0.00
0.04 0.03 0.04 0.02 0.02 0.10 0.08 0.04 0.00 0.04 0.01 0.00 0.00 0.00 0.03 0.01 0.01 0.00 0.00 0.00 0.00 0.00 0.00 0.00 0.00 0.00 0.00 0.00 0.00 0.00 0.00 0.00 0.00 0.00 0.05 0.00 0.00 0.00 0.03 0.01 0.04 0.06 0.09 0.10 0.20 0.17 0.05 0.05 0.05
0.17 0.04 0.14 0.02 0.04 0.11 0.12 0.02 0.00 0.00 0.00 0.00 0.00 0.00 0.09 0.09 0.03 0.01 0.01 0.00 0.00 0.00 0.00 0.00 0.00 0.00 0.01 0.00 0.00 0.00 0.00 0.00 0.00 0.00 0.00 0.00 0.00 0.00 0.00 0.01 0.00 0.03 0.00 0.02 0.24 0.16 0.09 0.14 0.04

GFSSGP_prec_precacc12_132.txt.gz
Total_Precipitation_Accumulation
0.00 0.01 0.03 0.63 0.77 0.05 0.01 0.00 0.00 0.00 0.00 0.01 0.01 0.02 0.04 0.15 0.11 0.11 0.00 0.00 0.00 0.00 0.03 0.09 0.21 0.23 0.28 0.34 0.19 0.13 0.10 0.06 0.10 0.07 0.07 0.07 0.05 0.07 0.08 0.09 0.10 0.05 0.04 0.06 0.14 0.20 0.23 0.15 0.07
0.00 0.03 0.11 0.72 0.21 0.01 0.00 0.00 0.00 0.00 0.00 0.00 0.02 0.01 0.01 0.00 0.00 0.00 0.00 0.00 0.00 0.01 0.03 0.08 0.21 0.30 0.28 0.26 0.12 0.07 0.06 0.10 0.12 0.14 0.10 0.08 0.05 0.06 0.07 0.04 0.01 0.03 0.07 0.12 0.19 0.17 0.12 0.08 0.07
0.02 0.02 0.46 0.87 0.03 0.00 0.00 0.00 0.00 0.00 0.00 0.01 0.00 0.00 0.00 0.00 0.00 0.00 0.00 0.01 0.04 0.06 0.01 0.04 0.17 0.26 0.21 0.14 0.08 0.05 0.09 0.12 0.14 0.12 0.09 0.09 0.04 0.03 0.04 0.06 0.02 0.06 0.06 0.11 0.12 0.15 0.09 0.06 0.01
0.02 0.00 0.09 0.03 0.00 0.00 0.00 0.00 0.00 0.00 0.00 0.01 0.00 0.00 0.00 0.00 0.00 0.00 0.00 0.03 0.14 0.14 0.01 0.02 0.10 0.18 0.16 0.10 0.09 0.17 0.18 0.22 0.11 0.12 0.06 0.05 0.03 0.03 0.04 0.02 0.00 0.02 0.03 0.06 0.05 0.07 0.04 0.01 0.00
0.00 0.14 0.38 0.01 0.00 0.00 0.00 0.00 0.00 0.03 0.00 0.01 0.00 0.00 0.00 0.00 0.00 0.00 0.00 0.01 0.03 0.05 0.00 0.01 0.05 0.09 0.12 0.16 0.15 0.19 0.19 0.12 0.04 0.04 0.05 0.06 0.04 0.02 0.01 0.01 0.01 0.00 0.00 0.00 0.00 0.00 0.00 0.00 0.01
0.07 0.34 0.36 0.00 0.00 0.00 0.00 0.00 0.00 0.00 0.05 0.01 0.00 0.00 0.00 0.00 0.00 0.01 0.01 0.01 0.02 0.01 0.02 0.00 0.00 0.05 0.13 0.13 0.17 0.11 0.05 0.07 0.12 0.07 0.04 0.02 0.02 0.02 0.02 0.01 0.02 0.00 0.00 0.00 0.00 0.00 0.00 0.01 0.01
1.00 0.63 0.02 0.01 0.00 0.00 0.00 0.00 0.01 0.00 0.00 0.01 0.00 0.00 0.00 0.00 0.00 0.01 0.01 0.03 0.07 0.02 0.01 0.00 0.00 0.03 0.14 0.25 0.11 0.09 0.08 0.08 0.09 0.07 0.06 0.05 0.02 0.01 0.01 0.00 0.00 0.00 0.00 0.00 0.00 0.00 0.00 0.00 0.00
0.49 0.30 0.03 0.00 0.01 0.01 0.00 0.00 0.00 0.01 0.01 0.00 0.00 0.00 0.00 0.00 0.00 0.01 0.02 0.01 0.00 0.01 0.01 0.02 0.01 0.09 0.27 0.18 0.19 0.12 0.09 0.04 0.04 0.04 0.04 0.04 0.02 0.01 0.01 0.00 0.00 0.00 0.00 0.00 0.00 0.00 0.00 0.00 0.00
0.03 0.69 0.31 0.09 0.00 0.00 0.00 0.00 0.00 0.00 0.00 0.01 0.02 0.01 0.00 0.00 0.00 0.02 0.01 0.00 0.00 0.01 0.02 0.12 0.11 0.07 0.30 0.32 0.16 0.12 0.06 0.05 0.07 0.03 0.04 0.05 0.00 0.00 0.00 0.00 0.01 0.01 0.00 0.00 0.00 0.00 0.00 0.00 0.00
0.13 0.40 0.50 0.16 0.05 0.00 0.01 0.00 0.00 0.00 0.00 0.00 0.01 0.00 0.00 0.00 0.00 0.00 0.00 0.00 0.00 0.00 0.23 0.32 0.16 0.03 0.10 0.23 0.15 0.15 0.05 0.03 0.00 0.00 0.08 0.20 0.01 0.03 0.01 0.01 0.01 0.00 0.00 0.00 0.00 0.00 0.00 0.00 0.00
0.13 0.34 0.08 0.03 0.04 0.01 0.00 0.00 0.00 0.00 0.00 0.00 0.02 0.00 0.00 0.00 0.01 0.00 0.00 0.00 0.00 0.02 0.07 0.35 0.25 0.38 0.04 0.01 0.01 0.00 0.01 0.00 0.00 0.00 0.01 0.00 0.01 0.03 0.00 0.00 0.00 0.00 0.00 0.00 0.00 0.00 0.00 0.00 0.00
0.15 0.05 0.02 0.02 0.07 0.02 0.01 0.00 0.00 0.01 0.00 0.00 0.00 0.00 0.00 0.00 0.00 0.00 0.00 0.00 0.00 0.00 0.01 0.03 0.04 0.08 0.02 0.06 0.06 0.00 0.00 0.00 0.00 0.00 0.00 0.01 0.04 0.09 0.02 0.00 0.00 0.00 0.00 0.00 0.00 0.00 0.00 0.00 0.00
0.14 0.02 0.00 0.02 0.01 0.02 0.03 0.01 0.00 0.00 0.00 0.00 0.00 0.00 0.00 0.00 0.00 0.01 0.00 0.00 0.00 0.00 0.00 0.00 0.00 0.04 0.08 0.26 0.15 0.00 0.00 0.00 0.00 0.00 0.28 0.13 0.00 0.00 0.00 0.00 0.00 0.00 0.00 0.00 0.00 0.00 0.00 0.00 0.00
0.24 0.05 0.01 0.02 0.02 0.01 0.11 0.04 0.00 0.00 0.00 0.00 0.00 0.00 0.00 0.00 0.00 0.01 0.00 0.00 0.00 0.00 0.00 0.00 0.01 0.00 0.01 0.01 0.01 0.00 0.03 0.00 0.00 0.00 0.01 0.01 0.00 0.00 0.00 0.00 0.00 0.00 0.00 0.00 0.00 0.00 0.00 0.00 0.00
0.02 0.16 0.21 0.18 0.17 0.05 0.51 0.44 0.02 0.01 0.00 0.00 0.00 0.00 0.00 0.00 0.02 0.00 0.00 0.00 0.00 0.00 0.00 0.00 0.00 0.00 0.00 0.00 0.00 0.02 0.10 0.02 0.00 0.00 0.00 0.00 0.01 0.00 0.00 0.00 0.00 0.00 0.00 0.00 0.00 0.00 0.00 0.00 0.00
0.01 0.10 0.26 0.19 0.26 0.08 0.27 0.35 0.08 0.01 0.00 0.00 0.00 0.00 0.00 0.00 0.00 0.00 0.00 0.00 0.00 0.00 0.00 0.00 0.00 0.00 0.00 0.00 0.00 0.01 0.01 0.00 0.00 0.00 0.00 0.01 0.02 0.00 0.00 0.01 0.01 0.00 0.03 0.02 0.00 0.00 0.00 0.00 0.00
0.04 0.14 0.35 0.21 0.10 0.18 0.18 0.31 0.15 0.07 0.01 0.00 0.00 0.00 0.00 0.00 0.00 0.00 0.00 0.00 0.00 0.00 0.00 0.00 0.00 0.00 0.02 0.00 0.01 0.00 0.00 0.00 0.01 0.00 0.01 0.00 0.00 0.00 0.02 0.33 0.13 0.29 0.71 0.10 0.02 0.00 0.00 0.00 0.00
0.05 0.08 0.23 0.33 0.12 0.31 0.17 0.21 0.42 0.14 0.04 0.01 0.00 0.00 0.00 0.00 0.00 0.00 0.00 0.00 0.00 0.00 0.00 0.00 0.01 0.00 0.00 0.00 0.00 0.00 0.08 0.01 0.00 0.00 0.01 0.01 0.02 0.00 0.06 0.10 0.13 0.98 0.37 0.32 0.04 0.00 0.00 0.00 0.00
0.00 0.01 0.23 0.19 0.12 0.29 0.31 0.20 0.63 0.37 0.08 0.01 0.00 0.00 0.00 0.00 0.00 0.00 0.00 0.00 0.00 0.00 0.00 0.01 0.04 0.07 0.04 0.00 0.00 0.01 0.00 0.00 0.00 0.00 0.00 0.06 0.08 0.02 0.05 0.09 0.14 1.05 0.82 0.21 0.00 0.00 0.00 0.00 0.00
0.00 0.03 0.10 0.10 0.02 0.26 0.40 0.20 0.26 0.29 0.12 0.02 0.01 0.00 0.00 0.00 0.00 0.00 0.00 0.00 0.00 0.00 0.00 0.00 0.04 0.03 0.04 0.01 0.01 0.02 0.02 0.00 0.00 0.00 0.01 0.00 0.01 0.02 0.02 0.07 0.65 0.77 0.25 0.06 0.00 0.01 0.02 0.05 0.03
0.03 0.03 0.08 0.12 0.04 0.11 0.35 0.33 0.23 0.17 0.24 0.17 0.01 0.00 0.00 0.00 0.00 0.00 0.00 0.00 0.00 0.00 0.00 0.00 0.00 0.05 0.14 0.10 0.05 0.04 0.05 0.07 0.06 0.05 0.05 0.01 0.00 0.00 0.04 0.00 0.13 0.19 0.77 0.48 0.01 0.01 0.06 0.61 0.14
0.01 0.00 0.01 0.06 0.16 0.32 0.24 0.43 0.24 0.16 0.29 0.88 0.12 0.00 0.00 0.00 0.00 0.00 0.00 0.00 0.00 0.00 0.00 0.00 0.00 0.02 0.02 0.05 0.06 0.07 0.02 0.03 0.05 0.06 0.05 0.05 0.02 0.00 0.00 0.00 0.00 0.02 0.13 0.13 0.01 0.00 0.02 0.07 0.51
0.01 0.00 0.00 0.02 0.01 0.12 0.12 0.24 0.30 0.13 0.16 0.41 0.28 0.00 0.00 0.00 0.00 0.00 0.00 0.00 0.00 0.00 0.00 0.00 0.00 0.03 0.03 0.06 0.19 0.11 0.03 0.28 0.09 0.03 0.07 0.06 0.05 0.00 0.00 0.02 0.00 0.00 0.01 0.04 0.01 0.02 0.03 0.02 0.07
0.00 0.00 0.00 0.00 0.01 0.07 0.07 0.06 0.28 0.13 0.04 0.07 0.02 0.02 0.00 0.00 0.00 0.00 0.00 0.00 0.00 0.00 0.00 0.00 0.00 0.01 0.04 0.07 0.08 0.07 0.12 0.29 0.09 0.10 0.04 0.02 0.02 0.00 0.00 0.01 0.05 0.05 0.03 0.03 0.03 0.02 0.02 0.02 0.04
0.00 0.00 0.02 0.08 0.03 0.09 0.10 0.11 0.12 0.03 0.00 0.02 0.01 0.00 0.00 0.00 0.00 0.00 0.00 0.00 0.00 0.00 0.00 0.00 0.00 0.00 0.00 0.00 0.00 0.03 0.07 0.09 0.05 0.06 0.01 0.01 0.00 0.00 0.03 0.10 0.09 0.06 0.06 0.04 0.02 0.07 0.02 0.01 0.02
0.00 0.00 0.02 0.16 0.08 0.10 0.09 0.15 0.23 0.02 0.00 0.00 0.02 0.01 0.01 0.00 0.00 0.00 0.00 0.00 0.00 0.00 0.00 0.00 0.00 0.00 0.00 0.00 0.00 0.01 0.08 0.06 0.01 0.02 0.01 0.02 0.01 0.02 0.09 0.08 0.05 0.04 0.03 0.02 0.02 0.01 0.00 0.02 0.09
0.00 0.01 0.02 0.02 0.05 0.02 0.12 0.41 0.16 0.04 0.01 0.00 0.00 0.05 0.04 0.02 0.00 0.00 0.00 0.00 0.00 0.00 0.00 0.00 0.00 0.00 0.00 0.00 0.00 0.01 0.02 0.01 0.01 0.05 0.06 0.04 0.01 0.07 0.24 0.10 0.05 0.05 0.03 0.06 0.02 0.00 0.00 0.02 0.03
0.05 0.10 0.06 0.02 0.06 0.06 0.06 0.33 0.47 0.12 0.41 0.03 0.00 0.01 0.01 0.09 0.01 0.00 0.00 0.00 0.00 0.00 0.00 0.00 0.00 0.00 0.00 0.00 0.00 0.00 0.00 0.00 0.01 0.12 0.14 0.04 0.08 0.29 0.33 0.11 0.05 0.04 0.04 0.08 0.13 0.05 0.02 0.07 0.02
0.02 0.03 0.04 0.02 0.03 0.14 0.20 0.13 0.24 0.26 0.12 0.01 0.00 0.00 0.03 0.04 0.02 0.00 0.00 0.00 0.00 0.00 0.00 0.00 0.00 0.00 0.00 0.00 0.00 0.00 0.00 0.00 0.01 0.04 0.10 0.02 0.05 0.09 0.07 0.05 0.02 0.01 0.11 0.14 0.26 0.22 0.12 0.14 0.11
0.17 0.11 0.15 0.03 0.11 0.22 0.21 0.11 0.03 0.02 0.00 0.00 0.00 0.00 0.13 0.22 0.16 0.04 0.01 0.00 0.00 0.00 0.00 0.00 0.00 0.00 0.00 0.00 0.00 0.00 0.00 0.00 0.00 0.00 0.01 0.02 0.03 0.05 0.02 0.07 0.06 0.04 0.03 0.06 0.24 0.17 0.16 0.27 0.11

GFSSGP_prec_precacc12_135.txt.gz
Total_Precipitation_Accumulation
0.00 0.05 0.08 0.89 0.99 0.08 0.01 0.00 0.00 0.00 0.00 0.01 0.01 0.03 0.05 0.20 0.14 0.11 0.01 0.00 0.00 0.00 0.00 0.02 0.10 0.06 0.09 0.15 0.12 0.16 0.10 0.09 0.11 0.08 0.08 0.06 0.05 0.05 0.05 0.08 0.07 0.04 0.05 0.04 0.10 0.17 0.17 0.08 0.05
0.03 0.07 0.19 0.75 0.23 0.01 0.00 0.00 0.00 0.00 0.00 0.01 0.02 0.01 0.01 0.00 0.00 0.00 0.00 0.00 0.00 0.01 0.01 0.01 0.10 0.15 0.19 0.15 0.10 0.07 0.08 0.13 0.14 0.16 0.11 0.07 0.05 0.06 0.07 0.03 0.02 0.07 0.11 0.06 0.07 0.05 0.03 0.03 0.03
0.11 0.18 0.61 0.89 0.04 0.00 0.00 0.00 0.00 0.00 0.00 0.01 0.00 0.00 0.00 0.00 0.00 0.00 0.00 0.01 0.04 0.11 0.04 0.01 0.11 0.17 0.19 0.09 0.08 0.06 0.09 0.13 0.14 0.12 0.09 0.08 0.04 0.04 0.04 0.06 0.02 0.06 0.05 0.07 0.04 0.04 0.02 0.00 0.00
0.20 0.52 1.38 0.15 0.00 0.00 0.00 0.00 0.00 0.00 0.00 0.01 0.00 0.00 0.00 0.00 0.00 0.00 0.00 0.03 0.15 0.15 0.01 0.02 0.07 0.15 0.15 0.06 0.08 0.17 0.20 0.24 0.12 0.10 0.04 0.05 0.03 0.02 0.01 0.01 0.01 0.03 0.03 0.05 0.01 0.01 0.00 0.00 0.00
0.31 0.44 1.08 0.07 0.00 0.00 0.00 0.00 0.00 0.05 0.00 0.01 0.00 0.00 0.00 0.00 0.00 0.00 0.00 0.03 0.05 0.05 0.01 0.00 0.04 0.09 0.11 0.10 0.13 0.19 0.17 0.13 0.04 0.03 0.04 0.05 0.03 0.01 0.00 0.01 0.00 0.00 0.00 0.00 0.00 0.00 0.00 0.00 0.00
0.42 0.62 0.40 0.03 0.00 0.00 0.00 0.00 0.00 0.00 0.05 0.01 0.00 0.00 0.00 0.00 0.00 0.01 0.01 0.03 0.06 0.01 0.02 0.00 0.00 0.04 0.13 0.11 0.13 0.11 0.06 0.05 0.06 0.04 0.02 0.00 0.01 0.01 0.00 0.00 0.00 0.00 0.00 0.00 0.00 0.00 0.00 0.00 0.00
1.26 0.83 0.09 0.03 0.01 0.00 0.00 0.00 0.01 0.00 0.00 0.01 0.00 0.00 0.00 0.00 0.00 0.03 0.02 0.08 0.19 0.03 0.01 0.00 0.00 0.03 0.10 0.17 0.09 0.07 0.05 0.03 0.01 0.03 0.03 0.02 0.01 0.00 0.00 0.00 0.00 0.00 0.00 0.00 0.00 0.00 0.00 0.00 0.00
1.03 0.39 0.10 0.04 0.02 0.01 0.00 0.00 0.00 0.01 0.01 0.00 0.00 0.00 0.00 0.00 0.00 0.03 0.08 0.05 0.07 0.08 0.03 0.01 0.01 0.04 0.19 0.08 0.13 0.09 0.06 0.03 0.02 0.03 0.03 0.01 0.00 0.00 0.00 0.00 0.00 0.00 0.00 0.00 0.00 0.00 0.00 0.00 0.00
0.33 0.76 0.35 0.17 0.03 0.00 0.00 0.00 0.00 0.00 0.00 0.01 0.02 0.01 0.00 0.00 0.00 0.03 0.01 0.05 0.07 0.08 0.13 0.20 0.15 0.03 0.14 0.20 0.13 0.08 0.04 0.03 0.07 0.05 0.07 0.08 0.00 0.00 0.00 0.00 0.00 0.00 0.00 0.00 0.00 0.00 0.00 0.00 0.00
1.15 0.71 0.62 0.33 0.11 0.02 0.01 0.00 0.00 0.00 0.00 0.00 0.01 0.00 0.00 0.00 0.01 0.01 0.00 0.01 0.01 0.01 0.40 0.74 0.61 0.10 0.04 0.13 0.13 0.13 0.05 0.06 0.06 0.07 0.24 0.26 0.02 0.00 0.00 0.00 0.00 0.00 0.00 0.00 0.00 0.00 0.00 0.00 0.00
0.91 0.36 0.10 0.14 0.23 0.02 0.00 0.00 0.00 0.00 0.00 0.00 0.02 0.00 0.00 0.00 0.01 0.00 0.01 0.00 0.02 0.09 0.13 1.00 0.51 0.51 0.02 0.01 0.07 0.05 0.01 0.01 0.01 0.05 0.09 0.02 0.02 0.03 0.00 0.00 0.00 0.00 0.00 0.00 0.00 0.00 0.00 0.00 0.00
0.43 0.13 0.03 0.02 0.15 0.04 0.02 0.00 0.00 0.01 0.00 0.00 0.00 0.00 0.00 0.00 0.00 0.00 0.00 0.00 0.04 0.05 0.13 0.16 0.17 0.30 0.10 0.09 0.17 0.12 0.02 0.00 0.01 0.02 0.01 0.02 0.08 0.21 0.04 0.00 0.00 0.00 0.00 0.00 0.00 0.00 0.00 0.00 0.00
0.49 0.15 0.01 0.00 0.08 0.21 0.03 0.01 0.00 0.01 0.00 0.00 0.00 0.00 0.00 0.00 0.00 0.01 0.00 0.00 0.00 0.01 0.05 0.07 0.08 0.15 0.14 0.35 0.33 0.09 0.05 0.00 0.01 0.00 0.37 0.20 0.05 0.02 0.01 0.00 0.00 0.00 0.00 0.00 0.00 0.00 0.00 0.00 0.00
0.33 0.11 0.01 0.03 0.10 0.07 0.34 0.05 0.01 0.00 0.00 0.00 0.00 0.00 0.00 0.00 0.00 0.02 0.00 0.00 0.00 0.00 0.07 0.01 0.02 0.02 0.07 0.14 0.21 0.03 0.04 0.00 0.00 0.00 0.03 0.04 0.01 0.00 0.00 0.01 0.01 0.01 0.01 0.00 0.00 0.00 0.00 0.00 0.00
0.11 0.17 0.20 0.09 0.08 0.07 0.54 0.50 0.03 0.01 0.00 0.00 0.00 0.00 0.00 0.00 0.02 0.00 0.00 0.00 0.00 0.00 0.00 0.00 0.01 0.03 0.02 0.00 0.01 0.04 0.06 0.00 0.01 0.00 0.00 0.00 0.01 0.00 0.03 0.06 0.04 0.06 0.05 0.00 0.00 0.00 0.00 0.00 0.00
0.31 0.16 0.30 0.09 0.03 0.07 0.24 0.42 0.08 0.00 0.00 0.00 0.00 0.00 0.00 0.00 0.00 0.00 0.00 0.00 0.00 0.00 0.00 0.00 0.00 0.01 0.00 0.00 0.00 0.06 0.02 0.01 0.02 0.00 0.00 0.00 0.02 0.05 0.10 0.13 0.04 0.07 0.04 0.02 0.01 0.00 0.00 0.00 0.00
0.12 0.17 0.36 0.15 0.01 0.09 0.15 0.30 0.18 0.07 0.00 0.00 0.00 0.00 0.00 0.00 0.00 0.00 0.00 0.00 0.00 0.00 0.00 0.00 0.00 0.00 0.03 0.00 0.03 0.02 0.02 0.01 0.06 0.03 0.00 0.00 0.03 0.07 0.18 0.73 0.16 0.31 0.72 0.18 0.06 0.00 0.00 0.00 0.00
0.05 0.08 0.24 0.45 0.06 0.16 0.18 0.25 0.50 0.12 0.02 0.01 0.00 0.00 0.00 0.00 0.00 0.00 0.00 0.00 0.00 0.00 0.00 0.00 0.01 0.00 0.00 0.01 0.02 0.00 0.09 0.05 0.02 0.03 0.04 0.02 0.07 0.06 0.15 0.45 0.16 0.98 0.42 0.40 0.18 0.04 0.06 0.01 0.02
0.00 0.01 0.24 0.63 0.10 0.19 0.28 0.23 0.64 0.36 0.12 0.01 0.00 0.00 0.00 0.00 0.00 0.00 0.00 0.00 0.00 0.00 0.00 0.01 0.04 0.07 0.04 0.00 0.00 0.02 0.01 0.02 0.00 0.02 0.04 0.09 0.10 0.19 0.25 0.19 0.17 1.06 1.01 0.52 0.23 0.31 0.11 0.10 0.03
0.00 0.02 0.09 0.48 0.08 0.14 0.33 0.19 0.25 0.29 0.17 0.03 0.01 0.00 0.00 0.00 0.00 0.00 0.00 0.00 0.00 0.00 0.00 0.00 0.04 0.03 0.04 0.01 0.01 0.02 0.03 0.01 0.01 0.00 0.00 0.01 0.02 0.09 0.05 0.24 1.11 0.80 0.33 0.24 0.22 0.20 0.23 0.22 0.07
0.00 0.01 0.07 0.14 0.04 0.10 0.24 0.23 0.17 0.09 0.25 0.25 0.02 0.00 0.00 0.00 0.00 0.00 0.00 0.00 0.00 0.00 0.00 0.00 0.00 0.05 0.14 0.11 0.05 0.05 0.05 0.07 0.06 0.03 0.01 0.02 0.01 0.01 0.08 0.13 0.18 0.36 1.11 0.55 0.16 0.45 0.20 0.66 0.18
0.00 0.00 0.01 0.04 0.16 0.34 0.19 0.35 0.19 0.12 0.30 1.04 0.20 0.00 0.01 0.00 0.00 0.00 0.00 0.00 0.00 0.00 0.00 0.00 0.00 0.02 0.02 0.07 0.09 0.08 0.02 0.02 0.04 0.02 0.02 0.03 0.02 0.02 0.03 0.03 0.05 0.14 0.17 0.21 0.19 0.22 0.12 0.12 0.54
0.00 0.00 0.00 0.00 0.01 0.13 0.12 0.23 0.29 0.12 0.16 0.44 0.39 0.01 0.01 0.00 0.00 0.00 0.00 0.00 0.00 0.00 0.00 0.00 0.00 0.03 0.03 0.07 0.19 0.09 0.03 0.24 0.08 0.04 0.06 0.02 0.02 0.00 0.01 0.02 0.02 0.02 0.04 0.10 0.04 0.05 0.07 0.06 0.18
0.00 0.00 0.00 0.00 0.01 0.07 0.07 0.06 0.29 0.13 0.04 0.08 0.10 0.03 0.00 0.00 0.00 0.00 0.00 0.00 0.00 0.00 0.00 0.00 0.00 0.01 0.04 0.07 0.08 0.07 0.13 0.28 0.09 0.11 0.05 0.01 0.01 0.00 0.00 0.02 0.06 0.03 0.04 0.04 0.04 0.02 0.03 0.05 0.09
0.00 0.00 0.01 0.08 0.03 0.14 0.17 0.14 0.13 0.03 0.01 0.03 0.04 0.03 0.01 0.00 0.00 0.00 0.00 0.00 0.00 0.00 0.00 0.00 0.00 0.00 0.00 0.01 0.01 0.05 0.08 0.09 0.06 0.07 0.02 0.01 0.01 0.00 0.01 0.08 0.09 0.04 0.07 0.05 0.02 0.07 0.02 0.02 0.03
0.00 0.00 0.01 0.16 0.09 0.13 0.15 0.20 0.25 0.02 0.02 0.05 0.05 0.08 0.04 0.00 0.03 0.01 0.00 0.00 0.00 0.00 0.00 0.00 0.00 0.00 0.00 0.00 0.00 0.01 0.08 0.06 0.01 0.03 0.01 0.03 0.02 0.03 0.13 0.13 0.11 0.04 0.03 0.03 0.03 0.02 0.02 0.02 0.10
0.00 0.00 0.01 0.03 0.05 0.02 0.16 0.45 0.16 0.04 0.02 0.02 0.03 0.11 0.13 0.03 0.07 0.03 0.00 0.00 0.00 0.00 0.00 0.00 0.00 0.00 0.00 0.00 0.00 0.01 0.03 0.01 0.01 0.07 0.06 0.06 0.03 0.10 0.27 0.13 0.09 0.09 0.06 0.05 0.04 0.02 0.02 0.02 0.04
0.01 0.05 0.01 0.01 0.07 0.06 0.13 0.35 0.49 0.16 0.45 0.09 0.02 0.06 0.32 0.17 0.10 0.06 0.00 0.00 0.00 0.00 0.00 0.00 0.00 0.00 0.00 0.00 0.00 0.00 0.00 0.00 0.03 0.15 0.15 0.06 0.11 0.33 0.47 0.15 0.09 0.07 0.11 0.12 0.15 0.09 0.08 0.08 0.03
0.02 0.02 0.00 0.02 0.04 0.21 0.27 0.18 0.30 1.01 0.28 0.06 0.07 0.02 0.24 0.35 0.11 0.04 0.00 0.00 0.00 0.00 0.00 0.00 0.00 0.00 0.00 0.00 0.00 0.00 0.00 0.00 0.02 0.07 0.12 0.06 0.08 0.11 0.10 0.13 0.07 0.05 0.13 0.14 0.23 0.16 0.08 0.11 0.09
0.17 0.11 0.13 0.03 0.14 0.27 0.31 0.17 0.05 0.44 0.26 0.04 0.06 0.04 0.15 0.26 0.17 0.07 0.04 0.01 0.03 0.00 0.00 0.00 0.00 0.00 0.00 0.00 0.00 0.00 0.00 0.00 0.00 0.02 0.02 0.04 0.05 0.05 0.05 0.11 0.10 0.05 0.04 0.06 0.20 0.11 0.09 0.21 0.10

GFSSGP_prec_precacc12_138.txt.gz
Total_Precipitation_Accumulation
0.01 0.05 0.08 0.89 1.00 0.10 0.01 0.00 0.00 0.00 0.00 0.01 0.02 0.03 0.09 0.23 0.14 0.08 0.01 0.00 0.00 0.00 0.00 0.03 0.05 0.06 0.06 0.02 0.07 0.11 0.09 0.06 0.06 0.06 0.06 0.04 0.04 0.04 0.05 0.08 0.06 0.03 0.03 0.02 0.06 0.11 0.09 0.05 0.02
0.03 0.07 0.19 0.75 0.23 0.01 0.00 0.00 0.00 0.00 0.01 0.02 0.03 0.01 0.03 0.06 0.01 0.00 0.00 0.00 0.00 0.01 0.03 0.05 0.08 0.07 0.04 0.02 0.05 0.05 0.07 0.07 0.07 0.09 0.06 0.03 0.04 0.05 0.06 0.02 0.02 0.07 0.07 0.02 0.01 0.02 0.03 0.02 0.02
0.13 0.18 0.62 0.89 0.04 0.00 0.00 0.00 0.00 0.00 0.00 0.01 0.00 0.00 0.00 0.00 0.00 0.00 0.00 0.01 0.04 0.11 0.05 0.03 0.05 0.06 0.06 0.06 0.07 0.09 0.07 0.07 0.07 0.07 0.06 0.05 0.04 0.03 0.04 0.06 0.02 0.02 0.02 0.04 0.02 0.00 0.00 0.00 0.01
0.23 0.60 1.45 0.19 0.00 0.00 0.00 0.00 0.00 0.00 0.00 0.01 0.00 0.00 0.00 0.00 0.00 0.00 0.00 0.04 0.16 0.18 0.07 0.05 0.07 0.09 0.05 0.05 0.09 0.16 0.15 0.17 0.09 0.09 0.05 0.04 0.05 0.02 0.04 0.02 0.01 0.02 0.02 0.02 0.01 0.00 0.00 0.00 0.00
0.37 0.47 1.10 0.08 0.00 0.00 0.00 0.00 0.00 0.05 0.00 0.01 0.00 0.00 0.00 0.00 0.00 0.00 0.00 0.03 0.07 0.06 0.05 0.03 0.06 0.08 0.04 0.07 0.13 0.17 0.14 0.10 0.04 0.03 0.04 0.07 0.03 0.03 0.04 0.04 0.01 0.00 0.00 0.00 0.00 0.00 0.00 0.00 0.00
0.44 0.64 0.41 0.04 0.00 0.00 0.00 0.01 0.00 0.00 0.05 0.01 0.00 0.00 0.00 0.00 0.00 0.01 0.02 0.04 0.07 0.01 0.02 0.00 0.01 0.03 0.04 0.07 0.09 0.09 0.05 0.04 0.06 0.03 0.03 0.02 0.01 0.03 0.00 0.00 0.00 0.00 0.00 0.00 0.00 0.00 0.00 0.00 0.00
1.31 0.91 0.20 0.15 0.04 0.00 0.00 0.01 0.01 0.00 0.00 0.01 0.00 0.00 0.00 0.01 0.00 0.03 0.09 0.19 0.20 0.06 0.02 0.00 0.00 0.02 0.03 0.09 0.06 0.03 0.01 0.01 0.00 0.03 0.02 0.01 0.00 0.00 0.00 0.00 0.00 0.00 0.00 0.00 0.00 0.00 0.00 0.00 0.00
1.12 0.56 0.34 0.16 0.08 0.02 0.00 0.00 0.00 0.01 0.01 0.00 0.00 0.00 0.01 0.02 0.00 0.03 0.11 0.10 0.15 0.16 0.12 0.04 0.00 0.00 0.07 0.05 0.09 0.05 0.02 0.00 0.01 0.02 0.01 0.00 0.00 0.00 0.00 0.00 0.00 0.00 0.00 0.00 0.00 0.00 0.00 0.00 0.00
0.59 0.86 0.99 0.27 0.10 0.03 0.00 0.00 0.00 0.00 0.00 0.01 0.02 0.01 0.00 0.00 0.00 0.03 0.02 0.07 0.09 0.15 0.19 0.21 0.15 0.03 0.14 0.13 0.08 0.04 0.00 0.01 0.06 0.03 0.06 0.07 0.00 0.00 0.00 0.00 0.00 0.00 0.00 0.00 0.00 0.00 0.00 0.00 0.00
1.20 0.79 0.75 0.40 0.17 0.04 0.01 0.01 0.00 0.00 0.00 0.00 0.01 0.00 0.00 0.00 0.01 0.01 0.00 0.01 0.01 0.03 0.42 0.74 0.61 0.10 0.05 0.05 0.11 0.08 0.03 0.08 0.08 0.08 0.26 0.26 0.02 0.00 0.00 0.00 0.00 0.00 0.00 0.00 0.00 0.00 0.00 0.00 0.00
0.92 0.36 0.20 0.26 0.40 0.06 0.01 0.01 0.00 0.00 0.00 0.00 0.02 0.00 0.00 0.01 0.01 0.00 0.01 0.00 0.03 0.10 0.13 1.00 0.52 0.53 0.04 0.03 0.10 0.06 0.03 0.02 0.01 0.05 0.09 0.02 0.02 0.03 0.00 0.00 0.00 0.00 0.00 0.00 0.00 0.00 0.00 0.00 0.00
0.56 0.16 0.01 0.05 0.30 0.15 0.09 0.02 0.00 0.01 0.00 0.00 0.00 0.00 0.00 0.00 0.00 0.00 0.01 0.00 0.05 0.05 0.13 0.16 0.20 0.31 0.12 0.13 0.18 0.14 0.03 0.01 0.02 0.03 0.01 0.02 0.08 0.21 0.04 0.00 0.00 0.00 0.01 0.02 0.00 0.00 0.00 0.00 0.00
0.48 0.29 0.07 0.02 0.15 0.31 0.09 0.02 0.00 0.01 0.00 0.00 0.00 0.00 0.00 0.00 0.00 0.02 0.02 0.03 0.02 0.04 0.06 0.07 0.09 0.17 0.15 0.39 0.34 0.09 0.07 0.05 0.03 0.03 0.37 0.20 0.05 0.02 0.01 0.01 0.02 0.01 0.02 0.02 0.01 0.01 0.00 0.00 0.00
0.32 0.25 0.03 0.06 0.17 0.09 0.37 0.05 0.01 0.00 0.00 0.00 0.00 0.00 0.00 0.02 0.01 0.03 0.04 0.04 0.01 0.01 0.07 0.02 0.03 0.04 0.07 0.16 0.23 0.03 0.04 0.01 0.03 0.01 0.06 0.07 0.02 0.01 0.04 0.04 0.04 0.04 0.04 0.01 0.00 0.00 0.00 0.00 0.00
0.14 0.14 0.15 0.09 0.12 0.11 0.52 0.42 0.03 0.01 0.00 0.00 0.00 0.00 0.01 0.01 0.02 0.00 0.01 0.02 0.00 0.00 0.01 0.00 0.02 0.05 0.03 0.00 0.04 0.04 0.08 0.01 0.01 0.01 0.03 0.01 0.01 0.01 0.05 0.07 0.04 0.09 0.13 0.06 0.01 0.01 0.00 0.00 0.00
0.60 0.28 0.28 0.08 0.03 0.05 0.15 0.44 0.09 0.01 0.00 0.00 0.00 0.00 0.00 0.01 0.00 0.00 0.01 0.00 0.00 0.00 0.00 0.01 0.01 0.01 0.03 0.01 0.01 0.06 0.03 0.02 0.04 0.00 0.00 0.01 0.02 0.05 0.10 0.13 0.04 0.08 0.05 0.03 0.01 0.00 0.00 0.00 0.00
0.22 0.21 0.35 0.16 0.01 0.01 0.08 0.15 0.18 0.11 0.01 0.00 0.00 0.00 0.00 0.00 0.00 0.00 0.00 0.00 0.00 0.00 0.00 0.00 0.00 0.00 0.03 0.00 0.05 0.03 0.05 0.04 0.07 0.04 0.00 0.02 0.03 0.07 0.19 0.74 0.16 0.31 0.72 0.18 0.06 0.01 0.00 0.00 0.00
0.07 0.06 0.22 0.44 0.06 0.05 0.07 0.12 0.47 0.13 0.02 0.01 0.00 0.00 0.00 0.00 0.00 0.00 0.00 0.00 0.00 0.00 0.00 0.00 0.00 0.00 0.00 0.02 0.09 0.01 0.14 0.08 0.02 0.03 0.05 0.04 0.07 0.06 0.15 0.45 0.16 0.98 0.42 0.40 0.18 0.04 0.08 0.02 0.03
0.00 0.01 0.23 0.63 0.10 0.07 0.09 0.11 0.55 0.36 0.12 0.02 0.00 0.00 0.00 0.00 0.00 0.00 0.00 0.00 0.00 0.00 0.00 0.00 0.01 0.03 0.03 0.01 0.02 0.02 0.01 0.03 0.01 0.02 0.05 0.10 0.10 0.20 0.24 0.19 0.17 1.06 1.01 0.55 0.26 0.40 0.13 0.11 0.05
0.00 0.00 0.05 0.46 0.08 0.04 0.16 0.14 0.21 0.29 0.17 0.04 0.01 0.00 0.00 0.00 0.00 0.00 0.00 0.00 0.00 0.00 0.00 0.00 0.01 0.01 0.01 0.01 0.01 0.02 0.01 0.02 0.01 0.01 0.00 0.03 0.05 0.10 0.04 0.24 1.11 0.80 0.33 0.24 0.24 0.25 0.23 0.24 0.09
0.00 0.01 0.04 0.08 0.03 0.05 0.14 0.19 0.16 0.08 0.25 0.25 0.02 0.00 0.00 0.00 0.00 0.00 0.00 0.00 0.00 0.00 0.00 0.00 0.00 0.02 0.03 0.06 0.06 0.06 0.03 0.04 0.04 0.03 0.00 0.02 0.03 0.01 0.08 0.13 0.18 0.36 1.11 0.55 0.16 0.45 0.20 0.66 0.18
0.00 0.00 0.00 0.01 0.10 0.27 0.10 0.24 0.18 0.11 0.26 1.04 0.20 0.00 0.01 0.00 0.00 0.00 0.00 0.00 0.00 0.00 0.00 0.00 0.00 0.01 0.00 0.03 0.07 0.06 0.01 0.03 0.03 0.00 0.00 0.00 0.01 0.03 0.04 0.03 0.05 0.14 0.17 0.21 0.19 0.22 0.13 0.12 0.54
0.00 0.00 0.00 0.00 0.01 0.11 0.10 0.19 0.27 0.11 0.12 0.44 0.39 0.01 0.01 0.00 0.00 0.00 0.00 0.00 0.00 0.00 0.00 0.00 0.00 0.03 0.03 0.04 0.08 0.03 0.02 0.24 0.08 0.03 0.03 0.00 0.01 0.00 0.02 0.02 0.01 0.02 0.04 0.10 0.05 0.08 0.10 0.07 0.18
0.00 0.00 0.00 0.00 0.01 0.05 0.06 0.06 0.27 0.13 0.03 0.06 0.10 0.03 0.00 0.00 0.00 0.00 0.00 0.00 0.00 0.00 0.00 0.00 0.00 0.01 0.04 0.05 0.03 0.04 0.06 0.24 0.07 0.06 0.03 0.01 0.00 0.00 0.01 0.03 0.01 0.01 0.02 0.03 0.03 0.03 0.04 0.04 0.06
0.00 0.00 0.00 0.03 0.01 0.12 0.17 0.16 0.15 0.03 0.01 0.02 0.04 0.03 0.01 0.00 0.00 0.00 0.00 0.00 0.00 0.00 0.00 0.00 0.00 0.00 0.00 0.01 0.00 0.03 0.03 0.06 0.03 0.02 0.01 0.02 0.01 0.00 0.01 0.02 0.04 0.01 0.01 0.01 0.01 0.04 0.02 0.02 0.03
0.00 0.00 0.00 0.10 0.06 0.11 0.13 0.18 0.24 0.02 0.02 0.05 0.05 0.08 0.05 0.01 0.04 0.01 0.00 0.00 0.00 0.00 0.00 0.00 0.00 0.00 0.00 0.00 0.00 0.01 0.02 0.02 0.01 0.01 0.01 0.02 0.02 0.03 0.13 0.14 0.11 0.04 0.03 0.02 0.01 0.01 0.02 0.03 0.11
0.00 0.00 0.01 0.02 0.05 0.01 0.15 0.45 0.16 0.04 0.02 0.03 0.05 0.13 0.13 0.04 0.08 0.04 0.01 0.00 0.00 0.00 0.00 0.00 0.00 0.00 0.00 0.00 0.00 0.01 0.02 0.00 0.02 0.04 0.03 0.04 0.03 0.10 0.28 0.15 0.09 0.05 0.04 0.02 0.05 0.02 0.02 0.02 0.05
0.01 0.05 0.00 0.00 0.03 0.04 0.13 0.36 0.50 0.15 0.46 0.16 0.14 0.11 0.34 0.19 0.12 0.11 0.03 0.00 0.00 0.00 0.00 0.00 0.00 0.00 0.00 0.00 0.00 0.00 0.00 0.00 0.03 0.10 0.11 0.06 0.11 0.32 0.45 0.15 0.08 0.05 0.09 0.09 0.08 0.08 0.08 0.07 0.03
0.02 0.02 0.00 0.00 0.03 0.19 0.25 0.19 0.32 1.00 0.28 0.08 0.16 0.14 0.28 0.40 0.16 0.11 0.01 0.00 0.01 0.00 0.00 0.00 0.00 0.00 0.00 0.00 0.00 0.00 0.00 0.00 0.02 0.06 0.07 0.06 0.08 0.11 0.10 0.13 0.07 0.04 0.11 0.12 0.15 0.12 0.08 0.10 0.07
0.17 0.11 0.12 0.02 0.11 0.27 0.31 0.17 0.05 0.44 0.28 0.05 0.11 0.15 0.24 0.37 0.23 0.18 0.07 0.02 0.03 0.01 0.00 0.00 0.00 0.00 0.00 0.00 0.00 0.00 0.00 0.00 0.00 0.02 0.02 0.04 0.05 0.05 0.05 0.11 0.10 0.05 0.04 0.04 0.11 0.07 0.09 0.20 0.09

GFSSGP_prec_precacc12_141.txt.gz
Total_Precipitation_Accumulation
0.01 0.05 0.08 0.89 0.92 0.09 0.00 0.00 0.00 0.00 0.01 0.03 0.02 0.05 0.16 0.28 0.11 0.03 0.01 0.00 0.00 0.00 0.00 0.04 0.06 0.09 0.11 0.12 0.12 0.16 0.09 0.07 0.08 0.05 0.04 0.04 0.03 0.03 0.02 0.06 0.08 0.11 0.07 0.02 0.03 0.04 0.03 0.01 0.01
0.04 0.07 0.19 0.72 0.18 0.01 0.00 0.00 0.00 0.00 0.02 0.06 0.03 0.02 0.13 0.14 0.01 0.00 0.00 0.00 0.00 0.01 0.08 0.10 0.16 0.17 0.15 0.15 0.16 0.20 0.11 0.10 0.07 0.07 0.07 0.04 0.04 0.04 0.03 0.03 0.06 0.13 0.09 0.06 0.02 0.02 0.02 0.02 0.06
0.13 0.18 0.62 0.86 0.02 0.00 0.00 0.00 0.00 0.00 0.00 0.00 0.00 0.00 0.00 0.00 0.00 0.00 0.00 0.00 0.01 0.08 0.06 0.04 0.12 0.09 0.07 0.11 0.12 0.16 0.11 0.06 0.05 0.06 0.07 0.06 0.05 0.05 0.07 0.06 0.07 0.06 0.06 0.04 0.01 0.00 0.01 0.03 0.07
0.23 0.60 1.45 0.19 0.00 0.00 0.00 0.00 0.00 0.00 0.00 0.01 0.00 0.00 0.00 0.00 0.00 0.00 0.00 0.02 0.14 0.12 0.07 0.06 0.07 0.09 0.07 0.09 0.08 0.09 0.14 0.07 0.05 0.05 0.04 0.04 0.11 0.06 0.04 0.02 0.03 0.02 0.01 0.02 0.00 0.00 0.00 0.01 0.02
0.37 0.47 1.10 0.08 0.00 0.00 0.00 0.00 0.00 0.05 0.00 0.01 0.00 0.00 0.00 0.00 0.00 0.00 0.00 0.02 0.06 0.04 0.05 0.03 0.05 0.05 0.04 0.08 0.09 0.11 0.09 0.05 0.02 0.05 0.10 0.14 0.10 0.08 0.07 0.06 0.01 0.00 0.00 0.00 0.00 0.00 0.00 0.00 0.00
0.44 0.64 0.38 0.05 0.00 0.00 0.00 0.01 0.00 0.00 0.05 0.01 0.00 0.00 0.00 0.00 0.00 0.01 0.02 0.03 0.07 0.01 0.04 0.15 0.05 0.03 0.03 0.06 0.05 0.06 0.04 0.02 0.02 0.06 0.11 0.13 0.07 0.07 0.03 0.02 0.00 0.00 0.00 0.00 0.00 0.00 0.00 0.00 0.00
1.28 0.90 0.21 0.20 0.05 0.00 0.00 0.00 0.00 0.00 0.00 0.01 0.00 0.00 0.00 0.01 0.00 0.03 0.09 0.19 0.20 0.08 0.10 0.10 0.04 0.01 0.02 0.02 0.02 0.01 0.03 0.02 0.01 0.02 0.03 0.05 0.05 0.00 0.00 0.00 0.00 0.00 0.00 0.00 0.00 0.00 0.00 0.00 0.00
1.12 0.59 0.57 0.29 0.15 0.07 0.00 0.00 0.00 0.01 0.01 0.00 0.00 0.00 0.01 0.02 0.00 0.03 0.11 0.10 0.15 0.19 0.20 0.16 0.07 0.03 0.04 0.06 0.01 0.00 0.01 0.01 0.00 0.01 0.01 0.02 0.00 0.00 0.00 0.00 0.00 0.00 0.00 0.00 0.00 0.00 0.00 0.00 0.01
0.59 0.84 1.21 0.36 0.19 0.16 0.02 0.00 0.00 0.00 0.00 0.01 0.02 0.00 0.00 0.00 0.00 0.03 0.03 0.07 0.09 0.15 0.20 0.25 0.16 0.03 0.09 0.08 0.03 0.02 0.00 0.01 0.03 0.04 0.06 0.07 0.00 0.00 0.00 0.00 0.00 0.00 0.00 0.00 0.00 0.00 0.00 0.00 0.00
1.20 0.77 0.79 0.41 0.21 0.17 0.08 0.01 0.00 0.00 0.00 0.00 0.01 0.00 0.00 0.00 0.01 0.01 0.03 0.01 0.01 0.03 0.42 0.72 0.61 0.10 0.04 0.02 0.08 0.05 0.03 0.09 0.09 0.08 0.26 0.26 0.02 0.00 0.00 0.00 0.00 0.00 0.00 0.00 0.00 0.00 0.00 0.00 0.00
0.92 0.31 0.26 0.28 0.44 0.09 0.02 0.01 0.01 0.01 0.00 0.00 0.02 0.00 0.00 0.01 0.01 0.01 0.04 0.01 0.03 0.09 0.16 0.99 0.52 0.53 0.04 0.03 0.10 0.06 0.04 0.02 0.01 0.05 0.09 0.02 0.02 0.03 0.00 0.00 0.00 0.00 0.00 0.00 0.00 0.00 0.00 0.00 0.00
0.52 0.15 0.01 0.07 0.37 0.18 0.11 0.02 0.01 0.01 0.01 0.00 0.00 0.00 0.00 0.00 0.02 0.01 0.01 0.00 0.05 0.06 0.16 0.16 0.20 0.31 0.11 0.13 0.18 0.15 0.04 0.01 0.02 0.03 0.01 0.02 0.08 0.21 0.04 0.00 0.00 0.00 0.01 0.02 0.00 0.00 0.00 0.00 0.00
0.48 0.30 0.09 0.02 0.28 0.39 0.16 0.08 0.01 0.02 0.01 0.00 0.00 0.00 0.00 0.00 0.01 0.03 0.02 0.03 0.02 0.04 0.06 0.07 0.09 0.17 0.15 0.39 0.34 0.09 0.07 0.05 0.03 0.03 0.37 0.20 0.05 0.02 0.01 0.01 0.02 0.01 0.02 0.02 0.01 0.01 0.00 0.00 0.00
0.33 0.30 0.10 0.11 0.25 0.15 0.46 0.11 0.02 0.00 0.00 0.00 0.00 0.00 0.01 0.02 0.01 0.03 0.05 0.06 0.02 0.01 0.07 0.02 0.02 0.04 0.07 0.16 0.23 0.03 0.04 0.01 0.03 0.02 0.08 0.08 0.03 0.01 0.04 0.04 0.04 0.04 0.04 0.01 0.00 0.00 0.00 0.00 0.00
0.18 0.23 0.20 0.11 0.19 0.20 0.51 0.44 0.04 0.00 0.00 0.00 0.00 0.00 0.02 0.01 0.02 0.00 0.02 0.04 0.02 0.00 0.01 0.00 0.02 0.05 0.03 0.00 0.04 0.04 0.08 0.01 0.01 0.01 0.07 0.03 0.02 0.01 0.05 0.07 0.04 0.09 0.13 0.06 0.01 0.01 0.00 0.00 0.00
0.61 0.27 0.19 0.07 0.03 0.05 0.14 0.53 0.11 0.02 0.00 0.00 0.00 0.00 0.01 0.01 0.00 0.00 0.02 0.04 0.02 0.00 0.03 0.01 0.01 0.01 0.03 0.01 0.01 0.07 0.03 0.02 0.04 0.01 0.01 0.01 0.03 0.05 0.10 0.13 0.04 0.08 0.05 0.03 0.01 0.00 0.00 0.00 0.00
0.24 0.19 0.28 0.11 0.01 0.01 0.06 0.19 0.25 0.16 0.03 0.00 0.00 0.00 0.00 0.00 0.00 0.00 0.01 0.00 0.00 0.01 0.03 0.00 0.00 0.00 0.03 0.01 0.05 0.05 0.06 0.04 0.07 0.04 0.00 0.02 0.03 0.07 0.19 0.74 0.16 0.27 0.69 0.17 0.06 0.01 0.00 0.00 0.00
0.05 0.07 0.20 0.38 0.05 0.05 0.05 0.09 0.28 0.14 0.03 0.00 0.00 0.00 0.00 0.00 0.00 0.00 0.01 0.01 0.00 0.01 0.01 0.00 0.00 0.00 0.01 0.02 0.11 0.01 0.15 0.10 0.02 0.03 0.05 0.04 0.07 0.06 0.15 0.45 0.16 0.63 0.31 0.40 0.18 0.04 0.08 0.02 0.03
0.00 0.01 0.21 0.61 0.10 0.07 0.08 0.09 0.45 0.33 0.11 0.01 0.00 0.00 0.00 0.00 0.00 0.00 0.01 0.00 0.00 0.00 0.00 0.00 0.00 0.00 0.00 0.01 0.03 0.03 0.03 0.05 0.01 0.02 0.05 0.10 0.10 0.20 0.24 0.19 0.17 1.00 0.94 0.54 0.26 0.40 0.13 0.11 0.05
0.00 0.00 0.04 0.43 0.08 0.03 0.05 0.02 0.09 0.26 0.17 0.08 0.01 0.00 0.00 0.00 0.00 0.00 0.00 0.00 0.00 0.00 0.00 0.00 0.01 0.00 0.00 0.01 0.02 0.02 0.01 0.02 0.01 0.01 0.01 0.03 0.05 0.10 0.04 0.24 1.11 0.79 0.31 0.24 0.24 0.25 0.23 0.24 0.09
0.00 0.00 0.01 0.05 0.02 0.02 0.06 0.02 0.01 0.02 0.21 0.24 0.02 0.02 0.00 0.00 0.00 0.00 0.00 0.00 0.00 0.00 0.00 0.00 0.00 0.01 0.01 0.03 0.06 0.05 0.04 0.05 0.05 0.03 0.00 0.02 0.03 0.01 0.08 0.13 0.16 0.36 1.11 0.54 0.16 0.45 0.20 0.62 0.18
0.00 0.00 0.00 0.00 0.02 0.12 0.06 0.01 0.05 0.04 0.18 1.02 0.21 0.04 0.01 0.00 0.00 0.00 0.00 0.00 0.00 0.00 0.00 0.00 0.00 0.00 0.00 0.03 0.05 0.05 0.01 0.03 0.03 0.00 0.00 0.00 0.01 0.03 0.04 0.03 0.05 0.14 0.17 0.21 0.19 0.22 0.13 0.12 0.54
0.00 0.00 0.00 0.00 0.00 0.04 0.06 0.01 0.16 0.09 0.06 0.41 0.41 0.03 0.02 0.00 0.00 0.00 0.00 0.00 0.00 0.00 0.00 0.00 0.00 0.03 0.03 0.04 0.05 0.02 0.02 0.23 0.08 0.03 0.03 0.00 0.01 0.01 0.03 0.02 0.01 0.02 0.04 0.09 0.05 0.08 0.10 0.07 0.18
0.00 0.00 0.00 0.02 0.03 0.02 0.02 0.02 0.11 0.12 0.03 0.06 0.12 0.03 0.01 0.00 0.01 0.00 0.02 0.00 0.00 0.00 0.00 0.00 0.00 0.01 0.04 0.02 0.02 0.04 0.06 0.24 0.07 0.05 0.02 0.01 0.00 0.00 0.01 0.03 0.01 0.01 0.02 0.03 0.03 0.02 0.04 0.04 0.06
0.00 0.00 0.00 0.01 0.00 0.09 0.11 0.12 0.08 0.03 0.01 0.01 0.03 0.03 0.02 0.09 0.09 0.07 0.00 0.00 0.00 0.00 0.00 0.00 0.00 0.00 0.00 0.01 0.00 0.03 0.03 0.06 0.03 0.02 0.01 0.01 0.01 0.00 0.01 0.02 0.04 0.01 0.01 0.01 0.01 0.02 0.02 0.02 0.03
0.00 0.00 0.00 0.08 0.05 0.07 0.10 0.14 0.13 0.02 0.02 0.05 0.05 0.09 0.05 0.06 0.11 0.07 0.01 0.00 0.01 0.00 0.00 0.00 0.00 0.00 0.00 0.00 0.00 0.01 0.02 0.01 0.01 0.01 0.01 0.01 0.02 0.02 0.13 0.14 0.11 0.04 0.03 0.02 0.01 0.01 0.02 0.02 0.10
0.00 0.00 0.00 0.02 0.04 0.01 0.09 0.44 0.14 0.04 0.02 0.03 0.05 0.14 0.14 0.04 0.09 0.06 0.03 0.02 0.01 0.00 0.00 0.00 0.00 0.00 0.00 0.00 0.00 0.01 0.02 0.00 0.01 0.04 0.02 0.03 0.03 0.09 0.27 0.16 0.09 0.04 0.03 0.02 0.04 0.02 0.02 0.01 0.05
0.00 0.01 0.00 0.00 0.01 0.01 0.10 0.33 0.46 0.14 0.46 0.16 0.16 0.15 0.38 0.19 0.12 0.11 0.03 0.01 0.00 0.00 0.00 0.00 0.00 0.00 0.00 0.00 0.00 0.00 0.00 0.00 0.03 0.10 0.11 0.06 0.11 0.30 0.40 0.14 0.07 0.04 0.08 0.07 0.06 0.07 0.08 0.05 0.03
0.01 0.01 0.00 0.00 0.02 0.11 0.19 0.16 0.32 0.97 0.27 0.08 0.16 0.15 0.28 0.41 0.16 0.16 0.05 0.00 0.01 0.00 0.00 0.00 0.00 0.00 0.00 0.00 0.00 0.00 0.00 0.00 0.02 0.06 0.07 0.06 0.08 0.11 0.08 0.12 0.07 0.04 0.05 0.04 0.06 0.07 0.08 0.08 0.06
0.02 0.07 0.01 0.02 0.10 0.16 0.20 0.16 0.05 0.44 0.28 0.05 0.11 0.19 0.18 0.31 0.26 0.21 0.12 0.03 0.04 0.02 0.00 0.00 0.00 0.00 0.00 0.00 0.00 0.00 0.00 0.00 0.00 0.02 0.02 0.04 0.05 0.05 0.05 0.09 0.09 0.05 0.04 0.04 0.06 0.02 0.08 0.13 0.08

GFSSGP_prec_precacc12_144.txt.gz
Total_Precipitation_Accumulation
0.01 0.04 0.05 0.27 0.23 0.05 0.00 0.00 0.00 0.00 0.00 0.04 0.02 0.06 0.16 0.16 0.04 0.00 0.00 0.00 0.00 0.00 0.00 0.04 0.06 0.09 0.08 0.15 0.16 0.18 0.18 0.16 0.17 0.15 0.04 0.03 0.04 0.04 0.02 0.04 0.08 0.18 0.07 0.02 0.01 0.01 0.01 0.00 0.00
0.03 0.03 0.09 0.03 0.02 0.00 0.00 0.00 0.00 0.00 0.02 0.06 0.01 0.04 0.16 0.16 0.01 0.00 0.00 0.00 0.00 0.00 0.07 0.11 0.20 0.21 0.20 0.19 0.18 0.21 0.23 0.26 0.19 0.12 0.04 0.02 0.05 0.03 0.06 0.08 0.08 0.19 0.16 0.14 0.03 0.01 0.01 0.04 0.08
0.11 0.16 0.16 0.02 0.01 0.00 0.00 0.00 0.00 0.00 0.00 0.00 0.00 0.01 0.00 0.00 0.00 0.00 0.00 0.00 0.00 0.05 0.05 0.07 0.19 0.17 0.18 0.20 0.17 0.25 0.28 0.24 0.10 0.08 0.06 0.05 0.04 0.07 0.18 0.16 0.13 0.15 0.11 0.08 0.03 0.03 0.03 0.08 0.11
0.21 0.60 1.36 0.16 0.00 0.00 0.00 0.00 0.00 0.00 0.00 0.00 0.00 0.00 0.00 0.00 0.00 0.00 0.00 0.00 0.03 0.04 0.11 0.17 0.14 0.18 0.15 0.11 0.09 0.14 0.37 0.28 0.14 0.08 0.05 0.05 0.17 0.18 0.20 0.17 0.12 0.04 0.02 0.00 0.01 0.05 0.10 0.11 0.09
0.37 0.33 0.73 0.07 0.00 0.00 0.00 0.00 0.00 0.02 0.00 0.00 0.00 0.00 0.00 0.00 0.00 0.00 0.00 0.02 0.04 0.02 0.07 0.16 0.16 0.13 0.07 0.11 0.10 0.10 0.23 0.22 0.12 0.08 0.11 0.22 0.17 0.10 0.09 0.07 0.03 0.00 0.00 0.00 0.01 0.02 0.04 0.05 0.02
0.37 0.30 0.06 0.05 0.00 0.00 0.00 0.01 0.00 0.00 0.00 0.00 0.00 0.00 0.00 0.00 0.00 0.00 0.00 0.03 0.05 0.00 0.04 0.23 0.13 0.09 0.09 0.12 0.12 0.08 0.12 0.10 0.11 0.10 0.14 0.20 0.23 0.16 0.08 0.03 0.00 0.00 0.00 0.00 0.00 0.00 0.00 0.00 0.00
0.31 0.29 0.20 0.19 0.05 0.00 0.00 0.00 0.00 0.00 0.00 0.00 0.00 0.00 0.00 0.01 0.00 0.02 0.08 0.16 0.13 0.07 0.10 0.14 0.21 0.13 0.08 0.05 0.06 0.05 0.04 0.03 0.04 0.06 0.12 0.10 0.08 0.01 0.00 0.00 0.00 0.00 0.00 0.00 0.00 0.00 0.01 0.01 0.00
0.62 0.30 0.55 0.30 0.16 0.06 0.00 0.00 0.00 0.00 0.00 0.00 0.00 0.00 0.01 0.02 0.00 0.02 0.09 0.09 0.15 0.19 0.21 0.17 0.14 0.19 0.19 0.11 0.03 0.04 0.03 0.02 0.01 0.02 0.03 0.02 0.00 0.00 0.00 0.00 0.00 0.00 0.00 0.00 0.00 0.00 0.00 0.02 0.02
0.56 0.26 1.07 0.30 0.27 0.20 0.03 0.00 0.00 0.00 0.00 0.00 0.00 0.00 0.00 0.00 0.00 0.01 0.02 0.07 0.09 0.14 0.18 0.16 0.08 0.04 0.10 0.09 0.03 0.05 0.03 0.01 0.03 0.04 0.06 0.04 0.00 0.00 0.00 0.00 0.00 0.00 0.00 0.00 0.00 0.00 0.00 0.00 0.00
1.08 0.43 0.50 0.31 0.20 0.23 0.07 0.01 0.00 0.00 0.00 0.00 0.00 0.00 0.00 0.00 0.01 0.00 0.03 0.01 0.01 0.02 0.19 0.42 0.45 0.08 0.03 0.02 0.09 0.05 0.01 0.08 0.09 0.08 0.18 0.06 0.01 0.00 0.00 0.00 0.00 0.00 0.00 0.00 0.00 0.00 0.00 0.00 0.00
0.82 0.07 0.20 0.28 0.41 0.10 0.05 0.03 0.02 0.01 0.00 0.00 0.00 0.00 0.00 0.01 0.01 0.01 0.05 0.05 0.03 0.09 0.10 0.65 0.27 0.17 0.03 0.03 0.10 0.06 0.04 0.02 0.01 0.05 0.09 0.01 0.00 0.00 0.00 0.00 0.00 0.00 0.00 0.00 0.00 0.00 0.00 0.00 0.00
0.48 0.15 0.02 0.09 0.33 0.17 0.16 0.03 0.02 0.01 0.01 0.00 0.00 0.00 0.00 0.00 0.01 0.01 0.00 0.00 0.04 0.06 0.15 0.14 0.16 0.23 0.10 0.07 0.11 0.14 0.04 0.01 0.02 0.02 0.01 0.01 0.03 0.12 0.01 0.00 0.00 0.00 0.01 0.02 0.00 0.00 0.00 0.00 0.00
0.40 0.30 0.10 0.04 0.29 0.37 0.15 0.10 0.02 0.01 0.01 0.00 0.00 0.00 0.00 0.00 0.01 0.02 0.01 0.03 0.02 0.04 0.05 0.07 0.08 0.13 0.07 0.13 0.19 0.08 0.07 0.05 0.03 0.03 0.09 0.07 0.05 0.02 0.01 0.01 0.02 0.01 0.02 0.02 0.01 0.01 0.00 0.00 0.00
0.17 0.34 0.12 0.13 0.29 0.19 0.42 0.13 0.08 0.00 0.00 0.00 0.00 0.00 0.01 0.02 0.00 0.03 0.05 0.06 0.02 0.01 0.07 0.02 0.02 0.04 0.06 0.16 0.22 0.02 0.01 0.00 0.03 0.02 0.07 0.07 0.03 0.01 0.04 0.04 0.04 0.04 0.04 0.01 0.00 0.00 0.00 0.00 0.00
0.19 0.29 0.24 0.12 0.20 0.24 0.13 0.20 0.04 0.00 0.00 0.00 0.00 0.00 0.02 0.01 0.00 0.01 0.02 0.04 0.02 0.00 0.01 0.00 0.02 0.04 0.02 0.00 0.04 0.02 0.03 0.01 0.01 0.01 0.07 0.03 0.00 0.01 0.05 0.07 0.04 0.09 0.13 0.06 0.01 0.01 0.00 0.00 0.00
0.62 0.27 0.22 0.07 0.02 0.05 0.09 0.46 0.12 0.02 0.00 0.00 0.00 0.00 0.01 0.01 0.00 0.00 0.02 0.04 0.02 0.00 0.03 0.01 0.00 0.01 0.03 0.01 0.01 0.05 0.02 0.02 0.04 0.01 0.01 0.01 0.01 0.05 0.10 0.12 0.03 0.08 0.02 0.01 0.00 0.00 0.00 0.00 0.00
0.21 0.15 0.05 0.06 0.00 0.01 0.07 0.41 0.37 0.12 0.03 0.00 0.00 0.00 0.00 0.00 0.00 0.00 0.02 0.00 0.00 0.01 0.03 0.00 0.00 0.00 0.00 0.01 0.05 0.05 0.05 0.04 0.06 0.04 0.00 0.02 0.03 0.08 0.17 0.40 0.04 0.02 0.01 0.07 0.04 0.01 0.00 0.00 0.00
0.03 0.02 0.03 0.19 0.04 0.05 0.06 0.10 0.15 0.07 0.03 0.00 0.00 0.00 0.00 0.00 0.00 0.00 0.02 0.02 0.01 0.01 0.01 0.00 0.00 0.00 0.00 0.02 0.11 0.01 0.07 0.08 0.02 0.03 0.04 0.03 0.05 0.06 0.10 0.35 0.03 0.00 0.04 0.08 0.14 0.04 0.08 0.02 0.03
0.00 0.00 0.01 0.47 0.10 0.10 0.07 0.07 0.07 0.06 0.08 0.01 0.00 0.00 0.00 0.00 0.00 0.00 0.01 0.03 0.01 0.02 0.00 0.00 0.00 0.00 0.00 0.01 0.03 0.02 0.03 0.05 0.01 0.02 0.05 0.05 0.06 0.20 0.20 0.10 0.03 0.00 0.19 0.33 0.26 0.40 0.13 0.11 0.05
0.00 0.00 0.01 0.38 0.08 0.03 0.05 0.02 0.04 0.05 0.12 0.11 0.01 0.00 0.00 0.01 0.00 0.00 0.00 0.00 0.00 0.01 0.00 0.00 0.00 0.00 0.00 0.01 0.01 0.01 0.00 0.02 0.01 0.01 0.02 0.03 0.05 0.11 0.02 0.17 0.45 0.03 0.08 0.19 0.24 0.24 0.21 0.19 0.06
0.00 0.00 0.00 0.02 0.01 0.03 0.11 0.03 0.00 0.01 0.04 0.12 0.03 0.03 0.01 0.02 0.00 0.00 0.00 0.00 0.00 0.00 0.00 0.00 0.00 0.00 0.01 0.01 0.01 0.02 0.02 0.04 0.05 0.04 0.00 0.02 0.04 0.01 0.04 0.12 0.05 0.18 0.34 0.07 0.15 0.44 0.14 0.06 0.04
0.00 0.00 0.00 0.00 0.01 0.05 0.07 0.00 0.00 0.00 0.02 0.17 0.09 0.07 0.03 0.03 0.01 0.00 0.00 0.00 0.00 0.00 0.00 0.00 0.00 0.00 0.00 0.03 0.03 0.03 0.00 0.02 0.03 0.01 0.01 0.00 0.01 0.04 0.04 0.03 0.05 0.11 0.04 0.08 0.17 0.21 0.10 0.05 0.03
0.00 0.00 0.00 0.00 0.00 0.03 0.03 0.00 0.00 0.00 0.01 0.05 0.13 0.04 0.04 0.01 0.00 0.00 0.00 0.00 0.00 0.00 0.00 0.00 0.00 0.00 0.00 0.02 0.01 0.01 0.01 0.00 0.02 0.02 0.03 0.00 0.01 0.01 0.04 0.02 0.01 0.03 0.04 0.06 0.03 0.06 0.09 0.05 0.11
0.00 0.00 0.00 0.03 0.03 0.01 0.01 0.02 0.01 0.01 0.00 0.01 0.10 0.03 0.02 0.00 0.02 0.00 0.02 0.00 0.00 0.00 0.00 0.00 0.00 0.00 0.00 0.00 0.00 0.01 0.01 0.00 0.00 0.01 0.01 0.01 0.00 0.02 0.06 0.06 0.04 0.03 0.02 0.01 0.01 0.00 0.03 0.04 0.05
0.00 0.00 0.00 0.00 0.00 0.06 0.07 0.07 0.04 0.01 0.01 0.00 0.03 0.03 0.02 0.09 0.10 0.07 0.01 0.00 0.00 0.00 0.00 0.00 0.00 0.00 0.00 0.00 0.00 0.01 0.00 0.00 0.00 0.01 0.01 0.01 0.01 0.00 0.01 0.02 0.04 0.02 0.00 0.01 0.00 0.00 0.00 0.01 0.02
0.00 0.00 0.00 0.01 0.01 0.03 0.06 0.06 0.02 0.01 0.02 0.05 0.03 0.08 0.04 0.06 0.14 0.10 0.02 0.00 0.01 0.00 0.00 0.00 0.00 0.00 0.00 0.00 0.00 0.00 0.00 0.00 0.01 0.01 0.01 0.01 0.01 0.01 0.04 0.07 0.11 0.04 0.03 0.01 0.00 0.01 0.02 0.01 0.02
0.00 0.00 0.00 0.01 0.00 0.00 0.05 0.04 0.00 0.00 0.01 0.03 0.04 0.08 0.11 0.02 0.09 0.08 0.05 0.02 0.01 0.00 0.00 0.00 0.00 0.00 0.00 0.00 0.00 0.00 0.00 0.00 0.01 0.02 0.01 0.01 0.02 0.03 0.04 0.07 0.06 0.04 0.06 0.02 0.04 0.02 0.02 0.00 0.02
0.00 0.00 0.00 0.00 0.01 0.01 0.06 0.03 0.05 0.04 0.05 0.13 0.15 0.14 0.37 0.11 0.11 0.12 0.06 0.04 0.00 0.00 0.00 0.00 0.00 0.00 0.00 0.00 0.00 0.00 0.00 0.00 0.03 0.04 0.01 0.02 0.03 0.03 0.15 0.04 0.06 0.04 0.07 0.05 0.05 0.14 0.08 0.01 0.01
0.00 0.00 0.00 0.00 0.01 0.06 0.07 0.07 0.08 0.76 0.16 0.06 0.16 0.15 0.28 0.38 0.15 0.16 0.05 0.03 0.03 0.01 0.00 0.00 0.00 0.00 0.00 0.00 0.00 0.00 0.00 0.00 0.01 0.03 0.01 0.03 0.03 0.02 0.04 0.08 0.05 0.03 0.03 0.01 0.00 0.04 0.02 0.00 0.00
0.00 0.00 0.00 0.01 0.03 0.05 0.11 0.06 0.02 0.42 0.28 0.05 0.11 0.19 0.14 0.17 0.14 0.21 0.13 0.03 0.05 0.02 0.00 0.00 0.00 0.00 0.00 0.00 0.00 0.00 0.00 0.00 0.00 0.02 0.01 0.03 0.02 0.00 0.03 0.03 0.04 0.02 0.01 0.00 0.01 0.01 0.00 0.00 0.01